<?xml version="1.0" encoding="UTF-8" standalone="no" ?>
<gpx xmlns="http://www.topografix.com/GPX/1/1" xmlns:xsi="http://www.w3.org/2001/XMLSchema-instance" xsi:schemaLocation="http://www.topografix.com/GPX/1/1 http://www.topografix.com/GPX/1/1/gpx.xsd" version="1.1" creator="VisuGPX - https://www.visugpx.com">
  <metadata>
    <name>Gina Sud-25km</name>
    <desc><![CDATA[Ballade au alentour du village de Ginasservis]]></desc>
  </metadata>
  <trk>
    <name><![CDATA[Chemin de Machoutier]]></name>
    <desc><![CDATA[]]></desc>
    <trkseg>
      <trkpt lat="43.67026" lon="5.84142">
        <ele>461</ele>
        <time>2016-01-30T08:03:23.575Z</time>
      </trkpt>
      <trkpt lat="43.67033" lon="5.84138">
        <ele>475</ele>
        <time>2016-01-30T08:05:30.243Z</time>
      </trkpt>
      <trkpt lat="43.67034" lon="5.84136">
        <ele>475</ele>
        <time>2016-01-30T08:05:31.215Z</time>
      </trkpt>
      <trkpt lat="43.67039" lon="5.84128">
        <ele>475</ele>
        <time>2016-01-30T08:05:35.243Z</time>
      </trkpt>
      <trkpt lat="43.67041" lon="5.84126">
        <ele>474</ele>
        <time>2016-01-30T08:05:36.215Z</time>
      </trkpt>
      <trkpt lat="43.67046" lon="5.84119">
        <ele>475</ele>
        <time>2016-01-30T08:05:39.250Z</time>
      </trkpt>
      <trkpt lat="43.67048" lon="5.84116">
        <ele>474</ele>
        <time>2016-01-30T08:05:40.217Z</time>
      </trkpt>
      <trkpt lat="43.67053" lon="5.84107">
        <ele>474</ele>
        <time>2016-01-30T08:05:43.295Z</time>
      </trkpt>
      <trkpt lat="43.67055" lon="5.84104">
        <ele>473</ele>
        <time>2016-01-30T08:05:44.216Z</time>
      </trkpt>
      <trkpt lat="43.67059" lon="5.84098">
        <ele>472</ele>
        <time>2016-01-30T08:05:46.251Z</time>
      </trkpt>
      <trkpt lat="43.67061" lon="5.84094">
        <ele>472</ele>
        <time>2016-01-30T08:05:47.215Z</time>
      </trkpt>
      <trkpt lat="43.67067" lon="5.84085">
        <ele>471</ele>
        <time>2016-01-30T08:05:50.242Z</time>
      </trkpt>
      <trkpt lat="43.67069" lon="5.84082">
        <ele>471</ele>
        <time>2016-01-30T08:05:51.216Z</time>
      </trkpt>
      <trkpt lat="43.67074" lon="5.84075">
        <ele>471</ele>
        <time>2016-01-30T08:05:53.242Z</time>
      </trkpt>
      <trkpt lat="43.67077" lon="5.84071">
        <ele>471</ele>
        <time>2016-01-30T08:05:54.275Z</time>
      </trkpt>
      <trkpt lat="43.67082" lon="5.84063">
        <ele>471</ele>
        <time>2016-01-30T08:05:56.239Z</time>
      </trkpt>
      <trkpt lat="43.67085" lon="5.8406">
        <ele>470</ele>
        <time>2016-01-30T08:05:57.218Z</time>
      </trkpt>
      <trkpt lat="43.67089" lon="5.84052">
        <ele>470</ele>
        <time>2016-01-30T08:05:59.242Z</time>
      </trkpt>
      <trkpt lat="43.67092" lon="5.84048">
        <ele>469</ele>
        <time>2016-01-30T08:06:00.219Z</time>
      </trkpt>
      <trkpt lat="43.67096" lon="5.84041">
        <ele>469</ele>
        <time>2016-01-30T08:06:02.245Z</time>
      </trkpt>
      <trkpt lat="43.67098" lon="5.84038">
        <ele>469</ele>
        <time>2016-01-30T08:06:03.246Z</time>
      </trkpt>
      <trkpt lat="43.67102" lon="5.84031">
        <ele>469</ele>
        <time>2016-01-30T08:06:05.243Z</time>
      </trkpt>
      <trkpt lat="43.67104" lon="5.84028">
        <ele>469</ele>
        <time>2016-01-30T08:06:06.217Z</time>
      </trkpt>
      <trkpt lat="43.67109" lon="5.84022">
        <ele>469</ele>
        <time>2016-01-30T08:06:08.240Z</time>
      </trkpt>
      <trkpt lat="43.67111" lon="5.84019">
        <ele>469</ele>
        <time>2016-01-30T08:06:09.217Z</time>
      </trkpt>
      <trkpt lat="43.67116" lon="5.84012">
        <ele>469</ele>
        <time>2016-01-30T08:06:11.242Z</time>
      </trkpt>
      <trkpt lat="43.67118" lon="5.84008">
        <ele>469</ele>
        <time>2016-01-30T08:06:12.217Z</time>
      </trkpt>
      <trkpt lat="43.67123" lon="5.84002">
        <ele>470</ele>
        <time>2016-01-30T08:06:14.271Z</time>
      </trkpt>
      <trkpt lat="43.67125" lon="5.83998">
        <ele>470</ele>
        <time>2016-01-30T08:06:15.216Z</time>
      </trkpt>
      <trkpt lat="43.6713" lon="5.83992">
        <ele>470</ele>
        <time>2016-01-30T08:06:17.240Z</time>
      </trkpt>
      <trkpt lat="43.67132" lon="5.83989">
        <ele>470</ele>
        <time>2016-01-30T08:06:18.215Z</time>
      </trkpt>
      <trkpt lat="43.67138" lon="5.83983">
        <ele>470</ele>
        <time>2016-01-30T08:06:21.241Z</time>
      </trkpt>
      <trkpt lat="43.6714" lon="5.83982">
        <ele>470</ele>
        <time>2016-01-30T08:06:22.217Z</time>
      </trkpt>
      <trkpt lat="43.67146" lon="5.83974">
        <ele>471</ele>
        <time>2016-01-30T08:06:26.290Z</time>
      </trkpt>
      <trkpt lat="43.67148" lon="5.83972">
        <ele>471</ele>
        <time>2016-01-30T08:06:27.214Z</time>
      </trkpt>
      <trkpt lat="43.67154" lon="5.83963">
        <ele>472</ele>
        <time>2016-01-30T08:06:31.241Z</time>
      </trkpt>
      <trkpt lat="43.67155" lon="5.8396">
        <ele>472</ele>
        <time>2016-01-30T08:06:32.216Z</time>
      </trkpt>
      <trkpt lat="43.67161" lon="5.83951">
        <ele>472</ele>
        <time>2016-01-30T08:06:36.269Z</time>
      </trkpt>
      <trkpt lat="43.67163" lon="5.83948">
        <ele>472</ele>
        <time>2016-01-30T08:06:37.217Z</time>
      </trkpt>
      <trkpt lat="43.67168" lon="5.83941">
        <ele>471</ele>
        <time>2016-01-30T08:06:40.240Z</time>
      </trkpt>
      <trkpt lat="43.6717" lon="5.83938">
        <ele>471</ele>
        <time>2016-01-30T08:06:41.217Z</time>
      </trkpt>
      <trkpt lat="43.67176" lon="5.8393">
        <ele>472</ele>
        <time>2016-01-30T08:06:44.239Z</time>
      </trkpt>
      <trkpt lat="43.67178" lon="5.83927">
        <ele>472</ele>
        <time>2016-01-30T08:06:45.218Z</time>
      </trkpt>
      <trkpt lat="43.67184" lon="5.83918">
        <ele>472</ele>
        <time>2016-01-30T08:06:48.240Z</time>
      </trkpt>
      <trkpt lat="43.67186" lon="5.83916">
        <ele>472</ele>
        <time>2016-01-30T08:06:49.215Z</time>
      </trkpt>
      <trkpt lat="43.67192" lon="5.83908">
        <ele>473</ele>
        <time>2016-01-30T08:06:52.268Z</time>
      </trkpt>
      <trkpt lat="43.67193" lon="5.83905">
        <ele>473</ele>
        <time>2016-01-30T08:06:53.216Z</time>
      </trkpt>
      <trkpt lat="43.67191" lon="5.83893">
        <ele>473</ele>
        <time>2016-01-30T08:06:57.241Z</time>
      </trkpt>
      <trkpt lat="43.67188" lon="5.83891">
        <ele>473</ele>
        <time>2016-01-30T08:06:58.218Z</time>
      </trkpt>
      <trkpt lat="43.67181" lon="5.83885">
        <ele>473</ele>
        <time>2016-01-30T08:07:02.253Z</time>
      </trkpt>
      <trkpt lat="43.67179" lon="5.83884">
        <ele>474</ele>
        <time>2016-01-30T08:07:03.243Z</time>
      </trkpt>
      <trkpt lat="43.67173" lon="5.83877">
        <ele>475</ele>
        <time>2016-01-30T08:07:07.244Z</time>
      </trkpt>
      <trkpt lat="43.67172" lon="5.83876">
        <ele>475</ele>
        <time>2016-01-30T08:07:08.217Z</time>
      </trkpt>
      <trkpt lat="43.67167" lon="5.83868">
        <ele>477</ele>
        <time>2016-01-30T08:07:12.241Z</time>
      </trkpt>
      <trkpt lat="43.67166" lon="5.83866">
        <ele>476</ele>
        <time>2016-01-30T08:07:13.226Z</time>
      </trkpt>
      <trkpt lat="43.67159" lon="5.83859">
        <ele>477</ele>
        <time>2016-01-30T08:07:18.241Z</time>
      </trkpt>
      <trkpt lat="43.67158" lon="5.83857">
        <ele>477</ele>
        <time>2016-01-30T08:07:19.246Z</time>
      </trkpt>
      <trkpt lat="43.67152" lon="5.83849">
        <ele>478</ele>
        <time>2016-01-30T08:07:25.241Z</time>
      </trkpt>
      <trkpt lat="43.67152" lon="5.83847">
        <ele>478</ele>
        <time>2016-01-30T08:07:26.217Z</time>
      </trkpt>
      <trkpt lat="43.67155" lon="5.83836">
        <ele>479</ele>
        <time>2016-01-30T08:07:30.240Z</time>
      </trkpt>
      <trkpt lat="43.67155" lon="5.83834">
        <ele>479</ele>
        <time>2016-01-30T08:07:31.216Z</time>
      </trkpt>
      <trkpt lat="43.67158" lon="5.83824">
        <ele>479</ele>
        <time>2016-01-30T08:07:35.270Z</time>
      </trkpt>
      <trkpt lat="43.67158" lon="5.83821">
        <ele>479</ele>
        <time>2016-01-30T08:07:36.216Z</time>
      </trkpt>
      <trkpt lat="43.67163" lon="5.83811">
        <ele>480</ele>
        <time>2016-01-30T08:07:42.242Z</time>
      </trkpt>
      <trkpt lat="43.67163" lon="5.83809">
        <ele>480</ele>
        <time>2016-01-30T08:07:43.229Z</time>
      </trkpt>
      <trkpt lat="43.67166" lon="5.83798">
        <ele>480</ele>
        <time>2016-01-30T08:07:49.242Z</time>
      </trkpt>
      <trkpt lat="43.67166" lon="5.83796">
        <ele>480</ele>
        <time>2016-01-30T08:07:50.216Z</time>
      </trkpt>
      <trkpt lat="43.67169" lon="5.83785">
        <ele>482</ele>
        <time>2016-01-30T08:07:55.240Z</time>
      </trkpt>
      <trkpt lat="43.6717" lon="5.83783">
        <ele>482</ele>
        <time>2016-01-30T08:07:56.217Z</time>
      </trkpt>
      <trkpt lat="43.6717" lon="5.83771">
        <ele>481</ele>
        <time>2016-01-30T08:08:01.335Z</time>
      </trkpt>
      <trkpt lat="43.67169" lon="5.83769">
        <ele>482</ele>
        <time>2016-01-30T08:08:02.245Z</time>
      </trkpt>
      <trkpt lat="43.67173" lon="5.83758">
        <ele>481</ele>
        <time>2016-01-30T08:08:09.475Z</time>
      </trkpt>
      <trkpt lat="43.67174" lon="5.83758">
        <ele>481</ele>
        <time>2016-01-30T08:08:10.216Z</time>
      </trkpt>
      <trkpt lat="43.67179" lon="5.83749">
        <ele>481</ele>
        <time>2016-01-30T08:08:16.253Z</time>
      </trkpt>
      <trkpt lat="43.6718" lon="5.83747">
        <ele>481</ele>
        <time>2016-01-30T08:08:17.216Z</time>
      </trkpt>
      <trkpt lat="43.67182" lon="5.83737">
        <ele>481</ele>
        <time>2016-01-30T08:08:22.364Z</time>
      </trkpt>
      <trkpt lat="43.67182" lon="5.83734">
        <ele>481</ele>
        <time>2016-01-30T08:08:23.218Z</time>
      </trkpt>
      <trkpt lat="43.67184" lon="5.83724">
        <ele>481</ele>
        <time>2016-01-30T08:08:28.225Z</time>
      </trkpt>
      <trkpt lat="43.67185" lon="5.83722">
        <ele>481</ele>
        <time>2016-01-30T08:08:29.216Z</time>
      </trkpt>
      <trkpt lat="43.67189" lon="5.83711">
        <ele>482</ele>
        <time>2016-01-30T08:08:35.239Z</time>
      </trkpt>
      <trkpt lat="43.6719" lon="5.8371">
        <ele>482</ele>
        <time>2016-01-30T08:08:36.220Z</time>
      </trkpt>
      <trkpt lat="43.67191" lon="5.83699">
        <ele>482</ele>
        <time>2016-01-30T08:08:41.242Z</time>
      </trkpt>
      <trkpt lat="43.67192" lon="5.83697">
        <ele>482</ele>
        <time>2016-01-30T08:08:42.231Z</time>
      </trkpt>
      <trkpt lat="43.67197" lon="5.83687">
        <ele>481</ele>
        <time>2016-01-30T08:08:47.239Z</time>
      </trkpt>
      <trkpt lat="43.67197" lon="5.83685">
        <ele>482</ele>
        <time>2016-01-30T08:08:48.217Z</time>
      </trkpt>
      <trkpt lat="43.67199" lon="5.83673">
        <ele>482</ele>
        <time>2016-01-30T08:08:53.241Z</time>
      </trkpt>
      <trkpt lat="43.672" lon="5.83671">
        <ele>483</ele>
        <time>2016-01-30T08:08:54.217Z</time>
      </trkpt>
      <trkpt lat="43.67203" lon="5.83661">
        <ele>483</ele>
        <time>2016-01-30T08:08:58.239Z</time>
      </trkpt>
      <trkpt lat="43.67204" lon="5.83659">
        <ele>484</ele>
        <time>2016-01-30T08:08:59.228Z</time>
      </trkpt>
      <trkpt lat="43.67206" lon="5.83648">
        <ele>484</ele>
        <time>2016-01-30T08:09:04.241Z</time>
      </trkpt>
      <trkpt lat="43.67207" lon="5.83646">
        <ele>484</ele>
        <time>2016-01-30T08:09:05.216Z</time>
      </trkpt>
      <trkpt lat="43.67209" lon="5.83634">
        <ele>485</ele>
        <time>2016-01-30T08:09:10.241Z</time>
      </trkpt>
      <trkpt lat="43.67209" lon="5.83631">
        <ele>485</ele>
        <time>2016-01-30T08:09:11.215Z</time>
      </trkpt>
      <trkpt lat="43.67212" lon="5.83621">
        <ele>486</ele>
        <time>2016-01-30T08:09:15.239Z</time>
      </trkpt>
      <trkpt lat="43.67212" lon="5.83619">
        <ele>486</ele>
        <time>2016-01-30T08:09:16.219Z</time>
      </trkpt>
      <trkpt lat="43.67215" lon="5.8361">
        <ele>486</ele>
        <time>2016-01-30T08:09:20.241Z</time>
      </trkpt>
      <trkpt lat="43.67215" lon="5.83607">
        <ele>487</ele>
        <time>2016-01-30T08:09:21.215Z</time>
      </trkpt>
      <trkpt lat="43.67218" lon="5.83598">
        <ele>487</ele>
        <time>2016-01-30T08:09:25.465Z</time>
      </trkpt>
      <trkpt lat="43.67218" lon="5.83595">
        <ele>487</ele>
        <time>2016-01-30T08:09:26.216Z</time>
      </trkpt>
      <trkpt lat="43.67221" lon="5.83586">
        <ele>488</ele>
        <time>2016-01-30T08:09:30.246Z</time>
      </trkpt>
      <trkpt lat="43.67221" lon="5.83583">
        <ele>488</ele>
        <time>2016-01-30T08:09:31.218Z</time>
      </trkpt>
      <trkpt lat="43.67224" lon="5.83573">
        <ele>490</ele>
        <time>2016-01-30T08:09:35.241Z</time>
      </trkpt>
      <trkpt lat="43.67224" lon="5.83571">
        <ele>488</ele>
        <time>2016-01-30T08:09:36.216Z</time>
      </trkpt>
      <trkpt lat="43.67226" lon="5.8356">
        <ele>490</ele>
        <time>2016-01-30T08:09:40.239Z</time>
      </trkpt>
      <trkpt lat="43.67227" lon="5.83558">
        <ele>490</ele>
        <time>2016-01-30T08:09:41.215Z</time>
      </trkpt>
      <trkpt lat="43.67229" lon="5.83548">
        <ele>491</ele>
        <time>2016-01-30T08:09:45.275Z</time>
      </trkpt>
      <trkpt lat="43.67229" lon="5.83545">
        <ele>491</ele>
        <time>2016-01-30T08:09:46.224Z</time>
      </trkpt>
      <trkpt lat="43.67231" lon="5.83535">
        <ele>492</ele>
        <time>2016-01-30T08:09:50.242Z</time>
      </trkpt>
      <trkpt lat="43.67232" lon="5.83532">
        <ele>492</ele>
        <time>2016-01-30T08:09:51.216Z</time>
      </trkpt>
      <trkpt lat="43.67236" lon="5.83521">
        <ele>492</ele>
        <time>2016-01-30T08:09:55.239Z</time>
      </trkpt>
      <trkpt lat="43.67237" lon="5.83518">
        <ele>492</ele>
        <time>2016-01-30T08:09:56.246Z</time>
      </trkpt>
      <trkpt lat="43.67239" lon="5.83509">
        <ele>492</ele>
        <time>2016-01-30T08:09:59.252Z</time>
      </trkpt>
      <trkpt lat="43.6724" lon="5.83506">
        <ele>492</ele>
        <time>2016-01-30T08:10:00.217Z</time>
      </trkpt>
      <trkpt lat="43.67243" lon="5.83495">
        <ele>492</ele>
        <time>2016-01-30T08:10:04.242Z</time>
      </trkpt>
      <trkpt lat="43.67244" lon="5.83492">
        <ele>492</ele>
        <time>2016-01-30T08:10:05.220Z</time>
      </trkpt>
      <trkpt lat="43.67248" lon="5.83482">
        <ele>491</ele>
        <time>2016-01-30T08:10:09.250Z</time>
      </trkpt>
      <trkpt lat="43.67249" lon="5.83479">
        <ele>492</ele>
        <time>2016-01-30T08:10:10.216Z</time>
      </trkpt>
      <trkpt lat="43.67252" lon="5.83468">
        <ele>492</ele>
        <time>2016-01-30T08:10:14.254Z</time>
      </trkpt>
      <trkpt lat="43.67253" lon="5.83466">
        <ele>492</ele>
        <time>2016-01-30T08:10:15.219Z</time>
      </trkpt>
      <trkpt lat="43.67255" lon="5.83454">
        <ele>492</ele>
        <time>2016-01-30T08:10:19.241Z</time>
      </trkpt>
      <trkpt lat="43.67256" lon="5.83452">
        <ele>492</ele>
        <time>2016-01-30T08:10:20.217Z</time>
      </trkpt>
      <trkpt lat="43.67258" lon="5.8344">
        <ele>493</ele>
        <time>2016-01-30T08:10:24.253Z</time>
      </trkpt>
      <trkpt lat="43.67259" lon="5.83438">
        <ele>493</ele>
        <time>2016-01-30T08:10:25.216Z</time>
      </trkpt>
      <trkpt lat="43.67263" lon="5.83427">
        <ele>494</ele>
        <time>2016-01-30T08:10:29.241Z</time>
      </trkpt>
      <trkpt lat="43.67264" lon="5.83425">
        <ele>494</ele>
        <time>2016-01-30T08:10:30.219Z</time>
      </trkpt>
      <trkpt lat="43.67268" lon="5.83414">
        <ele>495</ele>
        <time>2016-01-30T08:10:34.272Z</time>
      </trkpt>
      <trkpt lat="43.67268" lon="5.83411">
        <ele>495</ele>
        <time>2016-01-30T08:10:35.218Z</time>
      </trkpt>
      <trkpt lat="43.67272" lon="5.83401">
        <ele>495</ele>
        <time>2016-01-30T08:10:39.243Z</time>
      </trkpt>
      <trkpt lat="43.67273" lon="5.83398">
        <ele>495</ele>
        <time>2016-01-30T08:10:40.230Z</time>
      </trkpt>
      <trkpt lat="43.67276" lon="5.83387">
        <ele>495</ele>
        <time>2016-01-30T08:10:46.250Z</time>
      </trkpt>
      <trkpt lat="43.67276" lon="5.83385">
        <ele>495</ele>
        <time>2016-01-30T08:10:47.215Z</time>
      </trkpt>
      <trkpt lat="43.67279" lon="5.83373">
        <ele>496</ele>
        <time>2016-01-30T08:10:52.243Z</time>
      </trkpt>
      <trkpt lat="43.6728" lon="5.83371">
        <ele>496</ele>
        <time>2016-01-30T08:10:53.219Z</time>
      </trkpt>
      <trkpt lat="43.67283" lon="5.83362">
        <ele>497</ele>
        <time>2016-01-30T08:10:57.242Z</time>
      </trkpt>
      <trkpt lat="43.67284" lon="5.83359">
        <ele>497</ele>
        <time>2016-01-30T08:10:58.219Z</time>
      </trkpt>
      <trkpt lat="43.67287" lon="5.83348">
        <ele>498</ele>
        <time>2016-01-30T08:11:02.242Z</time>
      </trkpt>
      <trkpt lat="43.67287" lon="5.83345">
        <ele>498</ele>
        <time>2016-01-30T08:11:03.219Z</time>
      </trkpt>
      <trkpt lat="43.67291" lon="5.83337">
        <ele>498</ele>
        <time>2016-01-30T08:11:06.241Z</time>
      </trkpt>
      <trkpt lat="43.67293" lon="5.83334">
        <ele>498</ele>
        <time>2016-01-30T08:11:07.218Z</time>
      </trkpt>
      <trkpt lat="43.67296" lon="5.83327">
        <ele>498</ele>
        <time>2016-01-30T08:11:10.255Z</time>
      </trkpt>
      <trkpt lat="43.67298" lon="5.83324">
        <ele>498</ele>
        <time>2016-01-30T08:11:11.217Z</time>
      </trkpt>
      <trkpt lat="43.67301" lon="5.83315">
        <ele>499</ele>
        <time>2016-01-30T08:11:14.241Z</time>
      </trkpt>
      <trkpt lat="43.67302" lon="5.83312">
        <ele>499</ele>
        <time>2016-01-30T08:11:15.230Z</time>
      </trkpt>
      <trkpt lat="43.67304" lon="5.83302">
        <ele>499</ele>
        <time>2016-01-30T08:11:18.240Z</time>
      </trkpt>
      <trkpt lat="43.67304" lon="5.83299">
        <ele>499</ele>
        <time>2016-01-30T08:11:19.219Z</time>
      </trkpt>
      <trkpt lat="43.67305" lon="5.8329">
        <ele>499</ele>
        <time>2016-01-30T08:11:22.244Z</time>
      </trkpt>
      <trkpt lat="43.67305" lon="5.83286">
        <ele>499</ele>
        <time>2016-01-30T08:11:23.217Z</time>
      </trkpt>
      <trkpt lat="43.67308" lon="5.83275">
        <ele>499</ele>
        <time>2016-01-30T08:11:27.247Z</time>
      </trkpt>
      <trkpt lat="43.67309" lon="5.83271">
        <ele>499</ele>
        <time>2016-01-30T08:11:28.217Z</time>
      </trkpt>
      <trkpt lat="43.67312" lon="5.83262">
        <ele>499</ele>
        <time>2016-01-30T08:11:31.251Z</time>
      </trkpt>
      <trkpt lat="43.67313" lon="5.83259">
        <ele>499</ele>
        <time>2016-01-30T08:11:32.219Z</time>
      </trkpt>
      <trkpt lat="43.67315" lon="5.83248">
        <ele>499</ele>
        <time>2016-01-30T08:11:35.240Z</time>
      </trkpt>
      <trkpt lat="43.67315" lon="5.83244">
        <ele>499</ele>
        <time>2016-01-30T08:11:36.219Z</time>
      </trkpt>
      <trkpt lat="43.67316" lon="5.83232">
        <ele>498</ele>
        <time>2016-01-30T08:11:39.268Z</time>
      </trkpt>
      <trkpt lat="43.67316" lon="5.83228">
        <ele>498</ele>
        <time>2016-01-30T08:11:40.219Z</time>
      </trkpt>
      <trkpt lat="43.67318" lon="5.8322">
        <ele>497</ele>
        <time>2016-01-30T08:11:42.241Z</time>
      </trkpt>
      <trkpt lat="43.67318" lon="5.83216">
        <ele>497</ele>
        <time>2016-01-30T08:11:43.219Z</time>
      </trkpt>
      <trkpt lat="43.67319" lon="5.83207">
        <ele>497</ele>
        <time>2016-01-30T08:11:45.241Z</time>
      </trkpt>
      <trkpt lat="43.67319" lon="5.83203">
        <ele>497</ele>
        <time>2016-01-30T08:11:46.226Z</time>
      </trkpt>
      <trkpt lat="43.67318" lon="5.83191">
        <ele>496</ele>
        <time>2016-01-30T08:11:49.242Z</time>
      </trkpt>
      <trkpt lat="43.67318" lon="5.83187">
        <ele>496</ele>
        <time>2016-01-30T08:11:50.216Z</time>
      </trkpt>
      <trkpt lat="43.67318" lon="5.83175">
        <ele>496</ele>
        <time>2016-01-30T08:11:53.241Z</time>
      </trkpt>
      <trkpt lat="43.67318" lon="5.83172">
        <ele>496</ele>
        <time>2016-01-30T08:11:54.209Z</time>
      </trkpt>
      <trkpt lat="43.67319" lon="5.8316">
        <ele>496</ele>
        <time>2016-01-30T08:11:57.240Z</time>
      </trkpt>
      <trkpt lat="43.67319" lon="5.83156">
        <ele>496</ele>
        <time>2016-01-30T08:11:58.218Z</time>
      </trkpt>
      <trkpt lat="43.6732" lon="5.83146">
        <ele>495</ele>
        <time>2016-01-30T08:12:00.246Z</time>
      </trkpt>
      <trkpt lat="43.67321" lon="5.83142">
        <ele>495</ele>
        <time>2016-01-30T08:12:01.230Z</time>
      </trkpt>
      <trkpt lat="43.67324" lon="5.83132">
        <ele>495</ele>
        <time>2016-01-30T08:12:03.242Z</time>
      </trkpt>
      <trkpt lat="43.67326" lon="5.83127">
        <ele>494</ele>
        <time>2016-01-30T08:12:04.218Z</time>
      </trkpt>
      <trkpt lat="43.67328" lon="5.83115">
        <ele>493</ele>
        <time>2016-01-30T08:12:06.479Z</time>
      </trkpt>
      <trkpt lat="43.67328" lon="5.83109">
        <ele>493</ele>
        <time>2016-01-30T08:12:07.219Z</time>
      </trkpt>
      <trkpt lat="43.67328" lon="5.83097">
        <ele>493</ele>
        <time>2016-01-30T08:12:09.255Z</time>
      </trkpt>
      <trkpt lat="43.67328" lon="5.83091">
        <ele>493</ele>
        <time>2016-01-30T08:12:10.219Z</time>
      </trkpt>
      <trkpt lat="43.67328" lon="5.8308">
        <ele>492</ele>
        <time>2016-01-30T08:12:12.243Z</time>
      </trkpt>
      <trkpt lat="43.67328" lon="5.83074">
        <ele>492</ele>
        <time>2016-01-30T08:12:13.219Z</time>
      </trkpt>
      <trkpt lat="43.67327" lon="5.83063">
        <ele>492</ele>
        <time>2016-01-30T08:12:15.239Z</time>
      </trkpt>
      <trkpt lat="43.67327" lon="5.83057">
        <ele>492</ele>
        <time>2016-01-30T08:12:16.229Z</time>
      </trkpt>
      <trkpt lat="43.67327" lon="5.83046">
        <ele>491</ele>
        <time>2016-01-30T08:12:18.242Z</time>
      </trkpt>
      <trkpt lat="43.67328" lon="5.83041">
        <ele>491</ele>
        <time>2016-01-30T08:12:19.219Z</time>
      </trkpt>
      <trkpt lat="43.67328" lon="5.83035">
        <ele>491</ele>
        <time>2016-01-30T08:12:20.243Z</time>
      </trkpt>
      <trkpt lat="43.67327" lon="5.83026">
        <ele>490</ele>
        <time>2016-01-30T08:12:21.230Z</time>
      </trkpt>
      <trkpt lat="43.67327" lon="5.83014">
        <ele>489</ele>
        <time>2016-01-30T08:12:23.242Z</time>
      </trkpt>
      <trkpt lat="43.67328" lon="5.83008">
        <ele>489</ele>
        <time>2016-01-30T08:12:24.218Z</time>
      </trkpt>
      <trkpt lat="43.67328" lon="5.82997">
        <ele>489</ele>
        <time>2016-01-30T08:12:26.251Z</time>
      </trkpt>
      <trkpt lat="43.67328" lon="5.82992">
        <ele>488</ele>
        <time>2016-01-30T08:12:27.216Z</time>
      </trkpt>
      <trkpt lat="43.67327" lon="5.82981">
        <ele>487</ele>
        <time>2016-01-30T08:12:30.478Z</time>
      </trkpt>
      <trkpt lat="43.67327" lon="5.82977">
        <ele>487</ele>
        <time>2016-01-30T08:12:31.219Z</time>
      </trkpt>
      <trkpt lat="43.67326" lon="5.82965">
        <ele>488</ele>
        <time>2016-01-30T08:12:34.276Z</time>
      </trkpt>
      <trkpt lat="43.67325" lon="5.82962">
        <ele>488</ele>
        <time>2016-01-30T08:12:35.217Z</time>
      </trkpt>
      <trkpt lat="43.67324" lon="5.82951">
        <ele>488</ele>
        <time>2016-01-30T08:12:38.238Z</time>
      </trkpt>
      <trkpt lat="43.67324" lon="5.82947">
        <ele>488</ele>
        <time>2016-01-30T08:12:39.219Z</time>
      </trkpt>
      <trkpt lat="43.67325" lon="5.82936">
        <ele>487</ele>
        <time>2016-01-30T08:12:42.239Z</time>
      </trkpt>
      <trkpt lat="43.67325" lon="5.82932">
        <ele>487</ele>
        <time>2016-01-30T08:12:43.244Z</time>
      </trkpt>
      <trkpt lat="43.67325" lon="5.82922">
        <ele>488</ele>
        <time>2016-01-30T08:12:46.238Z</time>
      </trkpt>
      <trkpt lat="43.67325" lon="5.82918">
        <ele>488</ele>
        <time>2016-01-30T08:12:47.392Z</time>
      </trkpt>
      <trkpt lat="43.67326" lon="5.82909">
        <ele>489</ele>
        <time>2016-01-30T08:12:49.237Z</time>
      </trkpt>
      <trkpt lat="43.67327" lon="5.82905">
        <ele>489</ele>
        <time>2016-01-30T08:12:50.216Z</time>
      </trkpt>
      <trkpt lat="43.67328" lon="5.82896">
        <ele>488</ele>
        <time>2016-01-30T08:12:52.237Z</time>
      </trkpt>
      <trkpt lat="43.67329" lon="5.82892">
        <ele>489</ele>
        <time>2016-01-30T08:12:53.216Z</time>
      </trkpt>
      <trkpt lat="43.6733" lon="5.82882">
        <ele>489</ele>
        <time>2016-01-30T08:12:55.236Z</time>
      </trkpt>
      <trkpt lat="43.67331" lon="5.82877">
        <ele>489</ele>
        <time>2016-01-30T08:12:56.215Z</time>
      </trkpt>
      <trkpt lat="43.67334" lon="5.82867">
        <ele>489</ele>
        <time>2016-01-30T08:12:58.223Z</time>
      </trkpt>
      <trkpt lat="43.67335" lon="5.82862">
        <ele>489</ele>
        <time>2016-01-30T08:12:59.215Z</time>
      </trkpt>
      <trkpt lat="43.67336" lon="5.82851">
        <ele>488</ele>
        <time>2016-01-30T08:13:01.239Z</time>
      </trkpt>
      <trkpt lat="43.67337" lon="5.82847">
        <ele>488</ele>
        <time>2016-01-30T08:13:02.225Z</time>
      </trkpt>
      <trkpt lat="43.67338" lon="5.82837">
        <ele>489</ele>
        <time>2016-01-30T08:13:04.238Z</time>
      </trkpt>
      <trkpt lat="43.6734" lon="5.82833">
        <ele>488</ele>
        <time>2016-01-30T08:13:05.216Z</time>
      </trkpt>
      <trkpt lat="43.67342" lon="5.82824">
        <ele>488</ele>
        <time>2016-01-30T08:13:07.244Z</time>
      </trkpt>
      <trkpt lat="43.67343" lon="5.82819">
        <ele>488</ele>
        <time>2016-01-30T08:13:08.218Z</time>
      </trkpt>
      <trkpt lat="43.67345" lon="5.8281">
        <ele>488</ele>
        <time>2016-01-30T08:13:10.271Z</time>
      </trkpt>
      <trkpt lat="43.67346" lon="5.82805">
        <ele>487</ele>
        <time>2016-01-30T08:13:11.219Z</time>
      </trkpt>
      <trkpt lat="43.6735" lon="5.82797">
        <ele>487</ele>
        <time>2016-01-30T08:13:13.252Z</time>
      </trkpt>
      <trkpt lat="43.67352" lon="5.82793">
        <ele>487</ele>
        <time>2016-01-30T08:13:14.218Z</time>
      </trkpt>
      <trkpt lat="43.67354" lon="5.82784">
        <ele>486</ele>
        <time>2016-01-30T08:13:16.242Z</time>
      </trkpt>
      <trkpt lat="43.67355" lon="5.82779">
        <ele>486</ele>
        <time>2016-01-30T08:13:17.218Z</time>
      </trkpt>
      <trkpt lat="43.67357" lon="5.8277">
        <ele>484</ele>
        <time>2016-01-30T08:13:19.242Z</time>
      </trkpt>
      <trkpt lat="43.67358" lon="5.82764">
        <ele>484</ele>
        <time>2016-01-30T08:13:20.219Z</time>
      </trkpt>
      <trkpt lat="43.67359" lon="5.82755">
        <ele>483</ele>
        <time>2016-01-30T08:13:22.240Z</time>
      </trkpt>
      <trkpt lat="43.6736" lon="5.8275">
        <ele>483</ele>
        <time>2016-01-30T08:13:23.218Z</time>
      </trkpt>
      <trkpt lat="43.67361" lon="5.8274">
        <ele>482</ele>
        <time>2016-01-30T08:13:25.250Z</time>
      </trkpt>
      <trkpt lat="43.67361" lon="5.82735">
        <ele>482</ele>
        <time>2016-01-30T08:13:26.219Z</time>
      </trkpt>
      <trkpt lat="43.67362" lon="5.82725">
        <ele>482</ele>
        <time>2016-01-30T08:13:28.253Z</time>
      </trkpt>
      <trkpt lat="43.67363" lon="5.8272">
        <ele>482</ele>
        <time>2016-01-30T08:13:29.217Z</time>
      </trkpt>
      <trkpt lat="43.67363" lon="5.82709">
        <ele>481</ele>
        <time>2016-01-30T08:13:31.239Z</time>
      </trkpt>
      <trkpt lat="43.67363" lon="5.82704">
        <ele>481</ele>
        <time>2016-01-30T08:13:32.218Z</time>
      </trkpt>
      <trkpt lat="43.67364" lon="5.82697">
        <ele>481</ele>
        <time>2016-01-30T08:13:33.242Z</time>
      </trkpt>
      <trkpt lat="43.67364" lon="5.82689">
        <ele>481</ele>
        <time>2016-01-30T08:13:34.218Z</time>
      </trkpt>
      <trkpt lat="43.67364" lon="5.82682">
        <ele>481</ele>
        <time>2016-01-30T08:13:35.241Z</time>
      </trkpt>
      <trkpt lat="43.67363" lon="5.82675">
        <ele>481</ele>
        <time>2016-01-30T08:13:36.218Z</time>
      </trkpt>
      <trkpt lat="43.67363" lon="5.82663">
        <ele>481</ele>
        <time>2016-01-30T08:13:38.240Z</time>
      </trkpt>
      <trkpt lat="43.67364" lon="5.82656">
        <ele>480</ele>
        <time>2016-01-30T08:13:39.218Z</time>
      </trkpt>
      <trkpt lat="43.67366" lon="5.82644">
        <ele>480</ele>
        <time>2016-01-30T08:13:41.235Z</time>
      </trkpt>
      <trkpt lat="43.67366" lon="5.82638">
        <ele>481</ele>
        <time>2016-01-30T08:13:42.216Z</time>
      </trkpt>
      <trkpt lat="43.67366" lon="5.82632">
        <ele>480</ele>
        <time>2016-01-30T08:13:43.239Z</time>
      </trkpt>
      <trkpt lat="43.67365" lon="5.82625">
        <ele>480</ele>
        <time>2016-01-30T08:13:44.218Z</time>
      </trkpt>
      <trkpt lat="43.67364" lon="5.82613">
        <ele>480</ele>
        <time>2016-01-30T08:13:46.227Z</time>
      </trkpt>
      <trkpt lat="43.67363" lon="5.82607">
        <ele>480</ele>
        <time>2016-01-30T08:13:47.207Z</time>
      </trkpt>
      <trkpt lat="43.6736" lon="5.82596">
        <ele>479</ele>
        <time>2016-01-30T08:13:49.237Z</time>
      </trkpt>
      <trkpt lat="43.67359" lon="5.82591">
        <ele>479</ele>
        <time>2016-01-30T08:13:50.217Z</time>
      </trkpt>
      <trkpt lat="43.67357" lon="5.82585">
        <ele>479</ele>
        <time>2016-01-30T08:13:51.236Z</time>
      </trkpt>
      <trkpt lat="43.67355" lon="5.82579">
        <ele>478</ele>
        <time>2016-01-30T08:13:52.214Z</time>
      </trkpt>
      <trkpt lat="43.67352" lon="5.82574">
        <ele>478</ele>
        <time>2016-01-30T08:13:53.262Z</time>
      </trkpt>
      <trkpt lat="43.67349" lon="5.82569">
        <ele>478</ele>
        <time>2016-01-30T08:13:54.217Z</time>
      </trkpt>
      <trkpt lat="43.67343" lon="5.8256">
        <ele>478</ele>
        <time>2016-01-30T08:13:56.236Z</time>
      </trkpt>
      <trkpt lat="43.6734" lon="5.82556">
        <ele>478</ele>
        <time>2016-01-30T08:13:57.217Z</time>
      </trkpt>
      <trkpt lat="43.67335" lon="5.82548">
        <ele>479</ele>
        <time>2016-01-30T08:13:59.236Z</time>
      </trkpt>
      <trkpt lat="43.67332" lon="5.82543">
        <ele>479</ele>
        <time>2016-01-30T08:14:00.216Z</time>
      </trkpt>
      <trkpt lat="43.67328" lon="5.82534">
        <ele>479</ele>
        <time>2016-01-30T08:14:02.241Z</time>
      </trkpt>
      <trkpt lat="43.67326" lon="5.82528">
        <ele>479</ele>
        <time>2016-01-30T08:14:03.218Z</time>
      </trkpt>
      <trkpt lat="43.67322" lon="5.82517">
        <ele>478</ele>
        <time>2016-01-30T08:14:05.253Z</time>
      </trkpt>
      <trkpt lat="43.6732" lon="5.82512">
        <ele>478</ele>
        <time>2016-01-30T08:14:06.219Z</time>
      </trkpt>
      <trkpt lat="43.67317" lon="5.825">
        <ele>478</ele>
        <time>2016-01-30T08:14:08.242Z</time>
      </trkpt>
      <trkpt lat="43.67315" lon="5.82495">
        <ele>478</ele>
        <time>2016-01-30T08:14:09.218Z</time>
      </trkpt>
      <trkpt lat="43.67314" lon="5.82483">
        <ele>477</ele>
        <time>2016-01-30T08:14:11.243Z</time>
      </trkpt>
      <trkpt lat="43.67313" lon="5.82477">
        <ele>477</ele>
        <time>2016-01-30T08:14:12.230Z</time>
      </trkpt>
      <trkpt lat="43.6731" lon="5.82466">
        <ele>476</ele>
        <time>2016-01-30T08:14:14.503Z</time>
      </trkpt>
      <trkpt lat="43.67309" lon="5.8246">
        <ele>476</ele>
        <time>2016-01-30T08:14:15.220Z</time>
      </trkpt>
      <trkpt lat="43.67307" lon="5.82452">
        <ele>475</ele>
        <time>2016-01-30T08:14:16.243Z</time>
      </trkpt>
      <trkpt lat="43.67305" lon="5.82446">
        <ele>475</ele>
        <time>2016-01-30T08:14:17.230Z</time>
      </trkpt>
      <trkpt lat="43.67304" lon="5.82438">
        <ele>475</ele>
        <time>2016-01-30T08:14:18.244Z</time>
      </trkpt>
      <trkpt lat="43.67304" lon="5.8243">
        <ele>475</ele>
        <time>2016-01-30T08:14:19.220Z</time>
      </trkpt>
      <trkpt lat="43.67302" lon="5.8242">
        <ele>474</ele>
        <time>2016-01-30T08:14:21.242Z</time>
      </trkpt>
      <trkpt lat="43.67301" lon="5.82415">
        <ele>474</ele>
        <time>2016-01-30T08:14:22.219Z</time>
      </trkpt>
      <trkpt lat="43.673" lon="5.82404">
        <ele>475</ele>
        <time>2016-01-30T08:14:24.243Z</time>
      </trkpt>
      <trkpt lat="43.673" lon="5.82399">
        <ele>475</ele>
        <time>2016-01-30T08:14:25.219Z</time>
      </trkpt>
      <trkpt lat="43.67297" lon="5.82388">
        <ele>475</ele>
        <time>2016-01-30T08:14:27.242Z</time>
      </trkpt>
      <trkpt lat="43.67296" lon="5.82383">
        <ele>475</ele>
        <time>2016-01-30T08:14:28.231Z</time>
      </trkpt>
      <trkpt lat="43.67293" lon="5.82376">
        <ele>475</ele>
        <time>2016-01-30T08:14:29.242Z</time>
      </trkpt>
      <trkpt lat="43.67291" lon="5.82371">
        <ele>475</ele>
        <time>2016-01-30T08:14:30.218Z</time>
      </trkpt>
      <trkpt lat="43.67287" lon="5.82367">
        <ele>475</ele>
        <time>2016-01-30T08:14:31.240Z</time>
      </trkpt>
      <trkpt lat="43.67283" lon="5.82363">
        <ele>475</ele>
        <time>2016-01-30T08:14:32.219Z</time>
      </trkpt>
      <trkpt lat="43.67275" lon="5.82359">
        <ele>474</ele>
        <time>2016-01-30T08:14:34.243Z</time>
      </trkpt>
      <trkpt lat="43.67271" lon="5.82356">
        <ele>474</ele>
        <time>2016-01-30T08:14:35.230Z</time>
      </trkpt>
      <trkpt lat="43.67266" lon="5.82347">
        <ele>474</ele>
        <time>2016-01-30T08:14:37.476Z</time>
      </trkpt>
      <trkpt lat="43.67264" lon="5.82343">
        <ele>474</ele>
        <time>2016-01-30T08:14:38.221Z</time>
      </trkpt>
      <trkpt lat="43.67257" lon="5.82334">
        <ele>473</ele>
        <time>2016-01-30T08:14:40.241Z</time>
      </trkpt>
      <trkpt lat="43.67254" lon="5.82331">
        <ele>473</ele>
        <time>2016-01-30T08:14:41.246Z</time>
      </trkpt>
      <trkpt lat="43.67248" lon="5.82323">
        <ele>473</ele>
        <time>2016-01-30T08:14:43.242Z</time>
      </trkpt>
      <trkpt lat="43.67245" lon="5.82319">
        <ele>472</ele>
        <time>2016-01-30T08:14:44.219Z</time>
      </trkpt>
      <trkpt lat="43.6724" lon="5.82311">
        <ele>472</ele>
        <time>2016-01-30T08:14:46.244Z</time>
      </trkpt>
      <trkpt lat="43.67237" lon="5.82306">
        <ele>471</ele>
        <time>2016-01-30T08:14:47.220Z</time>
      </trkpt>
      <trkpt lat="43.67233" lon="5.82296">
        <ele>471</ele>
        <time>2016-01-30T08:14:49.489Z</time>
      </trkpt>
      <trkpt lat="43.67231" lon="5.82291">
        <ele>471</ele>
        <time>2016-01-30T08:14:50.219Z</time>
      </trkpt>
      <trkpt lat="43.67226" lon="5.82282">
        <ele>471</ele>
        <time>2016-01-30T08:14:52.273Z</time>
      </trkpt>
      <trkpt lat="43.67224" lon="5.82277">
        <ele>470</ele>
        <time>2016-01-30T08:14:53.219Z</time>
      </trkpt>
      <trkpt lat="43.67219" lon="5.82269">
        <ele>470</ele>
        <time>2016-01-30T08:14:55.255Z</time>
      </trkpt>
      <trkpt lat="43.67215" lon="5.82265">
        <ele>470</ele>
        <time>2016-01-30T08:14:56.219Z</time>
      </trkpt>
      <trkpt lat="43.6721" lon="5.82257">
        <ele>469</ele>
        <time>2016-01-30T08:14:58.254Z</time>
      </trkpt>
      <trkpt lat="43.67208" lon="5.82253">
        <ele>469</ele>
        <time>2016-01-30T08:14:59.217Z</time>
      </trkpt>
      <trkpt lat="43.67204" lon="5.82243">
        <ele>468</ele>
        <time>2016-01-30T08:15:01.242Z</time>
      </trkpt>
      <trkpt lat="43.67203" lon="5.82238">
        <ele>468</ele>
        <time>2016-01-30T08:15:02.219Z</time>
      </trkpt>
      <trkpt lat="43.67199" lon="5.82228">
        <ele>467</ele>
        <time>2016-01-30T08:15:04.242Z</time>
      </trkpt>
      <trkpt lat="43.67196" lon="5.82223">
        <ele>467</ele>
        <time>2016-01-30T08:15:05.219Z</time>
      </trkpt>
      <trkpt lat="43.6719" lon="5.82215">
        <ele>467</ele>
        <time>2016-01-30T08:15:07.243Z</time>
      </trkpt>
      <trkpt lat="43.67187" lon="5.82213">
        <ele>467</ele>
        <time>2016-01-30T08:15:08.211Z</time>
      </trkpt>
      <trkpt lat="43.6718" lon="5.82209">
        <ele>466</ele>
        <time>2016-01-30T08:15:10.242Z</time>
      </trkpt>
      <trkpt lat="43.67178" lon="5.82207">
        <ele>466</ele>
        <time>2016-01-30T08:15:11.215Z</time>
      </trkpt>
      <trkpt lat="43.67172" lon="5.82201">
        <ele>466</ele>
        <time>2016-01-30T08:15:13.245Z</time>
      </trkpt>
      <trkpt lat="43.67169" lon="5.82197">
        <ele>466</ele>
        <time>2016-01-30T08:15:14.246Z</time>
      </trkpt>
      <trkpt lat="43.67164" lon="5.8219">
        <ele>466</ele>
        <time>2016-01-30T08:15:16.231Z</time>
      </trkpt>
      <trkpt lat="43.67161" lon="5.82187">
        <ele>467</ele>
        <time>2016-01-30T08:15:17.217Z</time>
      </trkpt>
      <trkpt lat="43.67155" lon="5.8218">
        <ele>466</ele>
        <time>2016-01-30T08:15:19.242Z</time>
      </trkpt>
      <trkpt lat="43.67153" lon="5.82176">
        <ele>466</ele>
        <time>2016-01-30T08:15:20.219Z</time>
      </trkpt>
      <trkpt lat="43.67148" lon="5.82169">
        <ele>466</ele>
        <time>2016-01-30T08:15:22.241Z</time>
      </trkpt>
      <trkpt lat="43.67145" lon="5.82164">
        <ele>466</ele>
        <time>2016-01-30T08:15:23.219Z</time>
      </trkpt>
      <trkpt lat="43.67141" lon="5.82155">
        <ele>465</ele>
        <time>2016-01-30T08:15:25.261Z</time>
      </trkpt>
      <trkpt lat="43.67139" lon="5.82149">
        <ele>465</ele>
        <time>2016-01-30T08:15:26.220Z</time>
      </trkpt>
      <trkpt lat="43.67136" lon="5.82142">
        <ele>465</ele>
        <time>2016-01-30T08:15:27.242Z</time>
      </trkpt>
      <trkpt lat="43.67133" lon="5.82136">
        <ele>465</ele>
        <time>2016-01-30T08:15:28.228Z</time>
      </trkpt>
      <trkpt lat="43.67128" lon="5.82127">
        <ele>464</ele>
        <time>2016-01-30T08:15:30.271Z</time>
      </trkpt>
      <trkpt lat="43.67126" lon="5.82122">
        <ele>464</ele>
        <time>2016-01-30T08:15:31.224Z</time>
      </trkpt>
      <trkpt lat="43.67123" lon="5.82111">
        <ele>464</ele>
        <time>2016-01-30T08:15:33.243Z</time>
      </trkpt>
      <trkpt lat="43.67122" lon="5.82107">
        <ele>464</ele>
        <time>2016-01-30T08:15:34.219Z</time>
      </trkpt>
      <trkpt lat="43.67118" lon="5.82097">
        <ele>463</ele>
        <time>2016-01-30T08:15:36.241Z</time>
      </trkpt>
      <trkpt lat="43.67116" lon="5.82092">
        <ele>463</ele>
        <time>2016-01-30T08:15:37.220Z</time>
      </trkpt>
      <trkpt lat="43.67113" lon="5.82087">
        <ele>463</ele>
        <time>2016-01-30T08:15:38.243Z</time>
      </trkpt>
      <trkpt lat="43.6711" lon="5.8208">
        <ele>463</ele>
        <time>2016-01-30T08:15:39.219Z</time>
      </trkpt>
      <trkpt lat="43.67108" lon="5.82075">
        <ele>462</ele>
        <time>2016-01-30T08:15:40.244Z</time>
      </trkpt>
      <trkpt lat="43.67106" lon="5.82069">
        <ele>462</ele>
        <time>2016-01-30T08:15:41.220Z</time>
      </trkpt>
      <trkpt lat="43.67104" lon="5.82063">
        <ele>462</ele>
        <time>2016-01-30T08:15:42.243Z</time>
      </trkpt>
      <trkpt lat="43.67102" lon="5.82057">
        <ele>462</ele>
        <time>2016-01-30T08:15:43.231Z</time>
      </trkpt>
      <trkpt lat="43.67099" lon="5.82051">
        <ele>461</ele>
        <time>2016-01-30T08:15:44.284Z</time>
      </trkpt>
      <trkpt lat="43.67097" lon="5.82046">
        <ele>461</ele>
        <time>2016-01-30T08:15:45.216Z</time>
      </trkpt>
      <trkpt lat="43.67095" lon="5.8204">
        <ele>461</ele>
        <time>2016-01-30T08:15:46.274Z</time>
      </trkpt>
      <trkpt lat="43.67093" lon="5.82034">
        <ele>461</ele>
        <time>2016-01-30T08:15:47.218Z</time>
      </trkpt>
      <trkpt lat="43.6709" lon="5.82023">
        <ele>461</ele>
        <time>2016-01-30T08:15:49.244Z</time>
      </trkpt>
      <trkpt lat="43.67089" lon="5.82019">
        <ele>461</ele>
        <time>2016-01-30T08:15:50.223Z</time>
      </trkpt>
      <trkpt lat="43.67084" lon="5.82009">
        <ele>460</ele>
        <time>2016-01-30T08:15:52.244Z</time>
      </trkpt>
      <trkpt lat="43.67082" lon="5.82004">
        <ele>460</ele>
        <time>2016-01-30T08:15:53.231Z</time>
      </trkpt>
      <trkpt lat="43.67078" lon="5.81993">
        <ele>461</ele>
        <time>2016-01-30T08:15:55.241Z</time>
      </trkpt>
      <trkpt lat="43.67077" lon="5.81988">
        <ele>460</ele>
        <time>2016-01-30T08:15:56.220Z</time>
      </trkpt>
      <trkpt lat="43.67074" lon="5.81978">
        <ele>460</ele>
        <time>2016-01-30T08:15:58.242Z</time>
      </trkpt>
      <trkpt lat="43.67072" lon="5.81973">
        <ele>460</ele>
        <time>2016-01-30T08:15:59.440Z</time>
      </trkpt>
      <trkpt lat="43.67068" lon="5.81963">
        <ele>460</ele>
        <time>2016-01-30T08:16:01.242Z</time>
      </trkpt>
      <trkpt lat="43.67066" lon="5.81958">
        <ele>460</ele>
        <time>2016-01-30T08:16:02.247Z</time>
      </trkpt>
      <trkpt lat="43.67064" lon="5.81952">
        <ele>460</ele>
        <time>2016-01-30T08:16:03.243Z</time>
      </trkpt>
      <trkpt lat="43.67063" lon="5.81946">
        <ele>460</ele>
        <time>2016-01-30T08:16:04.219Z</time>
      </trkpt>
      <trkpt lat="43.67059" lon="5.81935">
        <ele>460</ele>
        <time>2016-01-30T08:16:06.244Z</time>
      </trkpt>
      <trkpt lat="43.67056" lon="5.81932">
        <ele>460</ele>
        <time>2016-01-30T08:16:07.218Z</time>
      </trkpt>
      <trkpt lat="43.67051" lon="5.81923">
        <ele>460</ele>
        <time>2016-01-30T08:16:09.243Z</time>
      </trkpt>
      <trkpt lat="43.67048" lon="5.81919">
        <ele>459</ele>
        <time>2016-01-30T08:16:10.220Z</time>
      </trkpt>
      <trkpt lat="43.67045" lon="5.81913">
        <ele>459</ele>
        <time>2016-01-30T08:16:11.243Z</time>
      </trkpt>
      <trkpt lat="43.67042" lon="5.81908">
        <ele>459</ele>
        <time>2016-01-30T08:16:12.219Z</time>
      </trkpt>
      <trkpt lat="43.67037" lon="5.81898">
        <ele>458</ele>
        <time>2016-01-30T08:16:14.244Z</time>
      </trkpt>
      <trkpt lat="43.67033" lon="5.81894">
        <ele>458</ele>
        <time>2016-01-30T08:16:15.223Z</time>
      </trkpt>
      <trkpt lat="43.67029" lon="5.8189">
        <ele>458</ele>
        <time>2016-01-30T08:16:16.243Z</time>
      </trkpt>
      <trkpt lat="43.67025" lon="5.81887">
        <ele>457</ele>
        <time>2016-01-30T08:16:17.219Z</time>
      </trkpt>
      <trkpt lat="43.67016" lon="5.81886">
        <ele>457</ele>
        <time>2016-01-30T08:16:19.243Z</time>
      </trkpt>
      <trkpt lat="43.67012" lon="5.81887">
        <ele>457</ele>
        <time>2016-01-30T08:16:20.218Z</time>
      </trkpt>
      <trkpt lat="43.67005" lon="5.81888">
        <ele>457</ele>
        <time>2016-01-30T08:16:22.242Z</time>
      </trkpt>
      <trkpt lat="43.67001" lon="5.81889">
        <ele>456</ele>
        <time>2016-01-30T08:16:23.230Z</time>
      </trkpt>
      <trkpt lat="43.66994" lon="5.81882">
        <ele>456</ele>
        <time>2016-01-30T08:16:26.245Z</time>
      </trkpt>
      <trkpt lat="43.66992" lon="5.81879">
        <ele>456</ele>
        <time>2016-01-30T08:16:27.219Z</time>
      </trkpt>
      <trkpt lat="43.66988" lon="5.81868">
        <ele>456</ele>
        <time>2016-01-30T08:16:30.243Z</time>
      </trkpt>
      <trkpt lat="43.66986" lon="5.81865">
        <ele>456</ele>
        <time>2016-01-30T08:16:31.218Z</time>
      </trkpt>
      <trkpt lat="43.66984" lon="5.81854">
        <ele>456</ele>
        <time>2016-01-30T08:16:53.243Z</time>
      </trkpt>
      <trkpt lat="43.66982" lon="5.81851">
        <ele>456</ele>
        <time>2016-01-30T08:16:54.220Z</time>
      </trkpt>
      <trkpt lat="43.66975" lon="5.81845">
        <ele>456</ele>
        <time>2016-01-30T08:16:59.243Z</time>
      </trkpt>
      <trkpt lat="43.66975" lon="5.81844">
        <ele>456</ele>
        <time>2016-01-30T08:17:00.212Z</time>
      </trkpt>
      <trkpt lat="43.66966" lon="5.81845">
        <ele>458</ele>
        <time>2016-01-30T08:17:09.243Z</time>
      </trkpt>
      <trkpt lat="43.66965" lon="5.81845">
        <ele>458</ele>
        <time>2016-01-30T08:17:10.230Z</time>
      </trkpt>
      <trkpt lat="43.66957" lon="5.8184">
        <ele>459</ele>
        <time>2016-01-30T08:17:15.257Z</time>
      </trkpt>
      <trkpt lat="43.66955" lon="5.81839">
        <ele>459</ele>
        <time>2016-01-30T08:17:16.218Z</time>
      </trkpt>
      <trkpt lat="43.66947" lon="5.81837">
        <ele>459</ele>
        <time>2016-01-30T08:17:21.244Z</time>
      </trkpt>
      <trkpt lat="43.66945" lon="5.81838">
        <ele>459</ele>
        <time>2016-01-30T08:17:22.218Z</time>
      </trkpt>
      <trkpt lat="43.66938" lon="5.81842">
        <ele>460</ele>
        <time>2016-01-30T08:17:26.243Z</time>
      </trkpt>
      <trkpt lat="43.66937" lon="5.81843">
        <ele>460</ele>
        <time>2016-01-30T08:17:27.220Z</time>
      </trkpt>
      <trkpt lat="43.66929" lon="5.81848">
        <ele>460</ele>
        <time>2016-01-30T08:17:31.244Z</time>
      </trkpt>
      <trkpt lat="43.66927" lon="5.81848">
        <ele>459</ele>
        <time>2016-01-30T08:17:32.220Z</time>
      </trkpt>
      <trkpt lat="43.6692" lon="5.81848">
        <ele>460</ele>
        <time>2016-01-30T08:17:35.243Z</time>
      </trkpt>
      <trkpt lat="43.66917" lon="5.81846">
        <ele>460</ele>
        <time>2016-01-30T08:17:36.220Z</time>
      </trkpt>
      <trkpt lat="43.6691" lon="5.8184">
        <ele>460</ele>
        <time>2016-01-30T08:17:40.244Z</time>
      </trkpt>
      <trkpt lat="43.66908" lon="5.81838">
        <ele>460</ele>
        <time>2016-01-30T08:17:41.220Z</time>
      </trkpt>
      <trkpt lat="43.66901" lon="5.81833">
        <ele>460</ele>
        <time>2016-01-30T08:17:45.245Z</time>
      </trkpt>
      <trkpt lat="43.66899" lon="5.81831">
        <ele>460</ele>
        <time>2016-01-30T08:17:46.219Z</time>
      </trkpt>
      <trkpt lat="43.66893" lon="5.81826">
        <ele>460</ele>
        <time>2016-01-30T08:17:49.243Z</time>
      </trkpt>
      <trkpt lat="43.66891" lon="5.81824">
        <ele>460</ele>
        <time>2016-01-30T08:17:50.219Z</time>
      </trkpt>
      <trkpt lat="43.66887" lon="5.81818">
        <ele>460</ele>
        <time>2016-01-30T08:17:52.240Z</time>
      </trkpt>
      <trkpt lat="43.66885" lon="5.81815">
        <ele>460</ele>
        <time>2016-01-30T08:17:53.220Z</time>
      </trkpt>
      <trkpt lat="43.66879" lon="5.81807">
        <ele>460</ele>
        <time>2016-01-30T08:17:56.243Z</time>
      </trkpt>
      <trkpt lat="43.66876" lon="5.81804">
        <ele>460</ele>
        <time>2016-01-30T08:17:57.230Z</time>
      </trkpt>
      <trkpt lat="43.66872" lon="5.81795">
        <ele>460</ele>
        <time>2016-01-30T08:18:00.243Z</time>
      </trkpt>
      <trkpt lat="43.66871" lon="5.81791">
        <ele>460</ele>
        <time>2016-01-30T08:18:01.221Z</time>
      </trkpt>
      <trkpt lat="43.66874" lon="5.8178">
        <ele>460</ele>
        <time>2016-01-30T08:18:04.249Z</time>
      </trkpt>
      <trkpt lat="43.66876" lon="5.81776">
        <ele>460</ele>
        <time>2016-01-30T08:18:05.221Z</time>
      </trkpt>
      <trkpt lat="43.66876" lon="5.81765">
        <ele>459</ele>
        <time>2016-01-30T08:18:08.245Z</time>
      </trkpt>
      <trkpt lat="43.66875" lon="5.81762">
        <ele>459</ele>
        <time>2016-01-30T08:18:09.220Z</time>
      </trkpt>
      <trkpt lat="43.66872" lon="5.81752">
        <ele>460</ele>
        <time>2016-01-30T08:18:12.244Z</time>
      </trkpt>
      <trkpt lat="43.66871" lon="5.81748">
        <ele>460</ele>
        <time>2016-01-30T08:18:13.221Z</time>
      </trkpt>
      <trkpt lat="43.66869" lon="5.81738">
        <ele>460</ele>
        <time>2016-01-30T08:18:16.247Z</time>
      </trkpt>
      <trkpt lat="43.66869" lon="5.81734">
        <ele>460</ele>
        <time>2016-01-30T08:18:17.217Z</time>
      </trkpt>
      <trkpt lat="43.66868" lon="5.81722">
        <ele>459</ele>
        <time>2016-01-30T08:18:21.242Z</time>
      </trkpt>
      <trkpt lat="43.66867" lon="5.8172">
        <ele>460</ele>
        <time>2016-01-30T08:18:22.259Z</time>
      </trkpt>
      <trkpt lat="43.66864" lon="5.81708">
        <ele>460</ele>
        <time>2016-01-30T08:18:26.241Z</time>
      </trkpt>
      <trkpt lat="43.66864" lon="5.81705">
        <ele>460</ele>
        <time>2016-01-30T08:18:27.230Z</time>
      </trkpt>
      <trkpt lat="43.66867" lon="5.81694">
        <ele>459</ele>
        <time>2016-01-30T08:18:31.245Z</time>
      </trkpt>
      <trkpt lat="43.66869" lon="5.81692">
        <ele>458</ele>
        <time>2016-01-30T08:18:32.231Z</time>
      </trkpt>
      <trkpt lat="43.66876" lon="5.81692">
        <ele>458</ele>
        <time>2016-01-30T08:18:35.317Z</time>
      </trkpt>
      <trkpt lat="43.66878" lon="5.81692">
        <ele>458</ele>
        <time>2016-01-30T08:18:36.221Z</time>
      </trkpt>
      <trkpt lat="43.66885" lon="5.81689">
        <ele>458</ele>
        <time>2016-01-30T08:18:39.245Z</time>
      </trkpt>
      <trkpt lat="43.66887" lon="5.81688">
        <ele>459</ele>
        <time>2016-01-30T08:18:40.220Z</time>
      </trkpt>
      <trkpt lat="43.66894" lon="5.81685">
        <ele>459</ele>
        <time>2016-01-30T08:18:43.245Z</time>
      </trkpt>
      <trkpt lat="43.66896" lon="5.81684">
        <ele>459</ele>
        <time>2016-01-30T08:18:44.220Z</time>
      </trkpt>
      <trkpt lat="43.66902" lon="5.81681">
        <ele>459</ele>
        <time>2016-01-30T08:18:47.244Z</time>
      </trkpt>
      <trkpt lat="43.66904" lon="5.81678">
        <ele>459</ele>
        <time>2016-01-30T08:18:48.230Z</time>
      </trkpt>
      <trkpt lat="43.66908" lon="5.81669">
        <ele>459</ele>
        <time>2016-01-30T08:18:51.243Z</time>
      </trkpt>
      <trkpt lat="43.66909" lon="5.81667">
        <ele>459</ele>
        <time>2016-01-30T08:18:52.219Z</time>
      </trkpt>
      <trkpt lat="43.66913" lon="5.81659">
        <ele>459</ele>
        <time>2016-01-30T08:18:55.244Z</time>
      </trkpt>
      <trkpt lat="43.66914" lon="5.81656">
        <ele>459</ele>
        <time>2016-01-30T08:18:56.218Z</time>
      </trkpt>
      <trkpt lat="43.6692" lon="5.81647">
        <ele>459</ele>
        <time>2016-01-30T08:19:00.232Z</time>
      </trkpt>
      <trkpt lat="43.66921" lon="5.81645">
        <ele>459</ele>
        <time>2016-01-30T08:19:01.218Z</time>
      </trkpt>
      <trkpt lat="43.66922" lon="5.81634">
        <ele>459</ele>
        <time>2016-01-30T08:19:05.305Z</time>
      </trkpt>
      <trkpt lat="43.66922" lon="5.81631">
        <ele>459</ele>
        <time>2016-01-30T08:19:06.221Z</time>
      </trkpt>
      <trkpt lat="43.66916" lon="5.81621">
        <ele>459</ele>
        <time>2016-01-30T08:19:10.245Z</time>
      </trkpt>
      <trkpt lat="43.66915" lon="5.81621">
        <ele>459</ele>
        <time>2016-01-30T08:19:11.221Z</time>
      </trkpt>
      <trkpt lat="43.66908" lon="5.81615">
        <ele>459</ele>
        <time>2016-01-30T08:19:21.245Z</time>
      </trkpt>
      <trkpt lat="43.66906" lon="5.81616">
        <ele>459</ele>
        <time>2016-01-30T08:19:22.221Z</time>
      </trkpt>
      <trkpt lat="43.66899" lon="5.81615">
        <ele>459</ele>
        <time>2016-01-30T08:19:27.274Z</time>
      </trkpt>
      <trkpt lat="43.66897" lon="5.81614">
        <ele>459</ele>
        <time>2016-01-30T08:19:28.220Z</time>
      </trkpt>
      <trkpt lat="43.66891" lon="5.81611">
        <ele>458</ele>
        <time>2016-01-30T08:19:31.244Z</time>
      </trkpt>
      <trkpt lat="43.66888" lon="5.8161">
        <ele>458</ele>
        <time>2016-01-30T08:19:32.221Z</time>
      </trkpt>
      <trkpt lat="43.66882" lon="5.81603">
        <ele>458</ele>
        <time>2016-01-30T08:19:35.244Z</time>
      </trkpt>
      <trkpt lat="43.6688" lon="5.816">
        <ele>458</ele>
        <time>2016-01-30T08:19:36.220Z</time>
      </trkpt>
      <trkpt lat="43.66875" lon="5.81591">
        <ele>457</ele>
        <time>2016-01-30T08:19:39.245Z</time>
      </trkpt>
      <trkpt lat="43.66874" lon="5.81589">
        <ele>457</ele>
        <time>2016-01-30T08:19:40.221Z</time>
      </trkpt>
      <trkpt lat="43.66873" lon="5.81579">
        <ele>457</ele>
        <time>2016-01-30T08:19:43.312Z</time>
      </trkpt>
      <trkpt lat="43.66873" lon="5.81575">
        <ele>457</ele>
        <time>2016-01-30T08:19:44.219Z</time>
      </trkpt>
      <trkpt lat="43.66874" lon="5.81564">
        <ele>456</ele>
        <time>2016-01-30T08:19:47.244Z</time>
      </trkpt>
      <trkpt lat="43.66873" lon="5.81561">
        <ele>456</ele>
        <time>2016-01-30T08:19:48.231Z</time>
      </trkpt>
      <trkpt lat="43.66868" lon="5.81553">
        <ele>456</ele>
        <time>2016-01-30T08:19:51.245Z</time>
      </trkpt>
      <trkpt lat="43.66865" lon="5.81551">
        <ele>456</ele>
        <time>2016-01-30T08:19:52.221Z</time>
      </trkpt>
      <trkpt lat="43.66857" lon="5.81548">
        <ele>456</ele>
        <time>2016-01-30T08:19:55.244Z</time>
      </trkpt>
      <trkpt lat="43.66854" lon="5.81547">
        <ele>456</ele>
        <time>2016-01-30T08:19:56.447Z</time>
      </trkpt>
      <trkpt lat="43.66848" lon="5.81542">
        <ele>455</ele>
        <time>2016-01-30T08:19:58.244Z</time>
      </trkpt>
      <trkpt lat="43.66845" lon="5.8154">
        <ele>455</ele>
        <time>2016-01-30T08:19:59.221Z</time>
      </trkpt>
      <trkpt lat="43.66839" lon="5.81534">
        <ele>455</ele>
        <time>2016-01-30T08:20:02.245Z</time>
      </trkpt>
      <trkpt lat="43.66839" lon="5.81531">
        <ele>455</ele>
        <time>2016-01-30T08:20:03.218Z</time>
      </trkpt>
      <trkpt lat="43.66843" lon="5.8152">
        <ele>454</ele>
        <time>2016-01-30T08:20:06.245Z</time>
      </trkpt>
      <trkpt lat="43.66844" lon="5.81516">
        <ele>454</ele>
        <time>2016-01-30T08:20:07.219Z</time>
      </trkpt>
      <trkpt lat="43.66849" lon="5.81508">
        <ele>454</ele>
        <time>2016-01-30T08:20:10.274Z</time>
      </trkpt>
      <trkpt lat="43.6685" lon="5.81505">
        <ele>455</ele>
        <time>2016-01-30T08:20:11.221Z</time>
      </trkpt>
      <trkpt lat="43.66854" lon="5.81496">
        <ele>455</ele>
        <time>2016-01-30T08:20:14.243Z</time>
      </trkpt>
      <trkpt lat="43.66855" lon="5.81492">
        <ele>455</ele>
        <time>2016-01-30T08:20:15.221Z</time>
      </trkpt>
      <trkpt lat="43.66858" lon="5.81485">
        <ele>454</ele>
        <time>2016-01-30T08:20:17.246Z</time>
      </trkpt>
      <trkpt lat="43.66859" lon="5.81481">
        <ele>454</ele>
        <time>2016-01-30T08:20:18.222Z</time>
      </trkpt>
      <trkpt lat="43.66862" lon="5.81473">
        <ele>454</ele>
        <time>2016-01-30T08:20:20.244Z</time>
      </trkpt>
      <trkpt lat="43.66863" lon="5.81469">
        <ele>454</ele>
        <time>2016-01-30T08:20:21.249Z</time>
      </trkpt>
      <trkpt lat="43.66866" lon="5.81461">
        <ele>454</ele>
        <time>2016-01-30T08:20:23.256Z</time>
      </trkpt>
      <trkpt lat="43.66868" lon="5.81458">
        <ele>454</ele>
        <time>2016-01-30T08:20:24.221Z</time>
      </trkpt>
      <trkpt lat="43.66871" lon="5.8145">
        <ele>453</ele>
        <time>2016-01-30T08:20:26.246Z</time>
      </trkpt>
      <trkpt lat="43.66871" lon="5.81445">
        <ele>453</ele>
        <time>2016-01-30T08:20:27.221Z</time>
      </trkpt>
      <trkpt lat="43.66868" lon="5.81435">
        <ele>453</ele>
        <time>2016-01-30T08:20:30.245Z</time>
      </trkpt>
      <trkpt lat="43.66867" lon="5.81431">
        <ele>453</ele>
        <time>2016-01-30T08:20:31.233Z</time>
      </trkpt>
      <trkpt lat="43.66864" lon="5.81421">
        <ele>453</ele>
        <time>2016-01-30T08:20:34.253Z</time>
      </trkpt>
      <trkpt lat="43.66864" lon="5.81418">
        <ele>454</ele>
        <time>2016-01-30T08:20:35.221Z</time>
      </trkpt>
      <trkpt lat="43.66863" lon="5.81407">
        <ele>453</ele>
        <time>2016-01-30T08:20:38.245Z</time>
      </trkpt>
      <trkpt lat="43.66863" lon="5.81403">
        <ele>452</ele>
        <time>2016-01-30T08:20:39.221Z</time>
      </trkpt>
      <trkpt lat="43.6686" lon="5.81391">
        <ele>453</ele>
        <time>2016-01-30T08:20:42.243Z</time>
      </trkpt>
      <trkpt lat="43.66859" lon="5.81387">
        <ele>453</ele>
        <time>2016-01-30T08:20:43.231Z</time>
      </trkpt>
      <trkpt lat="43.66854" lon="5.81376">
        <ele>453</ele>
        <time>2016-01-30T08:20:46.244Z</time>
      </trkpt>
      <trkpt lat="43.66852" lon="5.81374">
        <ele>454</ele>
        <time>2016-01-30T08:20:47.221Z</time>
      </trkpt>
      <trkpt lat="43.66848" lon="5.81365">
        <ele>454</ele>
        <time>2016-01-30T08:20:51.246Z</time>
      </trkpt>
      <trkpt lat="43.66848" lon="5.81362">
        <ele>454</ele>
        <time>2016-01-30T08:20:52.220Z</time>
      </trkpt>
      <trkpt lat="43.66853" lon="5.81355">
        <ele>454</ele>
        <time>2016-01-30T08:20:55.308Z</time>
      </trkpt>
      <trkpt lat="43.66856" lon="5.81353">
        <ele>454</ele>
        <time>2016-01-30T08:20:56.221Z</time>
      </trkpt>
      <trkpt lat="43.66858" lon="5.81341">
        <ele>455</ele>
        <time>2016-01-30T08:21:00.235Z</time>
      </trkpt>
      <trkpt lat="43.66856" lon="5.81339">
        <ele>455</ele>
        <time>2016-01-30T08:21:01.221Z</time>
      </trkpt>
      <trkpt lat="43.66848" lon="5.81336">
        <ele>455</ele>
        <time>2016-01-30T08:21:04.324Z</time>
      </trkpt>
      <trkpt lat="43.66846" lon="5.81334">
        <ele>455</ele>
        <time>2016-01-30T08:21:05.220Z</time>
      </trkpt>
      <trkpt lat="43.66841" lon="5.81325">
        <ele>454</ele>
        <time>2016-01-30T08:21:11.229Z</time>
      </trkpt>
      <trkpt lat="43.66842" lon="5.81323">
        <ele>454</ele>
        <time>2016-01-30T08:21:12.220Z</time>
      </trkpt>
      <trkpt lat="43.66844" lon="5.81312">
        <ele>454</ele>
        <time>2016-01-30T08:21:16.245Z</time>
      </trkpt>
      <trkpt lat="43.66845" lon="5.81309">
        <ele>454</ele>
        <time>2016-01-30T08:21:17.221Z</time>
      </trkpt>
      <trkpt lat="43.66849" lon="5.81298">
        <ele>452</ele>
        <time>2016-01-30T08:21:21.479Z</time>
      </trkpt>
      <trkpt lat="43.66849" lon="5.81295">
        <ele>452</ele>
        <time>2016-01-30T08:21:22.218Z</time>
      </trkpt>
      <trkpt lat="43.66851" lon="5.81283">
        <ele>453</ele>
        <time>2016-01-30T08:21:25.245Z</time>
      </trkpt>
      <trkpt lat="43.66851" lon="5.81278">
        <ele>452</ele>
        <time>2016-01-30T08:21:26.221Z</time>
      </trkpt>
      <trkpt lat="43.66852" lon="5.81269">
        <ele>453</ele>
        <time>2016-01-30T08:21:28.246Z</time>
      </trkpt>
      <trkpt lat="43.66854" lon="5.81265">
        <ele>453</ele>
        <time>2016-01-30T08:21:29.221Z</time>
      </trkpt>
      <trkpt lat="43.66855" lon="5.81256">
        <ele>453</ele>
        <time>2016-01-30T08:21:31.281Z</time>
      </trkpt>
      <trkpt lat="43.66855" lon="5.81252">
        <ele>453</ele>
        <time>2016-01-30T08:21:32.220Z</time>
      </trkpt>
      <trkpt lat="43.66855" lon="5.81243">
        <ele>453</ele>
        <time>2016-01-30T08:21:34.244Z</time>
      </trkpt>
      <trkpt lat="43.66855" lon="5.81239">
        <ele>453</ele>
        <time>2016-01-30T08:21:35.221Z</time>
      </trkpt>
      <trkpt lat="43.66856" lon="5.81227">
        <ele>452</ele>
        <time>2016-01-30T08:21:38.245Z</time>
      </trkpt>
      <trkpt lat="43.66856" lon="5.81223">
        <ele>452</ele>
        <time>2016-01-30T08:21:39.221Z</time>
      </trkpt>
      <trkpt lat="43.66854" lon="5.81211">
        <ele>451</ele>
        <time>2016-01-30T08:21:42.273Z</time>
      </trkpt>
      <trkpt lat="43.66854" lon="5.81207">
        <ele>451</ele>
        <time>2016-01-30T08:21:43.221Z</time>
      </trkpt>
      <trkpt lat="43.66852" lon="5.81195">
        <ele>451</ele>
        <time>2016-01-30T08:21:46.293Z</time>
      </trkpt>
      <trkpt lat="43.66853" lon="5.81191">
        <ele>451</ele>
        <time>2016-01-30T08:21:47.221Z</time>
      </trkpt>
      <trkpt lat="43.66857" lon="5.8118">
        <ele>451</ele>
        <time>2016-01-30T08:21:50.244Z</time>
      </trkpt>
      <trkpt lat="43.66858" lon="5.81177">
        <ele>451</ele>
        <time>2016-01-30T08:21:51.222Z</time>
      </trkpt>
      <trkpt lat="43.66859" lon="5.81165">
        <ele>453</ele>
        <time>2016-01-30T08:21:54.246Z</time>
      </trkpt>
      <trkpt lat="43.66859" lon="5.81161">
        <ele>454</ele>
        <time>2016-01-30T08:21:55.221Z</time>
      </trkpt>
      <trkpt lat="43.66861" lon="5.8115">
        <ele>453</ele>
        <time>2016-01-30T08:21:58.274Z</time>
      </trkpt>
      <trkpt lat="43.6686" lon="5.81146">
        <ele>453</ele>
        <time>2016-01-30T08:21:59.222Z</time>
      </trkpt>
      <trkpt lat="43.66861" lon="5.81136">
        <ele>454</ele>
        <time>2016-01-30T08:22:02.243Z</time>
      </trkpt>
      <trkpt lat="43.66863" lon="5.81134">
        <ele>454</ele>
        <time>2016-01-30T08:22:03.221Z</time>
      </trkpt>
      <trkpt lat="43.6687" lon="5.81127">
        <ele>454</ele>
        <time>2016-01-30T08:22:06.246Z</time>
      </trkpt>
      <trkpt lat="43.66871" lon="5.81124">
        <ele>454</ele>
        <time>2016-01-30T08:22:07.221Z</time>
      </trkpt>
      <trkpt lat="43.66875" lon="5.81113">
        <ele>453</ele>
        <time>2016-01-30T08:22:10.248Z</time>
      </trkpt>
      <trkpt lat="43.66876" lon="5.81109">
        <ele>453</ele>
        <time>2016-01-30T08:22:11.221Z</time>
      </trkpt>
      <trkpt lat="43.66878" lon="5.81097">
        <ele>453</ele>
        <time>2016-01-30T08:22:14.274Z</time>
      </trkpt>
      <trkpt lat="43.66879" lon="5.81094">
        <ele>453</ele>
        <time>2016-01-30T08:22:15.221Z</time>
      </trkpt>
      <trkpt lat="43.66884" lon="5.81084">
        <ele>452</ele>
        <time>2016-01-30T08:22:18.247Z</time>
      </trkpt>
      <trkpt lat="43.66885" lon="5.8108">
        <ele>453</ele>
        <time>2016-01-30T08:22:19.222Z</time>
      </trkpt>
      <trkpt lat="43.66883" lon="5.81069">
        <ele>452</ele>
        <time>2016-01-30T08:22:22.246Z</time>
      </trkpt>
      <trkpt lat="43.66882" lon="5.81066">
        <ele>453</ele>
        <time>2016-01-30T08:22:23.220Z</time>
      </trkpt>
      <trkpt lat="43.6688" lon="5.81056">
        <ele>452</ele>
        <time>2016-01-30T08:22:26.246Z</time>
      </trkpt>
      <trkpt lat="43.6688" lon="5.81053">
        <ele>452</ele>
        <time>2016-01-30T08:22:27.221Z</time>
      </trkpt>
      <trkpt lat="43.66883" lon="5.81043">
        <ele>452</ele>
        <time>2016-01-30T08:22:30.246Z</time>
      </trkpt>
      <trkpt lat="43.66884" lon="5.81039">
        <ele>452</ele>
        <time>2016-01-30T08:22:31.221Z</time>
      </trkpt>
      <trkpt lat="43.66886" lon="5.81028">
        <ele>452</ele>
        <time>2016-01-30T08:22:34.247Z</time>
      </trkpt>
      <trkpt lat="43.66888" lon="5.81024">
        <ele>452</ele>
        <time>2016-01-30T08:22:35.221Z</time>
      </trkpt>
      <trkpt lat="43.66895" lon="5.81018">
        <ele>452</ele>
        <time>2016-01-30T08:22:38.284Z</time>
      </trkpt>
      <trkpt lat="43.66897" lon="5.81017">
        <ele>452</ele>
        <time>2016-01-30T08:22:39.219Z</time>
      </trkpt>
      <trkpt lat="43.66904" lon="5.81016">
        <ele>452</ele>
        <time>2016-01-30T08:22:41.246Z</time>
      </trkpt>
      <trkpt lat="43.66907" lon="5.81015">
        <ele>451</ele>
        <time>2016-01-30T08:22:42.221Z</time>
      </trkpt>
      <trkpt lat="43.66911" lon="5.81009">
        <ele>452</ele>
        <time>2016-01-30T08:22:44.295Z</time>
      </trkpt>
      <trkpt lat="43.66912" lon="5.81005">
        <ele>452</ele>
        <time>2016-01-30T08:22:45.221Z</time>
      </trkpt>
      <trkpt lat="43.66916" lon="5.80998">
        <ele>451</ele>
        <time>2016-01-30T08:22:47.319Z</time>
      </trkpt>
      <trkpt lat="43.66917" lon="5.80994">
        <ele>451</ele>
        <time>2016-01-30T08:22:48.215Z</time>
      </trkpt>
      <trkpt lat="43.66918" lon="5.80982">
        <ele>451</ele>
        <time>2016-01-30T08:22:51.244Z</time>
      </trkpt>
      <trkpt lat="43.66919" lon="5.80979">
        <ele>451</ele>
        <time>2016-01-30T08:22:52.221Z</time>
      </trkpt>
      <trkpt lat="43.66924" lon="5.8097">
        <ele>450</ele>
        <time>2016-01-30T08:22:55.248Z</time>
      </trkpt>
      <trkpt lat="43.66926" lon="5.80966">
        <ele>450</ele>
        <time>2016-01-30T08:22:56.221Z</time>
      </trkpt>
      <trkpt lat="43.66927" lon="5.80955">
        <ele>450</ele>
        <time>2016-01-30T08:22:59.245Z</time>
      </trkpt>
      <trkpt lat="43.66927" lon="5.80951">
        <ele>450</ele>
        <time>2016-01-30T08:23:00.221Z</time>
      </trkpt>
      <trkpt lat="43.6693" lon="5.80939">
        <ele>450</ele>
        <time>2016-01-30T08:23:03.245Z</time>
      </trkpt>
      <trkpt lat="43.66931" lon="5.80935">
        <ele>451</ele>
        <time>2016-01-30T08:23:04.221Z</time>
      </trkpt>
      <trkpt lat="43.66934" lon="5.80925">
        <ele>451</ele>
        <time>2016-01-30T08:23:07.246Z</time>
      </trkpt>
      <trkpt lat="43.66935" lon="5.80922">
        <ele>451</ele>
        <time>2016-01-30T08:23:08.251Z</time>
      </trkpt>
      <trkpt lat="43.66935" lon="5.8091">
        <ele>450</ele>
        <time>2016-01-30T08:23:11.244Z</time>
      </trkpt>
      <trkpt lat="43.66935" lon="5.80907">
        <ele>449</ele>
        <time>2016-01-30T08:23:12.219Z</time>
      </trkpt>
      <trkpt lat="43.66936" lon="5.80896">
        <ele>452</ele>
        <time>2016-01-30T08:24:17.243Z</time>
      </trkpt>
      <trkpt lat="43.66937" lon="5.80893">
        <ele>452</ele>
        <time>2016-01-30T08:24:18.218Z</time>
      </trkpt>
      <trkpt lat="43.6694" lon="5.80883">
        <ele>451</ele>
        <time>2016-01-30T08:24:28.257Z</time>
      </trkpt>
      <trkpt lat="43.66941" lon="5.8088">
        <ele>451</ele>
        <time>2016-01-30T08:24:29.233Z</time>
      </trkpt>
      <trkpt lat="43.66943" lon="5.80868">
        <ele>453</ele>
        <time>2016-01-30T08:27:51.245Z</time>
      </trkpt>
      <trkpt lat="43.66944" lon="5.80866">
        <ele>453</ele>
        <time>2016-01-30T08:27:52.233Z</time>
      </trkpt>
      <trkpt lat="43.66942" lon="5.80856">
        <ele>453</ele>
        <time>2016-01-30T08:27:56.245Z</time>
      </trkpt>
      <trkpt lat="43.66941" lon="5.80854">
        <ele>453</ele>
        <time>2016-01-30T08:27:57.233Z</time>
      </trkpt>
      <trkpt lat="43.66938" lon="5.80844">
        <ele>452</ele>
        <time>2016-01-30T08:28:00.245Z</time>
      </trkpt>
      <trkpt lat="43.66938" lon="5.80842">
        <ele>452</ele>
        <time>2016-01-30T08:28:01.248Z</time>
      </trkpt>
      <trkpt lat="43.66941" lon="5.80831">
        <ele>451</ele>
        <time>2016-01-30T08:28:05.246Z</time>
      </trkpt>
      <trkpt lat="43.66941" lon="5.80828">
        <ele>451</ele>
        <time>2016-01-30T08:28:06.232Z</time>
      </trkpt>
      <trkpt lat="43.66944" lon="5.80818">
        <ele>451</ele>
        <time>2016-01-30T08:28:10.257Z</time>
      </trkpt>
      <trkpt lat="43.66945" lon="5.80815">
        <ele>451</ele>
        <time>2016-01-30T08:28:11.233Z</time>
      </trkpt>
      <trkpt lat="43.66949" lon="5.80806">
        <ele>451</ele>
        <time>2016-01-30T08:28:15.246Z</time>
      </trkpt>
      <trkpt lat="43.66952" lon="5.80804">
        <ele>451</ele>
        <time>2016-01-30T08:28:16.232Z</time>
      </trkpt>
      <trkpt lat="43.66958" lon="5.80797">
        <ele>451</ele>
        <time>2016-01-30T08:28:20.247Z</time>
      </trkpt>
      <trkpt lat="43.6696" lon="5.80793">
        <ele>451</ele>
        <time>2016-01-30T08:28:21.234Z</time>
      </trkpt>
      <trkpt lat="43.66962" lon="5.80782">
        <ele>450</ele>
        <time>2016-01-30T08:28:24.277Z</time>
      </trkpt>
      <trkpt lat="43.66963" lon="5.80779">
        <ele>450</ele>
        <time>2016-01-30T08:28:25.231Z</time>
      </trkpt>
      <trkpt lat="43.66968" lon="5.80769">
        <ele>450</ele>
        <time>2016-01-30T08:28:28.274Z</time>
      </trkpt>
      <trkpt lat="43.66969" lon="5.80765">
        <ele>450</ele>
        <time>2016-01-30T08:28:29.234Z</time>
      </trkpt>
      <trkpt lat="43.66972" lon="5.80757">
        <ele>449</ele>
        <time>2016-01-30T08:28:31.247Z</time>
      </trkpt>
      <trkpt lat="43.66973" lon="5.80753">
        <ele>449</ele>
        <time>2016-01-30T08:28:32.222Z</time>
      </trkpt>
      <trkpt lat="43.66973" lon="5.80741">
        <ele>447</ele>
        <time>2016-01-30T08:28:35.247Z</time>
      </trkpt>
      <trkpt lat="43.66974" lon="5.80737">
        <ele>447</ele>
        <time>2016-01-30T08:28:36.232Z</time>
      </trkpt>
      <trkpt lat="43.66976" lon="5.80726">
        <ele>446</ele>
        <time>2016-01-30T08:28:38.246Z</time>
      </trkpt>
      <trkpt lat="43.66977" lon="5.80721">
        <ele>446</ele>
        <time>2016-01-30T08:28:39.223Z</time>
      </trkpt>
      <trkpt lat="43.66973" lon="5.80711">
        <ele>445</ele>
        <time>2016-01-30T08:28:41.255Z</time>
      </trkpt>
      <trkpt lat="43.66971" lon="5.80706">
        <ele>444</ele>
        <time>2016-01-30T08:28:42.213Z</time>
      </trkpt>
      <trkpt lat="43.66965" lon="5.80699">
        <ele>443</ele>
        <time>2016-01-30T08:28:44.274Z</time>
      </trkpt>
      <trkpt lat="43.66961" lon="5.80696">
        <ele>442</ele>
        <time>2016-01-30T08:28:45.223Z</time>
      </trkpt>
      <trkpt lat="43.66958" lon="5.80692">
        <ele>441</ele>
        <time>2016-01-30T08:28:46.297Z</time>
      </trkpt>
      <trkpt lat="43.66958" lon="5.80683">
        <ele>439</ele>
        <time>2016-01-30T08:28:47.222Z</time>
      </trkpt>
      <trkpt lat="43.66959" lon="5.80674">
        <ele>437</ele>
        <time>2016-01-30T08:28:48.245Z</time>
      </trkpt>
      <trkpt lat="43.66962" lon="5.80667">
        <ele>436</ele>
        <time>2016-01-30T08:28:49.234Z</time>
      </trkpt>
      <trkpt lat="43.66965" lon="5.80659">
        <ele>435</ele>
        <time>2016-01-30T08:28:50.239Z</time>
      </trkpt>
      <trkpt lat="43.66969" lon="5.80652">
        <ele>433</ele>
        <time>2016-01-30T08:28:51.221Z</time>
      </trkpt>
      <trkpt lat="43.66974" lon="5.80645">
        <ele>431</ele>
        <time>2016-01-30T08:28:52.248Z</time>
      </trkpt>
      <trkpt lat="43.66979" lon="5.8064">
        <ele>429</ele>
        <time>2016-01-30T08:28:53.224Z</time>
      </trkpt>
      <trkpt lat="43.66983" lon="5.80635">
        <ele>428</ele>
        <time>2016-01-30T08:28:54.248Z</time>
      </trkpt>
      <trkpt lat="43.66987" lon="5.8063">
        <ele>427</ele>
        <time>2016-01-30T08:28:55.223Z</time>
      </trkpt>
      <trkpt lat="43.66988" lon="5.8062">
        <ele>425</ele>
        <time>2016-01-30T08:28:57.480Z</time>
      </trkpt>
      <trkpt lat="43.66987" lon="5.80615">
        <ele>426</ele>
        <time>2016-01-30T08:28:58.220Z</time>
      </trkpt>
      <trkpt lat="43.6698" lon="5.8061">
        <ele>426</ele>
        <time>2016-01-30T08:29:00.233Z</time>
      </trkpt>
      <trkpt lat="43.66977" lon="5.80611">
        <ele>426</ele>
        <time>2016-01-30T08:29:01.222Z</time>
      </trkpt>
      <trkpt lat="43.66969" lon="5.8061">
        <ele>427</ele>
        <time>2016-01-30T08:29:06.272Z</time>
      </trkpt>
      <trkpt lat="43.66967" lon="5.80609">
        <ele>427</ele>
        <time>2016-01-30T08:29:07.222Z</time>
      </trkpt>
      <trkpt lat="43.6696" lon="5.80606">
        <ele>427</ele>
        <time>2016-01-30T08:29:11.338Z</time>
      </trkpt>
      <trkpt lat="43.66958" lon="5.80605">
        <ele>427</ele>
        <time>2016-01-30T08:29:12.228Z</time>
      </trkpt>
      <trkpt lat="43.66952" lon="5.80601">
        <ele>427</ele>
        <time>2016-01-30T08:29:15.255Z</time>
      </trkpt>
      <trkpt lat="43.6695" lon="5.80599">
        <ele>427</ele>
        <time>2016-01-30T08:29:16.234Z</time>
      </trkpt>
      <trkpt lat="43.66947" lon="5.80589">
        <ele>426</ele>
        <time>2016-01-30T08:29:19.258Z</time>
      </trkpt>
      <trkpt lat="43.66947" lon="5.80585">
        <ele>427</ele>
        <time>2016-01-30T08:29:20.222Z</time>
      </trkpt>
      <trkpt lat="43.66943" lon="5.80578">
        <ele>427</ele>
        <time>2016-01-30T08:29:23.259Z</time>
      </trkpt>
      <trkpt lat="43.66941" lon="5.80576">
        <ele>427</ele>
        <time>2016-01-30T08:29:24.223Z</time>
      </trkpt>
      <trkpt lat="43.66932" lon="5.80576">
        <ele>428</ele>
        <time>2016-01-30T08:29:30.261Z</time>
      </trkpt>
      <trkpt lat="43.6693" lon="5.80575">
        <ele>429</ele>
        <time>2016-01-30T08:29:31.223Z</time>
      </trkpt>
      <trkpt lat="43.66922" lon="5.80571">
        <ele>430</ele>
        <time>2016-01-30T08:29:37.242Z</time>
      </trkpt>
      <trkpt lat="43.66921" lon="5.8057">
        <ele>430</ele>
        <time>2016-01-30T08:29:38.222Z</time>
      </trkpt>
      <trkpt lat="43.66916" lon="5.80562">
        <ele>430</ele>
        <time>2016-01-30T08:29:43.254Z</time>
      </trkpt>
      <trkpt lat="43.66914" lon="5.80559">
        <ele>430</ele>
        <time>2016-01-30T08:29:44.250Z</time>
      </trkpt>
      <trkpt lat="43.6691" lon="5.80552">
        <ele>430</ele>
        <time>2016-01-30T08:29:46.247Z</time>
      </trkpt>
      <trkpt lat="43.66907" lon="5.80549">
        <ele>430</ele>
        <time>2016-01-30T08:29:47.235Z</time>
      </trkpt>
      <trkpt lat="43.669" lon="5.80542">
        <ele>429</ele>
        <time>2016-01-30T08:29:51.246Z</time>
      </trkpt>
      <trkpt lat="43.66899" lon="5.8054">
        <ele>430</ele>
        <time>2016-01-30T08:29:52.222Z</time>
      </trkpt>
      <trkpt lat="43.66894" lon="5.80531">
        <ele>431</ele>
        <time>2016-01-30T08:29:56.246Z</time>
      </trkpt>
      <trkpt lat="43.66893" lon="5.8053">
        <ele>431</ele>
        <time>2016-01-30T08:29:57.223Z</time>
      </trkpt>
      <trkpt lat="43.66886" lon="5.80524">
        <ele>430</ele>
        <time>2016-01-30T08:30:01.243Z</time>
      </trkpt>
      <trkpt lat="43.66885" lon="5.80523">
        <ele>430</ele>
        <time>2016-01-30T08:30:02.223Z</time>
      </trkpt>
      <trkpt lat="43.66878" lon="5.80515">
        <ele>430</ele>
        <time>2016-01-30T08:30:07.276Z</time>
      </trkpt>
      <trkpt lat="43.66876" lon="5.80514">
        <ele>430</ele>
        <time>2016-01-30T08:30:08.222Z</time>
      </trkpt>
      <trkpt lat="43.6687" lon="5.80509">
        <ele>431</ele>
        <time>2016-01-30T08:30:12.256Z</time>
      </trkpt>
      <trkpt lat="43.66869" lon="5.80507">
        <ele>431</ele>
        <time>2016-01-30T08:30:13.222Z</time>
      </trkpt>
      <trkpt lat="43.66861" lon="5.80503">
        <ele>431</ele>
        <time>2016-01-30T08:30:18.246Z</time>
      </trkpt>
      <trkpt lat="43.66859" lon="5.80503">
        <ele>431</ele>
        <time>2016-01-30T08:30:19.221Z</time>
      </trkpt>
      <trkpt lat="43.66851" lon="5.80506">
        <ele>431</ele>
        <time>2016-01-30T08:30:24.241Z</time>
      </trkpt>
      <trkpt lat="43.66848" lon="5.80506">
        <ele>431</ele>
        <time>2016-01-30T08:30:25.221Z</time>
      </trkpt>
      <trkpt lat="43.66839" lon="5.80508">
        <ele>432</ele>
        <time>2016-01-30T08:30:29.241Z</time>
      </trkpt>
      <trkpt lat="43.66837" lon="5.80509">
        <ele>432</ele>
        <time>2016-01-30T08:30:30.219Z</time>
      </trkpt>
      <trkpt lat="43.6683" lon="5.80511">
        <ele>432</ele>
        <time>2016-01-30T08:30:34.295Z</time>
      </trkpt>
      <trkpt lat="43.66828" lon="5.80512">
        <ele>431</ele>
        <time>2016-01-30T08:30:35.215Z</time>
      </trkpt>
      <trkpt lat="43.6682" lon="5.80513">
        <ele>431</ele>
        <time>2016-01-30T08:30:39.246Z</time>
      </trkpt>
      <trkpt lat="43.66818" lon="5.80513">
        <ele>431</ele>
        <time>2016-01-30T08:30:40.223Z</time>
      </trkpt>
      <trkpt lat="43.6681" lon="5.80512">
        <ele>432</ele>
        <time>2016-01-30T08:30:44.257Z</time>
      </trkpt>
      <trkpt lat="43.66808" lon="5.80511">
        <ele>432</ele>
        <time>2016-01-30T08:30:45.221Z</time>
      </trkpt>
      <trkpt lat="43.668" lon="5.80509">
        <ele>433</ele>
        <time>2016-01-30T08:30:50.265Z</time>
      </trkpt>
      <trkpt lat="43.66798" lon="5.80508">
        <ele>433</ele>
        <time>2016-01-30T08:30:51.221Z</time>
      </trkpt>
      <trkpt lat="43.66792" lon="5.80501">
        <ele>434</ele>
        <time>2016-01-30T08:30:56.244Z</time>
      </trkpt>
      <trkpt lat="43.66791" lon="5.80499">
        <ele>434</ele>
        <time>2016-01-30T08:30:57.223Z</time>
      </trkpt>
      <trkpt lat="43.66786" lon="5.80491">
        <ele>434</ele>
        <time>2016-01-30T08:31:01.243Z</time>
      </trkpt>
      <trkpt lat="43.66784" lon="5.80489">
        <ele>434</ele>
        <time>2016-01-30T08:31:02.222Z</time>
      </trkpt>
      <trkpt lat="43.66782" lon="5.8048">
        <ele>434</ele>
        <time>2016-01-30T08:31:05.230Z</time>
      </trkpt>
      <trkpt lat="43.66781" lon="5.80477">
        <ele>434</ele>
        <time>2016-01-30T08:31:06.221Z</time>
      </trkpt>
      <trkpt lat="43.66778" lon="5.80467">
        <ele>434</ele>
        <time>2016-01-30T08:31:10.293Z</time>
      </trkpt>
      <trkpt lat="43.66777" lon="5.80465">
        <ele>434</ele>
        <time>2016-01-30T08:31:11.220Z</time>
      </trkpt>
      <trkpt lat="43.66771" lon="5.80456">
        <ele>434</ele>
        <time>2016-01-30T08:31:15.246Z</time>
      </trkpt>
      <trkpt lat="43.6677" lon="5.80454">
        <ele>434</ele>
        <time>2016-01-30T08:31:16.223Z</time>
      </trkpt>
      <trkpt lat="43.66765" lon="5.80444">
        <ele>434</ele>
        <time>2016-01-30T08:31:21.230Z</time>
      </trkpt>
      <trkpt lat="43.66764" lon="5.80442">
        <ele>434</ele>
        <time>2016-01-30T08:31:22.221Z</time>
      </trkpt>
      <trkpt lat="43.66759" lon="5.80435">
        <ele>435</ele>
        <time>2016-01-30T08:31:26.243Z</time>
      </trkpt>
      <trkpt lat="43.66757" lon="5.80434">
        <ele>435</ele>
        <time>2016-01-30T08:31:27.229Z</time>
      </trkpt>
      <trkpt lat="43.6675" lon="5.80428">
        <ele>436</ele>
        <time>2016-01-30T08:31:31.239Z</time>
      </trkpt>
      <trkpt lat="43.66749" lon="5.80426">
        <ele>436</ele>
        <time>2016-01-30T08:31:32.219Z</time>
      </trkpt>
      <trkpt lat="43.6674" lon="5.80424">
        <ele>436</ele>
        <time>2016-01-30T08:31:36.241Z</time>
      </trkpt>
      <trkpt lat="43.66739" lon="5.80422">
        <ele>436</ele>
        <time>2016-01-30T08:31:37.227Z</time>
      </trkpt>
      <trkpt lat="43.66734" lon="5.80412">
        <ele>438</ele>
        <time>2016-01-30T08:31:43.234Z</time>
      </trkpt>
      <trkpt lat="43.66732" lon="5.80411">
        <ele>438</ele>
        <time>2016-01-30T08:31:44.222Z</time>
      </trkpt>
      <trkpt lat="43.66724" lon="5.80409">
        <ele>437</ele>
        <time>2016-01-30T08:31:47.241Z</time>
      </trkpt>
      <trkpt lat="43.66721" lon="5.8041">
        <ele>437</ele>
        <time>2016-01-30T08:31:48.219Z</time>
      </trkpt>
      <trkpt lat="43.66713" lon="5.80411">
        <ele>437</ele>
        <time>2016-01-30T08:31:51.278Z</time>
      </trkpt>
      <trkpt lat="43.66711" lon="5.80409">
        <ele>437</ele>
        <time>2016-01-30T08:31:52.220Z</time>
      </trkpt>
      <trkpt lat="43.66704" lon="5.80402">
        <ele>438</ele>
        <time>2016-01-30T08:31:56.248Z</time>
      </trkpt>
      <trkpt lat="43.66703" lon="5.804">
        <ele>438</ele>
        <time>2016-01-30T08:31:57.224Z</time>
      </trkpt>
      <trkpt lat="43.66701" lon="5.8039">
        <ele>437</ele>
        <time>2016-01-30T08:32:00.247Z</time>
      </trkpt>
      <trkpt lat="43.66701" lon="5.80387">
        <ele>438</ele>
        <time>2016-01-30T08:32:01.223Z</time>
      </trkpt>
      <trkpt lat="43.667" lon="5.80378">
        <ele>437</ele>
        <time>2016-01-30T08:32:04.321Z</time>
      </trkpt>
      <trkpt lat="43.667" lon="5.80374">
        <ele>437</ele>
        <time>2016-01-30T08:32:05.223Z</time>
      </trkpt>
      <trkpt lat="43.66696" lon="5.80365">
        <ele>438</ele>
        <time>2016-01-30T08:32:09.243Z</time>
      </trkpt>
      <trkpt lat="43.66695" lon="5.80363">
        <ele>438</ele>
        <time>2016-01-30T08:32:10.222Z</time>
      </trkpt>
      <trkpt lat="43.66689" lon="5.80357">
        <ele>439</ele>
        <time>2016-01-30T08:32:14.281Z</time>
      </trkpt>
      <trkpt lat="43.66687" lon="5.80356">
        <ele>439</ele>
        <time>2016-01-30T08:32:15.223Z</time>
      </trkpt>
      <trkpt lat="43.66681" lon="5.80351">
        <ele>439</ele>
        <time>2016-01-30T08:32:18.244Z</time>
      </trkpt>
      <trkpt lat="43.66679" lon="5.80349">
        <ele>439</ele>
        <time>2016-01-30T08:32:19.223Z</time>
      </trkpt>
      <trkpt lat="43.66671" lon="5.80345">
        <ele>440</ele>
        <time>2016-01-30T08:32:23.246Z</time>
      </trkpt>
      <trkpt lat="43.66669" lon="5.80345">
        <ele>440</ele>
        <time>2016-01-30T08:32:24.223Z</time>
      </trkpt>
      <trkpt lat="43.6666" lon="5.80342">
        <ele>440</ele>
        <time>2016-01-30T08:32:29.285Z</time>
      </trkpt>
      <trkpt lat="43.6666" lon="5.8034">
        <ele>440</ele>
        <time>2016-01-30T08:32:30.251Z</time>
      </trkpt>
      <trkpt lat="43.66655" lon="5.80331">
        <ele>440</ele>
        <time>2016-01-30T08:32:34.247Z</time>
      </trkpt>
      <trkpt lat="43.66653" lon="5.8033">
        <ele>440</ele>
        <time>2016-01-30T08:32:35.223Z</time>
      </trkpt>
      <trkpt lat="43.66644" lon="5.80328">
        <ele>440</ele>
        <time>2016-01-30T08:32:39.247Z</time>
      </trkpt>
      <trkpt lat="43.66642" lon="5.80327">
        <ele>440</ele>
        <time>2016-01-30T08:32:40.223Z</time>
      </trkpt>
      <trkpt lat="43.66634" lon="5.80325">
        <ele>442</ele>
        <time>2016-01-30T08:32:44.247Z</time>
      </trkpt>
      <trkpt lat="43.66633" lon="5.80324">
        <ele>442</ele>
        <time>2016-01-30T08:32:45.223Z</time>
      </trkpt>
      <trkpt lat="43.66628" lon="5.80315">
        <ele>441</ele>
        <time>2016-01-30T08:32:50.266Z</time>
      </trkpt>
      <trkpt lat="43.66628" lon="5.80313">
        <ele>441</ele>
        <time>2016-01-30T08:32:51.221Z</time>
      </trkpt>
      <trkpt lat="43.66624" lon="5.80304">
        <ele>441</ele>
        <time>2016-01-30T08:32:55.249Z</time>
      </trkpt>
      <trkpt lat="43.66623" lon="5.80301">
        <ele>441</ele>
        <time>2016-01-30T08:32:56.222Z</time>
      </trkpt>
      <trkpt lat="43.66623" lon="5.80289">
        <ele>441</ele>
        <time>2016-01-30T08:33:01.244Z</time>
      </trkpt>
      <trkpt lat="43.66623" lon="5.80287">
        <ele>441</ele>
        <time>2016-01-30T08:33:02.250Z</time>
      </trkpt>
      <trkpt lat="43.66625" lon="5.80276">
        <ele>442</ele>
        <time>2016-01-30T08:33:07.234Z</time>
      </trkpt>
      <trkpt lat="43.66626" lon="5.80274">
        <ele>442</ele>
        <time>2016-01-30T08:33:08.222Z</time>
      </trkpt>
      <trkpt lat="43.66625" lon="5.80264">
        <ele>441</ele>
        <time>2016-01-30T08:33:13.270Z</time>
      </trkpt>
      <trkpt lat="43.66622" lon="5.80262">
        <ele>441</ele>
        <time>2016-01-30T08:33:14.225Z</time>
      </trkpt>
      <trkpt lat="43.66617" lon="5.80254">
        <ele>442</ele>
        <time>2016-01-30T08:33:18.243Z</time>
      </trkpt>
      <trkpt lat="43.66617" lon="5.80252">
        <ele>442</ele>
        <time>2016-01-30T08:33:19.230Z</time>
      </trkpt>
      <trkpt lat="43.66609" lon="5.80247">
        <ele>444</ele>
        <time>2016-01-30T08:33:26.249Z</time>
      </trkpt>
      <trkpt lat="43.66609" lon="5.80245">
        <ele>444</ele>
        <time>2016-01-30T08:33:27.234Z</time>
      </trkpt>
      <trkpt lat="43.666" lon="5.80243">
        <ele>446</ele>
        <time>2016-01-30T08:33:39.249Z</time>
      </trkpt>
      <trkpt lat="43.66599" lon="5.80243">
        <ele>446</ele>
        <time>2016-01-30T08:33:40.221Z</time>
      </trkpt>
      <trkpt lat="43.66592" lon="5.80249">
        <ele>448</ele>
        <time>2016-01-30T08:33:59.253Z</time>
      </trkpt>
      <trkpt lat="43.66591" lon="5.80251">
        <ele>447</ele>
        <time>2016-01-30T08:34:00.436Z</time>
      </trkpt>
      <trkpt lat="43.66585" lon="5.8026">
        <ele>450</ele>
        <time>2016-01-30T08:34:06.316Z</time>
      </trkpt>
      <trkpt lat="43.66583" lon="5.8026">
        <ele>450</ele>
        <time>2016-01-30T08:34:07.222Z</time>
      </trkpt>
      <trkpt lat="43.66575" lon="5.80257">
        <ele>453</ele>
        <time>2016-01-30T08:34:14.250Z</time>
      </trkpt>
      <trkpt lat="43.66574" lon="5.80257">
        <ele>453</ele>
        <time>2016-01-30T08:34:15.224Z</time>
      </trkpt>
      <trkpt lat="43.66565" lon="5.80257">
        <ele>455</ele>
        <time>2016-01-30T08:34:22.258Z</time>
      </trkpt>
      <trkpt lat="43.66564" lon="5.80257">
        <ele>456</ele>
        <time>2016-01-30T08:34:23.223Z</time>
      </trkpt>
      <trkpt lat="43.66556" lon="5.80259">
        <ele>456</ele>
        <time>2016-01-30T08:34:29.248Z</time>
      </trkpt>
      <trkpt lat="43.66555" lon="5.8026">
        <ele>456</ele>
        <time>2016-01-30T08:34:30.223Z</time>
      </trkpt>
      <trkpt lat="43.66547" lon="5.80262">
        <ele>457</ele>
        <time>2016-01-30T08:34:35.245Z</time>
      </trkpt>
      <trkpt lat="43.66546" lon="5.80263">
        <ele>457</ele>
        <time>2016-01-30T08:34:36.223Z</time>
      </trkpt>
      <trkpt lat="43.66538" lon="5.80268">
        <ele>457</ele>
        <time>2016-01-30T08:34:41.247Z</time>
      </trkpt>
      <trkpt lat="43.66537" lon="5.80268">
        <ele>458</ele>
        <time>2016-01-30T08:34:42.223Z</time>
      </trkpt>
      <trkpt lat="43.66528" lon="5.80268">
        <ele>459</ele>
        <time>2016-01-30T08:34:47.247Z</time>
      </trkpt>
      <trkpt lat="43.66526" lon="5.80268">
        <ele>459</ele>
        <time>2016-01-30T08:34:48.223Z</time>
      </trkpt>
      <trkpt lat="43.66518" lon="5.80269">
        <ele>460</ele>
        <time>2016-01-30T08:34:53.244Z</time>
      </trkpt>
      <trkpt lat="43.66516" lon="5.8027">
        <ele>459</ele>
        <time>2016-01-30T08:34:54.223Z</time>
      </trkpt>
      <trkpt lat="43.6651" lon="5.80276">
        <ele>459</ele>
        <time>2016-01-30T08:34:58.234Z</time>
      </trkpt>
      <trkpt lat="43.66508" lon="5.80276">
        <ele>459</ele>
        <time>2016-01-30T08:34:59.223Z</time>
      </trkpt>
      <trkpt lat="43.66503" lon="5.80283">
        <ele>458</ele>
        <time>2016-01-30T08:35:03.247Z</time>
      </trkpt>
      <trkpt lat="43.66501" lon="5.80284">
        <ele>458</ele>
        <time>2016-01-30T08:35:04.225Z</time>
      </trkpt>
      <trkpt lat="43.66495" lon="5.80289">
        <ele>458</ele>
        <time>2016-01-30T08:35:08.249Z</time>
      </trkpt>
      <trkpt lat="43.66493" lon="5.8029">
        <ele>459</ele>
        <time>2016-01-30T08:35:09.223Z</time>
      </trkpt>
      <trkpt lat="43.66486" lon="5.80296">
        <ele>459</ele>
        <time>2016-01-30T08:35:14.243Z</time>
      </trkpt>
      <trkpt lat="43.66484" lon="5.80297">
        <ele>459</ele>
        <time>2016-01-30T08:35:15.223Z</time>
      </trkpt>
      <trkpt lat="43.66477" lon="5.80303">
        <ele>460</ele>
        <time>2016-01-30T08:35:20.248Z</time>
      </trkpt>
      <trkpt lat="43.66475" lon="5.80303">
        <ele>460</ele>
        <time>2016-01-30T08:35:21.225Z</time>
      </trkpt>
      <trkpt lat="43.66468" lon="5.80306">
        <ele>461</ele>
        <time>2016-01-30T08:35:25.245Z</time>
      </trkpt>
      <trkpt lat="43.66467" lon="5.80307">
        <ele>461</ele>
        <time>2016-01-30T08:35:26.223Z</time>
      </trkpt>
      <trkpt lat="43.66459" lon="5.80308">
        <ele>460</ele>
        <time>2016-01-30T08:35:30.246Z</time>
      </trkpt>
      <trkpt lat="43.66456" lon="5.80307">
        <ele>460</ele>
        <time>2016-01-30T08:35:31.223Z</time>
      </trkpt>
      <trkpt lat="43.66449" lon="5.8031">
        <ele>461</ele>
        <time>2016-01-30T08:35:35.245Z</time>
      </trkpt>
      <trkpt lat="43.66447" lon="5.80311">
        <ele>461</ele>
        <time>2016-01-30T08:35:36.223Z</time>
      </trkpt>
      <trkpt lat="43.6644" lon="5.80315">
        <ele>462</ele>
        <time>2016-01-30T08:35:40.243Z</time>
      </trkpt>
      <trkpt lat="43.66438" lon="5.80315">
        <ele>462</ele>
        <time>2016-01-30T08:35:41.222Z</time>
      </trkpt>
      <trkpt lat="43.66429" lon="5.80318">
        <ele>463</ele>
        <time>2016-01-30T08:35:49.249Z</time>
      </trkpt>
      <trkpt lat="43.66429" lon="5.8032">
        <ele>463</ele>
        <time>2016-01-30T08:35:50.223Z</time>
      </trkpt>
      <trkpt lat="43.66424" lon="5.8033">
        <ele>463</ele>
        <time>2016-01-30T08:35:55.276Z</time>
      </trkpt>
      <trkpt lat="43.66422" lon="5.80331">
        <ele>462</ele>
        <time>2016-01-30T08:35:56.223Z</time>
      </trkpt>
      <trkpt lat="43.66414" lon="5.80335">
        <ele>462</ele>
        <time>2016-01-30T08:36:01.248Z</time>
      </trkpt>
      <trkpt lat="43.66413" lon="5.80337">
        <ele>462</ele>
        <time>2016-01-30T08:36:02.223Z</time>
      </trkpt>
      <trkpt lat="43.66406" lon="5.80343">
        <ele>460</ele>
        <time>2016-01-30T08:36:10.259Z</time>
      </trkpt>
      <trkpt lat="43.66405" lon="5.80343">
        <ele>460</ele>
        <time>2016-01-30T08:36:11.250Z</time>
      </trkpt>
      <trkpt lat="43.66397" lon="5.80343">
        <ele>461</ele>
        <time>2016-01-30T08:36:20.297Z</time>
      </trkpt>
      <trkpt lat="43.66395" lon="5.80344">
        <ele>462</ele>
        <time>2016-01-30T08:36:21.221Z</time>
      </trkpt>
      <trkpt lat="43.66388" lon="5.8034">
        <ele>462</ele>
        <time>2016-01-30T08:36:28.249Z</time>
      </trkpt>
      <trkpt lat="43.66387" lon="5.8034">
        <ele>462</ele>
        <time>2016-01-30T08:36:29.224Z</time>
      </trkpt>
      <trkpt lat="43.66394" lon="5.80345">
        <ele>462</ele>
        <time>2016-01-30T08:36:50.248Z</time>
      </trkpt>
      <trkpt lat="43.66395" lon="5.80347">
        <ele>461</ele>
        <time>2016-01-30T08:36:51.223Z</time>
      </trkpt>
      <trkpt lat="43.66391" lon="5.80359">
        <ele>460</ele>
        <time>2016-01-30T08:36:57.245Z</time>
      </trkpt>
      <trkpt lat="43.6639" lon="5.8036">
        <ele>460</ele>
        <time>2016-01-30T08:36:58.221Z</time>
      </trkpt>
      <trkpt lat="43.66383" lon="5.80363">
        <ele>461</ele>
        <time>2016-01-30T08:37:02.234Z</time>
      </trkpt>
      <trkpt lat="43.66381" lon="5.80364">
        <ele>461</ele>
        <time>2016-01-30T08:37:03.223Z</time>
      </trkpt>
      <trkpt lat="43.66374" lon="5.80367">
        <ele>463</ele>
        <time>2016-01-30T08:37:07.256Z</time>
      </trkpt>
      <trkpt lat="43.66373" lon="5.80368">
        <ele>463</ele>
        <time>2016-01-30T08:37:08.218Z</time>
      </trkpt>
      <trkpt lat="43.66365" lon="5.80371">
        <ele>463</ele>
        <time>2016-01-30T08:37:12.248Z</time>
      </trkpt>
      <trkpt lat="43.66363" lon="5.80373">
        <ele>463</ele>
        <time>2016-01-30T08:37:13.224Z</time>
      </trkpt>
      <trkpt lat="43.66356" lon="5.80376">
        <ele>464</ele>
        <time>2016-01-30T08:37:16.247Z</time>
      </trkpt>
      <trkpt lat="43.66354" lon="5.80377">
        <ele>464</ele>
        <time>2016-01-30T08:37:17.224Z</time>
      </trkpt>
      <trkpt lat="43.66347" lon="5.8038">
        <ele>464</ele>
        <time>2016-01-30T08:37:20.278Z</time>
      </trkpt>
      <trkpt lat="43.66345" lon="5.80381">
        <ele>465</ele>
        <time>2016-01-30T08:37:21.224Z</time>
      </trkpt>
      <trkpt lat="43.66339" lon="5.80385">
        <ele>465</ele>
        <time>2016-01-30T08:37:24.245Z</time>
      </trkpt>
      <trkpt lat="43.66337" lon="5.80387">
        <ele>464</ele>
        <time>2016-01-30T08:37:25.223Z</time>
      </trkpt>
      <trkpt lat="43.6633" lon="5.80392">
        <ele>464</ele>
        <time>2016-01-30T08:37:28.245Z</time>
      </trkpt>
      <trkpt lat="43.66327" lon="5.80394">
        <ele>464</ele>
        <time>2016-01-30T08:37:29.223Z</time>
      </trkpt>
      <trkpt lat="43.6632" lon="5.80399">
        <ele>462</ele>
        <time>2016-01-30T08:37:32.248Z</time>
      </trkpt>
      <trkpt lat="43.66318" lon="5.80401">
        <ele>462</ele>
        <time>2016-01-30T08:37:33.221Z</time>
      </trkpt>
      <trkpt lat="43.66311" lon="5.80405">
        <ele>462</ele>
        <time>2016-01-30T08:37:36.245Z</time>
      </trkpt>
      <trkpt lat="43.66309" lon="5.80406">
        <ele>461</ele>
        <time>2016-01-30T08:37:37.223Z</time>
      </trkpt>
      <trkpt lat="43.66303" lon="5.80411">
        <ele>461</ele>
        <time>2016-01-30T08:37:40.252Z</time>
      </trkpt>
      <trkpt lat="43.663" lon="5.80411">
        <ele>461</ele>
        <time>2016-01-30T08:37:41.223Z</time>
      </trkpt>
      <trkpt lat="43.66293" lon="5.8041">
        <ele>461</ele>
        <time>2016-01-30T08:37:44.257Z</time>
      </trkpt>
      <trkpt lat="43.66291" lon="5.80409">
        <ele>460</ele>
        <time>2016-01-30T08:37:45.221Z</time>
      </trkpt>
      <trkpt lat="43.66284" lon="5.80408">
        <ele>460</ele>
        <time>2016-01-30T08:37:48.249Z</time>
      </trkpt>
      <trkpt lat="43.66282" lon="5.80408">
        <ele>461</ele>
        <time>2016-01-30T08:37:49.224Z</time>
      </trkpt>
      <trkpt lat="43.66275" lon="5.80402">
        <ele>460</ele>
        <time>2016-01-30T08:37:54.247Z</time>
      </trkpt>
      <trkpt lat="43.66275" lon="5.80399">
        <ele>459</ele>
        <time>2016-01-30T08:37:55.223Z</time>
      </trkpt>
      <trkpt lat="43.66272" lon="5.80388">
        <ele>459</ele>
        <time>2016-01-30T08:37:59.248Z</time>
      </trkpt>
      <trkpt lat="43.66271" lon="5.80385">
        <ele>459</ele>
        <time>2016-01-30T08:38:00.274Z</time>
      </trkpt>
      <trkpt lat="43.66263" lon="5.80385">
        <ele>459</ele>
        <time>2016-01-30T08:38:06.252Z</time>
      </trkpt>
      <trkpt lat="43.66261" lon="5.80386">
        <ele>460</ele>
        <time>2016-01-30T08:38:07.226Z</time>
      </trkpt>
      <trkpt lat="43.66254" lon="5.80391">
        <ele>460</ele>
        <time>2016-01-30T08:38:11.261Z</time>
      </trkpt>
      <trkpt lat="43.66252" lon="5.80389">
        <ele>460</ele>
        <time>2016-01-30T08:38:12.235Z</time>
      </trkpt>
      <trkpt lat="43.66245" lon="5.80386">
        <ele>460</ele>
        <time>2016-01-30T08:38:18.258Z</time>
      </trkpt>
      <trkpt lat="43.66243" lon="5.80387">
        <ele>461</ele>
        <time>2016-01-30T08:38:19.235Z</time>
      </trkpt>
      <trkpt lat="43.66236" lon="5.80388">
        <ele>464</ele>
        <time>2016-01-30T08:38:23.253Z</time>
      </trkpt>
      <trkpt lat="43.66234" lon="5.80388">
        <ele>464</ele>
        <time>2016-01-30T08:38:24.235Z</time>
      </trkpt>
      <trkpt lat="43.66226" lon="5.80388">
        <ele>464</ele>
        <time>2016-01-30T08:38:27.262Z</time>
      </trkpt>
      <trkpt lat="43.66224" lon="5.80386">
        <ele>464</ele>
        <time>2016-01-30T08:38:28.223Z</time>
      </trkpt>
      <trkpt lat="43.66217" lon="5.8038">
        <ele>463</ele>
        <time>2016-01-30T08:38:31.259Z</time>
      </trkpt>
      <trkpt lat="43.66215" lon="5.8038">
        <ele>464</ele>
        <time>2016-01-30T08:38:32.223Z</time>
      </trkpt>
      <trkpt lat="43.66208" lon="5.80384">
        <ele>464</ele>
        <time>2016-01-30T08:38:35.456Z</time>
      </trkpt>
      <trkpt lat="43.66206" lon="5.80386">
        <ele>464</ele>
        <time>2016-01-30T08:38:36.251Z</time>
      </trkpt>
      <trkpt lat="43.662" lon="5.80392">
        <ele>464</ele>
        <time>2016-01-30T08:38:39.250Z</time>
      </trkpt>
      <trkpt lat="43.66198" lon="5.80394">
        <ele>464</ele>
        <time>2016-01-30T08:38:40.226Z</time>
      </trkpt>
      <trkpt lat="43.66192" lon="5.804">
        <ele>463</ele>
        <time>2016-01-30T08:38:43.248Z</time>
      </trkpt>
      <trkpt lat="43.6619" lon="5.80402">
        <ele>463</ele>
        <time>2016-01-30T08:38:44.223Z</time>
      </trkpt>
      <trkpt lat="43.66181" lon="5.80405">
        <ele>464</ele>
        <time>2016-01-30T08:38:48.250Z</time>
      </trkpt>
      <trkpt lat="43.66179" lon="5.80405">
        <ele>464</ele>
        <time>2016-01-30T08:38:49.225Z</time>
      </trkpt>
      <trkpt lat="43.66172" lon="5.80407">
        <ele>464</ele>
        <time>2016-01-30T08:38:53.248Z</time>
      </trkpt>
      <trkpt lat="43.6617" lon="5.80406">
        <ele>464</ele>
        <time>2016-01-30T08:38:54.223Z</time>
      </trkpt>
      <trkpt lat="43.66165" lon="5.80398">
        <ele>464</ele>
        <time>2016-01-30T08:38:58.249Z</time>
      </trkpt>
      <trkpt lat="43.66165" lon="5.80395">
        <ele>464</ele>
        <time>2016-01-30T08:38:59.233Z</time>
      </trkpt>
      <trkpt lat="43.66166" lon="5.80385">
        <ele>463</ele>
        <time>2016-01-30T08:39:02.259Z</time>
      </trkpt>
      <trkpt lat="43.66168" lon="5.80382">
        <ele>463</ele>
        <time>2016-01-30T08:39:03.250Z</time>
      </trkpt>
      <trkpt lat="43.66172" lon="5.80375">
        <ele>462</ele>
        <time>2016-01-30T08:39:05.248Z</time>
      </trkpt>
      <trkpt lat="43.66173" lon="5.80372">
        <ele>462</ele>
        <time>2016-01-30T08:39:06.226Z</time>
      </trkpt>
      <trkpt lat="43.66175" lon="5.80363">
        <ele>462</ele>
        <time>2016-01-30T08:39:08.248Z</time>
      </trkpt>
      <trkpt lat="43.66176" lon="5.80358">
        <ele>462</ele>
        <time>2016-01-30T08:39:09.225Z</time>
      </trkpt>
      <trkpt lat="43.66178" lon="5.80349">
        <ele>461</ele>
        <time>2016-01-30T08:39:11.345Z</time>
      </trkpt>
      <trkpt lat="43.66179" lon="5.80345">
        <ele>461</ele>
        <time>2016-01-30T08:39:12.231Z</time>
      </trkpt>
      <trkpt lat="43.66182" lon="5.80338">
        <ele>461</ele>
        <time>2016-01-30T08:39:14.247Z</time>
      </trkpt>
      <trkpt lat="43.66184" lon="5.80335">
        <ele>461</ele>
        <time>2016-01-30T08:39:15.223Z</time>
      </trkpt>
      <trkpt lat="43.66188" lon="5.80323">
        <ele>462</ele>
        <time>2016-01-30T08:39:18.259Z</time>
      </trkpt>
      <trkpt lat="43.66188" lon="5.80319">
        <ele>462</ele>
        <time>2016-01-30T08:39:19.252Z</time>
      </trkpt>
      <trkpt lat="43.66187" lon="5.80308">
        <ele>461</ele>
        <time>2016-01-30T08:39:22.247Z</time>
      </trkpt>
      <trkpt lat="43.66186" lon="5.80304">
        <ele>461</ele>
        <time>2016-01-30T08:39:23.232Z</time>
      </trkpt>
      <trkpt lat="43.66186" lon="5.80292">
        <ele>461</ele>
        <time>2016-01-30T08:39:26.247Z</time>
      </trkpt>
      <trkpt lat="43.66187" lon="5.80288">
        <ele>461</ele>
        <time>2016-01-30T08:39:27.225Z</time>
      </trkpt>
      <trkpt lat="43.66191" lon="5.80278">
        <ele>461</ele>
        <time>2016-01-30T08:39:30.249Z</time>
      </trkpt>
      <trkpt lat="43.66192" lon="5.80275">
        <ele>461</ele>
        <time>2016-01-30T08:39:31.235Z</time>
      </trkpt>
      <trkpt lat="43.66196" lon="5.80265">
        <ele>461</ele>
        <time>2016-01-30T08:39:34.248Z</time>
      </trkpt>
      <trkpt lat="43.66197" lon="5.80262">
        <ele>461</ele>
        <time>2016-01-30T08:39:35.255Z</time>
      </trkpt>
      <trkpt lat="43.66196" lon="5.8025">
        <ele>461</ele>
        <time>2016-01-30T08:39:38.249Z</time>
      </trkpt>
      <trkpt lat="43.66194" lon="5.80246">
        <ele>461</ele>
        <time>2016-01-30T08:39:39.225Z</time>
      </trkpt>
      <trkpt lat="43.66189" lon="5.80236">
        <ele>461</ele>
        <time>2016-01-30T08:40:41.248Z</time>
      </trkpt>
      <trkpt lat="43.66189" lon="5.80236">
        <ele>461</ele>
        <time>2016-01-30T08:40:44.367Z</time>
      </trkpt>
      <trkpt lat="43.66189" lon="5.80237">
        <ele>461</ele>
        <time>2016-01-30T08:40:58.990Z</time>
      </trkpt>
      <trkpt lat="43.66192" lon="5.80245">
        <ele>462</ele>
        <time>2016-01-30T08:41:32.510Z</time>
      </trkpt>
      <trkpt lat="43.66188" lon="5.80234">
        <ele>463</ele>
        <time>2016-01-30T08:42:47.253Z</time>
      </trkpt>
      <trkpt lat="43.66189" lon="5.80234">
        <ele>463</ele>
        <time>2016-01-30T08:42:48.234Z</time>
      </trkpt>
      <trkpt lat="43.66186" lon="5.80223">
        <ele>460</ele>
        <time>2016-01-30T08:43:43.255Z</time>
      </trkpt>
      <trkpt lat="43.66184" lon="5.80222">
        <ele>460</ele>
        <time>2016-01-30T08:43:44.234Z</time>
      </trkpt>
      <trkpt lat="43.66178" lon="5.80216">
        <ele>461</ele>
        <time>2016-01-30T08:43:50.256Z</time>
      </trkpt>
      <trkpt lat="43.66177" lon="5.80214">
        <ele>461</ele>
        <time>2016-01-30T08:43:51.226Z</time>
      </trkpt>
      <trkpt lat="43.6617" lon="5.80209">
        <ele>461</ele>
        <time>2016-01-30T08:43:56.254Z</time>
      </trkpt>
      <trkpt lat="43.66168" lon="5.80209">
        <ele>461</ele>
        <time>2016-01-30T08:43:57.227Z</time>
      </trkpt>
      <trkpt lat="43.66161" lon="5.80216">
        <ele>461</ele>
        <time>2016-01-30T08:44:01.242Z</time>
      </trkpt>
      <trkpt lat="43.66159" lon="5.80216">
        <ele>461</ele>
        <time>2016-01-30T08:44:02.226Z</time>
      </trkpt>
      <trkpt lat="43.66151" lon="5.80214">
        <ele>462</ele>
        <time>2016-01-30T08:44:06.256Z</time>
      </trkpt>
      <trkpt lat="43.66149" lon="5.80215">
        <ele>462</ele>
        <time>2016-01-30T08:44:07.220Z</time>
      </trkpt>
      <trkpt lat="43.66141" lon="5.80215">
        <ele>463</ele>
        <time>2016-01-30T08:44:12.250Z</time>
      </trkpt>
      <trkpt lat="43.6614" lon="5.80214">
        <ele>462</ele>
        <time>2016-01-30T08:44:13.227Z</time>
      </trkpt>
      <trkpt lat="43.66138" lon="5.80203">
        <ele>462</ele>
        <time>2016-01-30T08:44:18.250Z</time>
      </trkpt>
      <trkpt lat="43.66139" lon="5.802">
        <ele>462</ele>
        <time>2016-01-30T08:44:19.227Z</time>
      </trkpt>
      <trkpt lat="43.66142" lon="5.8019">
        <ele>462</ele>
        <time>2016-01-30T08:44:23.250Z</time>
      </trkpt>
      <trkpt lat="43.66143" lon="5.80187">
        <ele>462</ele>
        <time>2016-01-30T08:44:24.227Z</time>
      </trkpt>
      <trkpt lat="43.66147" lon="5.8018">
        <ele>462</ele>
        <time>2016-01-30T08:44:26.483Z</time>
      </trkpt>
      <trkpt lat="43.66148" lon="5.80176">
        <ele>462</ele>
        <time>2016-01-30T08:44:27.227Z</time>
      </trkpt>
      <trkpt lat="43.66153" lon="5.80165">
        <ele>462</ele>
        <time>2016-01-30T08:44:30.259Z</time>
      </trkpt>
      <trkpt lat="43.66154" lon="5.80161">
        <ele>462</ele>
        <time>2016-01-30T08:44:31.225Z</time>
      </trkpt>
      <trkpt lat="43.66152" lon="5.8015">
        <ele>461</ele>
        <time>2016-01-30T08:44:34.253Z</time>
      </trkpt>
      <trkpt lat="43.66151" lon="5.80146">
        <ele>461</ele>
        <time>2016-01-30T08:44:35.225Z</time>
      </trkpt>
      <trkpt lat="43.6615" lon="5.80135">
        <ele>460</ele>
        <time>2016-01-30T08:44:38.253Z</time>
      </trkpt>
      <trkpt lat="43.6615" lon="5.80131">
        <ele>460</ele>
        <time>2016-01-30T08:44:39.228Z</time>
      </trkpt>
      <trkpt lat="43.66149" lon="5.80121">
        <ele>460</ele>
        <time>2016-01-30T08:44:42.253Z</time>
      </trkpt>
      <trkpt lat="43.66148" lon="5.80118">
        <ele>461</ele>
        <time>2016-01-30T08:44:43.228Z</time>
      </trkpt>
      <trkpt lat="43.66147" lon="5.80108">
        <ele>461</ele>
        <time>2016-01-30T08:44:46.260Z</time>
      </trkpt>
      <trkpt lat="43.66146" lon="5.80104">
        <ele>461</ele>
        <time>2016-01-30T08:44:47.224Z</time>
      </trkpt>
      <trkpt lat="43.66144" lon="5.80094">
        <ele>462</ele>
        <time>2016-01-30T08:44:50.250Z</time>
      </trkpt>
      <trkpt lat="43.66143" lon="5.8009">
        <ele>462</ele>
        <time>2016-01-30T08:44:51.227Z</time>
      </trkpt>
      <trkpt lat="43.6614" lon="5.8008">
        <ele>463</ele>
        <time>2016-01-30T08:44:54.251Z</time>
      </trkpt>
      <trkpt lat="43.6614" lon="5.80076">
        <ele>463</ele>
        <time>2016-01-30T08:44:55.225Z</time>
      </trkpt>
      <trkpt lat="43.66137" lon="5.80066">
        <ele>462</ele>
        <time>2016-01-30T08:44:58.250Z</time>
      </trkpt>
      <trkpt lat="43.66136" lon="5.80062">
        <ele>462</ele>
        <time>2016-01-30T08:44:59.228Z</time>
      </trkpt>
      <trkpt lat="43.66133" lon="5.80052">
        <ele>462</ele>
        <time>2016-01-30T08:45:02.324Z</time>
      </trkpt>
      <trkpt lat="43.66132" lon="5.80049">
        <ele>462</ele>
        <time>2016-01-30T08:45:03.225Z</time>
      </trkpt>
      <trkpt lat="43.6613" lon="5.8004">
        <ele>462</ele>
        <time>2016-01-30T08:45:06.252Z</time>
      </trkpt>
      <trkpt lat="43.66129" lon="5.80036">
        <ele>462</ele>
        <time>2016-01-30T08:45:07.233Z</time>
      </trkpt>
      <trkpt lat="43.66127" lon="5.80027">
        <ele>463</ele>
        <time>2016-01-30T08:45:10.282Z</time>
      </trkpt>
      <trkpt lat="43.66126" lon="5.80024">
        <ele>463</ele>
        <time>2016-01-30T08:45:11.234Z</time>
      </trkpt>
      <trkpt lat="43.66124" lon="5.80014">
        <ele>463</ele>
        <time>2016-01-30T08:45:14.255Z</time>
      </trkpt>
      <trkpt lat="43.66123" lon="5.80011">
        <ele>464</ele>
        <time>2016-01-30T08:45:15.228Z</time>
      </trkpt>
      <trkpt lat="43.66121" lon="5.80001">
        <ele>464</ele>
        <time>2016-01-30T08:45:18.252Z</time>
      </trkpt>
      <trkpt lat="43.66121" lon="5.79998">
        <ele>464</ele>
        <time>2016-01-30T08:45:19.227Z</time>
      </trkpt>
      <trkpt lat="43.6612" lon="5.79988">
        <ele>464</ele>
        <time>2016-01-30T08:45:22.249Z</time>
      </trkpt>
      <trkpt lat="43.6612" lon="5.79985">
        <ele>464</ele>
        <time>2016-01-30T08:45:23.226Z</time>
      </trkpt>
      <trkpt lat="43.66118" lon="5.79974">
        <ele>464</ele>
        <time>2016-01-30T08:45:26.288Z</time>
      </trkpt>
      <trkpt lat="43.66118" lon="5.79971">
        <ele>464</ele>
        <time>2016-01-30T08:45:27.227Z</time>
      </trkpt>
      <trkpt lat="43.66116" lon="5.7996">
        <ele>465</ele>
        <time>2016-01-30T08:45:30.260Z</time>
      </trkpt>
      <trkpt lat="43.66115" lon="5.79957">
        <ele>464</ele>
        <time>2016-01-30T08:45:31.225Z</time>
      </trkpt>
      <trkpt lat="43.66113" lon="5.79946">
        <ele>465</ele>
        <time>2016-01-30T08:45:34.250Z</time>
      </trkpt>
      <trkpt lat="43.66112" lon="5.79942">
        <ele>465</ele>
        <time>2016-01-30T08:45:35.218Z</time>
      </trkpt>
      <trkpt lat="43.66113" lon="5.79933">
        <ele>464</ele>
        <time>2016-01-30T08:45:37.281Z</time>
      </trkpt>
      <trkpt lat="43.66114" lon="5.79929">
        <ele>465</ele>
        <time>2016-01-30T08:45:38.228Z</time>
      </trkpt>
      <trkpt lat="43.66119" lon="5.79919">
        <ele>465</ele>
        <time>2016-01-30T08:45:41.254Z</time>
      </trkpt>
      <trkpt lat="43.66121" lon="5.79916">
        <ele>464</ele>
        <time>2016-01-30T08:45:42.228Z</time>
      </trkpt>
      <trkpt lat="43.66128" lon="5.7991">
        <ele>464</ele>
        <time>2016-01-30T08:45:45.254Z</time>
      </trkpt>
      <trkpt lat="43.66131" lon="5.79908">
        <ele>464</ele>
        <time>2016-01-30T08:45:46.226Z</time>
      </trkpt>
      <trkpt lat="43.66137" lon="5.79904">
        <ele>464</ele>
        <time>2016-01-30T08:45:48.255Z</time>
      </trkpt>
      <trkpt lat="43.6614" lon="5.79902">
        <ele>464</ele>
        <time>2016-01-30T08:45:49.235Z</time>
      </trkpt>
      <trkpt lat="43.66144" lon="5.79896">
        <ele>464</ele>
        <time>2016-01-30T08:45:51.261Z</time>
      </trkpt>
      <trkpt lat="43.66146" lon="5.79892">
        <ele>463</ele>
        <time>2016-01-30T08:45:52.226Z</time>
      </trkpt>
      <trkpt lat="43.6615" lon="5.79881">
        <ele>463</ele>
        <time>2016-01-30T08:45:55.253Z</time>
      </trkpt>
      <trkpt lat="43.6615" lon="5.79877">
        <ele>463</ele>
        <time>2016-01-30T08:45:56.234Z</time>
      </trkpt>
      <trkpt lat="43.66143" lon="5.79875">
        <ele>464</ele>
        <time>2016-01-30T08:45:59.254Z</time>
      </trkpt>
      <trkpt lat="43.6614" lon="5.79876">
        <ele>464</ele>
        <time>2016-01-30T08:46:00.224Z</time>
      </trkpt>
      <trkpt lat="43.66131" lon="5.79881">
        <ele>465</ele>
        <time>2016-01-30T08:46:03.252Z</time>
      </trkpt>
      <trkpt lat="43.66129" lon="5.79883">
        <ele>465</ele>
        <time>2016-01-30T08:46:04.242Z</time>
      </trkpt>
      <trkpt lat="43.66122" lon="5.7989">
        <ele>464</ele>
        <time>2016-01-30T08:46:07.253Z</time>
      </trkpt>
      <trkpt lat="43.66119" lon="5.79892">
        <ele>464</ele>
        <time>2016-01-30T08:46:08.233Z</time>
      </trkpt>
      <trkpt lat="43.66112" lon="5.79896">
        <ele>464</ele>
        <time>2016-01-30T08:46:11.258Z</time>
      </trkpt>
      <trkpt lat="43.6611" lon="5.79897">
        <ele>464</ele>
        <time>2016-01-30T08:46:12.226Z</time>
      </trkpt>
      <trkpt lat="43.66103" lon="5.79903">
        <ele>462</ele>
        <time>2016-01-30T08:46:17.488Z</time>
      </trkpt>
      <trkpt lat="43.66102" lon="5.79904">
        <ele>463</ele>
        <time>2016-01-30T08:46:18.232Z</time>
      </trkpt>
      <trkpt lat="43.66093" lon="5.79907">
        <ele>463</ele>
        <time>2016-01-30T08:46:23.328Z</time>
      </trkpt>
      <trkpt lat="43.66091" lon="5.79907">
        <ele>463</ele>
        <time>2016-01-30T08:46:24.231Z</time>
      </trkpt>
      <trkpt lat="43.66084" lon="5.79909">
        <ele>463</ele>
        <time>2016-01-30T08:46:28.255Z</time>
      </trkpt>
      <trkpt lat="43.66082" lon="5.7991">
        <ele>463</ele>
        <time>2016-01-30T08:46:29.228Z</time>
      </trkpt>
      <trkpt lat="43.66074" lon="5.79913">
        <ele>463</ele>
        <time>2016-01-30T08:46:33.253Z</time>
      </trkpt>
      <trkpt lat="43.66072" lon="5.79914">
        <ele>464</ele>
        <time>2016-01-30T08:46:34.228Z</time>
      </trkpt>
      <trkpt lat="43.66065" lon="5.79918">
        <ele>465</ele>
        <time>2016-01-30T08:46:38.257Z</time>
      </trkpt>
      <trkpt lat="43.66063" lon="5.79919">
        <ele>465</ele>
        <time>2016-01-30T08:46:39.226Z</time>
      </trkpt>
      <trkpt lat="43.66055" lon="5.79923">
        <ele>465</ele>
        <time>2016-01-30T08:46:43.277Z</time>
      </trkpt>
      <trkpt lat="43.66053" lon="5.79923">
        <ele>465</ele>
        <time>2016-01-30T08:46:44.233Z</time>
      </trkpt>
      <trkpt lat="43.66045" lon="5.79926">
        <ele>466</ele>
        <time>2016-01-30T08:46:48.252Z</time>
      </trkpt>
      <trkpt lat="43.66043" lon="5.79927">
        <ele>465</ele>
        <time>2016-01-30T08:46:49.227Z</time>
      </trkpt>
      <trkpt lat="43.66036" lon="5.79932">
        <ele>465</ele>
        <time>2016-01-30T08:46:53.249Z</time>
      </trkpt>
      <trkpt lat="43.66034" lon="5.79933">
        <ele>466</ele>
        <time>2016-01-30T08:46:54.228Z</time>
      </trkpt>
      <trkpt lat="43.66027" lon="5.79934">
        <ele>464</ele>
        <time>2016-01-30T08:46:57.255Z</time>
      </trkpt>
      <trkpt lat="43.66025" lon="5.79935">
        <ele>465</ele>
        <time>2016-01-30T08:46:58.255Z</time>
      </trkpt>
      <trkpt lat="43.66016" lon="5.79936">
        <ele>465</ele>
        <time>2016-01-30T08:47:02.252Z</time>
      </trkpt>
      <trkpt lat="43.66014" lon="5.79936">
        <ele>465</ele>
        <time>2016-01-30T08:47:03.228Z</time>
      </trkpt>
      <trkpt lat="43.66005" lon="5.79939">
        <ele>465</ele>
        <time>2016-01-30T08:47:08.253Z</time>
      </trkpt>
      <trkpt lat="43.66002" lon="5.79939">
        <ele>464</ele>
        <time>2016-01-30T08:47:09.225Z</time>
      </trkpt>
      <trkpt lat="43.65996" lon="5.79941">
        <ele>464</ele>
        <time>2016-01-30T08:47:11.252Z</time>
      </trkpt>
      <trkpt lat="43.65994" lon="5.79943">
        <ele>464</ele>
        <time>2016-01-30T08:47:12.229Z</time>
      </trkpt>
      <trkpt lat="43.65988" lon="5.79951">
        <ele>463</ele>
        <time>2016-01-30T08:47:15.252Z</time>
      </trkpt>
      <trkpt lat="43.65986" lon="5.79953">
        <ele>463</ele>
        <time>2016-01-30T08:47:16.227Z</time>
      </trkpt>
      <trkpt lat="43.65982" lon="5.79964">
        <ele>464</ele>
        <time>2016-01-30T08:47:20.258Z</time>
      </trkpt>
      <trkpt lat="43.65981" lon="5.79966">
        <ele>464</ele>
        <time>2016-01-30T08:47:21.227Z</time>
      </trkpt>
      <trkpt lat="43.65979" lon="5.79977">
        <ele>463</ele>
        <time>2016-01-30T08:47:25.259Z</time>
      </trkpt>
      <trkpt lat="43.65978" lon="5.7998">
        <ele>464</ele>
        <time>2016-01-30T08:47:26.229Z</time>
      </trkpt>
      <trkpt lat="43.65978" lon="5.79989">
        <ele>464</ele>
        <time>2016-01-30T08:47:29.252Z</time>
      </trkpt>
      <trkpt lat="43.65977" lon="5.79992">
        <ele>464</ele>
        <time>2016-01-30T08:47:30.261Z</time>
      </trkpt>
      <trkpt lat="43.65974" lon="5.80001">
        <ele>464</ele>
        <time>2016-01-30T08:47:33.315Z</time>
      </trkpt>
      <trkpt lat="43.65973" lon="5.80003">
        <ele>465</ele>
        <time>2016-01-30T08:47:34.230Z</time>
      </trkpt>
      <trkpt lat="43.6597" lon="5.80013">
        <ele>465</ele>
        <time>2016-01-30T08:47:37.260Z</time>
      </trkpt>
      <trkpt lat="43.6597" lon="5.80016">
        <ele>465</ele>
        <time>2016-01-30T08:47:38.229Z</time>
      </trkpt>
      <trkpt lat="43.65969" lon="5.80026">
        <ele>466</ele>
        <time>2016-01-30T08:47:41.252Z</time>
      </trkpt>
      <trkpt lat="43.65969" lon="5.80029">
        <ele>466</ele>
        <time>2016-01-30T08:47:42.232Z</time>
      </trkpt>
      <trkpt lat="43.65968" lon="5.80039">
        <ele>467</ele>
        <time>2016-01-30T08:47:45.262Z</time>
      </trkpt>
      <trkpt lat="43.65967" lon="5.80042">
        <ele>467</ele>
        <time>2016-01-30T08:47:46.253Z</time>
      </trkpt>
      <trkpt lat="43.65966" lon="5.80052">
        <ele>467</ele>
        <time>2016-01-30T08:47:49.255Z</time>
      </trkpt>
      <trkpt lat="43.65965" lon="5.80054">
        <ele>467</ele>
        <time>2016-01-30T08:47:50.228Z</time>
      </trkpt>
      <trkpt lat="43.65962" lon="5.80063">
        <ele>467</ele>
        <time>2016-01-30T08:47:53.254Z</time>
      </trkpt>
      <trkpt lat="43.65961" lon="5.80066">
        <ele>467</ele>
        <time>2016-01-30T08:47:54.229Z</time>
      </trkpt>
      <trkpt lat="43.65958" lon="5.80075">
        <ele>468</ele>
        <time>2016-01-30T08:47:57.280Z</time>
      </trkpt>
      <trkpt lat="43.65957" lon="5.80078">
        <ele>467</ele>
        <time>2016-01-30T08:47:58.229Z</time>
      </trkpt>
      <trkpt lat="43.65954" lon="5.80089">
        <ele>468</ele>
        <time>2016-01-30T08:48:02.253Z</time>
      </trkpt>
      <trkpt lat="43.65953" lon="5.80092">
        <ele>468</ele>
        <time>2016-01-30T08:48:03.228Z</time>
      </trkpt>
      <trkpt lat="43.65952" lon="5.80103">
        <ele>469</ele>
        <time>2016-01-30T08:48:07.249Z</time>
      </trkpt>
      <trkpt lat="43.65951" lon="5.80107">
        <ele>469</ele>
        <time>2016-01-30T08:48:08.257Z</time>
      </trkpt>
      <trkpt lat="43.65949" lon="5.80117">
        <ele>468</ele>
        <time>2016-01-30T08:48:11.253Z</time>
      </trkpt>
      <trkpt lat="43.65949" lon="5.8012">
        <ele>469</ele>
        <time>2016-01-30T08:48:12.225Z</time>
      </trkpt>
      <trkpt lat="43.65947" lon="5.8013">
        <ele>468</ele>
        <time>2016-01-30T08:48:15.254Z</time>
      </trkpt>
      <trkpt lat="43.65947" lon="5.80133">
        <ele>469</ele>
        <time>2016-01-30T08:48:16.226Z</time>
      </trkpt>
      <trkpt lat="43.65945" lon="5.80142">
        <ele>469</ele>
        <time>2016-01-30T08:48:19.289Z</time>
      </trkpt>
      <trkpt lat="43.65944" lon="5.80145">
        <ele>470</ele>
        <time>2016-01-30T08:48:20.226Z</time>
      </trkpt>
      <trkpt lat="43.65943" lon="5.80155">
        <ele>470</ele>
        <time>2016-01-30T08:48:23.480Z</time>
      </trkpt>
      <trkpt lat="43.65942" lon="5.80158">
        <ele>470</ele>
        <time>2016-01-30T08:48:24.227Z</time>
      </trkpt>
      <trkpt lat="43.65941" lon="5.8017">
        <ele>471</ele>
        <time>2016-01-30T08:48:28.259Z</time>
      </trkpt>
      <trkpt lat="43.65941" lon="5.80173">
        <ele>472</ele>
        <time>2016-01-30T08:48:29.224Z</time>
      </trkpt>
      <trkpt lat="43.65939" lon="5.80185">
        <ele>472</ele>
        <time>2016-01-30T08:48:33.253Z</time>
      </trkpt>
      <trkpt lat="43.65938" lon="5.80188">
        <ele>472</ele>
        <time>2016-01-30T08:48:34.229Z</time>
      </trkpt>
      <trkpt lat="43.65937" lon="5.80199">
        <ele>472</ele>
        <time>2016-01-30T08:48:37.253Z</time>
      </trkpt>
      <trkpt lat="43.65938" lon="5.80202">
        <ele>472</ele>
        <time>2016-01-30T08:48:38.234Z</time>
      </trkpt>
      <trkpt lat="43.65941" lon="5.8021">
        <ele>472</ele>
        <time>2016-01-30T08:48:41.255Z</time>
      </trkpt>
      <trkpt lat="43.65941" lon="5.80213">
        <ele>472</ele>
        <time>2016-01-30T08:48:42.229Z</time>
      </trkpt>
      <trkpt lat="43.65944" lon="5.80224">
        <ele>473</ele>
        <time>2016-01-30T08:48:46.253Z</time>
      </trkpt>
      <trkpt lat="43.65945" lon="5.80227">
        <ele>473</ele>
        <time>2016-01-30T08:48:47.230Z</time>
      </trkpt>
      <trkpt lat="43.65949" lon="5.80238">
        <ele>473</ele>
        <time>2016-01-30T08:48:52.251Z</time>
      </trkpt>
      <trkpt lat="43.65949" lon="5.8024">
        <ele>473</ele>
        <time>2016-01-30T08:48:53.232Z</time>
      </trkpt>
      <trkpt lat="43.65951" lon="5.8025">
        <ele>473</ele>
        <time>2016-01-30T08:48:57.254Z</time>
      </trkpt>
      <trkpt lat="43.65951" lon="5.80253">
        <ele>473</ele>
        <time>2016-01-30T08:48:58.229Z</time>
      </trkpt>
      <trkpt lat="43.65947" lon="5.80262">
        <ele>473</ele>
        <time>2016-01-30T08:49:02.251Z</time>
      </trkpt>
      <trkpt lat="43.65945" lon="5.80264">
        <ele>473</ele>
        <time>2016-01-30T08:49:03.227Z</time>
      </trkpt>
      <trkpt lat="43.65936" lon="5.80266">
        <ele>472</ele>
        <time>2016-01-30T08:49:08.250Z</time>
      </trkpt>
      <trkpt lat="43.65934" lon="5.80264">
        <ele>473</ele>
        <time>2016-01-30T08:49:09.231Z</time>
      </trkpt>
      <trkpt lat="43.65928" lon="5.80258">
        <ele>472</ele>
        <time>2016-01-30T08:49:12.282Z</time>
      </trkpt>
      <trkpt lat="43.65926" lon="5.80258">
        <ele>471</ele>
        <time>2016-01-30T08:49:13.230Z</time>
      </trkpt>
      <trkpt lat="43.6592" lon="5.80266">
        <ele>471</ele>
        <time>2016-01-30T08:49:17.252Z</time>
      </trkpt>
      <trkpt lat="43.65918" lon="5.80268">
        <ele>470</ele>
        <time>2016-01-30T08:49:18.224Z</time>
      </trkpt>
      <trkpt lat="43.65916" lon="5.8028">
        <ele>470</ele>
        <time>2016-01-30T08:49:23.286Z</time>
      </trkpt>
      <trkpt lat="43.65916" lon="5.80282">
        <ele>470</ele>
        <time>2016-01-30T08:49:24.225Z</time>
      </trkpt>
      <trkpt lat="43.65909" lon="5.8029">
        <ele>472</ele>
        <time>2016-01-30T08:49:29.252Z</time>
      </trkpt>
      <trkpt lat="43.65907" lon="5.8029">
        <ele>471</ele>
        <time>2016-01-30T08:49:30.224Z</time>
      </trkpt>
      <trkpt lat="43.65901" lon="5.80287">
        <ele>472</ele>
        <time>2016-01-30T08:49:32.256Z</time>
      </trkpt>
      <trkpt lat="43.65897" lon="5.80285">
        <ele>471</ele>
        <time>2016-01-30T08:49:33.226Z</time>
      </trkpt>
      <trkpt lat="43.65891" lon="5.8028">
        <ele>471</ele>
        <time>2016-01-30T08:49:35.254Z</time>
      </trkpt>
      <trkpt lat="43.65888" lon="5.80278">
        <ele>471</ele>
        <time>2016-01-30T08:49:36.230Z</time>
      </trkpt>
      <trkpt lat="43.65881" lon="5.80274">
        <ele>471</ele>
        <time>2016-01-30T08:49:38.250Z</time>
      </trkpt>
      <trkpt lat="43.65877" lon="5.80271">
        <ele>470</ele>
        <time>2016-01-30T08:49:39.226Z</time>
      </trkpt>
      <trkpt lat="43.6587" lon="5.80264">
        <ele>470</ele>
        <time>2016-01-30T08:49:41.254Z</time>
      </trkpt>
      <trkpt lat="43.65867" lon="5.8026">
        <ele>470</ele>
        <time>2016-01-30T08:49:42.234Z</time>
      </trkpt>
      <trkpt lat="43.65862" lon="5.8025">
        <ele>470</ele>
        <time>2016-01-30T08:49:44.253Z</time>
      </trkpt>
      <trkpt lat="43.6586" lon="5.80245">
        <ele>470</ele>
        <time>2016-01-30T08:49:45.230Z</time>
      </trkpt>
      <trkpt lat="43.65856" lon="5.80235">
        <ele>470</ele>
        <time>2016-01-30T08:49:47.259Z</time>
      </trkpt>
      <trkpt lat="43.65854" lon="5.8023">
        <ele>469</ele>
        <time>2016-01-30T08:49:48.226Z</time>
      </trkpt>
      <trkpt lat="43.65852" lon="5.80225">
        <ele>469</ele>
        <time>2016-01-30T08:49:49.253Z</time>
      </trkpt>
      <trkpt lat="43.65849" lon="5.80219">
        <ele>469</ele>
        <time>2016-01-30T08:49:50.252Z</time>
      </trkpt>
      <trkpt lat="43.65847" lon="5.80213">
        <ele>469</ele>
        <time>2016-01-30T08:49:51.253Z</time>
      </trkpt>
      <trkpt lat="43.65843" lon="5.80208">
        <ele>469</ele>
        <time>2016-01-30T08:49:52.227Z</time>
      </trkpt>
      <trkpt lat="43.65839" lon="5.80205">
        <ele>469</ele>
        <time>2016-01-30T08:49:53.253Z</time>
      </trkpt>
      <trkpt lat="43.65835" lon="5.80204">
        <ele>469</ele>
        <time>2016-01-30T08:49:54.230Z</time>
      </trkpt>
      <trkpt lat="43.65828" lon="5.80206">
        <ele>469</ele>
        <time>2016-01-30T08:49:56.253Z</time>
      </trkpt>
      <trkpt lat="43.65825" lon="5.80208">
        <ele>468</ele>
        <time>2016-01-30T08:49:57.234Z</time>
      </trkpt>
      <trkpt lat="43.65819" lon="5.80214">
        <ele>468</ele>
        <time>2016-01-30T08:50:01.284Z</time>
      </trkpt>
      <trkpt lat="43.65818" lon="5.80216">
        <ele>468</ele>
        <time>2016-01-30T08:50:02.229Z</time>
      </trkpt>
      <trkpt lat="43.65812" lon="5.80226">
        <ele>467</ele>
        <time>2016-01-30T08:50:08.252Z</time>
      </trkpt>
      <trkpt lat="43.65812" lon="5.80228">
        <ele>468</ele>
        <time>2016-01-30T08:50:09.234Z</time>
      </trkpt>
      <trkpt lat="43.65805" lon="5.80234">
        <ele>469</ele>
        <time>2016-01-30T08:50:14.315Z</time>
      </trkpt>
      <trkpt lat="43.65804" lon="5.80234">
        <ele>469</ele>
        <time>2016-01-30T08:50:15.229Z</time>
      </trkpt>
      <trkpt lat="43.65796" lon="5.80232">
        <ele>469</ele>
        <time>2016-01-30T08:50:19.259Z</time>
      </trkpt>
      <trkpt lat="43.65795" lon="5.8023">
        <ele>469</ele>
        <time>2016-01-30T08:50:20.227Z</time>
      </trkpt>
      <trkpt lat="43.65788" lon="5.80227">
        <ele>469</ele>
        <time>2016-01-30T08:50:23.288Z</time>
      </trkpt>
      <trkpt lat="43.65785" lon="5.80226">
        <ele>469</ele>
        <time>2016-01-30T08:50:24.230Z</time>
      </trkpt>
      <trkpt lat="43.65778" lon="5.80222">
        <ele>470</ele>
        <time>2016-01-30T08:50:28.253Z</time>
      </trkpt>
      <trkpt lat="43.65776" lon="5.80222">
        <ele>470</ele>
        <time>2016-01-30T08:50:29.224Z</time>
      </trkpt>
      <trkpt lat="43.65767" lon="5.80221">
        <ele>470</ele>
        <time>2016-01-30T08:50:33.254Z</time>
      </trkpt>
      <trkpt lat="43.65765" lon="5.8022">
        <ele>470</ele>
        <time>2016-01-30T08:50:34.262Z</time>
      </trkpt>
      <trkpt lat="43.65756" lon="5.80217">
        <ele>471</ele>
        <time>2016-01-30T08:50:38.259Z</time>
      </trkpt>
      <trkpt lat="43.65753" lon="5.80216">
        <ele>471</ele>
        <time>2016-01-30T08:50:39.228Z</time>
      </trkpt>
      <trkpt lat="43.65746" lon="5.80215">
        <ele>471</ele>
        <time>2016-01-30T08:50:42.253Z</time>
      </trkpt>
      <trkpt lat="43.65744" lon="5.80214">
        <ele>471</ele>
        <time>2016-01-30T08:50:43.229Z</time>
      </trkpt>
      <trkpt lat="43.65737" lon="5.80214">
        <ele>471</ele>
        <time>2016-01-30T08:50:46.256Z</time>
      </trkpt>
      <trkpt lat="43.65735" lon="5.80215">
        <ele>471</ele>
        <time>2016-01-30T08:50:47.229Z</time>
      </trkpt>
      <trkpt lat="43.65727" lon="5.80215">
        <ele>472</ele>
        <time>2016-01-30T08:50:53.254Z</time>
      </trkpt>
      <trkpt lat="43.65725" lon="5.80215">
        <ele>472</ele>
        <time>2016-01-30T08:50:54.234Z</time>
      </trkpt>
      <trkpt lat="43.65717" lon="5.80218">
        <ele>473</ele>
        <time>2016-01-30T08:51:00.261Z</time>
      </trkpt>
      <trkpt lat="43.65716" lon="5.80219">
        <ele>474</ele>
        <time>2016-01-30T08:51:01.260Z</time>
      </trkpt>
      <trkpt lat="43.65708" lon="5.80219">
        <ele>474</ele>
        <time>2016-01-30T08:51:06.256Z</time>
      </trkpt>
      <trkpt lat="43.65707" lon="5.8022">
        <ele>474</ele>
        <time>2016-01-30T08:51:07.227Z</time>
      </trkpt>
      <trkpt lat="43.657" lon="5.80228">
        <ele>475</ele>
        <time>2016-01-30T08:51:13.250Z</time>
      </trkpt>
      <trkpt lat="43.65699" lon="5.8023">
        <ele>475</ele>
        <time>2016-01-30T08:51:14.227Z</time>
      </trkpt>
      <trkpt lat="43.65693" lon="5.80239">
        <ele>475</ele>
        <time>2016-01-30T08:51:19.253Z</time>
      </trkpt>
      <trkpt lat="43.65692" lon="5.80241">
        <ele>475</ele>
        <time>2016-01-30T08:51:20.232Z</time>
      </trkpt>
      <trkpt lat="43.65687" lon="5.80248">
        <ele>475</ele>
        <time>2016-01-30T08:51:25.255Z</time>
      </trkpt>
      <trkpt lat="43.65686" lon="5.8025">
        <ele>474</ele>
        <time>2016-01-30T08:51:26.229Z</time>
      </trkpt>
      <trkpt lat="43.6568" lon="5.80259">
        <ele>474</ele>
        <time>2016-01-30T08:51:32.254Z</time>
      </trkpt>
      <trkpt lat="43.65679" lon="5.80261">
        <ele>474</ele>
        <time>2016-01-30T08:51:33.230Z</time>
      </trkpt>
      <trkpt lat="43.65675" lon="5.8027">
        <ele>475</ele>
        <time>2016-01-30T08:51:38.252Z</time>
      </trkpt>
      <trkpt lat="43.65673" lon="5.80272">
        <ele>475</ele>
        <time>2016-01-30T08:51:39.263Z</time>
      </trkpt>
      <trkpt lat="43.65668" lon="5.80281">
        <ele>475</ele>
        <time>2016-01-30T08:51:44.252Z</time>
      </trkpt>
      <trkpt lat="43.65667" lon="5.80283">
        <ele>476</ele>
        <time>2016-01-30T08:51:45.230Z</time>
      </trkpt>
      <trkpt lat="43.65664" lon="5.80293">
        <ele>477</ele>
        <time>2016-01-30T08:51:50.283Z</time>
      </trkpt>
      <trkpt lat="43.65663" lon="5.80295">
        <ele>477</ele>
        <time>2016-01-30T08:51:51.228Z</time>
      </trkpt>
      <trkpt lat="43.65659" lon="5.80305">
        <ele>478</ele>
        <time>2016-01-30T08:51:58.255Z</time>
      </trkpt>
      <trkpt lat="43.65658" lon="5.80306">
        <ele>478</ele>
        <time>2016-01-30T08:51:59.230Z</time>
      </trkpt>
      <trkpt lat="43.65651" lon="5.80313">
        <ele>478</ele>
        <time>2016-01-30T08:52:06.253Z</time>
      </trkpt>
      <trkpt lat="43.6565" lon="5.80314">
        <ele>478</ele>
        <time>2016-01-30T08:52:07.230Z</time>
      </trkpt>
      <trkpt lat="43.65645" lon="5.80323">
        <ele>478</ele>
        <time>2016-01-30T08:52:14.254Z</time>
      </trkpt>
      <trkpt lat="43.65644" lon="5.80325">
        <ele>478</ele>
        <time>2016-01-30T08:52:15.230Z</time>
      </trkpt>
      <trkpt lat="43.65641" lon="5.80335">
        <ele>479</ele>
        <time>2016-01-30T08:52:21.261Z</time>
      </trkpt>
      <trkpt lat="43.6564" lon="5.80337">
        <ele>479</ele>
        <time>2016-01-30T08:52:22.258Z</time>
      </trkpt>
      <trkpt lat="43.65636" lon="5.80347">
        <ele>479</ele>
        <time>2016-01-30T08:52:27.254Z</time>
      </trkpt>
      <trkpt lat="43.65635" lon="5.80349">
        <ele>479</ele>
        <time>2016-01-30T08:52:28.230Z</time>
      </trkpt>
      <trkpt lat="43.65632" lon="5.80358">
        <ele>478</ele>
        <time>2016-01-30T08:52:32.258Z</time>
      </trkpt>
      <trkpt lat="43.65632" lon="5.80361">
        <ele>479</ele>
        <time>2016-01-30T08:52:33.256Z</time>
      </trkpt>
      <trkpt lat="43.6563" lon="5.8037">
        <ele>479</ele>
        <time>2016-01-30T08:52:36.255Z</time>
      </trkpt>
      <trkpt lat="43.6563" lon="5.80373">
        <ele>479</ele>
        <time>2016-01-30T08:52:37.230Z</time>
      </trkpt>
      <trkpt lat="43.65628" lon="5.80384">
        <ele>480</ele>
        <time>2016-01-30T08:52:41.258Z</time>
      </trkpt>
      <trkpt lat="43.65627" lon="5.80387">
        <ele>480</ele>
        <time>2016-01-30T08:52:42.230Z</time>
      </trkpt>
      <trkpt lat="43.65624" lon="5.80398">
        <ele>480</ele>
        <time>2016-01-30T08:52:46.255Z</time>
      </trkpt>
      <trkpt lat="43.65623" lon="5.804">
        <ele>480</ele>
        <time>2016-01-30T08:52:47.232Z</time>
      </trkpt>
      <trkpt lat="43.65619" lon="5.8041">
        <ele>482</ele>
        <time>2016-01-30T08:52:52.256Z</time>
      </trkpt>
      <trkpt lat="43.65617" lon="5.80412">
        <ele>482</ele>
        <time>2016-01-30T08:52:53.232Z</time>
      </trkpt>
      <trkpt lat="43.6561" lon="5.80416">
        <ele>484</ele>
        <time>2016-01-30T08:52:57.254Z</time>
      </trkpt>
      <trkpt lat="43.65608" lon="5.80417">
        <ele>484</ele>
        <time>2016-01-30T08:52:58.231Z</time>
      </trkpt>
      <trkpt lat="43.65604" lon="5.80426">
        <ele>485</ele>
        <time>2016-01-30T08:53:02.254Z</time>
      </trkpt>
      <trkpt lat="43.65604" lon="5.80429">
        <ele>485</ele>
        <time>2016-01-30T08:53:03.231Z</time>
      </trkpt>
      <trkpt lat="43.65602" lon="5.80439">
        <ele>486</ele>
        <time>2016-01-30T08:53:07.255Z</time>
      </trkpt>
      <trkpt lat="43.65601" lon="5.80442">
        <ele>486</ele>
        <time>2016-01-30T08:53:08.230Z</time>
      </trkpt>
      <trkpt lat="43.65598" lon="5.80452">
        <ele>488</ele>
        <time>2016-01-30T08:53:12.263Z</time>
      </trkpt>
      <trkpt lat="43.65597" lon="5.80454">
        <ele>487</ele>
        <time>2016-01-30T08:53:13.230Z</time>
      </trkpt>
      <trkpt lat="43.65595" lon="5.80465">
        <ele>488</ele>
        <time>2016-01-30T08:53:17.324Z</time>
      </trkpt>
      <trkpt lat="43.65594" lon="5.80468">
        <ele>488</ele>
        <time>2016-01-30T08:53:18.229Z</time>
      </trkpt>
      <trkpt lat="43.65592" lon="5.80477">
        <ele>488</ele>
        <time>2016-01-30T08:53:21.255Z</time>
      </trkpt>
      <trkpt lat="43.65591" lon="5.8048">
        <ele>488</ele>
        <time>2016-01-30T08:53:22.223Z</time>
      </trkpt>
      <trkpt lat="43.65589" lon="5.80492">
        <ele>487</ele>
        <time>2016-01-30T08:53:26.256Z</time>
      </trkpt>
      <trkpt lat="43.65588" lon="5.80494">
        <ele>487</ele>
        <time>2016-01-30T08:53:27.260Z</time>
      </trkpt>
      <trkpt lat="43.65586" lon="5.80506">
        <ele>487</ele>
        <time>2016-01-30T08:53:32.259Z</time>
      </trkpt>
      <trkpt lat="43.65586" lon="5.80509">
        <ele>487</ele>
        <time>2016-01-30T08:53:33.233Z</time>
      </trkpt>
      <trkpt lat="43.65584" lon="5.8052">
        <ele>488</ele>
        <time>2016-01-30T08:53:38.284Z</time>
      </trkpt>
      <trkpt lat="43.65584" lon="5.80522">
        <ele>488</ele>
        <time>2016-01-30T08:53:39.232Z</time>
      </trkpt>
      <trkpt lat="43.65586" lon="5.80533">
        <ele>488</ele>
        <time>2016-01-30T08:53:43.319Z</time>
      </trkpt>
      <trkpt lat="43.65586" lon="5.80536">
        <ele>488</ele>
        <time>2016-01-30T08:53:44.231Z</time>
      </trkpt>
      <trkpt lat="43.65586" lon="5.80546">
        <ele>488</ele>
        <time>2016-01-30T08:53:48.256Z</time>
      </trkpt>
      <trkpt lat="43.65586" lon="5.80548">
        <ele>488</ele>
        <time>2016-01-30T08:53:49.231Z</time>
      </trkpt>
      <trkpt lat="43.65587" lon="5.8056">
        <ele>489</ele>
        <time>2016-01-30T08:53:54.257Z</time>
      </trkpt>
      <trkpt lat="43.65587" lon="5.80562">
        <ele>489</ele>
        <time>2016-01-30T08:53:55.233Z</time>
      </trkpt>
      <trkpt lat="43.65585" lon="5.80574">
        <ele>491</ele>
        <time>2016-01-30T08:54:01.489Z</time>
      </trkpt>
      <trkpt lat="43.65584" lon="5.80576">
        <ele>491</ele>
        <time>2016-01-30T08:54:02.230Z</time>
      </trkpt>
      <trkpt lat="43.65581" lon="5.80587">
        <ele>493</ele>
        <time>2016-01-30T08:54:09.267Z</time>
      </trkpt>
      <trkpt lat="43.6558" lon="5.80589">
        <ele>494</ele>
        <time>2016-01-30T08:54:10.255Z</time>
      </trkpt>
      <trkpt lat="43.65575" lon="5.80598">
        <ele>493</ele>
        <time>2016-01-30T08:54:17.253Z</time>
      </trkpt>
      <trkpt lat="43.65574" lon="5.80599">
        <ele>493</ele>
        <time>2016-01-30T08:54:18.230Z</time>
      </trkpt>
      <trkpt lat="43.65568" lon="5.80606">
        <ele>493</ele>
        <time>2016-01-30T08:54:24.258Z</time>
      </trkpt>
      <trkpt lat="43.65567" lon="5.80607">
        <ele>493</ele>
        <time>2016-01-30T08:54:25.231Z</time>
      </trkpt>
      <trkpt lat="43.65561" lon="5.80617">
        <ele>494</ele>
        <time>2016-01-30T08:54:31.256Z</time>
      </trkpt>
      <trkpt lat="43.6556" lon="5.80619">
        <ele>494</ele>
        <time>2016-01-30T08:54:32.261Z</time>
      </trkpt>
      <trkpt lat="43.65557" lon="5.80629">
        <ele>497</ele>
        <time>2016-01-30T08:54:38.256Z</time>
      </trkpt>
      <trkpt lat="43.65556" lon="5.80631">
        <ele>497</ele>
        <time>2016-01-30T08:54:39.232Z</time>
      </trkpt>
      <trkpt lat="43.65551" lon="5.8064">
        <ele>498</ele>
        <time>2016-01-30T08:54:46.254Z</time>
      </trkpt>
      <trkpt lat="43.6555" lon="5.80641">
        <ele>498</ele>
        <time>2016-01-30T08:54:47.230Z</time>
      </trkpt>
      <trkpt lat="43.65543" lon="5.80648">
        <ele>500</ele>
        <time>2016-01-30T08:54:55.254Z</time>
      </trkpt>
      <trkpt lat="43.65542" lon="5.80648">
        <ele>500</ele>
        <time>2016-01-30T08:54:56.231Z</time>
      </trkpt>
      <trkpt lat="43.65535" lon="5.80655">
        <ele>500</ele>
        <time>2016-01-30T08:55:05.499Z</time>
      </trkpt>
      <trkpt lat="43.65534" lon="5.80656">
        <ele>501</ele>
        <time>2016-01-30T08:55:06.228Z</time>
      </trkpt>
      <trkpt lat="43.65527" lon="5.80664">
        <ele>502</ele>
        <time>2016-01-30T08:55:14.256Z</time>
      </trkpt>
      <trkpt lat="43.65526" lon="5.80665">
        <ele>502</ele>
        <time>2016-01-30T08:55:15.231Z</time>
      </trkpt>
      <trkpt lat="43.65521" lon="5.80673">
        <ele>504</ele>
        <time>2016-01-30T08:55:22.255Z</time>
      </trkpt>
      <trkpt lat="43.6552" lon="5.80675">
        <ele>504</ele>
        <time>2016-01-30T08:55:23.230Z</time>
      </trkpt>
      <trkpt lat="43.65512" lon="5.80679">
        <ele>506</ele>
        <time>2016-01-30T08:55:31.257Z</time>
      </trkpt>
      <trkpt lat="43.65511" lon="5.80679">
        <ele>506</ele>
        <time>2016-01-30T08:55:32.486Z</time>
      </trkpt>
      <trkpt lat="43.65503" lon="5.8068">
        <ele>509</ele>
        <time>2016-01-30T08:55:41.305Z</time>
      </trkpt>
      <trkpt lat="43.65502" lon="5.80681">
        <ele>509</ele>
        <time>2016-01-30T08:55:42.231Z</time>
      </trkpt>
      <trkpt lat="43.65493" lon="5.80682">
        <ele>510</ele>
        <time>2016-01-30T08:55:50.252Z</time>
      </trkpt>
      <trkpt lat="43.65492" lon="5.80682">
        <ele>510</ele>
        <time>2016-01-30T08:55:51.232Z</time>
      </trkpt>
      <trkpt lat="43.65483" lon="5.80682">
        <ele>511</ele>
        <time>2016-01-30T08:55:58.255Z</time>
      </trkpt>
      <trkpt lat="43.65482" lon="5.80682">
        <ele>511</ele>
        <time>2016-01-30T08:55:59.260Z</time>
      </trkpt>
      <trkpt lat="43.65474" lon="5.80686">
        <ele>511</ele>
        <time>2016-01-30T08:56:06.256Z</time>
      </trkpt>
      <trkpt lat="43.65473" lon="5.80687">
        <ele>511</ele>
        <time>2016-01-30T08:56:07.234Z</time>
      </trkpt>
      <trkpt lat="43.65466" lon="5.80695">
        <ele>512</ele>
        <time>2016-01-30T08:56:14.257Z</time>
      </trkpt>
      <trkpt lat="43.65465" lon="5.80696">
        <ele>511</ele>
        <time>2016-01-30T08:56:15.232Z</time>
      </trkpt>
      <trkpt lat="43.65458" lon="5.80703">
        <ele>512</ele>
        <time>2016-01-30T08:56:22.256Z</time>
      </trkpt>
      <trkpt lat="43.65457" lon="5.80703">
        <ele>513</ele>
        <time>2016-01-30T08:56:23.234Z</time>
      </trkpt>
      <trkpt lat="43.65449" lon="5.80701">
        <ele>513</ele>
        <time>2016-01-30T08:56:29.265Z</time>
      </trkpt>
      <trkpt lat="43.65448" lon="5.80701">
        <ele>513</ele>
        <time>2016-01-30T08:56:30.230Z</time>
      </trkpt>
      <trkpt lat="43.6544" lon="5.80699">
        <ele>514</ele>
        <time>2016-01-30T08:56:36.305Z</time>
      </trkpt>
      <trkpt lat="43.65439" lon="5.80699">
        <ele>515</ele>
        <time>2016-01-30T08:56:37.259Z</time>
      </trkpt>
      <trkpt lat="43.65431" lon="5.80695">
        <ele>517</ele>
        <time>2016-01-30T08:56:44.258Z</time>
      </trkpt>
      <trkpt lat="43.6543" lon="5.80694">
        <ele>517</ele>
        <time>2016-01-30T08:56:45.232Z</time>
      </trkpt>
      <trkpt lat="43.65423" lon="5.80689">
        <ele>520</ele>
        <time>2016-01-30T08:56:51.258Z</time>
      </trkpt>
      <trkpt lat="43.65422" lon="5.80688">
        <ele>520</ele>
        <time>2016-01-30T08:56:52.233Z</time>
      </trkpt>
      <trkpt lat="43.65413" lon="5.80685">
        <ele>520</ele>
        <time>2016-01-30T08:56:58.260Z</time>
      </trkpt>
      <trkpt lat="43.65411" lon="5.80684">
        <ele>520</ele>
        <time>2016-01-30T08:56:59.260Z</time>
      </trkpt>
      <trkpt lat="43.65403" lon="5.80685">
        <ele>519</ele>
        <time>2016-01-30T08:57:05.255Z</time>
      </trkpt>
      <trkpt lat="43.65402" lon="5.80686">
        <ele>519</ele>
        <time>2016-01-30T08:57:06.231Z</time>
      </trkpt>
      <trkpt lat="43.65397" lon="5.80695">
        <ele>517</ele>
        <time>2016-01-30T08:57:23.256Z</time>
      </trkpt>
      <trkpt lat="43.65396" lon="5.80698">
        <ele>517</ele>
        <time>2016-01-30T08:57:24.231Z</time>
      </trkpt>
      <trkpt lat="43.65388" lon="5.80705">
        <ele>517</ele>
        <time>2016-01-30T08:57:28.479Z</time>
      </trkpt>
      <trkpt lat="43.65386" lon="5.80706">
        <ele>517</ele>
        <time>2016-01-30T08:57:29.231Z</time>
      </trkpt>
      <trkpt lat="43.65378" lon="5.80708">
        <ele>517</ele>
        <time>2016-01-30T08:57:32.265Z</time>
      </trkpt>
      <trkpt lat="43.65376" lon="5.8071">
        <ele>516</ele>
        <time>2016-01-30T08:57:33.228Z</time>
      </trkpt>
      <trkpt lat="43.6537" lon="5.80716">
        <ele>515</ele>
        <time>2016-01-30T08:57:36.256Z</time>
      </trkpt>
      <trkpt lat="43.65368" lon="5.80718">
        <ele>515</ele>
        <time>2016-01-30T08:57:37.259Z</time>
      </trkpt>
      <trkpt lat="43.65362" lon="5.80724">
        <ele>514</ele>
        <time>2016-01-30T08:57:40.258Z</time>
      </trkpt>
      <trkpt lat="43.6536" lon="5.80726">
        <ele>513</ele>
        <time>2016-01-30T08:57:41.232Z</time>
      </trkpt>
      <trkpt lat="43.65355" lon="5.80732">
        <ele>512</ele>
        <time>2016-01-30T08:57:43.256Z</time>
      </trkpt>
      <trkpt lat="43.65352" lon="5.80736">
        <ele>512</ele>
        <time>2016-01-30T08:57:44.231Z</time>
      </trkpt>
      <trkpt lat="43.65346" lon="5.80745">
        <ele>511</ele>
        <time>2016-01-30T08:57:46.256Z</time>
      </trkpt>
      <trkpt lat="43.65342" lon="5.80747">
        <ele>511</ele>
        <time>2016-01-30T08:57:47.228Z</time>
      </trkpt>
      <trkpt lat="43.65334" lon="5.80751">
        <ele>509</ele>
        <time>2016-01-30T08:57:49.259Z</time>
      </trkpt>
      <trkpt lat="43.65331" lon="5.80752">
        <ele>508</ele>
        <time>2016-01-30T08:57:50.231Z</time>
      </trkpt>
      <trkpt lat="43.65324" lon="5.80757">
        <ele>505</ele>
        <time>2016-01-30T08:57:54.254Z</time>
      </trkpt>
      <trkpt lat="43.65323" lon="5.80759">
        <ele>505</ele>
        <time>2016-01-30T08:57:55.231Z</time>
      </trkpt>
      <trkpt lat="43.65315" lon="5.80762">
        <ele>503</ele>
        <time>2016-01-30T08:57:59.251Z</time>
      </trkpt>
      <trkpt lat="43.65312" lon="5.80761">
        <ele>503</ele>
        <time>2016-01-30T08:58:00.240Z</time>
      </trkpt>
      <trkpt lat="43.65305" lon="5.80761">
        <ele>502</ele>
        <time>2016-01-30T08:58:03.265Z</time>
      </trkpt>
      <trkpt lat="43.65303" lon="5.80762">
        <ele>502</ele>
        <time>2016-01-30T08:58:04.499Z</time>
      </trkpt>
      <trkpt lat="43.65296" lon="5.80764">
        <ele>500</ele>
        <time>2016-01-30T08:58:07.258Z</time>
      </trkpt>
      <trkpt lat="43.65294" lon="5.80762">
        <ele>500</ele>
        <time>2016-01-30T08:58:08.232Z</time>
      </trkpt>
      <trkpt lat="43.65287" lon="5.80756">
        <ele>499</ele>
        <time>2016-01-30T08:58:11.255Z</time>
      </trkpt>
      <trkpt lat="43.65285" lon="5.80754">
        <ele>499</ele>
        <time>2016-01-30T08:58:12.234Z</time>
      </trkpt>
      <trkpt lat="43.65278" lon="5.80754">
        <ele>497</ele>
        <time>2016-01-30T08:58:15.285Z</time>
      </trkpt>
      <trkpt lat="43.65276" lon="5.80756">
        <ele>496</ele>
        <time>2016-01-30T08:58:16.232Z</time>
      </trkpt>
      <trkpt lat="43.65269" lon="5.8076">
        <ele>495</ele>
        <time>2016-01-30T08:58:19.257Z</time>
      </trkpt>
      <trkpt lat="43.65267" lon="5.80762">
        <ele>493</ele>
        <time>2016-01-30T08:58:20.236Z</time>
      </trkpt>
      <trkpt lat="43.6526" lon="5.80765">
        <ele>490</ele>
        <time>2016-01-30T08:58:23.256Z</time>
      </trkpt>
      <trkpt lat="43.65257" lon="5.80766">
        <ele>489</ele>
        <time>2016-01-30T08:58:24.231Z</time>
      </trkpt>
      <trkpt lat="43.65249" lon="5.80769">
        <ele>488</ele>
        <time>2016-01-30T08:58:26.257Z</time>
      </trkpt>
      <trkpt lat="43.65246" lon="5.80769">
        <ele>488</ele>
        <time>2016-01-30T08:58:27.232Z</time>
      </trkpt>
      <trkpt lat="43.65238" lon="5.80764">
        <ele>488</ele>
        <time>2016-01-30T08:58:30.256Z</time>
      </trkpt>
      <trkpt lat="43.65235" lon="5.80762">
        <ele>488</ele>
        <time>2016-01-30T08:58:31.259Z</time>
      </trkpt>
      <trkpt lat="43.65228" lon="5.80764">
        <ele>487</ele>
        <time>2016-01-30T08:58:34.256Z</time>
      </trkpt>
      <trkpt lat="43.65227" lon="5.80768">
        <ele>487</ele>
        <time>2016-01-30T08:58:35.232Z</time>
      </trkpt>
      <trkpt lat="43.65225" lon="5.80777">
        <ele>486</ele>
        <time>2016-01-30T08:58:37.257Z</time>
      </trkpt>
      <trkpt lat="43.65224" lon="5.80782">
        <ele>485</ele>
        <time>2016-01-30T08:58:38.232Z</time>
      </trkpt>
      <trkpt lat="43.65221" lon="5.80792">
        <ele>484</ele>
        <time>2016-01-30T08:58:41.257Z</time>
      </trkpt>
      <trkpt lat="43.65221" lon="5.80795">
        <ele>484</ele>
        <time>2016-01-30T08:58:42.263Z</time>
      </trkpt>
      <trkpt lat="43.65227" lon="5.80802">
        <ele>484</ele>
        <time>2016-01-30T08:58:45.257Z</time>
      </trkpt>
      <trkpt lat="43.65229" lon="5.80804">
        <ele>484</ele>
        <time>2016-01-30T08:58:46.233Z</time>
      </trkpt>
      <trkpt lat="43.65235" lon="5.80812">
        <ele>483</ele>
        <time>2016-01-30T08:58:49.257Z</time>
      </trkpt>
      <trkpt lat="43.65237" lon="5.80814">
        <ele>483</ele>
        <time>2016-01-30T08:58:50.232Z</time>
      </trkpt>
      <trkpt lat="43.65243" lon="5.80821">
        <ele>483</ele>
        <time>2016-01-30T08:58:53.256Z</time>
      </trkpt>
      <trkpt lat="43.65245" lon="5.80823">
        <ele>483</ele>
        <time>2016-01-30T08:58:54.233Z</time>
      </trkpt>
      <trkpt lat="43.65251" lon="5.80832">
        <ele>485</ele>
        <time>2016-01-30T08:58:58.279Z</time>
      </trkpt>
      <trkpt lat="43.65251" lon="5.80834">
        <ele>485</ele>
        <time>2016-01-30T08:58:59.232Z</time>
      </trkpt>
      <trkpt lat="43.65245" lon="5.8084">
        <ele>484</ele>
        <time>2016-01-30T08:59:02.256Z</time>
      </trkpt>
      <trkpt lat="43.65241" lon="5.80844">
        <ele>483</ele>
        <time>2016-01-30T08:59:03.232Z</time>
      </trkpt>
      <trkpt lat="43.65236" lon="5.80849">
        <ele>482</ele>
        <time>2016-01-30T08:59:04.291Z</time>
      </trkpt>
      <trkpt lat="43.65229" lon="5.80851">
        <ele>481</ele>
        <time>2016-01-30T08:59:05.232Z</time>
      </trkpt>
      <trkpt lat="43.65222" lon="5.80852">
        <ele>479</ele>
        <time>2016-01-30T08:59:07.256Z</time>
      </trkpt>
      <trkpt lat="43.65219" lon="5.80852">
        <ele>479</ele>
        <time>2016-01-30T08:59:08.233Z</time>
      </trkpt>
      <trkpt lat="43.65211" lon="5.80852">
        <ele>478</ele>
        <time>2016-01-30T08:59:10.257Z</time>
      </trkpt>
      <trkpt lat="43.65209" lon="5.80853">
        <ele>478</ele>
        <time>2016-01-30T08:59:11.231Z</time>
      </trkpt>
      <trkpt lat="43.652" lon="5.80852">
        <ele>477</ele>
        <time>2016-01-30T08:59:40.261Z</time>
      </trkpt>
      <trkpt lat="43.65199" lon="5.80852">
        <ele>477</ele>
        <time>2016-01-30T08:59:41.233Z</time>
      </trkpt>
      <trkpt lat="43.65192" lon="5.80844">
        <ele>478</ele>
        <time>2016-01-30T08:59:51.253Z</time>
      </trkpt>
      <trkpt lat="43.65192" lon="5.80842">
        <ele>479</ele>
        <time>2016-01-30T08:59:52.263Z</time>
      </trkpt>
      <trkpt lat="43.65184" lon="5.80837">
        <ele>484</ele>
        <time>2016-01-30T09:00:01.240Z</time>
      </trkpt>
      <trkpt lat="43.65183" lon="5.80837">
        <ele>484</ele>
        <time>2016-01-30T09:00:02.230Z</time>
      </trkpt>
      <trkpt lat="43.65176" lon="5.80842">
        <ele>482</ele>
        <time>2016-01-30T09:00:08.450Z</time>
      </trkpt>
      <trkpt lat="43.65175" lon="5.80843">
        <ele>482</ele>
        <time>2016-01-30T09:00:09.234Z</time>
      </trkpt>
      <trkpt lat="43.65168" lon="5.80848">
        <ele>480</ele>
        <time>2016-01-30T09:00:15.261Z</time>
      </trkpt>
      <trkpt lat="43.65167" lon="5.80849">
        <ele>480</ele>
        <time>2016-01-30T09:00:16.234Z</time>
      </trkpt>
      <trkpt lat="43.65163" lon="5.80858">
        <ele>480</ele>
        <time>2016-01-30T09:00:24.258Z</time>
      </trkpt>
      <trkpt lat="43.65162" lon="5.8086">
        <ele>481</ele>
        <time>2016-01-30T09:00:25.235Z</time>
      </trkpt>
      <trkpt lat="43.65157" lon="5.80867">
        <ele>481</ele>
        <time>2016-01-30T09:00:53.260Z</time>
      </trkpt>
      <trkpt lat="43.65154" lon="5.80866">
        <ele>481</ele>
        <time>2016-01-30T09:00:54.230Z</time>
      </trkpt>
      <trkpt lat="43.65147" lon="5.80867">
        <ele>480</ele>
        <time>2016-01-30T09:00:57.247Z</time>
      </trkpt>
      <trkpt lat="43.65145" lon="5.80867">
        <ele>479</ele>
        <time>2016-01-30T09:00:58.230Z</time>
      </trkpt>
      <trkpt lat="43.65136" lon="5.80866">
        <ele>478</ele>
        <time>2016-01-30T09:01:02.293Z</time>
      </trkpt>
      <trkpt lat="43.65134" lon="5.80866">
        <ele>478</ele>
        <time>2016-01-30T09:01:03.230Z</time>
      </trkpt>
      <trkpt lat="43.65125" lon="5.80868">
        <ele>477</ele>
        <time>2016-01-30T09:01:07.257Z</time>
      </trkpt>
      <trkpt lat="43.65123" lon="5.80866">
        <ele>477</ele>
        <time>2016-01-30T09:01:08.233Z</time>
      </trkpt>
      <trkpt lat="43.65115" lon="5.8086">
        <ele>476</ele>
        <time>2016-01-30T09:01:12.315Z</time>
      </trkpt>
      <trkpt lat="43.65113" lon="5.8086">
        <ele>475</ele>
        <time>2016-01-30T09:01:13.233Z</time>
      </trkpt>
      <trkpt lat="43.65106" lon="5.80853">
        <ele>475</ele>
        <time>2016-01-30T09:01:17.258Z</time>
      </trkpt>
      <trkpt lat="43.65106" lon="5.8085">
        <ele>475</ele>
        <time>2016-01-30T09:01:18.232Z</time>
      </trkpt>
      <trkpt lat="43.65104" lon="5.8084">
        <ele>474</ele>
        <time>2016-01-30T09:01:20.260Z</time>
      </trkpt>
      <trkpt lat="43.65103" lon="5.80837">
        <ele>474</ele>
        <time>2016-01-30T09:01:21.230Z</time>
      </trkpt>
      <trkpt lat="43.65098" lon="5.80831">
        <ele>473</ele>
        <time>2016-01-30T09:01:23.288Z</time>
      </trkpt>
      <trkpt lat="43.65097" lon="5.80827">
        <ele>473</ele>
        <time>2016-01-30T09:01:24.234Z</time>
      </trkpt>
      <trkpt lat="43.65093" lon="5.80818">
        <ele>473</ele>
        <time>2016-01-30T09:01:27.256Z</time>
      </trkpt>
      <trkpt lat="43.65092" lon="5.80815">
        <ele>473</ele>
        <time>2016-01-30T09:01:28.234Z</time>
      </trkpt>
      <trkpt lat="43.65085" lon="5.80811">
        <ele>472</ele>
        <time>2016-01-30T09:01:33.261Z</time>
      </trkpt>
      <trkpt lat="43.65083" lon="5.80811">
        <ele>473</ele>
        <time>2016-01-30T09:01:34.262Z</time>
      </trkpt>
      <trkpt lat="43.65075" lon="5.80809">
        <ele>472</ele>
        <time>2016-01-30T09:01:38.258Z</time>
      </trkpt>
      <trkpt lat="43.65072" lon="5.80809">
        <ele>471</ele>
        <time>2016-01-30T09:01:39.235Z</time>
      </trkpt>
      <trkpt lat="43.65066" lon="5.80806">
        <ele>470</ele>
        <time>2016-01-30T09:01:41.258Z</time>
      </trkpt>
      <trkpt lat="43.65063" lon="5.80805">
        <ele>469</ele>
        <time>2016-01-30T09:01:42.234Z</time>
      </trkpt>
      <trkpt lat="43.65055" lon="5.80802">
        <ele>468</ele>
        <time>2016-01-30T09:01:45.290Z</time>
      </trkpt>
      <trkpt lat="43.65052" lon="5.808">
        <ele>467</ele>
        <time>2016-01-30T09:01:46.230Z</time>
      </trkpt>
      <trkpt lat="43.65046" lon="5.80792">
        <ele>466</ele>
        <time>2016-01-30T09:01:50.257Z</time>
      </trkpt>
      <trkpt lat="43.65046" lon="5.80791">
        <ele>465</ele>
        <time>2016-01-30T09:01:51.235Z</time>
      </trkpt>
      <trkpt lat="43.65042" lon="5.80782">
        <ele>464</ele>
        <time>2016-01-30T09:01:55.259Z</time>
      </trkpt>
      <trkpt lat="43.6504" lon="5.8078">
        <ele>464</ele>
        <time>2016-01-30T09:01:56.262Z</time>
      </trkpt>
      <trkpt lat="43.65034" lon="5.80776">
        <ele>464</ele>
        <time>2016-01-30T09:01:58.258Z</time>
      </trkpt>
      <trkpt lat="43.65031" lon="5.80775">
        <ele>464</ele>
        <time>2016-01-30T09:01:59.233Z</time>
      </trkpt>
      <trkpt lat="43.65024" lon="5.8078">
        <ele>463</ele>
        <time>2016-01-30T09:02:09.260Z</time>
      </trkpt>
      <trkpt lat="43.65023" lon="5.8078">
        <ele>462</ele>
        <time>2016-01-30T09:02:10.233Z</time>
      </trkpt>
      <trkpt lat="43.65016" lon="5.80783">
        <ele>461</ele>
        <time>2016-01-30T09:02:12.256Z</time>
      </trkpt>
      <trkpt lat="43.65014" lon="5.80786">
        <ele>460</ele>
        <time>2016-01-30T09:02:13.234Z</time>
      </trkpt>
      <trkpt lat="43.65011" lon="5.80794">
        <ele>458</ele>
        <time>2016-01-30T09:02:15.255Z</time>
      </trkpt>
      <trkpt lat="43.6501" lon="5.80799">
        <ele>457</ele>
        <time>2016-01-30T09:02:16.233Z</time>
      </trkpt>
      <trkpt lat="43.65006" lon="5.80806">
        <ele>456</ele>
        <time>2016-01-30T09:02:18.346Z</time>
      </trkpt>
      <trkpt lat="43.65003" lon="5.80808">
        <ele>456</ele>
        <time>2016-01-30T09:02:19.231Z</time>
      </trkpt>
      <trkpt lat="43.64997" lon="5.80816">
        <ele>453</ele>
        <time>2016-01-30T09:02:22.258Z</time>
      </trkpt>
      <trkpt lat="43.64995" lon="5.8082">
        <ele>452</ele>
        <time>2016-01-30T09:02:23.233Z</time>
      </trkpt>
      <trkpt lat="43.64991" lon="5.80828">
        <ele>451</ele>
        <time>2016-01-30T09:02:25.245Z</time>
      </trkpt>
      <trkpt lat="43.6499" lon="5.80833">
        <ele>450</ele>
        <time>2016-01-30T09:02:26.230Z</time>
      </trkpt>
      <trkpt lat="43.64985" lon="5.8084">
        <ele>448</ele>
        <time>2016-01-30T09:02:28.258Z</time>
      </trkpt>
      <trkpt lat="43.64982" lon="5.80844">
        <ele>446</ele>
        <time>2016-01-30T09:02:29.234Z</time>
      </trkpt>
      <trkpt lat="43.64978" lon="5.80851">
        <ele>444</ele>
        <time>2016-01-30T09:02:31.257Z</time>
      </trkpt>
      <trkpt lat="43.64976" lon="5.80854">
        <ele>445</ele>
        <time>2016-01-30T09:02:32.234Z</time>
      </trkpt>
      <trkpt lat="43.64969" lon="5.80861">
        <ele>442</ele>
        <time>2016-01-30T09:02:35.258Z</time>
      </trkpt>
      <trkpt lat="43.64967" lon="5.80865">
        <ele>441</ele>
        <time>2016-01-30T09:02:36.234Z</time>
      </trkpt>
      <trkpt lat="43.64965" lon="5.80869">
        <ele>440</ele>
        <time>2016-01-30T09:02:37.265Z</time>
      </trkpt>
      <trkpt lat="43.64958" lon="5.8087">
        <ele>440</ele>
        <time>2016-01-30T09:02:38.233Z</time>
      </trkpt>
      <trkpt lat="43.64953" lon="5.80869">
        <ele>439</ele>
        <time>2016-01-30T09:02:39.259Z</time>
      </trkpt>
      <trkpt lat="43.64948" lon="5.80867">
        <ele>438</ele>
        <time>2016-01-30T09:02:40.234Z</time>
      </trkpt>
      <trkpt lat="43.6494" lon="5.80861">
        <ele>436</ele>
        <time>2016-01-30T09:02:43.258Z</time>
      </trkpt>
      <trkpt lat="43.64939" lon="5.80859">
        <ele>436</ele>
        <time>2016-01-30T09:02:44.233Z</time>
      </trkpt>
      <trkpt lat="43.6493" lon="5.80862">
        <ele>434</ele>
        <time>2016-01-30T09:02:48.265Z</time>
      </trkpt>
      <trkpt lat="43.64928" lon="5.80861">
        <ele>434</ele>
        <time>2016-01-30T09:02:49.232Z</time>
      </trkpt>
      <trkpt lat="43.64921" lon="5.80857">
        <ele>433</ele>
        <time>2016-01-30T09:04:20.259Z</time>
      </trkpt>
      <trkpt lat="43.6492" lon="5.80857">
        <ele>433</ele>
        <time>2016-01-30T09:04:21.237Z</time>
      </trkpt>
      <trkpt lat="43.64911" lon="5.80856">
        <ele>432</ele>
        <time>2016-01-30T09:04:30.258Z</time>
      </trkpt>
      <trkpt lat="43.64908" lon="5.80857">
        <ele>432</ele>
        <time>2016-01-30T09:04:31.234Z</time>
      </trkpt>
      <trkpt lat="43.64901" lon="5.80859">
        <ele>430</ele>
        <time>2016-01-30T09:04:33.259Z</time>
      </trkpt>
      <trkpt lat="43.64898" lon="5.80859">
        <ele>429</ele>
        <time>2016-01-30T09:04:34.235Z</time>
      </trkpt>
      <trkpt lat="43.64889" lon="5.8086">
        <ele>427</ele>
        <time>2016-01-30T09:04:37.513Z</time>
      </trkpt>
      <trkpt lat="43.64887" lon="5.80862">
        <ele>427</ele>
        <time>2016-01-30T09:04:38.256Z</time>
      </trkpt>
      <trkpt lat="43.64879" lon="5.80857">
        <ele>426</ele>
        <time>2016-01-30T09:04:53.284Z</time>
      </trkpt>
      <trkpt lat="43.64878" lon="5.80856">
        <ele>426</ele>
        <time>2016-01-30T09:04:54.233Z</time>
      </trkpt>
      <trkpt lat="43.6487" lon="5.80852">
        <ele>424</ele>
        <time>2016-01-30T09:05:03.284Z</time>
      </trkpt>
      <trkpt lat="43.64869" lon="5.80852">
        <ele>425</ele>
        <time>2016-01-30T09:05:04.232Z</time>
      </trkpt>
      <trkpt lat="43.6486" lon="5.80852">
        <ele>423</ele>
        <time>2016-01-30T09:05:19.253Z</time>
      </trkpt>
      <trkpt lat="43.64858" lon="5.80852">
        <ele>424</ele>
        <time>2016-01-30T09:05:20.253Z</time>
      </trkpt>
      <trkpt lat="43.64852" lon="5.80845">
        <ele>423</ele>
        <time>2016-01-30T09:12:57.259Z</time>
      </trkpt>
      <trkpt lat="43.64849" lon="5.80843">
        <ele>423</ele>
        <time>2016-01-30T09:12:58.482Z</time>
      </trkpt>
      <trkpt lat="43.64842" lon="5.80841">
        <ele>422</ele>
        <time>2016-01-30T09:13:00.246Z</time>
      </trkpt>
      <trkpt lat="43.64837" lon="5.8084">
        <ele>421</ele>
        <time>2016-01-30T09:13:01.234Z</time>
      </trkpt>
      <trkpt lat="43.64828" lon="5.80839">
        <ele>420</ele>
        <time>2016-01-30T09:13:03.264Z</time>
      </trkpt>
      <trkpt lat="43.64824" lon="5.80839">
        <ele>418</ele>
        <time>2016-01-30T09:13:04.235Z</time>
      </trkpt>
      <trkpt lat="43.64817" lon="5.80839">
        <ele>417</ele>
        <time>2016-01-30T09:13:06.258Z</time>
      </trkpt>
      <trkpt lat="43.64814" lon="5.80838">
        <ele>416</ele>
        <time>2016-01-30T09:13:07.235Z</time>
      </trkpt>
      <trkpt lat="43.64808" lon="5.80834">
        <ele>416</ele>
        <time>2016-01-30T09:13:09.288Z</time>
      </trkpt>
      <trkpt lat="43.64805" lon="5.80833">
        <ele>415</ele>
        <time>2016-01-30T09:13:10.237Z</time>
      </trkpt>
      <trkpt lat="43.64798" lon="5.80832">
        <ele>413</ele>
        <time>2016-01-30T09:13:13.260Z</time>
      </trkpt>
      <trkpt lat="43.64795" lon="5.80831">
        <ele>412</ele>
        <time>2016-01-30T09:13:14.234Z</time>
      </trkpt>
      <trkpt lat="43.64789" lon="5.80831">
        <ele>411</ele>
        <time>2016-01-30T09:13:16.261Z</time>
      </trkpt>
      <trkpt lat="43.64785" lon="5.80832">
        <ele>410</ele>
        <time>2016-01-30T09:13:17.234Z</time>
      </trkpt>
      <trkpt lat="43.64779" lon="5.80832">
        <ele>408</ele>
        <time>2016-01-30T09:13:19.254Z</time>
      </trkpt>
      <trkpt lat="43.64775" lon="5.80832">
        <ele>408</ele>
        <time>2016-01-30T09:13:20.260Z</time>
      </trkpt>
      <trkpt lat="43.64768" lon="5.8083">
        <ele>406</ele>
        <time>2016-01-30T09:13:23.261Z</time>
      </trkpt>
      <trkpt lat="43.64765" lon="5.80829">
        <ele>406</ele>
        <time>2016-01-30T09:13:24.234Z</time>
      </trkpt>
      <trkpt lat="43.64758" lon="5.80828">
        <ele>405</ele>
        <time>2016-01-30T09:13:27.260Z</time>
      </trkpt>
      <trkpt lat="43.64755" lon="5.80828">
        <ele>405</ele>
        <time>2016-01-30T09:13:28.237Z</time>
      </trkpt>
      <trkpt lat="43.64748" lon="5.80826">
        <ele>403</ele>
        <time>2016-01-30T09:13:31.261Z</time>
      </trkpt>
      <trkpt lat="43.64746" lon="5.80824">
        <ele>403</ele>
        <time>2016-01-30T09:13:32.237Z</time>
      </trkpt>
      <trkpt lat="43.6474" lon="5.80817">
        <ele>403</ele>
        <time>2016-01-30T09:13:35.263Z</time>
      </trkpt>
      <trkpt lat="43.64737" lon="5.80816">
        <ele>402</ele>
        <time>2016-01-30T09:13:36.262Z</time>
      </trkpt>
      <trkpt lat="43.64732" lon="5.80816">
        <ele>401</ele>
        <time>2016-01-30T09:13:37.266Z</time>
      </trkpt>
      <trkpt lat="43.64726" lon="5.80817">
        <ele>400</ele>
        <time>2016-01-30T09:13:38.237Z</time>
      </trkpt>
      <trkpt lat="43.64722" lon="5.80816">
        <ele>399</ele>
        <time>2016-01-30T09:13:39.259Z</time>
      </trkpt>
      <trkpt lat="43.64717" lon="5.80814">
        <ele>399</ele>
        <time>2016-01-30T09:13:40.237Z</time>
      </trkpt>
      <trkpt lat="43.64712" lon="5.80812">
        <ele>399</ele>
        <time>2016-01-30T09:13:41.261Z</time>
      </trkpt>
      <trkpt lat="43.64707" lon="5.8081">
        <ele>399</ele>
        <time>2016-01-30T09:13:42.231Z</time>
      </trkpt>
      <trkpt lat="43.64702" lon="5.80808">
        <ele>398</ele>
        <time>2016-01-30T09:13:43.256Z</time>
      </trkpt>
      <trkpt lat="43.64696" lon="5.80805">
        <ele>398</ele>
        <time>2016-01-30T09:13:44.238Z</time>
      </trkpt>
      <trkpt lat="43.6469" lon="5.80804">
        <ele>397</ele>
        <time>2016-01-30T09:13:45.245Z</time>
      </trkpt>
      <trkpt lat="43.64684" lon="5.80806">
        <ele>397</ele>
        <time>2016-01-30T09:13:46.235Z</time>
      </trkpt>
      <trkpt lat="43.64679" lon="5.8081">
        <ele>397</ele>
        <time>2016-01-30T09:13:47.261Z</time>
      </trkpt>
      <trkpt lat="43.64675" lon="5.80816">
        <ele>397</ele>
        <time>2016-01-30T09:13:48.235Z</time>
      </trkpt>
      <trkpt lat="43.64667" lon="5.80822">
        <ele>397</ele>
        <time>2016-01-30T09:13:50.263Z</time>
      </trkpt>
      <trkpt lat="43.64662" lon="5.80821">
        <ele>397</ele>
        <time>2016-01-30T09:13:51.238Z</time>
      </trkpt>
      <trkpt lat="43.64656" lon="5.80818">
        <ele>397</ele>
        <time>2016-01-30T09:13:52.291Z</time>
      </trkpt>
      <trkpt lat="43.64652" lon="5.80814">
        <ele>397</ele>
        <time>2016-01-30T09:13:53.233Z</time>
      </trkpt>
      <trkpt lat="43.64649" lon="5.80807">
        <ele>397</ele>
        <time>2016-01-30T09:13:54.272Z</time>
      </trkpt>
      <trkpt lat="43.64647" lon="5.808">
        <ele>397</ele>
        <time>2016-01-30T09:13:55.239Z</time>
      </trkpt>
      <trkpt lat="43.64647" lon="5.80793">
        <ele>397</ele>
        <time>2016-01-30T09:13:56.261Z</time>
      </trkpt>
      <trkpt lat="43.64646" lon="5.80786">
        <ele>397</ele>
        <time>2016-01-30T09:13:57.240Z</time>
      </trkpt>
      <trkpt lat="43.64644" lon="5.8078">
        <ele>397</ele>
        <time>2016-01-30T09:13:58.263Z</time>
      </trkpt>
      <trkpt lat="43.64643" lon="5.80773">
        <ele>397</ele>
        <time>2016-01-30T09:13:59.237Z</time>
      </trkpt>
      <trkpt lat="43.6464" lon="5.80766">
        <ele>397</ele>
        <time>2016-01-30T09:14:00.262Z</time>
      </trkpt>
      <trkpt lat="43.64637" lon="5.8076">
        <ele>396</ele>
        <time>2016-01-30T09:14:01.233Z</time>
      </trkpt>
      <trkpt lat="43.64633" lon="5.80755">
        <ele>396</ele>
        <time>2016-01-30T09:14:02.322Z</time>
      </trkpt>
      <trkpt lat="43.64629" lon="5.80751">
        <ele>396</ele>
        <time>2016-01-30T09:14:03.236Z</time>
      </trkpt>
      <trkpt lat="43.64624" lon="5.80751">
        <ele>397</ele>
        <time>2016-01-30T09:14:04.261Z</time>
      </trkpt>
      <trkpt lat="43.64619" lon="5.80751">
        <ele>397</ele>
        <time>2016-01-30T09:14:05.241Z</time>
      </trkpt>
      <trkpt lat="43.64614" lon="5.80753">
        <ele>397</ele>
        <time>2016-01-30T09:14:06.257Z</time>
      </trkpt>
      <trkpt lat="43.6461" lon="5.80755">
        <ele>396</ele>
        <time>2016-01-30T09:14:07.236Z</time>
      </trkpt>
      <trkpt lat="43.64605" lon="5.80758">
        <ele>395</ele>
        <time>2016-01-30T09:14:08.288Z</time>
      </trkpt>
      <trkpt lat="43.646" lon="5.80761">
        <ele>395</ele>
        <time>2016-01-30T09:14:09.236Z</time>
      </trkpt>
      <trkpt lat="43.64595" lon="5.80762">
        <ele>396</ele>
        <time>2016-01-30T09:14:10.270Z</time>
      </trkpt>
      <trkpt lat="43.64591" lon="5.80764">
        <ele>397</ele>
        <time>2016-01-30T09:14:11.236Z</time>
      </trkpt>
      <trkpt lat="43.64586" lon="5.80764">
        <ele>396</ele>
        <time>2016-01-30T09:14:12.259Z</time>
      </trkpt>
      <trkpt lat="43.64582" lon="5.80767">
        <ele>395</ele>
        <time>2016-01-30T09:14:13.238Z</time>
      </trkpt>
      <trkpt lat="43.64576" lon="5.80773">
        <ele>391</ele>
        <time>2016-01-30T09:14:15.272Z</time>
      </trkpt>
      <trkpt lat="43.64571" lon="5.80774">
        <ele>391</ele>
        <time>2016-01-30T09:14:16.234Z</time>
      </trkpt>
      <trkpt lat="43.64563" lon="5.80769">
        <ele>391</ele>
        <time>2016-01-30T09:14:18.244Z</time>
      </trkpt>
      <trkpt lat="43.64562" lon="5.80764">
        <ele>392</ele>
        <time>2016-01-30T09:14:19.265Z</time>
      </trkpt>
      <trkpt lat="43.64562" lon="5.80752">
        <ele>390</ele>
        <time>2016-01-30T09:14:21.258Z</time>
      </trkpt>
      <trkpt lat="43.6456" lon="5.80746">
        <ele>389</ele>
        <time>2016-01-30T09:14:22.236Z</time>
      </trkpt>
      <trkpt lat="43.64558" lon="5.80741">
        <ele>389</ele>
        <time>2016-01-30T09:14:23.256Z</time>
      </trkpt>
      <trkpt lat="43.64553" lon="5.80737">
        <ele>389</ele>
        <time>2016-01-30T09:14:24.236Z</time>
      </trkpt>
      <trkpt lat="43.64549" lon="5.80733">
        <ele>389</ele>
        <time>2016-01-30T09:14:25.260Z</time>
      </trkpt>
      <trkpt lat="43.64545" lon="5.8073">
        <ele>389</ele>
        <time>2016-01-30T09:14:26.237Z</time>
      </trkpt>
      <trkpt lat="43.64538" lon="5.80724">
        <ele>389</ele>
        <time>2016-01-30T09:14:28.261Z</time>
      </trkpt>
      <trkpt lat="43.64534" lon="5.80722">
        <ele>388</ele>
        <time>2016-01-30T09:14:29.237Z</time>
      </trkpt>
      <trkpt lat="43.64525" lon="5.80724">
        <ele>387</ele>
        <time>2016-01-30T09:14:31.261Z</time>
      </trkpt>
      <trkpt lat="43.64522" lon="5.80726">
        <ele>388</ele>
        <time>2016-01-30T09:14:32.234Z</time>
      </trkpt>
      <trkpt lat="43.64516" lon="5.80735">
        <ele>388</ele>
        <time>2016-01-30T09:14:34.258Z</time>
      </trkpt>
      <trkpt lat="43.64513" lon="5.8074">
        <ele>385</ele>
        <time>2016-01-30T09:14:35.238Z</time>
      </trkpt>
      <trkpt lat="43.64508" lon="5.80749">
        <ele>384</ele>
        <time>2016-01-30T09:14:37.261Z</time>
      </trkpt>
      <trkpt lat="43.64507" lon="5.80752">
        <ele>385</ele>
        <time>2016-01-30T09:14:38.237Z</time>
      </trkpt>
      <trkpt lat="43.64501" lon="5.80759">
        <ele>383</ele>
        <time>2016-01-30T09:14:41.357Z</time>
      </trkpt>
      <trkpt lat="43.64498" lon="5.8076">
        <ele>383</ele>
        <time>2016-01-30T09:14:42.237Z</time>
      </trkpt>
      <trkpt lat="43.6449" lon="5.80762">
        <ele>382</ele>
        <time>2016-01-30T09:14:44.261Z</time>
      </trkpt>
      <trkpt lat="43.64484" lon="5.80764">
        <ele>380</ele>
        <time>2016-01-30T09:14:45.238Z</time>
      </trkpt>
      <trkpt lat="43.64478" lon="5.80765">
        <ele>380</ele>
        <time>2016-01-30T09:14:46.258Z</time>
      </trkpt>
      <trkpt lat="43.64472" lon="5.80764">
        <ele>380</ele>
        <time>2016-01-30T09:14:47.227Z</time>
      </trkpt>
      <trkpt lat="43.64466" lon="5.80762">
        <ele>380</ele>
        <time>2016-01-30T09:14:48.259Z</time>
      </trkpt>
      <trkpt lat="43.6446" lon="5.80758">
        <ele>379</ele>
        <time>2016-01-30T09:14:49.236Z</time>
      </trkpt>
      <trkpt lat="43.64455" lon="5.80753">
        <ele>379</ele>
        <time>2016-01-30T09:14:50.263Z</time>
      </trkpt>
      <trkpt lat="43.64451" lon="5.80746">
        <ele>378</ele>
        <time>2016-01-30T09:14:51.235Z</time>
      </trkpt>
      <trkpt lat="43.64449" lon="5.80738">
        <ele>378</ele>
        <time>2016-01-30T09:14:52.260Z</time>
      </trkpt>
      <trkpt lat="43.64449" lon="5.8073">
        <ele>379</ele>
        <time>2016-01-30T09:14:53.272Z</time>
      </trkpt>
      <trkpt lat="43.64451" lon="5.80723">
        <ele>379</ele>
        <time>2016-01-30T09:14:54.261Z</time>
      </trkpt>
      <trkpt lat="43.64451" lon="5.80715">
        <ele>380</ele>
        <time>2016-01-30T09:14:55.235Z</time>
      </trkpt>
      <trkpt lat="43.64449" lon="5.80707">
        <ele>379</ele>
        <time>2016-01-30T09:14:56.261Z</time>
      </trkpt>
      <trkpt lat="43.64445" lon="5.80701">
        <ele>379</ele>
        <time>2016-01-30T09:14:57.270Z</time>
      </trkpt>
      <trkpt lat="43.64443" lon="5.8069">
        <ele>378</ele>
        <time>2016-01-30T09:14:59.261Z</time>
      </trkpt>
      <trkpt lat="43.64443" lon="5.80688">
        <ele>377</ele>
        <time>2016-01-30T09:15:00.237Z</time>
      </trkpt>
      <trkpt lat="43.64438" lon="5.80679">
        <ele>375</ele>
        <time>2016-01-30T09:15:06.257Z</time>
      </trkpt>
      <trkpt lat="43.64436" lon="5.80678">
        <ele>375</ele>
        <time>2016-01-30T09:15:07.238Z</time>
      </trkpt>
      <trkpt lat="43.64428" lon="5.80673">
        <ele>378</ele>
        <time>2016-01-30T09:15:12.259Z</time>
      </trkpt>
      <trkpt lat="43.64427" lon="5.80673">
        <ele>379</ele>
        <time>2016-01-30T09:15:13.237Z</time>
      </trkpt>
      <trkpt lat="43.64422" lon="5.80668">
        <ele>379</ele>
        <time>2016-01-30T09:15:16.261Z</time>
      </trkpt>
      <trkpt lat="43.64418" lon="5.80665">
        <ele>379</ele>
        <time>2016-01-30T09:15:17.234Z</time>
      </trkpt>
      <trkpt lat="43.64413" lon="5.80663">
        <ele>379</ele>
        <time>2016-01-30T09:15:18.258Z</time>
      </trkpt>
      <trkpt lat="43.64405" lon="5.80662">
        <ele>378</ele>
        <time>2016-01-30T09:15:19.260Z</time>
      </trkpt>
      <trkpt lat="43.64399" lon="5.80662">
        <ele>378</ele>
        <time>2016-01-30T09:15:20.263Z</time>
      </trkpt>
      <trkpt lat="43.64393" lon="5.80664">
        <ele>378</ele>
        <time>2016-01-30T09:15:21.237Z</time>
      </trkpt>
      <trkpt lat="43.64388" lon="5.80663">
        <ele>378</ele>
        <time>2016-01-30T09:15:22.262Z</time>
      </trkpt>
      <trkpt lat="43.64382" lon="5.80661">
        <ele>378</ele>
        <time>2016-01-30T09:15:23.237Z</time>
      </trkpt>
      <trkpt lat="43.64376" lon="5.8066">
        <ele>377</ele>
        <time>2016-01-30T09:15:24.263Z</time>
      </trkpt>
      <trkpt lat="43.6437" lon="5.80657">
        <ele>377</ele>
        <time>2016-01-30T09:15:25.237Z</time>
      </trkpt>
      <trkpt lat="43.64364" lon="5.80654">
        <ele>377</ele>
        <time>2016-01-30T09:15:26.261Z</time>
      </trkpt>
      <trkpt lat="43.64359" lon="5.8065">
        <ele>377</ele>
        <time>2016-01-30T09:15:27.238Z</time>
      </trkpt>
      <trkpt lat="43.64353" lon="5.80646">
        <ele>377</ele>
        <time>2016-01-30T09:15:28.262Z</time>
      </trkpt>
      <trkpt lat="43.64349" lon="5.80642">
        <ele>377</ele>
        <time>2016-01-30T09:15:29.238Z</time>
      </trkpt>
      <trkpt lat="43.64343" lon="5.80638">
        <ele>377</ele>
        <time>2016-01-30T09:15:30.287Z</time>
      </trkpt>
      <trkpt lat="43.64337" lon="5.80635">
        <ele>377</ele>
        <time>2016-01-30T09:15:31.235Z</time>
      </trkpt>
      <trkpt lat="43.6433" lon="5.80633">
        <ele>376</ele>
        <time>2016-01-30T09:15:32.262Z</time>
      </trkpt>
      <trkpt lat="43.64323" lon="5.80632">
        <ele>375</ele>
        <time>2016-01-30T09:15:33.229Z</time>
      </trkpt>
      <trkpt lat="43.64316" lon="5.80632">
        <ele>374</ele>
        <time>2016-01-30T09:15:34.262Z</time>
      </trkpt>
      <trkpt lat="43.64308" lon="5.80631">
        <ele>373</ele>
        <time>2016-01-30T09:15:35.238Z</time>
      </trkpt>
      <trkpt lat="43.643" lon="5.80628">
        <ele>373</ele>
        <time>2016-01-30T09:15:36.261Z</time>
      </trkpt>
      <trkpt lat="43.64293" lon="5.80627">
        <ele>373</ele>
        <time>2016-01-30T09:15:37.239Z</time>
      </trkpt>
      <trkpt lat="43.64285" lon="5.80625">
        <ele>372</ele>
        <time>2016-01-30T09:15:38.262Z</time>
      </trkpt>
      <trkpt lat="43.64279" lon="5.80623">
        <ele>372</ele>
        <time>2016-01-30T09:15:39.237Z</time>
      </trkpt>
      <trkpt lat="43.64273" lon="5.80622">
        <ele>372</ele>
        <time>2016-01-30T09:15:40.261Z</time>
      </trkpt>
      <trkpt lat="43.64266" lon="5.80621">
        <ele>372</ele>
        <time>2016-01-30T09:15:41.238Z</time>
      </trkpt>
      <trkpt lat="43.6426" lon="5.80619">
        <ele>372</ele>
        <time>2016-01-30T09:15:42.262Z</time>
      </trkpt>
      <trkpt lat="43.64254" lon="5.80617">
        <ele>372</ele>
        <time>2016-01-30T09:15:43.229Z</time>
      </trkpt>
      <trkpt lat="43.64248" lon="5.80615">
        <ele>372</ele>
        <time>2016-01-30T09:15:44.262Z</time>
      </trkpt>
      <trkpt lat="43.64242" lon="5.80613">
        <ele>371</ele>
        <time>2016-01-30T09:15:45.236Z</time>
      </trkpt>
      <trkpt lat="43.64236" lon="5.80611">
        <ele>371</ele>
        <time>2016-01-30T09:15:46.288Z</time>
      </trkpt>
      <trkpt lat="43.6423" lon="5.80609">
        <ele>371</ele>
        <time>2016-01-30T09:15:47.234Z</time>
      </trkpt>
      <trkpt lat="43.64225" lon="5.80608">
        <ele>371</ele>
        <time>2016-01-30T09:15:48.262Z</time>
      </trkpt>
      <trkpt lat="43.64218" lon="5.80606">
        <ele>371</ele>
        <time>2016-01-30T09:15:49.238Z</time>
      </trkpt>
      <trkpt lat="43.64213" lon="5.80605">
        <ele>371</ele>
        <time>2016-01-30T09:15:50.262Z</time>
      </trkpt>
      <trkpt lat="43.64207" lon="5.80604">
        <ele>370</ele>
        <time>2016-01-30T09:15:51.238Z</time>
      </trkpt>
      <trkpt lat="43.64202" lon="5.80602">
        <ele>370</ele>
        <time>2016-01-30T09:15:52.263Z</time>
      </trkpt>
      <trkpt lat="43.64196" lon="5.80601">
        <ele>370</ele>
        <time>2016-01-30T09:15:53.237Z</time>
      </trkpt>
      <trkpt lat="43.6419" lon="5.806">
        <ele>369</ele>
        <time>2016-01-30T09:15:54.263Z</time>
      </trkpt>
      <trkpt lat="43.64185" lon="5.80599">
        <ele>370</ele>
        <time>2016-01-30T09:15:55.238Z</time>
      </trkpt>
      <trkpt lat="43.6418" lon="5.80597">
        <ele>371</ele>
        <time>2016-01-30T09:15:56.269Z</time>
      </trkpt>
      <trkpt lat="43.64175" lon="5.80596">
        <ele>371</ele>
        <time>2016-01-30T09:15:57.235Z</time>
      </trkpt>
      <trkpt lat="43.6417" lon="5.80595">
        <ele>371</ele>
        <time>2016-01-30T09:15:58.262Z</time>
      </trkpt>
      <trkpt lat="43.64164" lon="5.80593">
        <ele>370</ele>
        <time>2016-01-30T09:15:59.236Z</time>
      </trkpt>
      <trkpt lat="43.64159" lon="5.80591">
        <ele>371</ele>
        <time>2016-01-30T09:16:00.262Z</time>
      </trkpt>
      <trkpt lat="43.64154" lon="5.80589">
        <ele>370</ele>
        <time>2016-01-30T09:16:01.236Z</time>
      </trkpt>
      <trkpt lat="43.64149" lon="5.80588">
        <ele>370</ele>
        <time>2016-01-30T09:16:02.289Z</time>
      </trkpt>
      <trkpt lat="43.64144" lon="5.80587">
        <ele>370</ele>
        <time>2016-01-30T09:16:03.238Z</time>
      </trkpt>
      <trkpt lat="43.64139" lon="5.80585">
        <ele>370</ele>
        <time>2016-01-30T09:16:04.261Z</time>
      </trkpt>
      <trkpt lat="43.64133" lon="5.80583">
        <ele>370</ele>
        <time>2016-01-30T09:16:05.239Z</time>
      </trkpt>
      <trkpt lat="43.64128" lon="5.80582">
        <ele>370</ele>
        <time>2016-01-30T09:16:06.261Z</time>
      </trkpt>
      <trkpt lat="43.64122" lon="5.8058">
        <ele>370</ele>
        <time>2016-01-30T09:16:07.237Z</time>
      </trkpt>
      <trkpt lat="43.64117" lon="5.80578">
        <ele>370</ele>
        <time>2016-01-30T09:16:08.261Z</time>
      </trkpt>
      <trkpt lat="43.64111" lon="5.80577">
        <ele>370</ele>
        <time>2016-01-30T09:16:09.239Z</time>
      </trkpt>
      <trkpt lat="43.64106" lon="5.80576">
        <ele>370</ele>
        <time>2016-01-30T09:16:10.261Z</time>
      </trkpt>
      <trkpt lat="43.641" lon="5.80574">
        <ele>370</ele>
        <time>2016-01-30T09:16:11.238Z</time>
      </trkpt>
      <trkpt lat="43.64095" lon="5.80573">
        <ele>370</ele>
        <time>2016-01-30T09:16:12.262Z</time>
      </trkpt>
      <trkpt lat="43.64089" lon="5.80571">
        <ele>369</ele>
        <time>2016-01-30T09:16:13.264Z</time>
      </trkpt>
      <trkpt lat="43.64085" lon="5.80569">
        <ele>369</ele>
        <time>2016-01-30T09:16:14.262Z</time>
      </trkpt>
      <trkpt lat="43.6408" lon="5.80568">
        <ele>370</ele>
        <time>2016-01-30T09:16:15.238Z</time>
      </trkpt>
      <trkpt lat="43.64074" lon="5.80566">
        <ele>370</ele>
        <time>2016-01-30T09:16:16.262Z</time>
      </trkpt>
      <trkpt lat="43.64069" lon="5.80565">
        <ele>369</ele>
        <time>2016-01-30T09:16:17.238Z</time>
      </trkpt>
      <trkpt lat="43.64064" lon="5.80563">
        <ele>370</ele>
        <time>2016-01-30T09:16:18.262Z</time>
      </trkpt>
      <trkpt lat="43.6406" lon="5.80562">
        <ele>370</ele>
        <time>2016-01-30T09:16:19.235Z</time>
      </trkpt>
      <trkpt lat="43.64055" lon="5.80561">
        <ele>370</ele>
        <time>2016-01-30T09:16:20.262Z</time>
      </trkpt>
      <trkpt lat="43.6405" lon="5.80559">
        <ele>369</ele>
        <time>2016-01-30T09:16:21.239Z</time>
      </trkpt>
      <trkpt lat="43.64045" lon="5.80558">
        <ele>370</ele>
        <time>2016-01-30T09:16:22.269Z</time>
      </trkpt>
      <trkpt lat="43.64041" lon="5.80556">
        <ele>369</ele>
        <time>2016-01-30T09:16:23.238Z</time>
      </trkpt>
      <trkpt lat="43.64032" lon="5.80553">
        <ele>370</ele>
        <time>2016-01-30T09:16:25.261Z</time>
      </trkpt>
      <trkpt lat="43.64028" lon="5.80551">
        <ele>369</ele>
        <time>2016-01-30T09:16:26.234Z</time>
      </trkpt>
      <trkpt lat="43.64023" lon="5.80549">
        <ele>369</ele>
        <time>2016-01-30T09:16:27.261Z</time>
      </trkpt>
      <trkpt lat="43.64018" lon="5.80547">
        <ele>369</ele>
        <time>2016-01-30T09:16:28.235Z</time>
      </trkpt>
      <trkpt lat="43.64011" lon="5.80542">
        <ele>369</ele>
        <time>2016-01-30T09:16:30.260Z</time>
      </trkpt>
      <trkpt lat="43.64008" lon="5.80539">
        <ele>369</ele>
        <time>2016-01-30T09:16:31.235Z</time>
      </trkpt>
      <trkpt lat="43.64002" lon="5.80533">
        <ele>368</ele>
        <time>2016-01-30T09:16:34.262Z</time>
      </trkpt>
      <trkpt lat="43.64001" lon="5.80531">
        <ele>368</ele>
        <time>2016-01-30T09:16:35.263Z</time>
      </trkpt>
      <trkpt lat="43.63995" lon="5.80525">
        <ele>368</ele>
        <time>2016-01-30T09:16:38.261Z</time>
      </trkpt>
      <trkpt lat="43.63993" lon="5.80524">
        <ele>368</ele>
        <time>2016-01-30T09:16:39.237Z</time>
      </trkpt>
      <trkpt lat="43.63988" lon="5.80533">
        <ele>368</ele>
        <time>2016-01-30T09:16:43.261Z</time>
      </trkpt>
      <trkpt lat="43.63987" lon="5.80537">
        <ele>368</ele>
        <time>2016-01-30T09:16:44.238Z</time>
      </trkpt>
      <trkpt lat="43.63987" lon="5.80548">
        <ele>368</ele>
        <time>2016-01-30T09:16:46.289Z</time>
      </trkpt>
      <trkpt lat="43.63987" lon="5.80554">
        <ele>367</ele>
        <time>2016-01-30T09:16:47.235Z</time>
      </trkpt>
      <trkpt lat="43.63986" lon="5.80564">
        <ele>368</ele>
        <time>2016-01-30T09:16:49.264Z</time>
      </trkpt>
      <trkpt lat="43.63983" lon="5.80569">
        <ele>368</ele>
        <time>2016-01-30T09:16:50.238Z</time>
      </trkpt>
      <trkpt lat="43.63975" lon="5.8057">
        <ele>367</ele>
        <time>2016-01-30T09:16:52.261Z</time>
      </trkpt>
      <trkpt lat="43.63971" lon="5.80569">
        <ele>368</ele>
        <time>2016-01-30T09:16:53.238Z</time>
      </trkpt>
      <trkpt lat="43.63964" lon="5.80567">
        <ele>367</ele>
        <time>2016-01-30T09:16:55.262Z</time>
      </trkpt>
      <trkpt lat="43.63959" lon="5.80567">
        <ele>367</ele>
        <time>2016-01-30T09:16:56.235Z</time>
      </trkpt>
      <trkpt lat="43.63952" lon="5.80568">
        <ele>367</ele>
        <time>2016-01-30T09:16:58.261Z</time>
      </trkpt>
      <trkpt lat="43.63948" lon="5.80568">
        <ele>367</ele>
        <time>2016-01-30T09:16:59.236Z</time>
      </trkpt>
      <trkpt lat="43.63941" lon="5.80568">
        <ele>367</ele>
        <time>2016-01-30T09:17:01.260Z</time>
      </trkpt>
      <trkpt lat="43.63937" lon="5.80568">
        <ele>367</ele>
        <time>2016-01-30T09:17:02.235Z</time>
      </trkpt>
      <trkpt lat="43.63928" lon="5.80568">
        <ele>367</ele>
        <time>2016-01-30T09:17:05.259Z</time>
      </trkpt>
      <trkpt lat="43.63925" lon="5.80568">
        <ele>367</ele>
        <time>2016-01-30T09:17:06.238Z</time>
      </trkpt>
      <trkpt lat="43.63917" lon="5.80568">
        <ele>366</ele>
        <time>2016-01-30T09:17:09.261Z</time>
      </trkpt>
      <trkpt lat="43.63915" lon="5.80568">
        <ele>367</ele>
        <time>2016-01-30T09:17:10.238Z</time>
      </trkpt>
      <trkpt lat="43.63906" lon="5.80568">
        <ele>368</ele>
        <time>2016-01-30T09:17:13.287Z</time>
      </trkpt>
      <trkpt lat="43.63904" lon="5.80569">
        <ele>368</ele>
        <time>2016-01-30T09:17:14.235Z</time>
      </trkpt>
      <trkpt lat="43.63896" lon="5.80569">
        <ele>368</ele>
        <time>2016-01-30T09:17:17.263Z</time>
      </trkpt>
      <trkpt lat="43.63893" lon="5.80569">
        <ele>368</ele>
        <time>2016-01-30T09:17:18.239Z</time>
      </trkpt>
      <trkpt lat="43.63886" lon="5.80569">
        <ele>369</ele>
        <time>2016-01-30T09:17:21.263Z</time>
      </trkpt>
      <trkpt lat="43.63883" lon="5.80569">
        <ele>369</ele>
        <time>2016-01-30T09:17:22.235Z</time>
      </trkpt>
      <trkpt lat="43.63876" lon="5.80568">
        <ele>368</ele>
        <time>2016-01-30T09:17:25.362Z</time>
      </trkpt>
      <trkpt lat="43.63873" lon="5.80567">
        <ele>368</ele>
        <time>2016-01-30T09:17:26.238Z</time>
      </trkpt>
      <trkpt lat="43.63866" lon="5.80567">
        <ele>369</ele>
        <time>2016-01-30T09:17:29.259Z</time>
      </trkpt>
      <trkpt lat="43.63863" lon="5.80567">
        <ele>369</ele>
        <time>2016-01-30T09:17:30.237Z</time>
      </trkpt>
      <trkpt lat="43.63855" lon="5.80567">
        <ele>370</ele>
        <time>2016-01-30T09:17:33.260Z</time>
      </trkpt>
      <trkpt lat="43.63853" lon="5.80567">
        <ele>371</ele>
        <time>2016-01-30T09:17:34.265Z</time>
      </trkpt>
      <trkpt lat="43.63846" lon="5.80567">
        <ele>371</ele>
        <time>2016-01-30T09:17:37.263Z</time>
      </trkpt>
      <trkpt lat="43.63843" lon="5.80567">
        <ele>372</ele>
        <time>2016-01-30T09:17:38.238Z</time>
      </trkpt>
      <trkpt lat="43.63836" lon="5.80566">
        <ele>371</ele>
        <time>2016-01-30T09:17:41.259Z</time>
      </trkpt>
      <trkpt lat="43.63834" lon="5.80566">
        <ele>371</ele>
        <time>2016-01-30T09:17:42.238Z</time>
      </trkpt>
      <trkpt lat="43.63827" lon="5.80564">
        <ele>372</ele>
        <time>2016-01-30T09:17:45.263Z</time>
      </trkpt>
      <trkpt lat="43.63824" lon="5.80564">
        <ele>371</ele>
        <time>2016-01-30T09:17:46.239Z</time>
      </trkpt>
      <trkpt lat="43.63815" lon="5.80564">
        <ele>373</ele>
        <time>2016-01-30T09:17:50.292Z</time>
      </trkpt>
      <trkpt lat="43.63813" lon="5.80564">
        <ele>374</ele>
        <time>2016-01-30T09:17:51.239Z</time>
      </trkpt>
      <trkpt lat="43.63806" lon="5.80564">
        <ele>374</ele>
        <time>2016-01-30T09:17:54.262Z</time>
      </trkpt>
      <trkpt lat="43.63804" lon="5.80563">
        <ele>374</ele>
        <time>2016-01-30T09:17:55.240Z</time>
      </trkpt>
      <trkpt lat="43.63796" lon="5.80562">
        <ele>374</ele>
        <time>2016-01-30T09:17:58.262Z</time>
      </trkpt>
      <trkpt lat="43.63794" lon="5.80562">
        <ele>374</ele>
        <time>2016-01-30T09:17:59.238Z</time>
      </trkpt>
      <trkpt lat="43.63787" lon="5.80561">
        <ele>374</ele>
        <time>2016-01-30T09:18:03.263Z</time>
      </trkpt>
      <trkpt lat="43.63785" lon="5.80562">
        <ele>374</ele>
        <time>2016-01-30T09:18:04.240Z</time>
      </trkpt>
      <trkpt lat="43.63776" lon="5.80561">
        <ele>378</ele>
        <time>2016-01-30T09:18:10.262Z</time>
      </trkpt>
      <trkpt lat="43.63775" lon="5.8056">
        <ele>377</ele>
        <time>2016-01-30T09:18:11.239Z</time>
      </trkpt>
      <trkpt lat="43.63767" lon="5.80559">
        <ele>376</ele>
        <time>2016-01-30T09:18:15.277Z</time>
      </trkpt>
      <trkpt lat="43.63765" lon="5.80558">
        <ele>377</ele>
        <time>2016-01-30T09:18:16.238Z</time>
      </trkpt>
      <trkpt lat="43.63758" lon="5.80559">
        <ele>376</ele>
        <time>2016-01-30T09:18:20.263Z</time>
      </trkpt>
      <trkpt lat="43.63756" lon="5.80559">
        <ele>376</ele>
        <time>2016-01-30T09:18:21.239Z</time>
      </trkpt>
      <trkpt lat="43.63748" lon="5.80557">
        <ele>375</ele>
        <time>2016-01-30T09:18:25.261Z</time>
      </trkpt>
      <trkpt lat="43.63746" lon="5.80557">
        <ele>374</ele>
        <time>2016-01-30T09:18:26.238Z</time>
      </trkpt>
      <trkpt lat="43.63738" lon="5.80555">
        <ele>376</ele>
        <time>2016-01-30T09:18:30.262Z</time>
      </trkpt>
      <trkpt lat="43.63736" lon="5.80554">
        <ele>376</ele>
        <time>2016-01-30T09:18:31.239Z</time>
      </trkpt>
      <trkpt lat="43.63729" lon="5.8055">
        <ele>377</ele>
        <time>2016-01-30T09:18:35.259Z</time>
      </trkpt>
      <trkpt lat="43.63728" lon="5.80549">
        <ele>377</ele>
        <time>2016-01-30T09:18:36.235Z</time>
      </trkpt>
      <trkpt lat="43.6372" lon="5.80546">
        <ele>377</ele>
        <time>2016-01-30T09:18:40.262Z</time>
      </trkpt>
      <trkpt lat="43.63718" lon="5.80545">
        <ele>377</ele>
        <time>2016-01-30T09:18:41.238Z</time>
      </trkpt>
      <trkpt lat="43.6371" lon="5.80546">
        <ele>377</ele>
        <time>2016-01-30T09:18:45.259Z</time>
      </trkpt>
      <trkpt lat="43.63708" lon="5.80546">
        <ele>376</ele>
        <time>2016-01-30T09:18:46.238Z</time>
      </trkpt>
      <trkpt lat="43.63701" lon="5.80547">
        <ele>376</ele>
        <time>2016-01-30T09:18:49.274Z</time>
      </trkpt>
      <trkpt lat="43.63699" lon="5.80548">
        <ele>377</ele>
        <time>2016-01-30T09:18:50.236Z</time>
      </trkpt>
      <trkpt lat="43.6369" lon="5.8055">
        <ele>377</ele>
        <time>2016-01-30T09:18:54.261Z</time>
      </trkpt>
      <trkpt lat="43.63688" lon="5.80551">
        <ele>377</ele>
        <time>2016-01-30T09:18:55.236Z</time>
      </trkpt>
      <trkpt lat="43.63679" lon="5.80551">
        <ele>376</ele>
        <time>2016-01-30T09:19:00.293Z</time>
      </trkpt>
      <trkpt lat="43.63678" lon="5.80552">
        <ele>376</ele>
        <time>2016-01-30T09:19:01.239Z</time>
      </trkpt>
      <trkpt lat="43.63673" lon="5.8056">
        <ele>372</ele>
        <time>2016-01-30T09:19:05.261Z</time>
      </trkpt>
      <trkpt lat="43.63671" lon="5.80563">
        <ele>372</ele>
        <time>2016-01-30T09:19:06.240Z</time>
      </trkpt>
      <trkpt lat="43.63666" lon="5.80573">
        <ele>374</ele>
        <time>2016-01-30T09:19:10.261Z</time>
      </trkpt>
      <trkpt lat="43.63665" lon="5.80576">
        <ele>374</ele>
        <time>2016-01-30T09:19:11.263Z</time>
      </trkpt>
      <trkpt lat="43.63661" lon="5.80584">
        <ele>374</ele>
        <time>2016-01-30T09:19:13.262Z</time>
      </trkpt>
      <trkpt lat="43.63659" lon="5.80588">
        <ele>373</ele>
        <time>2016-01-30T09:19:14.239Z</time>
      </trkpt>
      <trkpt lat="43.63656" lon="5.80596">
        <ele>371</ele>
        <time>2016-01-30T09:19:16.261Z</time>
      </trkpt>
      <trkpt lat="43.63654" lon="5.80601">
        <ele>370</ele>
        <time>2016-01-30T09:19:17.239Z</time>
      </trkpt>
      <trkpt lat="43.6365" lon="5.80607">
        <ele>371</ele>
        <time>2016-01-30T09:19:19.261Z</time>
      </trkpt>
      <trkpt lat="43.63647" lon="5.80609">
        <ele>371</ele>
        <time>2016-01-30T09:19:20.233Z</time>
      </trkpt>
      <trkpt lat="43.63639" lon="5.80613">
        <ele>369</ele>
        <time>2016-01-30T09:19:23.260Z</time>
      </trkpt>
      <trkpt lat="43.63637" lon="5.80614">
        <ele>371</ele>
        <time>2016-01-30T09:19:24.239Z</time>
      </trkpt>
      <trkpt lat="43.6363" lon="5.80617">
        <ele>372</ele>
        <time>2016-01-30T09:19:27.263Z</time>
      </trkpt>
      <trkpt lat="43.63628" lon="5.80618">
        <ele>372</ele>
        <time>2016-01-30T09:19:28.240Z</time>
      </trkpt>
      <trkpt lat="43.63621" lon="5.80623">
        <ele>372</ele>
        <time>2016-01-30T09:19:31.264Z</time>
      </trkpt>
      <trkpt lat="43.63618" lon="5.80625">
        <ele>372</ele>
        <time>2016-01-30T09:19:32.239Z</time>
      </trkpt>
      <trkpt lat="43.63612" lon="5.8063">
        <ele>373</ele>
        <time>2016-01-30T09:19:35.263Z</time>
      </trkpt>
      <trkpt lat="43.63609" lon="5.80631">
        <ele>374</ele>
        <time>2016-01-30T09:19:36.239Z</time>
      </trkpt>
      <trkpt lat="43.63602" lon="5.80632">
        <ele>378</ele>
        <time>2016-01-30T09:19:39.263Z</time>
      </trkpt>
      <trkpt lat="43.636" lon="5.80632">
        <ele>378</ele>
        <time>2016-01-30T09:19:40.239Z</time>
      </trkpt>
      <trkpt lat="43.63592" lon="5.80636">
        <ele>380</ele>
        <time>2016-01-30T09:19:43.260Z</time>
      </trkpt>
      <trkpt lat="43.6359" lon="5.80637">
        <ele>381</ele>
        <time>2016-01-30T09:19:44.265Z</time>
      </trkpt>
      <trkpt lat="43.63583" lon="5.8064">
        <ele>382</ele>
        <time>2016-01-30T09:19:48.263Z</time>
      </trkpt>
      <trkpt lat="43.63581" lon="5.80641">
        <ele>380</ele>
        <time>2016-01-30T09:19:49.238Z</time>
      </trkpt>
      <trkpt lat="43.63573" lon="5.80645">
        <ele>380</ele>
        <time>2016-01-30T09:19:52.267Z</time>
      </trkpt>
      <trkpt lat="43.6357" lon="5.80646">
        <ele>381</ele>
        <time>2016-01-30T09:19:53.239Z</time>
      </trkpt>
      <trkpt lat="43.63563" lon="5.8065">
        <ele>380</ele>
        <time>2016-01-30T09:19:55.262Z</time>
      </trkpt>
      <trkpt lat="43.6356" lon="5.80651">
        <ele>381</ele>
        <time>2016-01-30T09:19:56.239Z</time>
      </trkpt>
      <trkpt lat="43.63552" lon="5.80653">
        <ele>382</ele>
        <time>2016-01-30T09:19:58.263Z</time>
      </trkpt>
      <trkpt lat="43.63549" lon="5.80654">
        <ele>382</ele>
        <time>2016-01-30T09:19:59.239Z</time>
      </trkpt>
      <trkpt lat="43.63542" lon="5.80662">
        <ele>376</ele>
        <time>2016-01-30T09:20:02.267Z</time>
      </trkpt>
      <trkpt lat="43.63541" lon="5.80666">
        <ele>375</ele>
        <time>2016-01-30T09:20:03.239Z</time>
      </trkpt>
      <trkpt lat="43.63541" lon="5.80674">
        <ele>374</ele>
        <time>2016-01-30T09:20:05.262Z</time>
      </trkpt>
      <trkpt lat="43.63541" lon="5.80678">
        <ele>374</ele>
        <time>2016-01-30T09:20:06.239Z</time>
      </trkpt>
      <trkpt lat="43.63541" lon="5.80687">
        <ele>375</ele>
        <time>2016-01-30T09:20:08.263Z</time>
      </trkpt>
      <trkpt lat="43.6354" lon="5.80691">
        <ele>375</ele>
        <time>2016-01-30T09:20:09.239Z</time>
      </trkpt>
      <trkpt lat="43.6354" lon="5.80702">
        <ele>375</ele>
        <time>2016-01-30T09:20:12.264Z</time>
      </trkpt>
      <trkpt lat="43.63539" lon="5.80706">
        <ele>375</ele>
        <time>2016-01-30T09:20:13.239Z</time>
      </trkpt>
      <trkpt lat="43.63538" lon="5.80716">
        <ele>375</ele>
        <time>2016-01-30T09:20:16.270Z</time>
      </trkpt>
      <trkpt lat="43.63538" lon="5.80719">
        <ele>374</ele>
        <time>2016-01-30T09:20:17.239Z</time>
      </trkpt>
      <trkpt lat="43.63536" lon="5.80729">
        <ele>374</ele>
        <time>2016-01-30T09:20:20.266Z</time>
      </trkpt>
      <trkpt lat="43.63535" lon="5.80732">
        <ele>375</ele>
        <time>2016-01-30T09:20:21.248Z</time>
      </trkpt>
      <trkpt lat="43.63532" lon="5.80743">
        <ele>374</ele>
        <time>2016-01-30T09:20:25.261Z</time>
      </trkpt>
      <trkpt lat="43.63531" lon="5.80746">
        <ele>374</ele>
        <time>2016-01-30T09:20:26.273Z</time>
      </trkpt>
      <trkpt lat="43.6353" lon="5.80756">
        <ele>374</ele>
        <time>2016-01-30T09:20:29.263Z</time>
      </trkpt>
      <trkpt lat="43.6353" lon="5.80759">
        <ele>374</ele>
        <time>2016-01-30T09:20:30.239Z</time>
      </trkpt>
      <trkpt lat="43.63529" lon="5.80768">
        <ele>374</ele>
        <time>2016-01-30T09:20:33.264Z</time>
      </trkpt>
      <trkpt lat="43.63528" lon="5.80771">
        <ele>375</ele>
        <time>2016-01-30T09:20:34.240Z</time>
      </trkpt>
      <trkpt lat="43.63527" lon="5.80781">
        <ele>377</ele>
        <time>2016-01-30T09:20:38.263Z</time>
      </trkpt>
      <trkpt lat="43.63526" lon="5.80784">
        <ele>377</ele>
        <time>2016-01-30T09:20:39.239Z</time>
      </trkpt>
      <trkpt lat="43.63524" lon="5.80793">
        <ele>376</ele>
        <time>2016-01-30T09:20:42.264Z</time>
      </trkpt>
      <trkpt lat="43.63523" lon="5.80796">
        <ele>377</ele>
        <time>2016-01-30T09:20:43.239Z</time>
      </trkpt>
      <trkpt lat="43.63518" lon="5.80806">
        <ele>378</ele>
        <time>2016-01-30T09:20:47.265Z</time>
      </trkpt>
      <trkpt lat="43.63517" lon="5.80809">
        <ele>378</ele>
        <time>2016-01-30T09:20:48.241Z</time>
      </trkpt>
      <trkpt lat="43.63513" lon="5.80819">
        <ele>379</ele>
        <time>2016-01-30T09:20:52.266Z</time>
      </trkpt>
      <trkpt lat="43.63512" lon="5.80823">
        <ele>378</ele>
        <time>2016-01-30T09:20:53.265Z</time>
      </trkpt>
      <trkpt lat="43.6351" lon="5.80832">
        <ele>377</ele>
        <time>2016-01-30T09:20:56.267Z</time>
      </trkpt>
      <trkpt lat="43.63509" lon="5.80835">
        <ele>378</ele>
        <time>2016-01-30T09:20:57.238Z</time>
      </trkpt>
      <trkpt lat="43.63506" lon="5.80845">
        <ele>377</ele>
        <time>2016-01-30T09:21:00.264Z</time>
      </trkpt>
      <trkpt lat="43.63505" lon="5.80848">
        <ele>378</ele>
        <time>2016-01-30T09:21:01.239Z</time>
      </trkpt>
      <trkpt lat="43.63503" lon="5.80857">
        <ele>379</ele>
        <time>2016-01-30T09:21:04.288Z</time>
      </trkpt>
      <trkpt lat="43.63502" lon="5.8086">
        <ele>379</ele>
        <time>2016-01-30T09:21:05.240Z</time>
      </trkpt>
      <trkpt lat="43.63501" lon="5.8087">
        <ele>379</ele>
        <time>2016-01-30T09:21:08.264Z</time>
      </trkpt>
      <trkpt lat="43.63501" lon="5.80873">
        <ele>379</ele>
        <time>2016-01-30T09:21:09.239Z</time>
      </trkpt>
      <trkpt lat="43.63503" lon="5.80883">
        <ele>379</ele>
        <time>2016-01-30T09:21:12.263Z</time>
      </trkpt>
      <trkpt lat="43.63504" lon="5.80885">
        <ele>379</ele>
        <time>2016-01-30T09:21:13.240Z</time>
      </trkpt>
      <trkpt lat="43.63503" lon="5.80897">
        <ele>378</ele>
        <time>2016-01-30T09:21:17.262Z</time>
      </trkpt>
      <trkpt lat="43.63503" lon="5.809">
        <ele>378</ele>
        <time>2016-01-30T09:21:18.239Z</time>
      </trkpt>
      <trkpt lat="43.635" lon="5.80911">
        <ele>378</ele>
        <time>2016-01-30T09:21:23.262Z</time>
      </trkpt>
      <trkpt lat="43.63499" lon="5.80913">
        <ele>378</ele>
        <time>2016-01-30T09:21:24.237Z</time>
      </trkpt>
      <trkpt lat="43.63492" lon="5.80919">
        <ele>380</ele>
        <time>2016-01-30T09:21:29.264Z</time>
      </trkpt>
      <trkpt lat="43.6349" lon="5.8092">
        <ele>382</ele>
        <time>2016-01-30T09:21:30.239Z</time>
      </trkpt>
      <trkpt lat="43.63482" lon="5.8092">
        <ele>385</ele>
        <time>2016-01-30T09:21:35.496Z</time>
      </trkpt>
      <trkpt lat="43.6348" lon="5.8092">
        <ele>385</ele>
        <time>2016-01-30T09:21:36.237Z</time>
      </trkpt>
      <trkpt lat="43.63472" lon="5.80923">
        <ele>389</ele>
        <time>2016-01-30T09:21:41.263Z</time>
      </trkpt>
      <trkpt lat="43.6347" lon="5.80923">
        <ele>389</ele>
        <time>2016-01-30T09:21:42.267Z</time>
      </trkpt>
      <trkpt lat="43.63462" lon="5.8092">
        <ele>391</ele>
        <time>2016-01-30T09:21:47.263Z</time>
      </trkpt>
      <trkpt lat="43.63461" lon="5.80918">
        <ele>390</ele>
        <time>2016-01-30T09:21:48.442Z</time>
      </trkpt>
      <trkpt lat="43.63456" lon="5.80909">
        <ele>390</ele>
        <time>2016-01-30T09:21:53.260Z</time>
      </trkpt>
      <trkpt lat="43.63455" lon="5.80907">
        <ele>390</ele>
        <time>2016-01-30T09:21:54.237Z</time>
      </trkpt>
      <trkpt lat="43.63449" lon="5.809">
        <ele>391</ele>
        <time>2016-01-30T09:21:59.290Z</time>
      </trkpt>
      <trkpt lat="43.63448" lon="5.80898">
        <ele>392</ele>
        <time>2016-01-30T09:22:00.473Z</time>
      </trkpt>
      <trkpt lat="43.63441" lon="5.80894">
        <ele>394</ele>
        <time>2016-01-30T09:22:04.261Z</time>
      </trkpt>
      <trkpt lat="43.63439" lon="5.80893">
        <ele>394</ele>
        <time>2016-01-30T09:22:05.240Z</time>
      </trkpt>
      <trkpt lat="43.63433" lon="5.80889">
        <ele>395</ele>
        <time>2016-01-30T09:22:09.263Z</time>
      </trkpt>
      <trkpt lat="43.63431" lon="5.80888">
        <ele>395</ele>
        <time>2016-01-30T09:22:10.241Z</time>
      </trkpt>
      <trkpt lat="43.63424" lon="5.80885">
        <ele>395</ele>
        <time>2016-01-30T09:22:14.262Z</time>
      </trkpt>
      <trkpt lat="43.63422" lon="5.80885">
        <ele>395</ele>
        <time>2016-01-30T09:22:15.240Z</time>
      </trkpt>
      <trkpt lat="43.63415" lon="5.8088">
        <ele>395</ele>
        <time>2016-01-30T09:22:19.264Z</time>
      </trkpt>
      <trkpt lat="43.63413" lon="5.8088">
        <ele>395</ele>
        <time>2016-01-30T09:22:20.266Z</time>
      </trkpt>
      <trkpt lat="43.63406" lon="5.80877">
        <ele>397</ele>
        <time>2016-01-30T09:22:24.261Z</time>
      </trkpt>
      <trkpt lat="43.63404" lon="5.80876">
        <ele>398</ele>
        <time>2016-01-30T09:22:25.240Z</time>
      </trkpt>
      <trkpt lat="43.63397" lon="5.80874">
        <ele>399</ele>
        <time>2016-01-30T09:22:29.264Z</time>
      </trkpt>
      <trkpt lat="43.63395" lon="5.80874">
        <ele>399</ele>
        <time>2016-01-30T09:22:30.239Z</time>
      </trkpt>
      <trkpt lat="43.63388" lon="5.80871">
        <ele>400</ele>
        <time>2016-01-30T09:22:34.264Z</time>
      </trkpt>
      <trkpt lat="43.63386" lon="5.80871">
        <ele>400</ele>
        <time>2016-01-30T09:22:35.240Z</time>
      </trkpt>
      <trkpt lat="43.63377" lon="5.8087">
        <ele>400</ele>
        <time>2016-01-30T09:22:40.275Z</time>
      </trkpt>
      <trkpt lat="43.63376" lon="5.8087">
        <ele>400</ele>
        <time>2016-01-30T09:22:41.239Z</time>
      </trkpt>
      <trkpt lat="43.63367" lon="5.80871">
        <ele>402</ele>
        <time>2016-01-30T09:22:46.266Z</time>
      </trkpt>
      <trkpt lat="43.63365" lon="5.80871">
        <ele>402</ele>
        <time>2016-01-30T09:22:47.266Z</time>
      </trkpt>
      <trkpt lat="43.63358" lon="5.80874">
        <ele>403</ele>
        <time>2016-01-30T09:22:51.265Z</time>
      </trkpt>
      <trkpt lat="43.63356" lon="5.80874">
        <ele>402</ele>
        <time>2016-01-30T09:22:52.241Z</time>
      </trkpt>
      <trkpt lat="43.63349" lon="5.80878">
        <ele>403</ele>
        <time>2016-01-30T09:22:56.263Z</time>
      </trkpt>
      <trkpt lat="43.63347" lon="5.80879">
        <ele>403</ele>
        <time>2016-01-30T09:22:57.237Z</time>
      </trkpt>
      <trkpt lat="43.6334" lon="5.80885">
        <ele>403</ele>
        <time>2016-01-30T09:23:01.262Z</time>
      </trkpt>
      <trkpt lat="43.63339" lon="5.80886">
        <ele>402</ele>
        <time>2016-01-30T09:23:02.239Z</time>
      </trkpt>
      <trkpt lat="43.6333" lon="5.8089">
        <ele>404</ele>
        <time>2016-01-30T09:23:07.260Z</time>
      </trkpt>
      <trkpt lat="43.63329" lon="5.80891">
        <ele>405</ele>
        <time>2016-01-30T09:23:08.240Z</time>
      </trkpt>
      <trkpt lat="43.63322" lon="5.80897">
        <ele>404</ele>
        <time>2016-01-30T09:23:13.269Z</time>
      </trkpt>
      <trkpt lat="43.63321" lon="5.80898">
        <ele>405</ele>
        <time>2016-01-30T09:23:14.491Z</time>
      </trkpt>
      <trkpt lat="43.63313" lon="5.80903">
        <ele>406</ele>
        <time>2016-01-30T09:23:19.264Z</time>
      </trkpt>
      <trkpt lat="43.63311" lon="5.80904">
        <ele>406</ele>
        <time>2016-01-30T09:23:20.239Z</time>
      </trkpt>
      <trkpt lat="43.63304" lon="5.80907">
        <ele>409</ele>
        <time>2016-01-30T09:23:24.280Z</time>
      </trkpt>
      <trkpt lat="43.63303" lon="5.80908">
        <ele>409</ele>
        <time>2016-01-30T09:23:25.263Z</time>
      </trkpt>
      <trkpt lat="43.63296" lon="5.80913">
        <ele>407</ele>
        <time>2016-01-30T09:23:29.265Z</time>
      </trkpt>
      <trkpt lat="43.63294" lon="5.80914">
        <ele>407</ele>
        <time>2016-01-30T09:23:30.242Z</time>
      </trkpt>
      <trkpt lat="43.63286" lon="5.80915">
        <ele>409</ele>
        <time>2016-01-30T09:23:35.264Z</time>
      </trkpt>
      <trkpt lat="43.63284" lon="5.80914">
        <ele>411</ele>
        <time>2016-01-30T09:23:36.239Z</time>
      </trkpt>
      <trkpt lat="43.63277" lon="5.80919">
        <ele>406</ele>
        <time>2016-01-30T09:23:40.266Z</time>
      </trkpt>
      <trkpt lat="43.63275" lon="5.8092">
        <ele>405</ele>
        <time>2016-01-30T09:23:41.266Z</time>
      </trkpt>
      <trkpt lat="43.63271" lon="5.80931">
        <ele>402</ele>
        <time>2016-01-30T09:23:45.265Z</time>
      </trkpt>
      <trkpt lat="43.6327" lon="5.80934">
        <ele>402</ele>
        <time>2016-01-30T09:23:46.239Z</time>
      </trkpt>
      <trkpt lat="43.63267" lon="5.80946">
        <ele>402</ele>
        <time>2016-01-30T09:23:50.268Z</time>
      </trkpt>
      <trkpt lat="43.63266" lon="5.80948">
        <ele>401</ele>
        <time>2016-01-30T09:23:51.241Z</time>
      </trkpt>
      <trkpt lat="43.63263" lon="5.80959">
        <ele>399</ele>
        <time>2016-01-30T09:23:55.264Z</time>
      </trkpt>
      <trkpt lat="43.63262" lon="5.80962">
        <ele>399</ele>
        <time>2016-01-30T09:23:56.240Z</time>
      </trkpt>
      <trkpt lat="43.63258" lon="5.80971">
        <ele>398</ele>
        <time>2016-01-30T09:24:00.266Z</time>
      </trkpt>
      <trkpt lat="43.63256" lon="5.80972">
        <ele>399</ele>
        <time>2016-01-30T09:24:01.239Z</time>
      </trkpt>
      <trkpt lat="43.63247" lon="5.80974">
        <ele>399</ele>
        <time>2016-01-30T09:24:06.263Z</time>
      </trkpt>
      <trkpt lat="43.63246" lon="5.80976">
        <ele>399</ele>
        <time>2016-01-30T09:24:07.241Z</time>
      </trkpt>
      <trkpt lat="43.63239" lon="5.80983">
        <ele>404</ele>
        <time>2016-01-30T09:24:12.266Z</time>
      </trkpt>
      <trkpt lat="43.63238" lon="5.80985">
        <ele>404</ele>
        <time>2016-01-30T09:24:13.240Z</time>
      </trkpt>
      <trkpt lat="43.63235" lon="5.80996">
        <ele>402</ele>
        <time>2016-01-30T09:24:18.265Z</time>
      </trkpt>
      <trkpt lat="43.63234" lon="5.80998">
        <ele>401</ele>
        <time>2016-01-30T09:24:19.241Z</time>
      </trkpt>
      <trkpt lat="43.63234" lon="5.81008">
        <ele>399</ele>
        <time>2016-01-30T09:24:23.264Z</time>
      </trkpt>
      <trkpt lat="43.63233" lon="5.81011">
        <ele>398</ele>
        <time>2016-01-30T09:24:24.240Z</time>
      </trkpt>
      <trkpt lat="43.63226" lon="5.81018">
        <ele>400</ele>
        <time>2016-01-30T09:24:29.264Z</time>
      </trkpt>
      <trkpt lat="43.63225" lon="5.8102">
        <ele>400</ele>
        <time>2016-01-30T09:24:30.267Z</time>
      </trkpt>
      <trkpt lat="43.63217" lon="5.81022">
        <ele>403</ele>
        <time>2016-01-30T09:24:35.266Z</time>
      </trkpt>
      <trkpt lat="43.63215" lon="5.81022">
        <ele>405</ele>
        <time>2016-01-30T09:24:36.241Z</time>
      </trkpt>
      <trkpt lat="43.63211" lon="5.8103">
        <ele>407</ele>
        <time>2016-01-30T09:24:41.267Z</time>
      </trkpt>
      <trkpt lat="43.6321" lon="5.81032">
        <ele>408</ele>
        <time>2016-01-30T09:24:42.239Z</time>
      </trkpt>
      <trkpt lat="43.63206" lon="5.81043">
        <ele>406</ele>
        <time>2016-01-30T09:24:49.265Z</time>
      </trkpt>
      <trkpt lat="43.63206" lon="5.81045">
        <ele>407</ele>
        <time>2016-01-30T09:24:50.241Z</time>
      </trkpt>
      <trkpt lat="43.63201" lon="5.81054">
        <ele>409</ele>
        <time>2016-01-30T09:24:56.261Z</time>
      </trkpt>
      <trkpt lat="43.632" lon="5.81055">
        <ele>408</ele>
        <time>2016-01-30T09:24:57.240Z</time>
      </trkpt>
      <trkpt lat="43.63193" lon="5.81063">
        <ele>407</ele>
        <time>2016-01-30T09:25:04.265Z</time>
      </trkpt>
      <trkpt lat="43.63192" lon="5.81062">
        <ele>409</ele>
        <time>2016-01-30T09:25:05.241Z</time>
      </trkpt>
      <trkpt lat="43.63185" lon="5.81056">
        <ele>407</ele>
        <time>2016-01-30T09:25:10.249Z</time>
      </trkpt>
      <trkpt lat="43.63184" lon="5.81054">
        <ele>408</ele>
        <time>2016-01-30T09:25:11.240Z</time>
      </trkpt>
      <trkpt lat="43.63179" lon="5.81045">
        <ele>411</ele>
        <time>2016-01-30T09:25:17.269Z</time>
      </trkpt>
      <trkpt lat="43.63179" lon="5.81044">
        <ele>410</ele>
        <time>2016-01-30T09:25:18.240Z</time>
      </trkpt>
      <trkpt lat="43.63177" lon="5.81033">
        <ele>412</ele>
        <time>2016-01-30T09:25:24.255Z</time>
      </trkpt>
      <trkpt lat="43.63176" lon="5.81032">
        <ele>412</ele>
        <time>2016-01-30T09:25:25.241Z</time>
      </trkpt>
      <trkpt lat="43.63171" lon="5.81023">
        <ele>413</ele>
        <time>2016-01-30T09:25:30.314Z</time>
      </trkpt>
      <trkpt lat="43.6317" lon="5.81021">
        <ele>412</ele>
        <time>2016-01-30T09:25:31.238Z</time>
      </trkpt>
      <trkpt lat="43.63166" lon="5.81011">
        <ele>416</ele>
        <time>2016-01-30T09:25:36.268Z</time>
      </trkpt>
      <trkpt lat="43.63166" lon="5.81009">
        <ele>416</ele>
        <time>2016-01-30T09:25:37.235Z</time>
      </trkpt>
      <trkpt lat="43.63162" lon="5.80998">
        <ele>419</ele>
        <time>2016-01-30T09:25:43.266Z</time>
      </trkpt>
      <trkpt lat="43.63162" lon="5.80996">
        <ele>418</ele>
        <time>2016-01-30T09:25:44.238Z</time>
      </trkpt>
      <trkpt lat="43.63155" lon="5.80989">
        <ele>419</ele>
        <time>2016-01-30T09:25:59.265Z</time>
      </trkpt>
      <trkpt lat="43.63154" lon="5.80988">
        <ele>418</ele>
        <time>2016-01-30T09:26:00.242Z</time>
      </trkpt>
      <trkpt lat="43.63146" lon="5.80987">
        <ele>419</ele>
        <time>2016-01-30T09:26:07.265Z</time>
      </trkpt>
      <trkpt lat="43.63144" lon="5.80987">
        <ele>419</ele>
        <time>2016-01-30T09:26:08.241Z</time>
      </trkpt>
      <trkpt lat="43.63136" lon="5.8099">
        <ele>421</ele>
        <time>2016-01-30T09:26:23.262Z</time>
      </trkpt>
      <trkpt lat="43.63135" lon="5.8099">
        <ele>422</ele>
        <time>2016-01-30T09:26:24.242Z</time>
      </trkpt>
      <trkpt lat="43.63127" lon="5.80994">
        <ele>427</ele>
        <time>2016-01-30T09:26:32.265Z</time>
      </trkpt>
      <trkpt lat="43.63126" lon="5.80994">
        <ele>427</ele>
        <time>2016-01-30T09:26:33.241Z</time>
      </trkpt>
      <trkpt lat="43.63118" lon="5.80999">
        <ele>428</ele>
        <time>2016-01-30T09:26:41.291Z</time>
      </trkpt>
      <trkpt lat="43.63117" lon="5.81">
        <ele>428</ele>
        <time>2016-01-30T09:26:42.241Z</time>
      </trkpt>
      <trkpt lat="43.6311" lon="5.81006">
        <ele>429</ele>
        <time>2016-01-30T09:26:56.256Z</time>
      </trkpt>
      <trkpt lat="43.63109" lon="5.81006">
        <ele>430</ele>
        <time>2016-01-30T09:26:57.242Z</time>
      </trkpt>
      <trkpt lat="43.63101" lon="5.81004">
        <ele>432</ele>
        <time>2016-01-30T09:27:03.339Z</time>
      </trkpt>
      <trkpt lat="43.63099" lon="5.81004">
        <ele>433</ele>
        <time>2016-01-30T09:27:04.238Z</time>
      </trkpt>
      <trkpt lat="43.63091" lon="5.81001">
        <ele>432</ele>
        <time>2016-01-30T09:27:10.266Z</time>
      </trkpt>
      <trkpt lat="43.63089" lon="5.81001">
        <ele>433</ele>
        <time>2016-01-30T09:27:11.241Z</time>
      </trkpt>
      <trkpt lat="43.63081" lon="5.80997">
        <ele>433</ele>
        <time>2016-01-30T09:27:29.265Z</time>
      </trkpt>
      <trkpt lat="43.63079" lon="5.80996">
        <ele>432</ele>
        <time>2016-01-30T09:27:30.240Z</time>
      </trkpt>
      <trkpt lat="43.63072" lon="5.80993">
        <ele>431</ele>
        <time>2016-01-30T09:27:35.291Z</time>
      </trkpt>
      <trkpt lat="43.6307" lon="5.80992">
        <ele>431</ele>
        <time>2016-01-30T09:27:36.242Z</time>
      </trkpt>
      <trkpt lat="43.63064" lon="5.80987">
        <ele>429</ele>
        <time>2016-01-30T09:27:42.265Z</time>
      </trkpt>
      <trkpt lat="43.63063" lon="5.80985">
        <ele>429</ele>
        <time>2016-01-30T09:27:43.242Z</time>
      </trkpt>
      <trkpt lat="43.63058" lon="5.80975">
        <ele>435</ele>
        <time>2016-01-30T09:27:56.266Z</time>
      </trkpt>
      <trkpt lat="43.63057" lon="5.80975">
        <ele>435</ele>
        <time>2016-01-30T09:27:57.242Z</time>
      </trkpt>
      <trkpt lat="43.6305" lon="5.80969">
        <ele>435</ele>
        <time>2016-01-30T09:28:05.254Z</time>
      </trkpt>
      <trkpt lat="43.63049" lon="5.80969">
        <ele>435</ele>
        <time>2016-01-30T09:28:06.240Z</time>
      </trkpt>
      <trkpt lat="43.6304" lon="5.80969">
        <ele>438</ele>
        <time>2016-01-30T09:28:13.253Z</time>
      </trkpt>
      <trkpt lat="43.63039" lon="5.80969">
        <ele>439</ele>
        <time>2016-01-30T09:28:14.242Z</time>
      </trkpt>
      <trkpt lat="43.63032" lon="5.80972">
        <ele>434</ele>
        <time>2016-01-30T09:28:24.257Z</time>
      </trkpt>
      <trkpt lat="43.63031" lon="5.80973">
        <ele>435</ele>
        <time>2016-01-30T09:28:25.243Z</time>
      </trkpt>
      <trkpt lat="43.63023" lon="5.80976">
        <ele>436</ele>
        <time>2016-01-30T09:28:30.265Z</time>
      </trkpt>
      <trkpt lat="43.63021" lon="5.80976">
        <ele>437</ele>
        <time>2016-01-30T09:28:31.237Z</time>
      </trkpt>
      <trkpt lat="43.63013" lon="5.80973">
        <ele>440</ele>
        <time>2016-01-30T09:28:36.265Z</time>
      </trkpt>
      <trkpt lat="43.63012" lon="5.80974">
        <ele>440</ele>
        <time>2016-01-30T09:28:37.237Z</time>
      </trkpt>
      <trkpt lat="43.63005" lon="5.8098">
        <ele>437</ele>
        <time>2016-01-30T09:28:42.264Z</time>
      </trkpt>
      <trkpt lat="43.63003" lon="5.8098">
        <ele>437</ele>
        <time>2016-01-30T09:28:43.243Z</time>
      </trkpt>
      <trkpt lat="43.62995" lon="5.8098">
        <ele>440</ele>
        <time>2016-01-30T09:28:48.270Z</time>
      </trkpt>
      <trkpt lat="43.62993" lon="5.8098">
        <ele>441</ele>
        <time>2016-01-30T09:28:49.241Z</time>
      </trkpt>
      <trkpt lat="43.62987" lon="5.80985">
        <ele>434</ele>
        <time>2016-01-30T09:28:53.266Z</time>
      </trkpt>
      <trkpt lat="43.62985" lon="5.80986">
        <ele>434</ele>
        <time>2016-01-30T09:28:54.242Z</time>
      </trkpt>
      <trkpt lat="43.62977" lon="5.80987">
        <ele>436</ele>
        <time>2016-01-30T09:28:59.263Z</time>
      </trkpt>
      <trkpt lat="43.62976" lon="5.80988">
        <ele>435</ele>
        <time>2016-01-30T09:29:00.242Z</time>
      </trkpt>
      <trkpt lat="43.62967" lon="5.80991">
        <ele>437</ele>
        <time>2016-01-30T09:29:06.267Z</time>
      </trkpt>
      <trkpt lat="43.62966" lon="5.80991">
        <ele>439</ele>
        <time>2016-01-30T09:29:07.267Z</time>
      </trkpt>
      <trkpt lat="43.62957" lon="5.80991">
        <ele>441</ele>
        <time>2016-01-30T09:29:13.264Z</time>
      </trkpt>
      <trkpt lat="43.62956" lon="5.80991">
        <ele>441</ele>
        <time>2016-01-30T09:29:14.243Z</time>
      </trkpt>
      <trkpt lat="43.62949" lon="5.80997">
        <ele>440</ele>
        <time>2016-01-30T09:29:22.266Z</time>
      </trkpt>
      <trkpt lat="43.62948" lon="5.80997">
        <ele>440</ele>
        <time>2016-01-30T09:29:23.242Z</time>
      </trkpt>
      <trkpt lat="43.62941" lon="5.81001">
        <ele>436</ele>
        <time>2016-01-30T09:29:30.265Z</time>
      </trkpt>
      <trkpt lat="43.6294" lon="5.81003">
        <ele>437</ele>
        <time>2016-01-30T09:29:31.241Z</time>
      </trkpt>
      <trkpt lat="43.62932" lon="5.81009">
        <ele>440</ele>
        <time>2016-01-30T09:29:38.266Z</time>
      </trkpt>
      <trkpt lat="43.62931" lon="5.8101">
        <ele>440</ele>
        <time>2016-01-30T09:29:39.242Z</time>
      </trkpt>
      <trkpt lat="43.62924" lon="5.81014">
        <ele>441</ele>
        <time>2016-01-30T09:29:46.263Z</time>
      </trkpt>
      <trkpt lat="43.62923" lon="5.81015">
        <ele>441</ele>
        <time>2016-01-30T09:29:47.232Z</time>
      </trkpt>
      <trkpt lat="43.62915" lon="5.8102">
        <ele>440</ele>
        <time>2016-01-30T09:29:55.269Z</time>
      </trkpt>
      <trkpt lat="43.62914" lon="5.8102">
        <ele>441</ele>
        <time>2016-01-30T09:29:56.269Z</time>
      </trkpt>
      <trkpt lat="43.62911" lon="5.8103">
        <ele>440</ele>
        <time>2016-01-30T09:30:04.250Z</time>
      </trkpt>
      <trkpt lat="43.6291" lon="5.81031">
        <ele>440</ele>
        <time>2016-01-30T09:30:05.241Z</time>
      </trkpt>
      <trkpt lat="43.62903" lon="5.81037">
        <ele>432</ele>
        <time>2016-01-30T09:31:03.267Z</time>
      </trkpt>
      <trkpt lat="43.62903" lon="5.81038">
        <ele>431</ele>
        <time>2016-01-30T09:31:04.242Z</time>
      </trkpt>
      <trkpt lat="43.62901" lon="5.8105">
        <ele>429</ele>
        <time>2016-01-30T09:31:10.268Z</time>
      </trkpt>
      <trkpt lat="43.629" lon="5.81052">
        <ele>429</ele>
        <time>2016-01-30T09:31:11.244Z</time>
      </trkpt>
      <trkpt lat="43.62899" lon="5.81064">
        <ele>426</ele>
        <time>2016-01-30T09:31:22.269Z</time>
      </trkpt>
      <trkpt lat="43.62898" lon="5.81066">
        <ele>426</ele>
        <time>2016-01-30T09:31:23.243Z</time>
      </trkpt>
      <trkpt lat="43.62894" lon="5.81077">
        <ele>425</ele>
        <time>2016-01-30T09:31:28.267Z</time>
      </trkpt>
      <trkpt lat="43.62893" lon="5.81079">
        <ele>426</ele>
        <time>2016-01-30T09:31:29.246Z</time>
      </trkpt>
      <trkpt lat="43.62889" lon="5.8109">
        <ele>424</ele>
        <time>2016-01-30T09:31:34.266Z</time>
      </trkpt>
      <trkpt lat="43.62888" lon="5.81091">
        <ele>424</ele>
        <time>2016-01-30T09:31:35.241Z</time>
      </trkpt>
      <trkpt lat="43.62883" lon="5.81099">
        <ele>427</ele>
        <time>2016-01-30T09:31:40.269Z</time>
      </trkpt>
      <trkpt lat="43.62882" lon="5.81101">
        <ele>427</ele>
        <time>2016-01-30T09:31:41.243Z</time>
      </trkpt>
      <trkpt lat="43.62876" lon="5.81108">
        <ele>428</ele>
        <time>2016-01-30T09:31:46.264Z</time>
      </trkpt>
      <trkpt lat="43.62875" lon="5.8111">
        <ele>428</ele>
        <time>2016-01-30T09:31:47.243Z</time>
      </trkpt>
      <trkpt lat="43.62866" lon="5.81112">
        <ele>431</ele>
        <time>2016-01-30T09:31:53.266Z</time>
      </trkpt>
      <trkpt lat="43.62865" lon="5.81112">
        <ele>432</ele>
        <time>2016-01-30T09:31:54.244Z</time>
      </trkpt>
      <trkpt lat="43.62858" lon="5.81117">
        <ele>433</ele>
        <time>2016-01-30T09:31:59.295Z</time>
      </trkpt>
      <trkpt lat="43.62857" lon="5.81119">
        <ele>434</ele>
        <time>2016-01-30T09:32:00.245Z</time>
      </trkpt>
      <trkpt lat="43.62851" lon="5.81125">
        <ele>435</ele>
        <time>2016-01-30T09:32:05.268Z</time>
      </trkpt>
      <trkpt lat="43.62849" lon="5.81126">
        <ele>436</ele>
        <time>2016-01-30T09:32:06.263Z</time>
      </trkpt>
      <trkpt lat="43.62841" lon="5.81129">
        <ele>437</ele>
        <time>2016-01-30T09:32:12.265Z</time>
      </trkpt>
      <trkpt lat="43.62839" lon="5.81131">
        <ele>436</ele>
        <time>2016-01-30T09:32:13.242Z</time>
      </trkpt>
      <trkpt lat="43.62834" lon="5.81138">
        <ele>437</ele>
        <time>2016-01-30T09:32:18.271Z</time>
      </trkpt>
      <trkpt lat="43.62833" lon="5.8114">
        <ele>437</ele>
        <time>2016-01-30T09:32:19.245Z</time>
      </trkpt>
      <trkpt lat="43.62828" lon="5.81149">
        <ele>440</ele>
        <time>2016-01-30T09:32:25.270Z</time>
      </trkpt>
      <trkpt lat="43.62827" lon="5.81151">
        <ele>439</ele>
        <time>2016-01-30T09:32:26.271Z</time>
      </trkpt>
      <trkpt lat="43.62821" lon="5.81159">
        <ele>439</ele>
        <time>2016-01-30T09:32:31.271Z</time>
      </trkpt>
      <trkpt lat="43.6282" lon="5.81161">
        <ele>439</ele>
        <time>2016-01-30T09:32:32.243Z</time>
      </trkpt>
      <trkpt lat="43.62817" lon="5.81172">
        <ele>437</ele>
        <time>2016-01-30T09:32:38.267Z</time>
      </trkpt>
      <trkpt lat="43.62817" lon="5.81174">
        <ele>436</ele>
        <time>2016-01-30T09:32:39.243Z</time>
      </trkpt>
      <trkpt lat="43.62813" lon="5.81184">
        <ele>435</ele>
        <time>2016-01-30T09:32:44.255Z</time>
      </trkpt>
      <trkpt lat="43.62812" lon="5.81186">
        <ele>435</ele>
        <time>2016-01-30T09:32:45.240Z</time>
      </trkpt>
      <trkpt lat="43.62803" lon="5.81189">
        <ele>439</ele>
        <time>2016-01-30T09:32:51.271Z</time>
      </trkpt>
      <trkpt lat="43.62802" lon="5.8119">
        <ele>439</ele>
        <time>2016-01-30T09:32:52.239Z</time>
      </trkpt>
      <trkpt lat="43.62794" lon="5.81196">
        <ele>440</ele>
        <time>2016-01-30T09:32:58.271Z</time>
      </trkpt>
      <trkpt lat="43.62793" lon="5.81196">
        <ele>442</ele>
        <time>2016-01-30T09:32:59.268Z</time>
      </trkpt>
      <trkpt lat="43.62785" lon="5.81194">
        <ele>444</ele>
        <time>2016-01-30T09:33:05.269Z</time>
      </trkpt>
      <trkpt lat="43.62784" lon="5.81195">
        <ele>443</ele>
        <time>2016-01-30T09:33:06.243Z</time>
      </trkpt>
      <trkpt lat="43.62778" lon="5.81201">
        <ele>443</ele>
        <time>2016-01-30T09:33:11.267Z</time>
      </trkpt>
      <trkpt lat="43.62776" lon="5.81203">
        <ele>443</ele>
        <time>2016-01-30T09:33:12.245Z</time>
      </trkpt>
      <trkpt lat="43.62768" lon="5.81206">
        <ele>443</ele>
        <time>2016-01-30T09:33:18.270Z</time>
      </trkpt>
      <trkpt lat="43.62767" lon="5.81208">
        <ele>443</ele>
        <time>2016-01-30T09:33:19.245Z</time>
      </trkpt>
      <trkpt lat="43.6276" lon="5.81214">
        <ele>445</ele>
        <time>2016-01-30T09:33:26.298Z</time>
      </trkpt>
      <trkpt lat="43.62759" lon="5.81215">
        <ele>445</ele>
        <time>2016-01-30T09:33:27.241Z</time>
      </trkpt>
      <trkpt lat="43.62751" lon="5.81213">
        <ele>447</ele>
        <time>2016-01-30T09:33:33.276Z</time>
      </trkpt>
      <trkpt lat="43.62749" lon="5.81211">
        <ele>446</ele>
        <time>2016-01-30T09:33:34.239Z</time>
      </trkpt>
      <trkpt lat="43.62744" lon="5.81203">
        <ele>445</ele>
        <time>2016-01-30T09:33:37.280Z</time>
      </trkpt>
      <trkpt lat="43.62742" lon="5.81201">
        <ele>445</ele>
        <time>2016-01-30T09:33:38.241Z</time>
      </trkpt>
      <trkpt lat="43.62735" lon="5.81195">
        <ele>449</ele>
        <time>2016-01-30T09:33:45.265Z</time>
      </trkpt>
      <trkpt lat="43.62734" lon="5.81193">
        <ele>449</ele>
        <time>2016-01-30T09:33:46.242Z</time>
      </trkpt>
      <trkpt lat="43.62728" lon="5.81186">
        <ele>450</ele>
        <time>2016-01-30T09:33:54.269Z</time>
      </trkpt>
      <trkpt lat="43.62727" lon="5.81185">
        <ele>450</ele>
        <time>2016-01-30T09:33:55.239Z</time>
      </trkpt>
      <trkpt lat="43.62719" lon="5.81181">
        <ele>450</ele>
        <time>2016-01-30T09:34:00.268Z</time>
      </trkpt>
      <trkpt lat="43.62718" lon="5.81181">
        <ele>450</ele>
        <time>2016-01-30T09:34:01.243Z</time>
      </trkpt>
      <trkpt lat="43.6271" lon="5.81181">
        <ele>451</ele>
        <time>2016-01-30T09:34:06.268Z</time>
      </trkpt>
      <trkpt lat="43.62709" lon="5.81181">
        <ele>451</ele>
        <time>2016-01-30T09:34:07.244Z</time>
      </trkpt>
      <trkpt lat="43.627" lon="5.81184">
        <ele>452</ele>
        <time>2016-01-30T09:34:13.268Z</time>
      </trkpt>
      <trkpt lat="43.62699" lon="5.81184">
        <ele>452</ele>
        <time>2016-01-30T09:34:14.242Z</time>
      </trkpt>
      <trkpt lat="43.6269" lon="5.81186">
        <ele>455</ele>
        <time>2016-01-30T09:34:20.270Z</time>
      </trkpt>
      <trkpt lat="43.62689" lon="5.81186">
        <ele>455</ele>
        <time>2016-01-30T09:34:21.269Z</time>
      </trkpt>
      <trkpt lat="43.62681" lon="5.81189">
        <ele>452</ele>
        <time>2016-01-30T09:34:27.267Z</time>
      </trkpt>
      <trkpt lat="43.62679" lon="5.81191">
        <ele>452</ele>
        <time>2016-01-30T09:34:28.243Z</time>
      </trkpt>
      <trkpt lat="43.62671" lon="5.81196">
        <ele>454</ele>
        <time>2016-01-30T09:34:33.263Z</time>
      </trkpt>
      <trkpt lat="43.6267" lon="5.81196">
        <ele>455</ele>
        <time>2016-01-30T09:34:34.247Z</time>
      </trkpt>
      <trkpt lat="43.62661" lon="5.81197">
        <ele>455</ele>
        <time>2016-01-30T09:34:40.269Z</time>
      </trkpt>
      <trkpt lat="43.6266" lon="5.81198">
        <ele>455</ele>
        <time>2016-01-30T09:34:41.244Z</time>
      </trkpt>
      <trkpt lat="43.62652" lon="5.812">
        <ele>458</ele>
        <time>2016-01-30T09:34:46.266Z</time>
      </trkpt>
      <trkpt lat="43.62651" lon="5.812">
        <ele>459</ele>
        <time>2016-01-30T09:34:47.244Z</time>
      </trkpt>
      <trkpt lat="43.62643" lon="5.81201">
        <ele>456</ele>
        <time>2016-01-30T09:34:52.266Z</time>
      </trkpt>
      <trkpt lat="43.62641" lon="5.81201">
        <ele>456</ele>
        <time>2016-01-30T09:34:53.240Z</time>
      </trkpt>
      <trkpt lat="43.62634" lon="5.81197">
        <ele>456</ele>
        <time>2016-01-30T09:34:58.256Z</time>
      </trkpt>
      <trkpt lat="43.62632" lon="5.81198">
        <ele>456</ele>
        <time>2016-01-30T09:34:59.240Z</time>
      </trkpt>
      <trkpt lat="43.62624" lon="5.81198">
        <ele>458</ele>
        <time>2016-01-30T09:35:04.294Z</time>
      </trkpt>
      <trkpt lat="43.62622" lon="5.81198">
        <ele>458</ele>
        <time>2016-01-30T09:35:05.244Z</time>
      </trkpt>
      <trkpt lat="43.62613" lon="5.81194">
        <ele>458</ele>
        <time>2016-01-30T09:35:10.264Z</time>
      </trkpt>
      <trkpt lat="43.62612" lon="5.81193">
        <ele>458</ele>
        <time>2016-01-30T09:35:11.242Z</time>
      </trkpt>
      <trkpt lat="43.62604" lon="5.81191">
        <ele>458</ele>
        <time>2016-01-30T09:35:15.269Z</time>
      </trkpt>
      <trkpt lat="43.62603" lon="5.81189">
        <ele>458</ele>
        <time>2016-01-30T09:35:16.245Z</time>
      </trkpt>
      <trkpt lat="43.62596" lon="5.81184">
        <ele>458</ele>
        <time>2016-01-30T09:35:20.295Z</time>
      </trkpt>
      <trkpt lat="43.62595" lon="5.81182">
        <ele>458</ele>
        <time>2016-01-30T09:35:21.242Z</time>
      </trkpt>
      <trkpt lat="43.62588" lon="5.81174">
        <ele>460</ele>
        <time>2016-01-30T09:35:26.276Z</time>
      </trkpt>
      <trkpt lat="43.62587" lon="5.81173">
        <ele>460</ele>
        <time>2016-01-30T09:35:27.244Z</time>
      </trkpt>
      <trkpt lat="43.62579" lon="5.81167">
        <ele>460</ele>
        <time>2016-01-30T09:35:32.245Z</time>
      </trkpt>
      <trkpt lat="43.62577" lon="5.81166">
        <ele>460</ele>
        <time>2016-01-30T09:35:33.240Z</time>
      </trkpt>
      <trkpt lat="43.62569" lon="5.8116">
        <ele>461</ele>
        <time>2016-01-30T09:35:37.268Z</time>
      </trkpt>
      <trkpt lat="43.62568" lon="5.81158">
        <ele>461</ele>
        <time>2016-01-30T09:35:38.243Z</time>
      </trkpt>
      <trkpt lat="43.62563" lon="5.81149">
        <ele>463</ele>
        <time>2016-01-30T09:35:42.268Z</time>
      </trkpt>
      <trkpt lat="43.62562" lon="5.81146">
        <ele>464</ele>
        <time>2016-01-30T09:35:43.244Z</time>
      </trkpt>
      <trkpt lat="43.62557" lon="5.81137">
        <ele>465</ele>
        <time>2016-01-30T09:35:48.268Z</time>
      </trkpt>
      <trkpt lat="43.62556" lon="5.81134">
        <ele>466</ele>
        <time>2016-01-30T09:35:49.243Z</time>
      </trkpt>
      <trkpt lat="43.62551" lon="5.81125">
        <ele>468</ele>
        <time>2016-01-30T09:35:54.319Z</time>
      </trkpt>
      <trkpt lat="43.6255" lon="5.81123">
        <ele>467</ele>
        <time>2016-01-30T09:35:55.244Z</time>
      </trkpt>
      <trkpt lat="43.62547" lon="5.81113">
        <ele>465</ele>
        <time>2016-01-30T09:35:59.276Z</time>
      </trkpt>
      <trkpt lat="43.62546" lon="5.81111">
        <ele>465</ele>
        <time>2016-01-30T09:36:00.241Z</time>
      </trkpt>
      <trkpt lat="43.6254" lon="5.81102">
        <ele>465</ele>
        <time>2016-01-30T09:36:04.265Z</time>
      </trkpt>
      <trkpt lat="43.62539" lon="5.811">
        <ele>465</ele>
        <time>2016-01-30T09:36:05.244Z</time>
      </trkpt>
      <trkpt lat="43.62532" lon="5.81095">
        <ele>464</ele>
        <time>2016-01-30T09:36:08.262Z</time>
      </trkpt>
      <trkpt lat="43.62531" lon="5.81094">
        <ele>466</ele>
        <time>2016-01-30T09:36:09.241Z</time>
      </trkpt>
      <trkpt lat="43.62524" lon="5.8109">
        <ele>467</ele>
        <time>2016-01-30T09:36:12.268Z</time>
      </trkpt>
      <trkpt lat="43.62522" lon="5.81089">
        <ele>468</ele>
        <time>2016-01-30T09:36:13.244Z</time>
      </trkpt>
      <trkpt lat="43.62514" lon="5.81086">
        <ele>469</ele>
        <time>2016-01-30T09:36:17.268Z</time>
      </trkpt>
      <trkpt lat="43.62512" lon="5.81085">
        <ele>469</ele>
        <time>2016-01-30T09:36:18.244Z</time>
      </trkpt>
      <trkpt lat="43.62503" lon="5.81085">
        <ele>470</ele>
        <time>2016-01-30T09:36:22.268Z</time>
      </trkpt>
      <trkpt lat="43.62501" lon="5.81086">
        <ele>471</ele>
        <time>2016-01-30T09:36:23.242Z</time>
      </trkpt>
      <trkpt lat="43.62493" lon="5.81084">
        <ele>470</ele>
        <time>2016-01-30T09:36:27.268Z</time>
      </trkpt>
      <trkpt lat="43.62491" lon="5.81083">
        <ele>470</ele>
        <time>2016-01-30T09:36:28.244Z</time>
      </trkpt>
      <trkpt lat="43.62483" lon="5.81079">
        <ele>471</ele>
        <time>2016-01-30T09:36:33.342Z</time>
      </trkpt>
      <trkpt lat="43.62481" lon="5.81078">
        <ele>471</ele>
        <time>2016-01-30T09:36:34.237Z</time>
      </trkpt>
      <trkpt lat="43.62473" lon="5.81076">
        <ele>473</ele>
        <time>2016-01-30T09:36:39.286Z</time>
      </trkpt>
      <trkpt lat="43.62471" lon="5.81076">
        <ele>474</ele>
        <time>2016-01-30T09:36:40.273Z</time>
      </trkpt>
      <trkpt lat="43.62463" lon="5.81081">
        <ele>471</ele>
        <time>2016-01-30T09:36:45.274Z</time>
      </trkpt>
      <trkpt lat="43.62462" lon="5.81083">
        <ele>471</ele>
        <time>2016-01-30T09:36:46.243Z</time>
      </trkpt>
      <trkpt lat="43.62456" lon="5.8109">
        <ele>472</ele>
        <time>2016-01-30T09:36:50.269Z</time>
      </trkpt>
      <trkpt lat="43.62454" lon="5.81092">
        <ele>470</ele>
        <time>2016-01-30T09:36:51.244Z</time>
      </trkpt>
      <trkpt lat="43.62446" lon="5.81095">
        <ele>469</ele>
        <time>2016-01-30T09:36:55.270Z</time>
      </trkpt>
      <trkpt lat="43.62444" lon="5.81096">
        <ele>469</ele>
        <time>2016-01-30T09:36:56.244Z</time>
      </trkpt>
      <trkpt lat="43.62436" lon="5.811">
        <ele>469</ele>
        <time>2016-01-30T09:37:00.272Z</time>
      </trkpt>
      <trkpt lat="43.62434" lon="5.81101">
        <ele>468</ele>
        <time>2016-01-30T09:37:01.244Z</time>
      </trkpt>
      <trkpt lat="43.62428" lon="5.81107">
        <ele>465</ele>
        <time>2016-01-30T09:37:05.266Z</time>
      </trkpt>
      <trkpt lat="43.62426" lon="5.81109">
        <ele>464</ele>
        <time>2016-01-30T09:37:06.245Z</time>
      </trkpt>
      <trkpt lat="43.6242" lon="5.81113">
        <ele>465</ele>
        <time>2016-01-30T09:37:10.277Z</time>
      </trkpt>
      <trkpt lat="43.62418" lon="5.81113">
        <ele>467</ele>
        <time>2016-01-30T09:37:11.240Z</time>
      </trkpt>
      <trkpt lat="43.6241" lon="5.8111">
        <ele>469</ele>
        <time>2016-01-30T09:37:15.270Z</time>
      </trkpt>
      <trkpt lat="43.62409" lon="5.81109">
        <ele>469</ele>
        <time>2016-01-30T09:37:16.243Z</time>
      </trkpt>
      <trkpt lat="43.62401" lon="5.81109">
        <ele>470</ele>
        <time>2016-01-30T09:37:22.268Z</time>
      </trkpt>
      <trkpt lat="43.624" lon="5.81111">
        <ele>469</ele>
        <time>2016-01-30T09:37:23.236Z</time>
      </trkpt>
      <trkpt lat="43.62393" lon="5.81119">
        <ele>469</ele>
        <time>2016-01-30T09:37:28.269Z</time>
      </trkpt>
      <trkpt lat="43.62392" lon="5.8112">
        <ele>470</ele>
        <time>2016-01-30T09:37:29.244Z</time>
      </trkpt>
      <trkpt lat="43.62385" lon="5.81128">
        <ele>471</ele>
        <time>2016-01-30T09:37:35.268Z</time>
      </trkpt>
      <trkpt lat="43.62384" lon="5.81129">
        <ele>471</ele>
        <time>2016-01-30T09:37:36.243Z</time>
      </trkpt>
      <trkpt lat="43.62379" lon="5.81138">
        <ele>471</ele>
        <time>2016-01-30T09:37:41.267Z</time>
      </trkpt>
      <trkpt lat="43.62379" lon="5.8114">
        <ele>470</ele>
        <time>2016-01-30T09:37:42.244Z</time>
      </trkpt>
      <trkpt lat="43.62375" lon="5.8115">
        <ele>469</ele>
        <time>2016-01-30T09:37:47.269Z</time>
      </trkpt>
      <trkpt lat="43.62374" lon="5.81152">
        <ele>470</ele>
        <time>2016-01-30T09:37:48.247Z</time>
      </trkpt>
      <trkpt lat="43.62366" lon="5.81159">
        <ele>470</ele>
        <time>2016-01-30T09:37:53.321Z</time>
      </trkpt>
      <trkpt lat="43.62365" lon="5.8116">
        <ele>470</ele>
        <time>2016-01-30T09:37:54.244Z</time>
      </trkpt>
      <trkpt lat="43.62357" lon="5.81167">
        <ele>474</ele>
        <time>2016-01-30T09:38:00.273Z</time>
      </trkpt>
      <trkpt lat="43.62356" lon="5.81168">
        <ele>474</ele>
        <time>2016-01-30T09:38:01.245Z</time>
      </trkpt>
      <trkpt lat="43.62351" lon="5.81177">
        <ele>472</ele>
        <time>2016-01-30T09:38:07.295Z</time>
      </trkpt>
      <trkpt lat="43.62351" lon="5.81179">
        <ele>472</ele>
        <time>2016-01-30T09:38:08.242Z</time>
      </trkpt>
      <trkpt lat="43.62347" lon="5.8119">
        <ele>472</ele>
        <time>2016-01-30T09:38:13.269Z</time>
      </trkpt>
      <trkpt lat="43.62346" lon="5.81192">
        <ele>472</ele>
        <time>2016-01-30T09:38:14.246Z</time>
      </trkpt>
      <trkpt lat="43.62342" lon="5.81202">
        <ele>472</ele>
        <time>2016-01-30T09:38:19.267Z</time>
      </trkpt>
      <trkpt lat="43.62341" lon="5.81203">
        <ele>472</ele>
        <time>2016-01-30T09:38:20.247Z</time>
      </trkpt>
      <trkpt lat="43.62336" lon="5.81211">
        <ele>474</ele>
        <time>2016-01-30T09:38:25.269Z</time>
      </trkpt>
      <trkpt lat="43.62335" lon="5.81213">
        <ele>472</ele>
        <time>2016-01-30T09:38:26.246Z</time>
      </trkpt>
      <trkpt lat="43.62329" lon="5.81221">
        <ele>472</ele>
        <time>2016-01-30T09:38:31.267Z</time>
      </trkpt>
      <trkpt lat="43.62327" lon="5.81222">
        <ele>472</ele>
        <time>2016-01-30T09:38:32.247Z</time>
      </trkpt>
      <trkpt lat="43.6232" lon="5.81229">
        <ele>474</ele>
        <time>2016-01-30T09:38:37.270Z</time>
      </trkpt>
      <trkpt lat="43.62319" lon="5.81231">
        <ele>473</ele>
        <time>2016-01-30T09:38:38.246Z</time>
      </trkpt>
      <trkpt lat="43.62315" lon="5.81239">
        <ele>471</ele>
        <time>2016-01-30T09:38:43.277Z</time>
      </trkpt>
      <trkpt lat="43.62313" lon="5.81241">
        <ele>471</ele>
        <time>2016-01-30T09:38:44.246Z</time>
      </trkpt>
      <trkpt lat="43.62308" lon="5.81248">
        <ele>474</ele>
        <time>2016-01-30T09:38:48.278Z</time>
      </trkpt>
      <trkpt lat="43.62307" lon="5.8125">
        <ele>473</ele>
        <time>2016-01-30T09:38:49.246Z</time>
      </trkpt>
      <trkpt lat="43.62303" lon="5.81258">
        <ele>473</ele>
        <time>2016-01-30T09:38:53.277Z</time>
      </trkpt>
      <trkpt lat="43.62302" lon="5.8126">
        <ele>473</ele>
        <time>2016-01-30T09:38:54.241Z</time>
      </trkpt>
      <trkpt lat="43.62298" lon="5.81269">
        <ele>473</ele>
        <time>2016-01-30T09:38:58.277Z</time>
      </trkpt>
      <trkpt lat="43.62297" lon="5.81271">
        <ele>473</ele>
        <time>2016-01-30T09:38:59.242Z</time>
      </trkpt>
      <trkpt lat="43.62291" lon="5.81278">
        <ele>476</ele>
        <time>2016-01-30T09:39:03.275Z</time>
      </trkpt>
      <trkpt lat="43.62289" lon="5.81279">
        <ele>477</ele>
        <time>2016-01-30T09:39:04.245Z</time>
      </trkpt>
      <trkpt lat="43.62284" lon="5.81288">
        <ele>477</ele>
        <time>2016-01-30T09:39:08.270Z</time>
      </trkpt>
      <trkpt lat="43.62283" lon="5.8129">
        <ele>476</ele>
        <time>2016-01-30T09:39:09.250Z</time>
      </trkpt>
      <trkpt lat="43.62278" lon="5.813">
        <ele>474</ele>
        <time>2016-01-30T09:39:13.267Z</time>
      </trkpt>
      <trkpt lat="43.62276" lon="5.81302">
        <ele>474</ele>
        <time>2016-01-30T09:39:14.244Z</time>
      </trkpt>
      <trkpt lat="43.62271" lon="5.81312">
        <ele>474</ele>
        <time>2016-01-30T09:39:18.269Z</time>
      </trkpt>
      <trkpt lat="43.6227" lon="5.81314">
        <ele>474</ele>
        <time>2016-01-30T09:39:19.245Z</time>
      </trkpt>
      <trkpt lat="43.62267" lon="5.81325">
        <ele>472</ele>
        <time>2016-01-30T09:39:23.277Z</time>
      </trkpt>
      <trkpt lat="43.62266" lon="5.81328">
        <ele>474</ele>
        <time>2016-01-30T09:39:24.247Z</time>
      </trkpt>
      <trkpt lat="43.6226" lon="5.81336">
        <ele>473</ele>
        <time>2016-01-30T09:39:28.296Z</time>
      </trkpt>
      <trkpt lat="43.62259" lon="5.81338">
        <ele>475</ele>
        <time>2016-01-30T09:39:29.243Z</time>
      </trkpt>
      <trkpt lat="43.62253" lon="5.81345">
        <ele>477</ele>
        <time>2016-01-30T09:39:33.249Z</time>
      </trkpt>
      <trkpt lat="43.62251" lon="5.81346">
        <ele>478</ele>
        <time>2016-01-30T09:39:34.242Z</time>
      </trkpt>
      <trkpt lat="43.62245" lon="5.81353">
        <ele>480</ele>
        <time>2016-01-30T09:39:38.270Z</time>
      </trkpt>
      <trkpt lat="43.62243" lon="5.81354">
        <ele>479</ele>
        <time>2016-01-30T09:39:39.272Z</time>
      </trkpt>
      <trkpt lat="43.62237" lon="5.81361">
        <ele>480</ele>
        <time>2016-01-30T09:39:45.264Z</time>
      </trkpt>
      <trkpt lat="43.62236" lon="5.81363">
        <ele>480</ele>
        <time>2016-01-30T09:39:46.246Z</time>
      </trkpt>
      <trkpt lat="43.62233" lon="5.81373">
        <ele>480</ele>
        <time>2016-01-30T09:39:51.270Z</time>
      </trkpt>
      <trkpt lat="43.62232" lon="5.81376">
        <ele>480</ele>
        <time>2016-01-30T09:39:52.247Z</time>
      </trkpt>
      <trkpt lat="43.6223" lon="5.81386">
        <ele>480</ele>
        <time>2016-01-30T09:39:55.265Z</time>
      </trkpt>
      <trkpt lat="43.62229" lon="5.81389">
        <ele>480</ele>
        <time>2016-01-30T09:39:56.246Z</time>
      </trkpt>
      <trkpt lat="43.62225" lon="5.81399">
        <ele>481</ele>
        <time>2016-01-30T09:40:00.277Z</time>
      </trkpt>
      <trkpt lat="43.62224" lon="5.81401">
        <ele>481</ele>
        <time>2016-01-30T09:40:01.269Z</time>
      </trkpt>
      <trkpt lat="43.62222" lon="5.81411">
        <ele>482</ele>
        <time>2016-01-30T09:40:05.276Z</time>
      </trkpt>
      <trkpt lat="43.62221" lon="5.81413">
        <ele>482</ele>
        <time>2016-01-30T09:40:06.243Z</time>
      </trkpt>
      <trkpt lat="43.62217" lon="5.81422">
        <ele>483</ele>
        <time>2016-01-30T09:40:10.276Z</time>
      </trkpt>
      <trkpt lat="43.62216" lon="5.81424">
        <ele>483</ele>
        <time>2016-01-30T09:40:11.239Z</time>
      </trkpt>
      <trkpt lat="43.62211" lon="5.81431">
        <ele>487</ele>
        <time>2016-01-30T09:40:17.270Z</time>
      </trkpt>
      <trkpt lat="43.62209" lon="5.81432">
        <ele>488</ele>
        <time>2016-01-30T09:40:18.246Z</time>
      </trkpt>
      <trkpt lat="43.62201" lon="5.81437">
        <ele>491</ele>
        <time>2016-01-30T09:40:24.315Z</time>
      </trkpt>
      <trkpt lat="43.622" lon="5.81438">
        <ele>491</ele>
        <time>2016-01-30T09:40:25.245Z</time>
      </trkpt>
      <trkpt lat="43.62194" lon="5.81444">
        <ele>493</ele>
        <time>2016-01-30T09:40:31.254Z</time>
      </trkpt>
      <trkpt lat="43.62192" lon="5.81445">
        <ele>493</ele>
        <time>2016-01-30T09:40:32.246Z</time>
      </trkpt>
      <trkpt lat="43.62187" lon="5.81454">
        <ele>495</ele>
        <time>2016-01-30T09:40:38.271Z</time>
      </trkpt>
      <trkpt lat="43.62186" lon="5.81455">
        <ele>495</ele>
        <time>2016-01-30T09:40:39.246Z</time>
      </trkpt>
      <trkpt lat="43.62181" lon="5.81463">
        <ele>498</ele>
        <time>2016-01-30T09:40:46.258Z</time>
      </trkpt>
      <trkpt lat="43.6218" lon="5.81465">
        <ele>498</ele>
        <time>2016-01-30T09:40:47.244Z</time>
      </trkpt>
      <trkpt lat="43.62174" lon="5.81473">
        <ele>499</ele>
        <time>2016-01-30T09:40:53.280Z</time>
      </trkpt>
      <trkpt lat="43.62173" lon="5.81474">
        <ele>499</ele>
        <time>2016-01-30T09:40:54.245Z</time>
      </trkpt>
      <trkpt lat="43.62167" lon="5.81481">
        <ele>500</ele>
        <time>2016-01-30T09:41:00.280Z</time>
      </trkpt>
      <trkpt lat="43.62166" lon="5.81482">
        <ele>500</ele>
        <time>2016-01-30T09:41:01.272Z</time>
      </trkpt>
      <trkpt lat="43.62159" lon="5.81489">
        <ele>500</ele>
        <time>2016-01-30T09:41:07.273Z</time>
      </trkpt>
      <trkpt lat="43.62158" lon="5.8149">
        <ele>501</ele>
        <time>2016-01-30T09:41:08.244Z</time>
      </trkpt>
      <trkpt lat="43.62151" lon="5.81497">
        <ele>503</ele>
        <time>2016-01-30T09:41:15.270Z</time>
      </trkpt>
      <trkpt lat="43.6215" lon="5.81498">
        <ele>504</ele>
        <time>2016-01-30T09:41:16.247Z</time>
      </trkpt>
      <trkpt lat="43.62144" lon="5.81504">
        <ele>508</ele>
        <time>2016-01-30T09:41:23.296Z</time>
      </trkpt>
      <trkpt lat="43.62143" lon="5.81506">
        <ele>506</ele>
        <time>2016-01-30T09:41:24.245Z</time>
      </trkpt>
      <trkpt lat="43.62135" lon="5.8151">
        <ele>508</ele>
        <time>2016-01-30T09:41:32.272Z</time>
      </trkpt>
      <trkpt lat="43.62134" lon="5.8151">
        <ele>507</ele>
        <time>2016-01-30T09:41:33.243Z</time>
      </trkpt>
      <trkpt lat="43.62127" lon="5.81518">
        <ele>505</ele>
        <time>2016-01-30T09:41:40.285Z</time>
      </trkpt>
      <trkpt lat="43.62127" lon="5.8152">
        <ele>505</ele>
        <time>2016-01-30T09:41:41.245Z</time>
      </trkpt>
      <trkpt lat="43.62126" lon="5.81532">
        <ele>502</ele>
        <time>2016-01-30T09:41:48.270Z</time>
      </trkpt>
      <trkpt lat="43.62126" lon="5.81534">
        <ele>502</ele>
        <time>2016-01-30T09:41:49.245Z</time>
      </trkpt>
      <trkpt lat="43.62124" lon="5.81545">
        <ele>502</ele>
        <time>2016-01-30T09:41:56.270Z</time>
      </trkpt>
      <trkpt lat="43.62123" lon="5.81547">
        <ele>502</ele>
        <time>2016-01-30T09:41:57.247Z</time>
      </trkpt>
      <trkpt lat="43.62119" lon="5.81557">
        <ele>502</ele>
        <time>2016-01-30T09:42:04.277Z</time>
      </trkpt>
      <trkpt lat="43.62119" lon="5.81559">
        <ele>502</ele>
        <time>2016-01-30T09:42:05.243Z</time>
      </trkpt>
      <trkpt lat="43.62115" lon="5.81569">
        <ele>504</ele>
        <time>2016-01-30T09:42:17.300Z</time>
      </trkpt>
      <trkpt lat="43.62114" lon="5.8157">
        <ele>504</ele>
        <time>2016-01-30T09:42:18.244Z</time>
      </trkpt>
      <trkpt lat="43.62116" lon="5.81581">
        <ele>502</ele>
        <time>2016-01-30T09:42:26.274Z</time>
      </trkpt>
      <trkpt lat="43.62116" lon="5.81583">
        <ele>503</ele>
        <time>2016-01-30T09:42:27.241Z</time>
      </trkpt>
      <trkpt lat="43.62114" lon="5.81594">
        <ele>503</ele>
        <time>2016-01-30T09:42:31.268Z</time>
      </trkpt>
      <trkpt lat="43.62113" lon="5.81597">
        <ele>503</ele>
        <time>2016-01-30T09:42:32.245Z</time>
      </trkpt>
      <trkpt lat="43.62111" lon="5.81606">
        <ele>503</ele>
        <time>2016-01-30T09:42:35.274Z</time>
      </trkpt>
      <trkpt lat="43.6211" lon="5.81609">
        <ele>503</ele>
        <time>2016-01-30T09:42:36.246Z</time>
      </trkpt>
      <trkpt lat="43.62104" lon="5.81617">
        <ele>503</ele>
        <time>2016-01-30T09:42:40.273Z</time>
      </trkpt>
      <trkpt lat="43.62103" lon="5.81617">
        <ele>504</ele>
        <time>2016-01-30T09:42:41.246Z</time>
      </trkpt>
      <trkpt lat="43.621" lon="5.81628">
        <ele>504</ele>
        <time>2016-01-30T09:42:50.266Z</time>
      </trkpt>
      <trkpt lat="43.62098" lon="5.8163">
        <ele>504</ele>
        <time>2016-01-30T09:42:51.237Z</time>
      </trkpt>
      <trkpt lat="43.62093" lon="5.81637">
        <ele>505</ele>
        <time>2016-01-30T09:42:55.299Z</time>
      </trkpt>
      <trkpt lat="43.62092" lon="5.81639">
        <ele>505</ele>
        <time>2016-01-30T09:42:56.243Z</time>
      </trkpt>
      <trkpt lat="43.62085" lon="5.81644">
        <ele>507</ele>
        <time>2016-01-30T09:43:00.415Z</time>
      </trkpt>
      <trkpt lat="43.62083" lon="5.81645">
        <ele>507</ele>
        <time>2016-01-30T09:43:01.247Z</time>
      </trkpt>
      <trkpt lat="43.62078" lon="5.81653">
        <ele>507</ele>
        <time>2016-01-30T09:43:05.270Z</time>
      </trkpt>
      <trkpt lat="43.62077" lon="5.81656">
        <ele>506</ele>
        <time>2016-01-30T09:43:06.247Z</time>
      </trkpt>
      <trkpt lat="43.62078" lon="5.81667">
        <ele>505</ele>
        <time>2016-01-30T09:43:10.271Z</time>
      </trkpt>
      <trkpt lat="43.62077" lon="5.8167">
        <ele>506</ele>
        <time>2016-01-30T09:43:11.271Z</time>
      </trkpt>
      <trkpt lat="43.62073" lon="5.8168">
        <ele>506</ele>
        <time>2016-01-30T09:43:14.271Z</time>
      </trkpt>
      <trkpt lat="43.62072" lon="5.81683">
        <ele>506</ele>
        <time>2016-01-30T09:43:15.247Z</time>
      </trkpt>
      <trkpt lat="43.62068" lon="5.81691">
        <ele>506</ele>
        <time>2016-01-30T09:43:18.271Z</time>
      </trkpt>
      <trkpt lat="43.62066" lon="5.81693">
        <ele>506</ele>
        <time>2016-01-30T09:43:19.246Z</time>
      </trkpt>
      <trkpt lat="43.6206" lon="5.81702">
        <ele>505</ele>
        <time>2016-01-30T09:43:24.272Z</time>
      </trkpt>
      <trkpt lat="43.6206" lon="5.81705">
        <ele>505</ele>
        <time>2016-01-30T09:43:25.248Z</time>
      </trkpt>
      <trkpt lat="43.62058" lon="5.81715">
        <ele>503</ele>
        <time>2016-01-30T09:43:28.271Z</time>
      </trkpt>
      <trkpt lat="43.62058" lon="5.81719">
        <ele>502</ele>
        <time>2016-01-30T09:43:29.247Z</time>
      </trkpt>
      <trkpt lat="43.62057" lon="5.81731">
        <ele>501</ele>
        <time>2016-01-30T09:43:32.277Z</time>
      </trkpt>
      <trkpt lat="43.62058" lon="5.81736">
        <ele>501</ele>
        <time>2016-01-30T09:43:33.246Z</time>
      </trkpt>
      <trkpt lat="43.62053" lon="5.81746">
        <ele>502</ele>
        <time>2016-01-30T09:43:37.272Z</time>
      </trkpt>
      <trkpt lat="43.62052" lon="5.81749">
        <ele>501</ele>
        <time>2016-01-30T09:43:38.274Z</time>
      </trkpt>
      <trkpt lat="43.62049" lon="5.81758">
        <ele>502</ele>
        <time>2016-01-30T09:43:41.262Z</time>
      </trkpt>
      <trkpt lat="43.62048" lon="5.8176">
        <ele>503</ele>
        <time>2016-01-30T09:43:42.243Z</time>
      </trkpt>
      <trkpt lat="43.62042" lon="5.81767">
        <ele>504</ele>
        <time>2016-01-30T09:43:45.262Z</time>
      </trkpt>
      <trkpt lat="43.6204" lon="5.81769">
        <ele>503</ele>
        <time>2016-01-30T09:43:46.243Z</time>
      </trkpt>
      <trkpt lat="43.62037" lon="5.81778">
        <ele>504</ele>
        <time>2016-01-30T09:43:49.300Z</time>
      </trkpt>
      <trkpt lat="43.62035" lon="5.81781">
        <ele>505</ele>
        <time>2016-01-30T09:43:50.247Z</time>
      </trkpt>
      <trkpt lat="43.62032" lon="5.81789">
        <ele>505</ele>
        <time>2016-01-30T09:43:53.276Z</time>
      </trkpt>
      <trkpt lat="43.62031" lon="5.81793">
        <ele>505</ele>
        <time>2016-01-30T09:43:54.248Z</time>
      </trkpt>
      <trkpt lat="43.62029" lon="5.81802">
        <ele>505</ele>
        <time>2016-01-30T09:43:57.273Z</time>
      </trkpt>
      <trkpt lat="43.62028" lon="5.81805">
        <ele>504</ele>
        <time>2016-01-30T09:43:58.249Z</time>
      </trkpt>
      <trkpt lat="43.62027" lon="5.81816">
        <ele>504</ele>
        <time>2016-01-30T09:44:01.270Z</time>
      </trkpt>
      <trkpt lat="43.62026" lon="5.8182">
        <ele>504</ele>
        <time>2016-01-30T09:44:02.256Z</time>
      </trkpt>
      <trkpt lat="43.62027" lon="5.81832">
        <ele>504</ele>
        <time>2016-01-30T09:44:05.272Z</time>
      </trkpt>
      <trkpt lat="43.62028" lon="5.81836">
        <ele>503</ele>
        <time>2016-01-30T09:44:06.247Z</time>
      </trkpt>
      <trkpt lat="43.62032" lon="5.81846">
        <ele>502</ele>
        <time>2016-01-30T09:44:09.272Z</time>
      </trkpt>
      <trkpt lat="43.62033" lon="5.8185">
        <ele>502</ele>
        <time>2016-01-30T09:44:10.270Z</time>
      </trkpt>
      <trkpt lat="43.62036" lon="5.81859">
        <ele>502</ele>
        <time>2016-01-30T09:44:13.268Z</time>
      </trkpt>
      <trkpt lat="43.62036" lon="5.81862">
        <ele>502</ele>
        <time>2016-01-30T09:44:14.248Z</time>
      </trkpt>
      <trkpt lat="43.62031" lon="5.81873">
        <ele>501</ele>
        <time>2016-01-30T09:44:18.289Z</time>
      </trkpt>
      <trkpt lat="43.62031" lon="5.81875">
        <ele>501</ele>
        <time>2016-01-30T09:44:19.236Z</time>
      </trkpt>
      <trkpt lat="43.62029" lon="5.81886">
        <ele>500</ele>
        <time>2016-01-30T09:44:25.348Z</time>
      </trkpt>
      <trkpt lat="43.62029" lon="5.81889">
        <ele>500</ele>
        <time>2016-01-30T09:44:26.244Z</time>
      </trkpt>
      <trkpt lat="43.62032" lon="5.81895">
        <ele>501</ele>
        <time>2016-01-30T09:44:32.266Z</time>
      </trkpt>
      <trkpt lat="43.62035" lon="5.81899">
        <ele>501</ele>
        <time>2016-01-30T09:44:33.244Z</time>
      </trkpt>
      <trkpt lat="43.62042" lon="5.81906">
        <ele>501</ele>
        <time>2016-01-30T09:44:35.257Z</time>
      </trkpt>
      <trkpt lat="43.62044" lon="5.8191">
        <ele>501</ele>
        <time>2016-01-30T09:44:36.240Z</time>
      </trkpt>
      <trkpt lat="43.6205" lon="5.81919">
        <ele>501</ele>
        <time>2016-01-30T09:44:38.259Z</time>
      </trkpt>
      <trkpt lat="43.62053" lon="5.81923">
        <ele>502</ele>
        <time>2016-01-30T09:44:39.231Z</time>
      </trkpt>
      <trkpt lat="43.62058" lon="5.81933">
        <ele>501</ele>
        <time>2016-01-30T09:44:41.281Z</time>
      </trkpt>
      <trkpt lat="43.62061" lon="5.81937">
        <ele>502</ele>
        <time>2016-01-30T09:44:42.246Z</time>
      </trkpt>
      <trkpt lat="43.62065" lon="5.8194">
        <ele>496</ele>
        <time>2016-01-30T09:44:43.266Z</time>
      </trkpt>
      <trkpt lat="43.62069" lon="5.81944">
        <ele>494</ele>
        <time>2016-01-30T09:44:44.245Z</time>
      </trkpt>
      <trkpt lat="43.62073" lon="5.81948">
        <ele>491</ele>
        <time>2016-01-30T09:44:45.269Z</time>
      </trkpt>
      <trkpt lat="43.62076" lon="5.81952">
        <ele>489</ele>
        <time>2016-01-30T09:44:46.243Z</time>
      </trkpt>
      <trkpt lat="43.6208" lon="5.81956">
        <ele>490</ele>
        <time>2016-01-30T09:44:47.263Z</time>
      </trkpt>
      <trkpt lat="43.62084" lon="5.81959">
        <ele>490</ele>
        <time>2016-01-30T09:44:48.245Z</time>
      </trkpt>
      <trkpt lat="43.62088" lon="5.81961">
        <ele>489</ele>
        <time>2016-01-30T09:44:49.267Z</time>
      </trkpt>
      <trkpt lat="43.62093" lon="5.81962">
        <ele>489</ele>
        <time>2016-01-30T09:44:50.245Z</time>
      </trkpt>
      <trkpt lat="43.621" lon="5.81969">
        <ele>486</ele>
        <time>2016-01-30T09:44:52.267Z</time>
      </trkpt>
      <trkpt lat="43.62107" lon="5.81977">
        <ele>485</ele>
        <time>2016-01-30T09:44:53.245Z</time>
      </trkpt>
      <trkpt lat="43.62115" lon="5.81979">
        <ele>484</ele>
        <time>2016-01-30T09:44:55.267Z</time>
      </trkpt>
      <trkpt lat="43.62118" lon="5.81982">
        <ele>484</ele>
        <time>2016-01-30T09:44:56.245Z</time>
      </trkpt>
      <trkpt lat="43.62123" lon="5.81983">
        <ele>483</ele>
        <time>2016-01-30T09:44:57.255Z</time>
      </trkpt>
      <trkpt lat="43.62128" lon="5.81987">
        <ele>484</ele>
        <time>2016-01-30T09:44:58.241Z</time>
      </trkpt>
      <trkpt lat="43.62132" lon="5.8199">
        <ele>483</ele>
        <time>2016-01-30T09:44:59.267Z</time>
      </trkpt>
      <trkpt lat="43.62136" lon="5.81991">
        <ele>484</ele>
        <time>2016-01-30T09:45:00.245Z</time>
      </trkpt>
      <trkpt lat="43.62143" lon="5.81993">
        <ele>483</ele>
        <time>2016-01-30T09:45:01.272Z</time>
      </trkpt>
      <trkpt lat="43.62145" lon="5.81998">
        <ele>482</ele>
        <time>2016-01-30T09:45:02.248Z</time>
      </trkpt>
      <trkpt lat="43.62147" lon="5.82003">
        <ele>482</ele>
        <time>2016-01-30T09:45:03.271Z</time>
      </trkpt>
      <trkpt lat="43.62148" lon="5.82009">
        <ele>482</ele>
        <time>2016-01-30T09:45:04.247Z</time>
      </trkpt>
      <trkpt lat="43.6215" lon="5.82014">
        <ele>482</ele>
        <time>2016-01-30T09:45:05.276Z</time>
      </trkpt>
      <trkpt lat="43.62155" lon="5.82017">
        <ele>481</ele>
        <time>2016-01-30T09:45:06.245Z</time>
      </trkpt>
      <trkpt lat="43.62161" lon="5.82026">
        <ele>481</ele>
        <time>2016-01-30T09:45:08.502Z</time>
      </trkpt>
      <trkpt lat="43.62164" lon="5.82031">
        <ele>481</ele>
        <time>2016-01-30T09:45:09.244Z</time>
      </trkpt>
      <trkpt lat="43.62162" lon="5.82043">
        <ele>480</ele>
        <time>2016-01-30T09:45:11.272Z</time>
      </trkpt>
      <trkpt lat="43.62161" lon="5.8205">
        <ele>481</ele>
        <time>2016-01-30T09:45:12.247Z</time>
      </trkpt>
      <trkpt lat="43.6216" lon="5.82056">
        <ele>481</ele>
        <time>2016-01-30T09:45:13.272Z</time>
      </trkpt>
      <trkpt lat="43.62159" lon="5.82062">
        <ele>481</ele>
        <time>2016-01-30T09:45:14.248Z</time>
      </trkpt>
      <trkpt lat="43.62155" lon="5.82072">
        <ele>480</ele>
        <time>2016-01-30T09:45:16.277Z</time>
      </trkpt>
      <trkpt lat="43.62153" lon="5.82078">
        <ele>480</ele>
        <time>2016-01-30T09:45:17.247Z</time>
      </trkpt>
      <trkpt lat="43.62152" lon="5.82089">
        <ele>478</ele>
        <time>2016-01-30T09:45:19.271Z</time>
      </trkpt>
      <trkpt lat="43.6215" lon="5.82092">
        <ele>478</ele>
        <time>2016-01-30T09:45:20.247Z</time>
      </trkpt>
      <trkpt lat="43.6215" lon="5.82101">
        <ele>476</ele>
        <time>2016-01-30T09:45:22.273Z</time>
      </trkpt>
      <trkpt lat="43.62149" lon="5.82105">
        <ele>476</ele>
        <time>2016-01-30T09:45:23.247Z</time>
      </trkpt>
      <trkpt lat="43.62148" lon="5.82116">
        <ele>477</ele>
        <time>2016-01-30T09:45:26.272Z</time>
      </trkpt>
      <trkpt lat="43.62147" lon="5.82122">
        <ele>476</ele>
        <time>2016-01-30T09:45:27.247Z</time>
      </trkpt>
      <trkpt lat="43.62145" lon="5.82132">
        <ele>474</ele>
        <time>2016-01-30T09:45:29.272Z</time>
      </trkpt>
      <trkpt lat="43.62144" lon="5.82138">
        <ele>473</ele>
        <time>2016-01-30T09:45:30.247Z</time>
      </trkpt>
      <trkpt lat="43.62143" lon="5.8215">
        <ele>471</ele>
        <time>2016-01-30T09:45:32.269Z</time>
      </trkpt>
      <trkpt lat="43.62142" lon="5.82157">
        <ele>470</ele>
        <time>2016-01-30T09:45:33.245Z</time>
      </trkpt>
      <trkpt lat="43.62142" lon="5.82163">
        <ele>469</ele>
        <time>2016-01-30T09:45:34.269Z</time>
      </trkpt>
      <trkpt lat="43.62141" lon="5.82172">
        <ele>468</ele>
        <time>2016-01-30T09:45:35.248Z</time>
      </trkpt>
      <trkpt lat="43.6214" lon="5.82179">
        <ele>468</ele>
        <time>2016-01-30T09:45:36.272Z</time>
      </trkpt>
      <trkpt lat="43.6214" lon="5.82184">
        <ele>467</ele>
        <time>2016-01-30T09:45:37.246Z</time>
      </trkpt>
      <trkpt lat="43.62138" lon="5.82191">
        <ele>467</ele>
        <time>2016-01-30T09:45:38.272Z</time>
      </trkpt>
      <trkpt lat="43.62137" lon="5.82196">
        <ele>466</ele>
        <time>2016-01-30T09:45:39.247Z</time>
      </trkpt>
      <trkpt lat="43.62134" lon="5.82201">
        <ele>466</ele>
        <time>2016-01-30T09:45:40.276Z</time>
      </trkpt>
      <trkpt lat="43.62131" lon="5.82206">
        <ele>466</ele>
        <time>2016-01-30T09:45:41.247Z</time>
      </trkpt>
      <trkpt lat="43.62126" lon="5.82216">
        <ele>467</ele>
        <time>2016-01-30T09:45:43.274Z</time>
      </trkpt>
      <trkpt lat="43.62124" lon="5.82222">
        <ele>466</ele>
        <time>2016-01-30T09:45:44.472Z</time>
      </trkpt>
      <trkpt lat="43.62121" lon="5.82227">
        <ele>466</ele>
        <time>2016-01-30T09:45:45.300Z</time>
      </trkpt>
      <trkpt lat="43.62119" lon="5.82234">
        <ele>466</ele>
        <time>2016-01-30T09:45:46.248Z</time>
      </trkpt>
      <trkpt lat="43.62117" lon="5.8224">
        <ele>466</ele>
        <time>2016-01-30T09:45:47.272Z</time>
      </trkpt>
      <trkpt lat="43.62115" lon="5.82245">
        <ele>466</ele>
        <time>2016-01-30T09:45:48.246Z</time>
      </trkpt>
      <trkpt lat="43.62112" lon="5.82251">
        <ele>467</ele>
        <time>2016-01-30T09:45:49.280Z</time>
      </trkpt>
      <trkpt lat="43.6211" lon="5.82256">
        <ele>468</ele>
        <time>2016-01-30T09:45:50.243Z</time>
      </trkpt>
      <trkpt lat="43.62109" lon="5.82268">
        <ele>468</ele>
        <time>2016-01-30T09:45:52.275Z</time>
      </trkpt>
      <trkpt lat="43.62109" lon="5.82274">
        <ele>467</ele>
        <time>2016-01-30T09:45:53.247Z</time>
      </trkpt>
      <trkpt lat="43.62108" lon="5.82285">
        <ele>466</ele>
        <time>2016-01-30T09:45:55.278Z</time>
      </trkpt>
      <trkpt lat="43.6211" lon="5.82291">
        <ele>465</ele>
        <time>2016-01-30T09:45:56.264Z</time>
      </trkpt>
      <trkpt lat="43.62116" lon="5.82298">
        <ele>465</ele>
        <time>2016-01-30T09:45:58.273Z</time>
      </trkpt>
      <trkpt lat="43.6212" lon="5.82301">
        <ele>466</ele>
        <time>2016-01-30T09:45:59.248Z</time>
      </trkpt>
      <trkpt lat="43.62127" lon="5.82304">
        <ele>465</ele>
        <time>2016-01-30T09:46:01.274Z</time>
      </trkpt>
      <trkpt lat="43.62131" lon="5.82306">
        <ele>465</ele>
        <time>2016-01-30T09:46:02.245Z</time>
      </trkpt>
      <trkpt lat="43.62138" lon="5.82313">
        <ele>465</ele>
        <time>2016-01-30T09:46:04.272Z</time>
      </trkpt>
      <trkpt lat="43.6214" lon="5.82321">
        <ele>464</ele>
        <time>2016-01-30T09:46:05.247Z</time>
      </trkpt>
      <trkpt lat="43.62144" lon="5.82323">
        <ele>464</ele>
        <time>2016-01-30T09:46:06.510Z</time>
      </trkpt>
      <trkpt lat="43.62148" lon="5.82327">
        <ele>465</ele>
        <time>2016-01-30T09:46:07.272Z</time>
      </trkpt>
      <trkpt lat="43.62153" lon="5.82334">
        <ele>466</ele>
        <time>2016-01-30T09:46:09.272Z</time>
      </trkpt>
      <trkpt lat="43.62155" lon="5.82337">
        <ele>466</ele>
        <time>2016-01-30T09:46:10.247Z</time>
      </trkpt>
      <trkpt lat="43.62156" lon="5.82349">
        <ele>468</ele>
        <time>2016-01-30T09:46:14.273Z</time>
      </trkpt>
      <trkpt lat="43.62158" lon="5.82353">
        <ele>469</ele>
        <time>2016-01-30T09:46:15.246Z</time>
      </trkpt>
      <trkpt lat="43.62165" lon="5.82359">
        <ele>468</ele>
        <time>2016-01-30T09:46:18.302Z</time>
      </trkpt>
      <trkpt lat="43.62167" lon="5.82362">
        <ele>468</ele>
        <time>2016-01-30T09:46:19.244Z</time>
      </trkpt>
      <trkpt lat="43.62171" lon="5.82372">
        <ele>469</ele>
        <time>2016-01-30T09:46:22.272Z</time>
      </trkpt>
      <trkpt lat="43.62172" lon="5.82376">
        <ele>468</ele>
        <time>2016-01-30T09:46:23.245Z</time>
      </trkpt>
      <trkpt lat="43.62174" lon="5.82387">
        <ele>467</ele>
        <time>2016-01-30T09:46:26.313Z</time>
      </trkpt>
      <trkpt lat="43.62173" lon="5.82391">
        <ele>468</ele>
        <time>2016-01-30T09:46:27.247Z</time>
      </trkpt>
      <trkpt lat="43.6217" lon="5.82402">
        <ele>467</ele>
        <time>2016-01-30T09:46:31.277Z</time>
      </trkpt>
      <trkpt lat="43.62169" lon="5.82405">
        <ele>467</ele>
        <time>2016-01-30T09:46:32.245Z</time>
      </trkpt>
      <trkpt lat="43.62164" lon="5.82414">
        <ele>469</ele>
        <time>2016-01-30T09:46:36.281Z</time>
      </trkpt>
      <trkpt lat="43.62162" lon="5.82415">
        <ele>470</ele>
        <time>2016-01-30T09:46:37.244Z</time>
      </trkpt>
      <trkpt lat="43.62155" lon="5.82422">
        <ele>470</ele>
        <time>2016-01-30T09:46:41.264Z</time>
      </trkpt>
      <trkpt lat="43.62154" lon="5.82425">
        <ele>470</ele>
        <time>2016-01-30T09:46:42.247Z</time>
      </trkpt>
      <trkpt lat="43.62151" lon="5.82436">
        <ele>471</ele>
        <time>2016-01-30T09:46:45.295Z</time>
      </trkpt>
      <trkpt lat="43.6215" lon="5.8244">
        <ele>470</ele>
        <time>2016-01-30T09:46:46.244Z</time>
      </trkpt>
      <trkpt lat="43.62149" lon="5.82452">
        <ele>470</ele>
        <time>2016-01-30T09:46:49.273Z</time>
      </trkpt>
      <trkpt lat="43.62149" lon="5.82456">
        <ele>469</ele>
        <time>2016-01-30T09:46:50.248Z</time>
      </trkpt>
      <trkpt lat="43.62148" lon="5.82464">
        <ele>468</ele>
        <time>2016-01-30T09:46:52.276Z</time>
      </trkpt>
      <trkpt lat="43.62147" lon="5.82469">
        <ele>469</ele>
        <time>2016-01-30T09:46:53.249Z</time>
      </trkpt>
      <trkpt lat="43.62145" lon="5.82477">
        <ele>469</ele>
        <time>2016-01-30T09:46:55.273Z</time>
      </trkpt>
      <trkpt lat="43.62143" lon="5.82482">
        <ele>469</ele>
        <time>2016-01-30T09:46:56.247Z</time>
      </trkpt>
      <trkpt lat="43.62139" lon="5.82491">
        <ele>469</ele>
        <time>2016-01-30T09:46:58.273Z</time>
      </trkpt>
      <trkpt lat="43.62138" lon="5.82496">
        <ele>470</ele>
        <time>2016-01-30T09:46:59.246Z</time>
      </trkpt>
      <trkpt lat="43.62135" lon="5.82505">
        <ele>469</ele>
        <time>2016-01-30T09:47:01.300Z</time>
      </trkpt>
      <trkpt lat="43.62134" lon="5.82509">
        <ele>470</ele>
        <time>2016-01-30T09:47:02.247Z</time>
      </trkpt>
      <trkpt lat="43.62131" lon="5.82517">
        <ele>470</ele>
        <time>2016-01-30T09:47:04.273Z</time>
      </trkpt>
      <trkpt lat="43.6213" lon="5.82521">
        <ele>469</ele>
        <time>2016-01-30T09:47:05.248Z</time>
      </trkpt>
      <trkpt lat="43.62128" lon="5.8253">
        <ele>469</ele>
        <time>2016-01-30T09:47:07.268Z</time>
      </trkpt>
      <trkpt lat="43.62127" lon="5.82535">
        <ele>469</ele>
        <time>2016-01-30T09:47:08.248Z</time>
      </trkpt>
      <trkpt lat="43.62126" lon="5.82544">
        <ele>469</ele>
        <time>2016-01-30T09:47:10.273Z</time>
      </trkpt>
      <trkpt lat="43.62125" lon="5.82549">
        <ele>469</ele>
        <time>2016-01-30T09:47:11.248Z</time>
      </trkpt>
      <trkpt lat="43.62123" lon="5.82558">
        <ele>469</ele>
        <time>2016-01-30T09:47:13.264Z</time>
      </trkpt>
      <trkpt lat="43.62121" lon="5.82562">
        <ele>468</ele>
        <time>2016-01-30T09:47:14.249Z</time>
      </trkpt>
      <trkpt lat="43.62117" lon="5.82569">
        <ele>469</ele>
        <time>2016-01-30T09:47:16.273Z</time>
      </trkpt>
      <trkpt lat="43.62115" lon="5.82573">
        <ele>469</ele>
        <time>2016-01-30T09:47:17.249Z</time>
      </trkpt>
      <trkpt lat="43.62112" lon="5.82581">
        <ele>469</ele>
        <time>2016-01-30T09:47:19.270Z</time>
      </trkpt>
      <trkpt lat="43.6211" lon="5.82585">
        <ele>470</ele>
        <time>2016-01-30T09:47:20.248Z</time>
      </trkpt>
      <trkpt lat="43.62107" lon="5.82593">
        <ele>469</ele>
        <time>2016-01-30T09:47:22.301Z</time>
      </trkpt>
      <trkpt lat="43.62105" lon="5.82597">
        <ele>469</ele>
        <time>2016-01-30T09:47:23.246Z</time>
      </trkpt>
      <trkpt lat="43.62101" lon="5.82604">
        <ele>470</ele>
        <time>2016-01-30T09:47:25.274Z</time>
      </trkpt>
      <trkpt lat="43.62098" lon="5.82607">
        <ele>471</ele>
        <time>2016-01-30T09:47:26.247Z</time>
      </trkpt>
      <trkpt lat="43.62093" lon="5.82616">
        <ele>471</ele>
        <time>2016-01-30T09:47:29.273Z</time>
      </trkpt>
      <trkpt lat="43.62091" lon="5.82619">
        <ele>472</ele>
        <time>2016-01-30T09:47:30.248Z</time>
      </trkpt>
      <trkpt lat="43.62085" lon="5.82627">
        <ele>473</ele>
        <time>2016-01-30T09:47:33.305Z</time>
      </trkpt>
      <trkpt lat="43.62083" lon="5.8263">
        <ele>473</ele>
        <time>2016-01-30T09:47:34.248Z</time>
      </trkpt>
      <trkpt lat="43.62077" lon="5.82637">
        <ele>474</ele>
        <time>2016-01-30T09:47:37.265Z</time>
      </trkpt>
      <trkpt lat="43.62075" lon="5.8264">
        <ele>475</ele>
        <time>2016-01-30T09:47:38.248Z</time>
      </trkpt>
      <trkpt lat="43.62069" lon="5.82649">
        <ele>476</ele>
        <time>2016-01-30T09:47:41.271Z</time>
      </trkpt>
      <trkpt lat="43.62067" lon="5.82652">
        <ele>476</ele>
        <time>2016-01-30T09:47:42.472Z</time>
      </trkpt>
      <trkpt lat="43.62061" lon="5.8266">
        <ele>476</ele>
        <time>2016-01-30T09:47:45.274Z</time>
      </trkpt>
      <trkpt lat="43.62059" lon="5.82663">
        <ele>476</ele>
        <time>2016-01-30T09:47:46.244Z</time>
      </trkpt>
      <trkpt lat="43.62053" lon="5.82668">
        <ele>477</ele>
        <time>2016-01-30T09:47:50.275Z</time>
      </trkpt>
      <trkpt lat="43.6205" lon="5.82669">
        <ele>477</ele>
        <time>2016-01-30T09:47:51.248Z</time>
      </trkpt>
      <trkpt lat="43.62043" lon="5.82673">
        <ele>477</ele>
        <time>2016-01-30T09:47:54.273Z</time>
      </trkpt>
      <trkpt lat="43.6204" lon="5.82674">
        <ele>478</ele>
        <time>2016-01-30T09:47:55.275Z</time>
      </trkpt>
      <trkpt lat="43.62034" lon="5.82678">
        <ele>478</ele>
        <time>2016-01-30T09:47:58.272Z</time>
      </trkpt>
      <trkpt lat="43.62031" lon="5.82679">
        <ele>478</ele>
        <time>2016-01-30T09:47:59.245Z</time>
      </trkpt>
      <trkpt lat="43.62025" lon="5.82685">
        <ele>479</ele>
        <time>2016-01-30T09:48:02.272Z</time>
      </trkpt>
      <trkpt lat="43.62024" lon="5.82687">
        <ele>478</ele>
        <time>2016-01-30T09:48:03.248Z</time>
      </trkpt>
      <trkpt lat="43.62027" lon="5.82697">
        <ele>479</ele>
        <time>2016-01-30T09:48:36.274Z</time>
      </trkpt>
      <trkpt lat="43.6203" lon="5.82699">
        <ele>479</ele>
        <time>2016-01-30T09:48:37.241Z</time>
      </trkpt>
      <trkpt lat="43.62036" lon="5.82704">
        <ele>479</ele>
        <time>2016-01-30T09:48:40.274Z</time>
      </trkpt>
      <trkpt lat="43.62038" lon="5.82706">
        <ele>478</ele>
        <time>2016-01-30T09:48:41.248Z</time>
      </trkpt>
      <trkpt lat="43.62042" lon="5.82714">
        <ele>479</ele>
        <time>2016-01-30T09:48:44.297Z</time>
      </trkpt>
      <trkpt lat="43.62044" lon="5.82716">
        <ele>479</ele>
        <time>2016-01-30T09:48:45.247Z</time>
      </trkpt>
      <trkpt lat="43.62049" lon="5.82724">
        <ele>477</ele>
        <time>2016-01-30T09:48:48.279Z</time>
      </trkpt>
      <trkpt lat="43.62052" lon="5.82726">
        <ele>476</ele>
        <time>2016-01-30T09:48:49.247Z</time>
      </trkpt>
      <trkpt lat="43.62059" lon="5.82727">
        <ele>477</ele>
        <time>2016-01-30T09:48:52.273Z</time>
      </trkpt>
      <trkpt lat="43.62062" lon="5.82726">
        <ele>475</ele>
        <time>2016-01-30T09:48:53.247Z</time>
      </trkpt>
      <trkpt lat="43.62067" lon="5.82723">
        <ele>478</ele>
        <time>2016-01-30T09:48:55.273Z</time>
      </trkpt>
      <trkpt lat="43.62071" lon="5.82723">
        <ele>478</ele>
        <time>2016-01-30T09:48:56.246Z</time>
      </trkpt>
      <trkpt lat="43.62077" lon="5.82726">
        <ele>477</ele>
        <time>2016-01-30T09:48:58.273Z</time>
      </trkpt>
      <trkpt lat="43.62081" lon="5.82728">
        <ele>478</ele>
        <time>2016-01-30T09:48:59.250Z</time>
      </trkpt>
      <trkpt lat="43.62085" lon="5.82731">
        <ele>478</ele>
        <time>2016-01-30T09:49:00.272Z</time>
      </trkpt>
      <trkpt lat="43.6209" lon="5.82733">
        <ele>478</ele>
        <time>2016-01-30T09:49:01.248Z</time>
      </trkpt>
      <trkpt lat="43.62094" lon="5.82736">
        <ele>478</ele>
        <time>2016-01-30T09:49:02.274Z</time>
      </trkpt>
      <trkpt lat="43.62101" lon="5.82739">
        <ele>478</ele>
        <time>2016-01-30T09:49:03.248Z</time>
      </trkpt>
      <trkpt lat="43.62106" lon="5.82743">
        <ele>476</ele>
        <time>2016-01-30T09:49:04.274Z</time>
      </trkpt>
      <trkpt lat="43.62109" lon="5.82746">
        <ele>476</ele>
        <time>2016-01-30T09:49:05.249Z</time>
      </trkpt>
      <trkpt lat="43.62117" lon="5.82751">
        <ele>474</ele>
        <time>2016-01-30T09:49:07.262Z</time>
      </trkpt>
      <trkpt lat="43.62121" lon="5.82753">
        <ele>474</ele>
        <time>2016-01-30T09:49:08.248Z</time>
      </trkpt>
      <trkpt lat="43.62126" lon="5.82756">
        <ele>473</ele>
        <time>2016-01-30T09:49:09.274Z</time>
      </trkpt>
      <trkpt lat="43.6213" lon="5.82758">
        <ele>473</ele>
        <time>2016-01-30T09:49:10.276Z</time>
      </trkpt>
      <trkpt lat="43.62133" lon="5.82761">
        <ele>473</ele>
        <time>2016-01-30T09:49:11.273Z</time>
      </trkpt>
      <trkpt lat="43.62138" lon="5.82765">
        <ele>472</ele>
        <time>2016-01-30T09:49:12.248Z</time>
      </trkpt>
      <trkpt lat="43.62144" lon="5.82771">
        <ele>472</ele>
        <time>2016-01-30T09:49:14.270Z</time>
      </trkpt>
      <trkpt lat="43.62148" lon="5.82774">
        <ele>471</ele>
        <time>2016-01-30T09:49:15.245Z</time>
      </trkpt>
      <trkpt lat="43.62153" lon="5.82776">
        <ele>471</ele>
        <time>2016-01-30T09:49:16.272Z</time>
      </trkpt>
      <trkpt lat="43.62158" lon="5.82778">
        <ele>471</ele>
        <time>2016-01-30T09:49:17.248Z</time>
      </trkpt>
      <trkpt lat="43.62162" lon="5.82779">
        <ele>471</ele>
        <time>2016-01-30T09:49:18.273Z</time>
      </trkpt>
      <trkpt lat="43.62167" lon="5.82781">
        <ele>470</ele>
        <time>2016-01-30T09:49:19.249Z</time>
      </trkpt>
      <trkpt lat="43.62171" lon="5.82782">
        <ele>470</ele>
        <time>2016-01-30T09:49:20.275Z</time>
      </trkpt>
      <trkpt lat="43.62176" lon="5.82783">
        <ele>470</ele>
        <time>2016-01-30T09:49:21.276Z</time>
      </trkpt>
      <trkpt lat="43.62181" lon="5.82784">
        <ele>469</ele>
        <time>2016-01-30T09:49:22.273Z</time>
      </trkpt>
      <trkpt lat="43.62186" lon="5.82785">
        <ele>470</ele>
        <time>2016-01-30T09:49:23.248Z</time>
      </trkpt>
      <trkpt lat="43.62195" lon="5.82785">
        <ele>470</ele>
        <time>2016-01-30T09:49:25.273Z</time>
      </trkpt>
      <trkpt lat="43.62199" lon="5.82785">
        <ele>470</ele>
        <time>2016-01-30T09:49:26.249Z</time>
      </trkpt>
      <trkpt lat="43.62203" lon="5.82786">
        <ele>470</ele>
        <time>2016-01-30T09:49:27.274Z</time>
      </trkpt>
      <trkpt lat="43.62208" lon="5.82786">
        <ele>470</ele>
        <time>2016-01-30T09:49:28.249Z</time>
      </trkpt>
      <trkpt lat="43.62213" lon="5.82786">
        <ele>470</ele>
        <time>2016-01-30T09:49:29.274Z</time>
      </trkpt>
      <trkpt lat="43.62219" lon="5.82787">
        <ele>469</ele>
        <time>2016-01-30T09:49:30.248Z</time>
      </trkpt>
      <trkpt lat="43.62224" lon="5.82787">
        <ele>469</ele>
        <time>2016-01-30T09:49:31.273Z</time>
      </trkpt>
      <trkpt lat="43.62228" lon="5.82787">
        <ele>468</ele>
        <time>2016-01-30T09:49:32.275Z</time>
      </trkpt>
      <trkpt lat="43.62233" lon="5.82788">
        <ele>468</ele>
        <time>2016-01-30T09:49:33.277Z</time>
      </trkpt>
      <trkpt lat="43.62238" lon="5.82786">
        <ele>468</ele>
        <time>2016-01-30T09:49:34.249Z</time>
      </trkpt>
      <trkpt lat="43.62243" lon="5.82784">
        <ele>469</ele>
        <time>2016-01-30T09:49:35.273Z</time>
      </trkpt>
      <trkpt lat="43.62248" lon="5.82781">
        <ele>467</ele>
        <time>2016-01-30T09:49:36.247Z</time>
      </trkpt>
      <trkpt lat="43.62253" lon="5.82783">
        <ele>466</ele>
        <time>2016-01-30T09:49:37.275Z</time>
      </trkpt>
      <trkpt lat="43.62258" lon="5.82784">
        <ele>466</ele>
        <time>2016-01-30T09:49:38.250Z</time>
      </trkpt>
      <trkpt lat="43.62267" lon="5.82786">
        <ele>466</ele>
        <time>2016-01-30T09:49:40.277Z</time>
      </trkpt>
      <trkpt lat="43.62272" lon="5.82788">
        <ele>465</ele>
        <time>2016-01-30T09:49:41.251Z</time>
      </trkpt>
      <trkpt lat="43.62277" lon="5.82794">
        <ele>465</ele>
        <time>2016-01-30T09:49:43.316Z</time>
      </trkpt>
      <trkpt lat="43.6228" lon="5.82798">
        <ele>464</ele>
        <time>2016-01-30T09:49:44.248Z</time>
      </trkpt>
      <trkpt lat="43.62285" lon="5.82806">
        <ele>463</ele>
        <time>2016-01-30T09:49:46.271Z</time>
      </trkpt>
      <trkpt lat="43.62287" lon="5.82811">
        <ele>462</ele>
        <time>2016-01-30T09:49:47.245Z</time>
      </trkpt>
      <trkpt lat="43.62289" lon="5.82817">
        <ele>461</ele>
        <time>2016-01-30T09:49:48.275Z</time>
      </trkpt>
      <trkpt lat="43.62289" lon="5.82824">
        <ele>462</ele>
        <time>2016-01-30T09:49:49.249Z</time>
      </trkpt>
      <trkpt lat="43.62289" lon="5.8283">
        <ele>461</ele>
        <time>2016-01-30T09:49:50.274Z</time>
      </trkpt>
      <trkpt lat="43.62288" lon="5.82837">
        <ele>461</ele>
        <time>2016-01-30T09:49:51.249Z</time>
      </trkpt>
      <trkpt lat="43.62287" lon="5.82843">
        <ele>460</ele>
        <time>2016-01-30T09:49:52.270Z</time>
      </trkpt>
      <trkpt lat="43.62286" lon="5.82849">
        <ele>460</ele>
        <time>2016-01-30T09:49:53.247Z</time>
      </trkpt>
      <trkpt lat="43.62284" lon="5.82856">
        <ele>459</ele>
        <time>2016-01-30T09:49:54.300Z</time>
      </trkpt>
      <trkpt lat="43.62284" lon="5.82862">
        <ele>458</ele>
        <time>2016-01-30T09:49:55.249Z</time>
      </trkpt>
      <trkpt lat="43.62284" lon="5.82869">
        <ele>458</ele>
        <time>2016-01-30T09:49:56.269Z</time>
      </trkpt>
      <trkpt lat="43.62285" lon="5.82875">
        <ele>457</ele>
        <time>2016-01-30T09:49:57.248Z</time>
      </trkpt>
      <trkpt lat="43.62287" lon="5.8288">
        <ele>456</ele>
        <time>2016-01-30T09:49:58.274Z</time>
      </trkpt>
      <trkpt lat="43.6229" lon="5.82885">
        <ele>456</ele>
        <time>2016-01-30T09:49:59.250Z</time>
      </trkpt>
      <trkpt lat="43.62299" lon="5.82889">
        <ele>457</ele>
        <time>2016-01-30T09:50:01.276Z</time>
      </trkpt>
      <trkpt lat="43.62303" lon="5.82889">
        <ele>457</ele>
        <time>2016-01-30T09:50:02.246Z</time>
      </trkpt>
      <trkpt lat="43.62312" lon="5.82889">
        <ele>457</ele>
        <time>2016-01-30T09:50:04.274Z</time>
      </trkpt>
      <trkpt lat="43.62316" lon="5.82888">
        <ele>456</ele>
        <time>2016-01-30T09:50:05.248Z</time>
      </trkpt>
      <trkpt lat="43.62324" lon="5.82887">
        <ele>457</ele>
        <time>2016-01-30T09:50:07.273Z</time>
      </trkpt>
      <trkpt lat="43.62328" lon="5.82887">
        <ele>456</ele>
        <time>2016-01-30T09:50:08.249Z</time>
      </trkpt>
      <trkpt lat="43.62337" lon="5.82887">
        <ele>457</ele>
        <time>2016-01-30T09:50:10.302Z</time>
      </trkpt>
      <trkpt lat="43.6234" lon="5.82888">
        <ele>457</ele>
        <time>2016-01-30T09:50:11.250Z</time>
      </trkpt>
      <trkpt lat="43.62345" lon="5.82889">
        <ele>457</ele>
        <time>2016-01-30T09:50:12.270Z</time>
      </trkpt>
      <trkpt lat="43.62349" lon="5.82892">
        <ele>456</ele>
        <time>2016-01-30T09:50:13.251Z</time>
      </trkpt>
      <trkpt lat="43.62352" lon="5.82896">
        <ele>456</ele>
        <time>2016-01-30T09:50:14.274Z</time>
      </trkpt>
      <trkpt lat="43.62355" lon="5.82901">
        <ele>455</ele>
        <time>2016-01-30T09:50:15.249Z</time>
      </trkpt>
      <trkpt lat="43.62354" lon="5.82912">
        <ele>455</ele>
        <time>2016-01-30T09:50:17.275Z</time>
      </trkpt>
      <trkpt lat="43.62353" lon="5.82917">
        <ele>456</ele>
        <time>2016-01-30T09:50:18.249Z</time>
      </trkpt>
      <trkpt lat="43.6235" lon="5.82929">
        <ele>457</ele>
        <time>2016-01-30T09:50:21.302Z</time>
      </trkpt>
      <trkpt lat="43.62348" lon="5.82933">
        <ele>456</ele>
        <time>2016-01-30T09:50:22.246Z</time>
      </trkpt>
      <trkpt lat="43.62347" lon="5.82945">
        <ele>456</ele>
        <time>2016-01-30T09:50:24.271Z</time>
      </trkpt>
      <trkpt lat="43.62347" lon="5.82951">
        <ele>456</ele>
        <time>2016-01-30T09:50:25.249Z</time>
      </trkpt>
      <trkpt lat="43.62346" lon="5.82958">
        <ele>456</ele>
        <time>2016-01-30T09:50:26.273Z</time>
      </trkpt>
      <trkpt lat="43.62344" lon="5.82964">
        <ele>456</ele>
        <time>2016-01-30T09:50:27.251Z</time>
      </trkpt>
      <trkpt lat="43.62343" lon="5.8297">
        <ele>457</ele>
        <time>2016-01-30T09:50:28.274Z</time>
      </trkpt>
      <trkpt lat="43.62342" lon="5.82977">
        <ele>456</ele>
        <time>2016-01-30T09:50:29.251Z</time>
      </trkpt>
      <trkpt lat="43.62336" lon="5.82984">
        <ele>456</ele>
        <time>2016-01-30T09:50:31.498Z</time>
      </trkpt>
      <trkpt lat="43.62332" lon="5.82987">
        <ele>457</ele>
        <time>2016-01-30T09:50:32.275Z</time>
      </trkpt>
      <trkpt lat="43.62326" lon="5.82992">
        <ele>457</ele>
        <time>2016-01-30T09:50:34.275Z</time>
      </trkpt>
      <trkpt lat="43.62324" lon="5.82995">
        <ele>457</ele>
        <time>2016-01-30T09:50:35.250Z</time>
      </trkpt>
      <trkpt lat="43.62316" lon="5.83001">
        <ele>458</ele>
        <time>2016-01-30T09:50:38.274Z</time>
      </trkpt>
      <trkpt lat="43.62313" lon="5.83003">
        <ele>458</ele>
        <time>2016-01-30T09:50:39.251Z</time>
      </trkpt>
      <trkpt lat="43.62307" lon="5.83011">
        <ele>457</ele>
        <time>2016-01-30T09:50:41.275Z</time>
      </trkpt>
      <trkpt lat="43.62304" lon="5.83015">
        <ele>457</ele>
        <time>2016-01-30T09:50:42.248Z</time>
      </trkpt>
      <trkpt lat="43.62299" lon="5.83023">
        <ele>457</ele>
        <time>2016-01-30T09:50:44.273Z</time>
      </trkpt>
      <trkpt lat="43.62296" lon="5.83027">
        <ele>457</ele>
        <time>2016-01-30T09:50:45.250Z</time>
      </trkpt>
      <trkpt lat="43.62291" lon="5.83035">
        <ele>456</ele>
        <time>2016-01-30T09:50:47.275Z</time>
      </trkpt>
      <trkpt lat="43.62288" lon="5.8304">
        <ele>456</ele>
        <time>2016-01-30T09:50:48.249Z</time>
      </trkpt>
      <trkpt lat="43.62284" lon="5.83049">
        <ele>454</ele>
        <time>2016-01-30T09:50:50.272Z</time>
      </trkpt>
      <trkpt lat="43.62283" lon="5.83055">
        <ele>453</ele>
        <time>2016-01-30T09:50:51.242Z</time>
      </trkpt>
      <trkpt lat="43.6228" lon="5.83064">
        <ele>453</ele>
        <time>2016-01-30T09:50:53.313Z</time>
      </trkpt>
      <trkpt lat="43.62278" lon="5.83068">
        <ele>453</ele>
        <time>2016-01-30T09:50:54.248Z</time>
      </trkpt>
      <trkpt lat="43.62271" lon="5.83074">
        <ele>453</ele>
        <time>2016-01-30T09:50:56.260Z</time>
      </trkpt>
      <trkpt lat="43.62267" lon="5.83076">
        <ele>455</ele>
        <time>2016-01-30T09:50:57.246Z</time>
      </trkpt>
      <trkpt lat="43.62261" lon="5.83079">
        <ele>455</ele>
        <time>2016-01-30T09:50:59.271Z</time>
      </trkpt>
      <trkpt lat="43.62258" lon="5.83081">
        <ele>454</ele>
        <time>2016-01-30T09:51:00.249Z</time>
      </trkpt>
      <trkpt lat="43.62251" lon="5.83085">
        <ele>454</ele>
        <time>2016-01-30T09:51:02.273Z</time>
      </trkpt>
      <trkpt lat="43.62248" lon="5.83088">
        <ele>455</ele>
        <time>2016-01-30T09:51:03.241Z</time>
      </trkpt>
      <trkpt lat="43.62241" lon="5.83093">
        <ele>456</ele>
        <time>2016-01-30T09:51:05.272Z</time>
      </trkpt>
      <trkpt lat="43.62237" lon="5.83096">
        <ele>457</ele>
        <time>2016-01-30T09:51:06.246Z</time>
      </trkpt>
      <trkpt lat="43.62231" lon="5.83102">
        <ele>458</ele>
        <time>2016-01-30T09:51:08.272Z</time>
      </trkpt>
      <trkpt lat="43.62228" lon="5.83105">
        <ele>458</ele>
        <time>2016-01-30T09:51:09.250Z</time>
      </trkpt>
      <trkpt lat="43.62221" lon="5.8311">
        <ele>457</ele>
        <time>2016-01-30T09:51:11.282Z</time>
      </trkpt>
      <trkpt lat="43.62217" lon="5.83112">
        <ele>458</ele>
        <time>2016-01-30T09:51:12.248Z</time>
      </trkpt>
      <trkpt lat="43.62211" lon="5.83117">
        <ele>456</ele>
        <time>2016-01-30T09:51:14.274Z</time>
      </trkpt>
      <trkpt lat="43.6221" lon="5.8312">
        <ele>456</ele>
        <time>2016-01-30T09:51:15.275Z</time>
      </trkpt>
      <trkpt lat="43.62208" lon="5.83128">
        <ele>457</ele>
        <time>2016-01-30T09:51:17.275Z</time>
      </trkpt>
      <trkpt lat="43.62207" lon="5.83132">
        <ele>456</ele>
        <time>2016-01-30T09:51:18.250Z</time>
      </trkpt>
      <trkpt lat="43.62204" lon="5.8314">
        <ele>457</ele>
        <time>2016-01-30T09:51:20.277Z</time>
      </trkpt>
      <trkpt lat="43.62202" lon="5.83143">
        <ele>458</ele>
        <time>2016-01-30T09:51:21.249Z</time>
      </trkpt>
      <trkpt lat="43.62196" lon="5.83147">
        <ele>459</ele>
        <time>2016-01-30T09:51:23.275Z</time>
      </trkpt>
      <trkpt lat="43.62193" lon="5.83148">
        <ele>459</ele>
        <time>2016-01-30T09:51:24.249Z</time>
      </trkpt>
      <trkpt lat="43.62185" lon="5.83147">
        <ele>464</ele>
        <time>2016-01-30T09:51:28.273Z</time>
      </trkpt>
      <trkpt lat="43.62183" lon="5.83147">
        <ele>464</ele>
        <time>2016-01-30T09:51:29.248Z</time>
      </trkpt>
      <trkpt lat="43.62176" lon="5.83154">
        <ele>463</ele>
        <time>2016-01-30T09:51:33.280Z</time>
      </trkpt>
      <trkpt lat="43.62174" lon="5.83155">
        <ele>463</ele>
        <time>2016-01-30T09:51:34.250Z</time>
      </trkpt>
      <trkpt lat="43.6217" lon="5.83165">
        <ele>463</ele>
        <time>2016-01-30T09:51:38.274Z</time>
      </trkpt>
      <trkpt lat="43.62171" lon="5.83168">
        <ele>463</ele>
        <time>2016-01-30T09:51:39.249Z</time>
      </trkpt>
      <trkpt lat="43.62176" lon="5.83176">
        <ele>463</ele>
        <time>2016-01-30T09:51:42.271Z</time>
      </trkpt>
      <trkpt lat="43.62177" lon="5.83176">
        <ele>463</ele>
        <time>2016-01-30T09:51:43.257Z</time>
      </trkpt>
      <trkpt lat="43.62184" lon="5.83172">
        <ele>462</ele>
        <time>2016-01-30T09:51:48.315Z</time>
      </trkpt>
      <trkpt lat="43.62188" lon="5.83172">
        <ele>463</ele>
        <time>2016-01-30T09:51:49.246Z</time>
      </trkpt>
      <trkpt lat="43.62194" lon="5.83177">
        <ele>463</ele>
        <time>2016-01-30T09:51:51.274Z</time>
      </trkpt>
      <trkpt lat="43.62197" lon="5.83181">
        <ele>462</ele>
        <time>2016-01-30T09:51:52.249Z</time>
      </trkpt>
      <trkpt lat="43.62203" lon="5.83189">
        <ele>460</ele>
        <time>2016-01-30T09:51:54.313Z</time>
      </trkpt>
      <trkpt lat="43.62207" lon="5.8319">
        <ele>460</ele>
        <time>2016-01-30T09:51:55.249Z</time>
      </trkpt>
      <trkpt lat="43.62214" lon="5.83191">
        <ele>461</ele>
        <time>2016-01-30T09:51:57.270Z</time>
      </trkpt>
      <trkpt lat="43.62217" lon="5.83193">
        <ele>461</ele>
        <time>2016-01-30T09:51:58.249Z</time>
      </trkpt>
      <trkpt lat="43.62224" lon="5.83193">
        <ele>461</ele>
        <time>2016-01-30T09:52:00.272Z</time>
      </trkpt>
      <trkpt lat="43.62227" lon="5.83191">
        <ele>460</ele>
        <time>2016-01-30T09:52:01.249Z</time>
      </trkpt>
      <trkpt lat="43.62234" lon="5.83187">
        <ele>459</ele>
        <time>2016-01-30T09:52:03.275Z</time>
      </trkpt>
      <trkpt lat="43.62237" lon="5.83186">
        <ele>460</ele>
        <time>2016-01-30T09:52:04.247Z</time>
      </trkpt>
      <trkpt lat="43.62244" lon="5.83189">
        <ele>459</ele>
        <time>2016-01-30T09:52:06.275Z</time>
      </trkpt>
      <trkpt lat="43.62246" lon="5.83192">
        <ele>460</ele>
        <time>2016-01-30T09:52:07.249Z</time>
      </trkpt>
      <trkpt lat="43.62243" lon="5.83204">
        <ele>459</ele>
        <time>2016-01-30T09:52:10.288Z</time>
      </trkpt>
      <trkpt lat="43.62243" lon="5.83208">
        <ele>459</ele>
        <time>2016-01-30T09:52:11.246Z</time>
      </trkpt>
      <trkpt lat="43.62242" lon="5.83218">
        <ele>459</ele>
        <time>2016-01-30T09:52:13.274Z</time>
      </trkpt>
      <trkpt lat="43.62241" lon="5.83223">
        <ele>458</ele>
        <time>2016-01-30T09:52:14.250Z</time>
      </trkpt>
      <trkpt lat="43.62237" lon="5.83233">
        <ele>459</ele>
        <time>2016-01-30T09:52:16.275Z</time>
      </trkpt>
      <trkpt lat="43.62235" lon="5.83236">
        <ele>459</ele>
        <time>2016-01-30T09:52:17.246Z</time>
      </trkpt>
      <trkpt lat="43.62234" lon="5.83247">
        <ele>458</ele>
        <time>2016-01-30T09:52:20.273Z</time>
      </trkpt>
      <trkpt lat="43.62236" lon="5.8325">
        <ele>458</ele>
        <time>2016-01-30T09:52:21.279Z</time>
      </trkpt>
      <trkpt lat="43.62242" lon="5.83254">
        <ele>457</ele>
        <time>2016-01-30T09:52:23.271Z</time>
      </trkpt>
      <trkpt lat="43.62246" lon="5.83252">
        <ele>457</ele>
        <time>2016-01-30T09:52:24.251Z</time>
      </trkpt>
      <trkpt lat="43.62251" lon="5.83246">
        <ele>456</ele>
        <time>2016-01-30T09:52:26.272Z</time>
      </trkpt>
      <trkpt lat="43.62254" lon="5.83244">
        <ele>457</ele>
        <time>2016-01-30T09:52:27.249Z</time>
      </trkpt>
      <trkpt lat="43.62262" lon="5.83245">
        <ele>456</ele>
        <time>2016-01-30T09:52:29.272Z</time>
      </trkpt>
      <trkpt lat="43.62265" lon="5.83245">
        <ele>456</ele>
        <time>2016-01-30T09:52:30.246Z</time>
      </trkpt>
      <trkpt lat="43.62273" lon="5.83246">
        <ele>456</ele>
        <time>2016-01-30T09:52:32.302Z</time>
      </trkpt>
      <trkpt lat="43.62276" lon="5.83248">
        <ele>456</ele>
        <time>2016-01-30T09:52:33.246Z</time>
      </trkpt>
      <trkpt lat="43.6228" lon="5.83254">
        <ele>456</ele>
        <time>2016-01-30T09:52:35.271Z</time>
      </trkpt>
      <trkpt lat="43.62282" lon="5.83258">
        <ele>456</ele>
        <time>2016-01-30T09:52:36.250Z</time>
      </trkpt>
      <trkpt lat="43.62285" lon="5.83266">
        <ele>454</ele>
        <time>2016-01-30T09:52:38.273Z</time>
      </trkpt>
      <trkpt lat="43.62286" lon="5.8327">
        <ele>454</ele>
        <time>2016-01-30T09:52:39.239Z</time>
      </trkpt>
      <trkpt lat="43.62291" lon="5.83277">
        <ele>452</ele>
        <time>2016-01-30T09:52:41.280Z</time>
      </trkpt>
      <trkpt lat="43.62294" lon="5.83279">
        <ele>453</ele>
        <time>2016-01-30T09:52:42.247Z</time>
      </trkpt>
      <trkpt lat="43.62302" lon="5.8328">
        <ele>452</ele>
        <time>2016-01-30T09:52:45.274Z</time>
      </trkpt>
      <trkpt lat="43.62304" lon="5.83281">
        <ele>452</ele>
        <time>2016-01-30T09:52:46.247Z</time>
      </trkpt>
      <trkpt lat="43.62307" lon="5.83289">
        <ele>452</ele>
        <time>2016-01-30T09:52:48.279Z</time>
      </trkpt>
      <trkpt lat="43.62309" lon="5.83292">
        <ele>451</ele>
        <time>2016-01-30T09:52:49.245Z</time>
      </trkpt>
      <trkpt lat="43.62313" lon="5.83298">
        <ele>451</ele>
        <time>2016-01-30T09:52:51.276Z</time>
      </trkpt>
      <trkpt lat="43.62315" lon="5.83302">
        <ele>451</ele>
        <time>2016-01-30T09:52:52.246Z</time>
      </trkpt>
      <trkpt lat="43.62322" lon="5.83303">
        <ele>450</ele>
        <time>2016-01-30T09:52:56.273Z</time>
      </trkpt>
      <trkpt lat="43.62324" lon="5.83303">
        <ele>450</ele>
        <time>2016-01-30T09:52:57.248Z</time>
      </trkpt>
      <trkpt lat="43.6233" lon="5.83311">
        <ele>451</ele>
        <time>2016-01-30T09:53:00.277Z</time>
      </trkpt>
      <trkpt lat="43.62331" lon="5.83314">
        <ele>451</ele>
        <time>2016-01-30T09:53:01.249Z</time>
      </trkpt>
      <trkpt lat="43.62338" lon="5.8332">
        <ele>450</ele>
        <time>2016-01-30T09:53:07.271Z</time>
      </trkpt>
      <trkpt lat="43.62339" lon="5.83322">
        <ele>450</ele>
        <time>2016-01-30T09:53:08.249Z</time>
      </trkpt>
      <trkpt lat="43.62347" lon="5.83329">
        <ele>447</ele>
        <time>2016-01-30T09:53:17.277Z</time>
      </trkpt>
      <trkpt lat="43.62347" lon="5.83329">
        <ele>447</ele>
        <time>2016-01-30T09:53:18.249Z</time>
      </trkpt>
      <trkpt lat="43.62353" lon="5.83336">
        <ele>445</ele>
        <time>2016-01-30T09:53:29.277Z</time>
      </trkpt>
      <trkpt lat="43.62354" lon="5.83337">
        <ele>444</ele>
        <time>2016-01-30T09:53:30.250Z</time>
      </trkpt>
      <trkpt lat="43.62361" lon="5.83346">
        <ele>443</ele>
        <time>2016-01-30T09:53:35.278Z</time>
      </trkpt>
      <trkpt lat="43.62362" lon="5.83348">
        <ele>443</ele>
        <time>2016-01-30T09:53:36.250Z</time>
      </trkpt>
      <trkpt lat="43.62369" lon="5.83352">
        <ele>441</ele>
        <time>2016-01-30T09:53:39.283Z</time>
      </trkpt>
      <trkpt lat="43.62371" lon="5.83354">
        <ele>440</ele>
        <time>2016-01-30T09:53:40.256Z</time>
      </trkpt>
      <trkpt lat="43.62378" lon="5.83361">
        <ele>439</ele>
        <time>2016-01-30T09:53:42.276Z</time>
      </trkpt>
      <trkpt lat="43.62381" lon="5.83365">
        <ele>440</ele>
        <time>2016-01-30T09:53:43.249Z</time>
      </trkpt>
      <trkpt lat="43.62387" lon="5.83371">
        <ele>440</ele>
        <time>2016-01-30T09:53:45.274Z</time>
      </trkpt>
      <trkpt lat="43.62388" lon="5.83376">
        <ele>438</ele>
        <time>2016-01-30T09:53:46.249Z</time>
      </trkpt>
      <trkpt lat="43.62387" lon="5.83388">
        <ele>435</ele>
        <time>2016-01-30T09:53:49.275Z</time>
      </trkpt>
      <trkpt lat="43.62387" lon="5.83391">
        <ele>435</ele>
        <time>2016-01-30T09:53:50.250Z</time>
      </trkpt>
      <trkpt lat="43.62385" lon="5.83402">
        <ele>432</ele>
        <time>2016-01-30T09:53:53.276Z</time>
      </trkpt>
      <trkpt lat="43.62385" lon="5.83406">
        <ele>432</ele>
        <time>2016-01-30T09:53:54.248Z</time>
      </trkpt>
      <trkpt lat="43.62382" lon="5.83416">
        <ele>430</ele>
        <time>2016-01-30T09:53:58.303Z</time>
      </trkpt>
      <trkpt lat="43.62382" lon="5.83418">
        <ele>430</ele>
        <time>2016-01-30T09:53:59.249Z</time>
      </trkpt>
      <trkpt lat="43.62382" lon="5.8343">
        <ele>430</ele>
        <time>2016-01-30T09:54:04.258Z</time>
      </trkpt>
      <trkpt lat="43.62382" lon="5.83433">
        <ele>429</ele>
        <time>2016-01-30T09:54:05.244Z</time>
      </trkpt>
      <trkpt lat="43.62381" lon="5.83444">
        <ele>426</ele>
        <time>2016-01-30T09:54:08.274Z</time>
      </trkpt>
      <trkpt lat="43.62379" lon="5.83447">
        <ele>426</ele>
        <time>2016-01-30T09:54:09.277Z</time>
      </trkpt>
      <trkpt lat="43.62378" lon="5.83459">
        <ele>424</ele>
        <time>2016-01-30T09:54:12.273Z</time>
      </trkpt>
      <trkpt lat="43.62379" lon="5.83464">
        <ele>424</ele>
        <time>2016-01-30T09:54:13.250Z</time>
      </trkpt>
      <trkpt lat="43.62378" lon="5.83473">
        <ele>425</ele>
        <time>2016-01-30T09:54:15.277Z</time>
      </trkpt>
      <trkpt lat="43.62376" lon="5.83476">
        <ele>426</ele>
        <time>2016-01-30T09:54:16.247Z</time>
      </trkpt>
      <trkpt lat="43.62371" lon="5.83483">
        <ele>423</ele>
        <time>2016-01-30T09:54:18.275Z</time>
      </trkpt>
      <trkpt lat="43.6237" lon="5.83488">
        <ele>423</ele>
        <time>2016-01-30T09:54:19.249Z</time>
      </trkpt>
      <trkpt lat="43.62367" lon="5.835">
        <ele>421</ele>
        <time>2016-01-30T09:54:21.271Z</time>
      </trkpt>
      <trkpt lat="43.62366" lon="5.83507">
        <ele>421</ele>
        <time>2016-01-30T09:54:22.250Z</time>
      </trkpt>
      <trkpt lat="43.62365" lon="5.83515">
        <ele>421</ele>
        <time>2016-01-30T09:54:23.275Z</time>
      </trkpt>
      <trkpt lat="43.62366" lon="5.8352">
        <ele>420</ele>
        <time>2016-01-30T09:54:24.250Z</time>
      </trkpt>
      <trkpt lat="43.62367" lon="5.83525">
        <ele>420</ele>
        <time>2016-01-30T09:54:25.273Z</time>
      </trkpt>
      <trkpt lat="43.62369" lon="5.83532">
        <ele>420</ele>
        <time>2016-01-30T09:54:26.249Z</time>
      </trkpt>
      <trkpt lat="43.62372" lon="5.8354">
        <ele>419</ele>
        <time>2016-01-30T09:54:27.274Z</time>
      </trkpt>
      <trkpt lat="43.62373" lon="5.83548">
        <ele>419</ele>
        <time>2016-01-30T09:54:28.246Z</time>
      </trkpt>
      <trkpt lat="43.62374" lon="5.83556">
        <ele>419</ele>
        <time>2016-01-30T09:54:29.274Z</time>
      </trkpt>
      <trkpt lat="43.62375" lon="5.83562">
        <ele>418</ele>
        <time>2016-01-30T09:54:30.249Z</time>
      </trkpt>
      <trkpt lat="43.62378" lon="5.83573">
        <ele>417</ele>
        <time>2016-01-30T09:54:32.271Z</time>
      </trkpt>
      <trkpt lat="43.6238" lon="5.83578">
        <ele>416</ele>
        <time>2016-01-30T09:54:33.250Z</time>
      </trkpt>
      <trkpt lat="43.62382" lon="5.83587">
        <ele>416</ele>
        <time>2016-01-30T09:54:35.273Z</time>
      </trkpt>
      <trkpt lat="43.62382" lon="5.83593">
        <ele>416</ele>
        <time>2016-01-30T09:54:36.249Z</time>
      </trkpt>
      <trkpt lat="43.62381" lon="5.83602">
        <ele>415</ele>
        <time>2016-01-30T09:54:38.274Z</time>
      </trkpt>
      <trkpt lat="43.62381" lon="5.83606">
        <ele>416</ele>
        <time>2016-01-30T09:54:39.249Z</time>
      </trkpt>
      <trkpt lat="43.62375" lon="5.83614">
        <ele>417</ele>
        <time>2016-01-30T09:54:43.271Z</time>
      </trkpt>
      <trkpt lat="43.62374" lon="5.83615">
        <ele>418</ele>
        <time>2016-01-30T09:54:44.248Z</time>
      </trkpt>
      <trkpt lat="43.6237" lon="5.83621">
        <ele>420</ele>
        <time>2016-01-30T09:54:56.274Z</time>
      </trkpt>
      <trkpt lat="43.62369" lon="5.83625">
        <ele>420</ele>
        <time>2016-01-30T09:54:57.249Z</time>
      </trkpt>
      <trkpt lat="43.62368" lon="5.83635">
        <ele>418</ele>
        <time>2016-01-30T09:54:59.271Z</time>
      </trkpt>
      <trkpt lat="43.62369" lon="5.83639">
        <ele>417</ele>
        <time>2016-01-30T09:55:00.239Z</time>
      </trkpt>
      <trkpt lat="43.62377" lon="5.83643">
        <ele>416</ele>
        <time>2016-01-30T09:55:02.273Z</time>
      </trkpt>
      <trkpt lat="43.62381" lon="5.83643">
        <ele>416</ele>
        <time>2016-01-30T09:55:03.250Z</time>
      </trkpt>
      <trkpt lat="43.62389" lon="5.83643">
        <ele>416</ele>
        <time>2016-01-30T09:55:04.271Z</time>
      </trkpt>
      <trkpt lat="43.62394" lon="5.83643">
        <ele>416</ele>
        <time>2016-01-30T09:55:05.249Z</time>
      </trkpt>
      <trkpt lat="43.62401" lon="5.83643">
        <ele>415</ele>
        <time>2016-01-30T09:55:06.274Z</time>
      </trkpt>
      <trkpt lat="43.62407" lon="5.83643">
        <ele>415</ele>
        <time>2016-01-30T09:55:07.249Z</time>
      </trkpt>
      <trkpt lat="43.62412" lon="5.83643">
        <ele>415</ele>
        <time>2016-01-30T09:55:08.264Z</time>
      </trkpt>
      <trkpt lat="43.62418" lon="5.83641">
        <ele>415</ele>
        <time>2016-01-30T09:55:09.249Z</time>
      </trkpt>
      <trkpt lat="43.62425" lon="5.83644">
        <ele>414</ele>
        <time>2016-01-30T09:55:11.273Z</time>
      </trkpt>
      <trkpt lat="43.62431" lon="5.83647">
        <ele>413</ele>
        <time>2016-01-30T09:55:12.252Z</time>
      </trkpt>
      <trkpt lat="43.62435" lon="5.8365">
        <ele>412</ele>
        <time>2016-01-30T09:55:13.276Z</time>
      </trkpt>
      <trkpt lat="43.62441" lon="5.83652">
        <ele>411</ele>
        <time>2016-01-30T09:55:14.252Z</time>
      </trkpt>
      <trkpt lat="43.62447" lon="5.83656">
        <ele>410</ele>
        <time>2016-01-30T09:55:15.274Z</time>
      </trkpt>
      <trkpt lat="43.62451" lon="5.83659">
        <ele>411</ele>
        <time>2016-01-30T09:55:16.249Z</time>
      </trkpt>
      <trkpt lat="43.62455" lon="5.83665">
        <ele>410</ele>
        <time>2016-01-30T09:55:17.276Z</time>
      </trkpt>
      <trkpt lat="43.62455" lon="5.83671">
        <ele>410</ele>
        <time>2016-01-30T09:55:18.250Z</time>
      </trkpt>
      <trkpt lat="43.62457" lon="5.83677">
        <ele>409</ele>
        <time>2016-01-30T09:55:19.369Z</time>
      </trkpt>
      <trkpt lat="43.62458" lon="5.83683">
        <ele>407</ele>
        <time>2016-01-30T09:55:20.246Z</time>
      </trkpt>
      <trkpt lat="43.62458" lon="5.8369">
        <ele>407</ele>
        <time>2016-01-30T09:55:21.275Z</time>
      </trkpt>
      <trkpt lat="43.6246" lon="5.83697">
        <ele>406</ele>
        <time>2016-01-30T09:55:22.250Z</time>
      </trkpt>
      <trkpt lat="43.6246" lon="5.83704">
        <ele>407</ele>
        <time>2016-01-30T09:55:23.274Z</time>
      </trkpt>
      <trkpt lat="43.62461" lon="5.8371">
        <ele>404</ele>
        <time>2016-01-30T09:55:24.250Z</time>
      </trkpt>
      <trkpt lat="43.62462" lon="5.83719">
        <ele>403</ele>
        <time>2016-01-30T09:55:25.274Z</time>
      </trkpt>
      <trkpt lat="43.62462" lon="5.83725">
        <ele>403</ele>
        <time>2016-01-30T09:55:26.251Z</time>
      </trkpt>
      <trkpt lat="43.62463" lon="5.83731">
        <ele>402</ele>
        <time>2016-01-30T09:55:27.274Z</time>
      </trkpt>
      <trkpt lat="43.62463" lon="5.83738">
        <ele>402</ele>
        <time>2016-01-30T09:55:28.250Z</time>
      </trkpt>
      <trkpt lat="43.62466" lon="5.83746">
        <ele>402</ele>
        <time>2016-01-30T09:55:29.274Z</time>
      </trkpt>
      <trkpt lat="43.62468" lon="5.83752">
        <ele>402</ele>
        <time>2016-01-30T09:55:30.280Z</time>
      </trkpt>
      <trkpt lat="43.62473" lon="5.83762">
        <ele>401</ele>
        <time>2016-01-30T09:55:32.272Z</time>
      </trkpt>
      <trkpt lat="43.62476" lon="5.83766">
        <ele>401</ele>
        <time>2016-01-30T09:55:33.249Z</time>
      </trkpt>
      <trkpt lat="43.62483" lon="5.83774">
        <ele>401</ele>
        <time>2016-01-30T09:55:35.274Z</time>
      </trkpt>
      <trkpt lat="43.62486" lon="5.83777">
        <ele>401</ele>
        <time>2016-01-30T09:55:36.250Z</time>
      </trkpt>
      <trkpt lat="43.62495" lon="5.8378">
        <ele>401</ele>
        <time>2016-01-30T09:55:38.270Z</time>
      </trkpt>
      <trkpt lat="43.62498" lon="5.83783">
        <ele>401</ele>
        <time>2016-01-30T09:55:39.250Z</time>
      </trkpt>
      <trkpt lat="43.62501" lon="5.83786">
        <ele>400</ele>
        <time>2016-01-30T09:55:40.278Z</time>
      </trkpt>
      <trkpt lat="43.62505" lon="5.83791">
        <ele>400</ele>
        <time>2016-01-30T09:55:41.245Z</time>
      </trkpt>
      <trkpt lat="43.62508" lon="5.83796">
        <ele>400</ele>
        <time>2016-01-30T09:55:42.273Z</time>
      </trkpt>
      <trkpt lat="43.62512" lon="5.838">
        <ele>400</ele>
        <time>2016-01-30T09:55:43.249Z</time>
      </trkpt>
      <trkpt lat="43.62516" lon="5.83805">
        <ele>401</ele>
        <time>2016-01-30T09:55:44.269Z</time>
      </trkpt>
      <trkpt lat="43.6252" lon="5.83808">
        <ele>400</ele>
        <time>2016-01-30T09:55:45.250Z</time>
      </trkpt>
      <trkpt lat="43.62526" lon="5.8381">
        <ele>399</ele>
        <time>2016-01-30T09:55:46.273Z</time>
      </trkpt>
      <trkpt lat="43.6253" lon="5.83811">
        <ele>400</ele>
        <time>2016-01-30T09:55:47.250Z</time>
      </trkpt>
      <trkpt lat="43.62536" lon="5.83812">
        <ele>399</ele>
        <time>2016-01-30T09:55:48.274Z</time>
      </trkpt>
      <trkpt lat="43.6254" lon="5.83815">
        <ele>399</ele>
        <time>2016-01-30T09:55:49.249Z</time>
      </trkpt>
      <trkpt lat="43.62545" lon="5.83817">
        <ele>399</ele>
        <time>2016-01-30T09:55:50.278Z</time>
      </trkpt>
      <trkpt lat="43.6255" lon="5.83819">
        <ele>399</ele>
        <time>2016-01-30T09:55:51.250Z</time>
      </trkpt>
      <trkpt lat="43.62555" lon="5.83822">
        <ele>398</ele>
        <time>2016-01-30T09:55:52.270Z</time>
      </trkpt>
      <trkpt lat="43.62559" lon="5.83824">
        <ele>399</ele>
        <time>2016-01-30T09:55:53.250Z</time>
      </trkpt>
      <trkpt lat="43.62563" lon="5.83826">
        <ele>400</ele>
        <time>2016-01-30T09:55:54.274Z</time>
      </trkpt>
      <trkpt lat="43.62568" lon="5.83828">
        <ele>400</ele>
        <time>2016-01-30T09:55:55.249Z</time>
      </trkpt>
      <trkpt lat="43.62576" lon="5.83831">
        <ele>398</ele>
        <time>2016-01-30T09:55:57.303Z</time>
      </trkpt>
      <trkpt lat="43.6258" lon="5.83832">
        <ele>399</ele>
        <time>2016-01-30T09:55:58.240Z</time>
      </trkpt>
      <trkpt lat="43.62589" lon="5.83831">
        <ele>400</ele>
        <time>2016-01-30T09:56:00.276Z</time>
      </trkpt>
      <trkpt lat="43.62592" lon="5.83829">
        <ele>400</ele>
        <time>2016-01-30T09:56:01.251Z</time>
      </trkpt>
      <trkpt lat="43.626" lon="5.83824">
        <ele>401</ele>
        <time>2016-01-30T09:56:03.276Z</time>
      </trkpt>
      <trkpt lat="43.62605" lon="5.8382">
        <ele>401</ele>
        <time>2016-01-30T09:56:04.250Z</time>
      </trkpt>
      <trkpt lat="43.62611" lon="5.83816">
        <ele>403</ele>
        <time>2016-01-30T09:56:05.274Z</time>
      </trkpt>
      <trkpt lat="43.62615" lon="5.83811">
        <ele>402</ele>
        <time>2016-01-30T09:56:06.250Z</time>
      </trkpt>
      <trkpt lat="43.6262" lon="5.83807">
        <ele>402</ele>
        <time>2016-01-30T09:56:07.274Z</time>
      </trkpt>
      <trkpt lat="43.62624" lon="5.83802">
        <ele>402</ele>
        <time>2016-01-30T09:56:08.278Z</time>
      </trkpt>
      <trkpt lat="43.62627" lon="5.83796">
        <ele>401</ele>
        <time>2016-01-30T09:56:09.276Z</time>
      </trkpt>
      <trkpt lat="43.62631" lon="5.83787">
        <ele>399</ele>
        <time>2016-01-30T09:56:10.250Z</time>
      </trkpt>
      <trkpt lat="43.62634" lon="5.83781">
        <ele>400</ele>
        <time>2016-01-30T09:56:11.275Z</time>
      </trkpt>
      <trkpt lat="43.62637" lon="5.83774">
        <ele>400</ele>
        <time>2016-01-30T09:56:12.249Z</time>
      </trkpt>
      <trkpt lat="43.62638" lon="5.83767">
        <ele>400</ele>
        <time>2016-01-30T09:56:13.276Z</time>
      </trkpt>
      <trkpt lat="43.62641" lon="5.83761">
        <ele>401</ele>
        <time>2016-01-30T09:56:14.250Z</time>
      </trkpt>
      <trkpt lat="43.62643" lon="5.83754">
        <ele>400</ele>
        <time>2016-01-30T09:56:15.263Z</time>
      </trkpt>
      <trkpt lat="43.62646" lon="5.83746">
        <ele>399</ele>
        <time>2016-01-30T09:56:16.246Z</time>
      </trkpt>
      <trkpt lat="43.62651" lon="5.83742">
        <ele>399</ele>
        <time>2016-01-30T09:56:17.273Z</time>
      </trkpt>
      <trkpt lat="43.62655" lon="5.83734">
        <ele>398</ele>
        <time>2016-01-30T09:56:18.249Z</time>
      </trkpt>
      <trkpt lat="43.62659" lon="5.83729">
        <ele>397</ele>
        <time>2016-01-30T09:56:19.303Z</time>
      </trkpt>
      <trkpt lat="43.62662" lon="5.83722">
        <ele>398</ele>
        <time>2016-01-30T09:56:20.250Z</time>
      </trkpt>
      <trkpt lat="43.62666" lon="5.83716">
        <ele>398</ele>
        <time>2016-01-30T09:56:21.274Z</time>
      </trkpt>
      <trkpt lat="43.62668" lon="5.8371">
        <ele>399</ele>
        <time>2016-01-30T09:56:22.241Z</time>
      </trkpt>
      <trkpt lat="43.62671" lon="5.83704">
        <ele>397</ele>
        <time>2016-01-30T09:56:23.274Z</time>
      </trkpt>
      <trkpt lat="43.62675" lon="5.83699">
        <ele>397</ele>
        <time>2016-01-30T09:56:24.250Z</time>
      </trkpt>
      <trkpt lat="43.62679" lon="5.83693">
        <ele>396</ele>
        <time>2016-01-30T09:56:25.275Z</time>
      </trkpt>
      <trkpt lat="43.62682" lon="5.83687">
        <ele>396</ele>
        <time>2016-01-30T09:56:26.476Z</time>
      </trkpt>
      <trkpt lat="43.62686" lon="5.83683">
        <ele>397</ele>
        <time>2016-01-30T09:56:27.274Z</time>
      </trkpt>
      <trkpt lat="43.6269" lon="5.83678">
        <ele>398</ele>
        <time>2016-01-30T09:56:28.250Z</time>
      </trkpt>
      <trkpt lat="43.62694" lon="5.83672">
        <ele>398</ele>
        <time>2016-01-30T09:56:29.275Z</time>
      </trkpt>
      <trkpt lat="43.62699" lon="5.83667">
        <ele>398</ele>
        <time>2016-01-30T09:56:30.249Z</time>
      </trkpt>
      <trkpt lat="43.62701" lon="5.8366">
        <ele>398</ele>
        <time>2016-01-30T09:56:31.275Z</time>
      </trkpt>
      <trkpt lat="43.62702" lon="5.83653">
        <ele>398</ele>
        <time>2016-01-30T09:56:32.249Z</time>
      </trkpt>
      <trkpt lat="43.62708" lon="5.83648">
        <ele>401</ele>
        <time>2016-01-30T09:56:33.274Z</time>
      </trkpt>
      <trkpt lat="43.62709" lon="5.83642">
        <ele>400</ele>
        <time>2016-01-30T09:56:34.250Z</time>
      </trkpt>
      <trkpt lat="43.62714" lon="5.83636">
        <ele>400</ele>
        <time>2016-01-30T09:56:35.371Z</time>
      </trkpt>
      <trkpt lat="43.62716" lon="5.8363">
        <ele>400</ele>
        <time>2016-01-30T09:56:36.246Z</time>
      </trkpt>
      <trkpt lat="43.62717" lon="5.83622">
        <ele>401</ele>
        <time>2016-01-30T09:56:37.494Z</time>
      </trkpt>
      <trkpt lat="43.62718" lon="5.83616">
        <ele>402</ele>
        <time>2016-01-30T09:56:38.251Z</time>
      </trkpt>
      <trkpt lat="43.62718" lon="5.83609">
        <ele>402</ele>
        <time>2016-01-30T09:56:39.274Z</time>
      </trkpt>
      <trkpt lat="43.62719" lon="5.83602">
        <ele>401</ele>
        <time>2016-01-30T09:56:40.251Z</time>
      </trkpt>
      <trkpt lat="43.6272" lon="5.83595">
        <ele>401</ele>
        <time>2016-01-30T09:56:41.257Z</time>
      </trkpt>
      <trkpt lat="43.62721" lon="5.83588">
        <ele>401</ele>
        <time>2016-01-30T09:56:42.250Z</time>
      </trkpt>
      <trkpt lat="43.62724" lon="5.83581">
        <ele>401</ele>
        <time>2016-01-30T09:56:43.275Z</time>
      </trkpt>
      <trkpt lat="43.62726" lon="5.83574">
        <ele>400</ele>
        <time>2016-01-30T09:56:44.250Z</time>
      </trkpt>
      <trkpt lat="43.62729" lon="5.83567">
        <ele>400</ele>
        <time>2016-01-30T09:56:45.275Z</time>
      </trkpt>
      <trkpt lat="43.62731" lon="5.83561">
        <ele>399</ele>
        <time>2016-01-30T09:56:46.250Z</time>
      </trkpt>
      <trkpt lat="43.62732" lon="5.83554">
        <ele>399</ele>
        <time>2016-01-30T09:56:47.275Z</time>
      </trkpt>
      <trkpt lat="43.62735" lon="5.83546">
        <ele>398</ele>
        <time>2016-01-30T09:56:48.251Z</time>
      </trkpt>
      <trkpt lat="43.62738" lon="5.83541">
        <ele>398</ele>
        <time>2016-01-30T09:56:49.297Z</time>
      </trkpt>
      <trkpt lat="43.6274" lon="5.83533">
        <ele>397</ele>
        <time>2016-01-30T09:56:50.250Z</time>
      </trkpt>
      <trkpt lat="43.62743" lon="5.83527">
        <ele>397</ele>
        <time>2016-01-30T09:56:51.302Z</time>
      </trkpt>
      <trkpt lat="43.62745" lon="5.8352">
        <ele>396</ele>
        <time>2016-01-30T09:56:52.250Z</time>
      </trkpt>
      <trkpt lat="43.62748" lon="5.83515">
        <ele>396</ele>
        <time>2016-01-30T09:56:53.275Z</time>
      </trkpt>
      <trkpt lat="43.62752" lon="5.83511">
        <ele>396</ele>
        <time>2016-01-30T09:56:54.247Z</time>
      </trkpt>
      <trkpt lat="43.62755" lon="5.83507">
        <ele>395</ele>
        <time>2016-01-30T09:56:55.275Z</time>
      </trkpt>
      <trkpt lat="43.62761" lon="5.83504">
        <ele>395</ele>
        <time>2016-01-30T09:56:56.250Z</time>
      </trkpt>
      <trkpt lat="43.62768" lon="5.835">
        <ele>394</ele>
        <time>2016-01-30T09:56:58.276Z</time>
      </trkpt>
      <trkpt lat="43.62772" lon="5.83497">
        <ele>394</ele>
        <time>2016-01-30T09:56:59.250Z</time>
      </trkpt>
      <trkpt lat="43.62776" lon="5.83495">
        <ele>393</ele>
        <time>2016-01-30T09:57:00.285Z</time>
      </trkpt>
      <trkpt lat="43.62781" lon="5.83493">
        <ele>393</ele>
        <time>2016-01-30T09:57:01.246Z</time>
      </trkpt>
      <trkpt lat="43.62789" lon="5.83489">
        <ele>394</ele>
        <time>2016-01-30T09:57:03.259Z</time>
      </trkpt>
      <trkpt lat="43.62792" lon="5.83485">
        <ele>394</ele>
        <time>2016-01-30T09:57:04.248Z</time>
      </trkpt>
      <trkpt lat="43.62798" lon="5.83479">
        <ele>395</ele>
        <time>2016-01-30T09:57:06.276Z</time>
      </trkpt>
      <trkpt lat="43.62802" lon="5.83478">
        <ele>394</ele>
        <time>2016-01-30T09:57:07.250Z</time>
      </trkpt>
      <trkpt lat="43.62808" lon="5.83478">
        <ele>394</ele>
        <time>2016-01-30T09:57:09.273Z</time>
      </trkpt>
      <trkpt lat="43.62812" lon="5.8348">
        <ele>394</ele>
        <time>2016-01-30T09:57:10.251Z</time>
      </trkpt>
      <trkpt lat="43.62817" lon="5.8348">
        <ele>393</ele>
        <time>2016-01-30T09:57:11.275Z</time>
      </trkpt>
      <trkpt lat="43.62821" lon="5.8348">
        <ele>393</ele>
        <time>2016-01-30T09:57:12.252Z</time>
      </trkpt>
      <trkpt lat="43.6283" lon="5.8348">
        <ele>393</ele>
        <time>2016-01-30T09:57:14.279Z</time>
      </trkpt>
      <trkpt lat="43.62834" lon="5.83481">
        <ele>393</ele>
        <time>2016-01-30T09:57:15.251Z</time>
      </trkpt>
      <trkpt lat="43.62838" lon="5.83487">
        <ele>393</ele>
        <time>2016-01-30T09:57:16.261Z</time>
      </trkpt>
      <trkpt lat="43.62842" lon="5.83491">
        <ele>392</ele>
        <time>2016-01-30T09:57:17.251Z</time>
      </trkpt>
      <trkpt lat="43.62848" lon="5.835">
        <ele>392</ele>
        <time>2016-01-30T09:57:19.272Z</time>
      </trkpt>
      <trkpt lat="43.62852" lon="5.83504">
        <ele>392</ele>
        <time>2016-01-30T09:57:20.251Z</time>
      </trkpt>
      <trkpt lat="43.62858" lon="5.83511">
        <ele>392</ele>
        <time>2016-01-30T09:57:22.505Z</time>
      </trkpt>
      <trkpt lat="43.62861" lon="5.83515">
        <ele>391</ele>
        <time>2016-01-30T09:57:23.250Z</time>
      </trkpt>
      <trkpt lat="43.62865" lon="5.83518">
        <ele>391</ele>
        <time>2016-01-30T09:57:24.276Z</time>
      </trkpt>
      <trkpt lat="43.6287" lon="5.83522">
        <ele>391</ele>
        <time>2016-01-30T09:57:25.250Z</time>
      </trkpt>
      <trkpt lat="43.62875" lon="5.83522">
        <ele>391</ele>
        <time>2016-01-30T09:57:26.275Z</time>
      </trkpt>
      <trkpt lat="43.6288" lon="5.83521">
        <ele>389</ele>
        <time>2016-01-30T09:57:27.250Z</time>
      </trkpt>
      <trkpt lat="43.62888" lon="5.83526">
        <ele>389</ele>
        <time>2016-01-30T09:57:29.277Z</time>
      </trkpt>
      <trkpt lat="43.62892" lon="5.83531">
        <ele>388</ele>
        <time>2016-01-30T09:57:30.249Z</time>
      </trkpt>
      <trkpt lat="43.62898" lon="5.83539">
        <ele>388</ele>
        <time>2016-01-30T09:57:32.271Z</time>
      </trkpt>
      <trkpt lat="43.62902" lon="5.83543">
        <ele>388</ele>
        <time>2016-01-30T09:57:33.246Z</time>
      </trkpt>
      <trkpt lat="43.62911" lon="5.83544">
        <ele>388</ele>
        <time>2016-01-30T09:57:35.276Z</time>
      </trkpt>
      <trkpt lat="43.62915" lon="5.83543">
        <ele>388</ele>
        <time>2016-01-30T09:57:36.247Z</time>
      </trkpt>
      <trkpt lat="43.6292" lon="5.83542">
        <ele>388</ele>
        <time>2016-01-30T09:57:37.271Z</time>
      </trkpt>
      <trkpt lat="43.62925" lon="5.8354">
        <ele>388</ele>
        <time>2016-01-30T09:57:38.250Z</time>
      </trkpt>
      <trkpt lat="43.62929" lon="5.83538">
        <ele>388</ele>
        <time>2016-01-30T09:57:39.274Z</time>
      </trkpt>
      <trkpt lat="43.62933" lon="5.83537">
        <ele>388</ele>
        <time>2016-01-30T09:57:40.250Z</time>
      </trkpt>
      <trkpt lat="43.62942" lon="5.83534">
        <ele>387</ele>
        <time>2016-01-30T09:57:42.276Z</time>
      </trkpt>
      <trkpt lat="43.62946" lon="5.83534">
        <ele>388</ele>
        <time>2016-01-30T09:57:43.246Z</time>
      </trkpt>
      <trkpt lat="43.62954" lon="5.83531">
        <ele>387</ele>
        <time>2016-01-30T09:57:45.314Z</time>
      </trkpt>
      <trkpt lat="43.62958" lon="5.8353">
        <ele>387</ele>
        <time>2016-01-30T09:57:46.250Z</time>
      </trkpt>
      <trkpt lat="43.62966" lon="5.83528">
        <ele>387</ele>
        <time>2016-01-30T09:57:48.275Z</time>
      </trkpt>
      <trkpt lat="43.62969" lon="5.83526">
        <ele>387</ele>
        <time>2016-01-30T09:57:49.250Z</time>
      </trkpt>
      <trkpt lat="43.62969" lon="5.83537">
        <ele>386</ele>
        <time>2016-01-30T09:57:55.272Z</time>
      </trkpt>
      <trkpt lat="43.62967" lon="5.83539">
        <ele>386</ele>
        <time>2016-01-30T09:57:56.278Z</time>
      </trkpt>
      <trkpt lat="43.62962" lon="5.83545">
        <ele>388</ele>
        <time>2016-01-30T10:03:11.274Z</time>
      </trkpt>
      <trkpt lat="43.6296" lon="5.83547">
        <ele>388</ele>
        <time>2016-01-30T10:03:12.252Z</time>
      </trkpt>
      <trkpt lat="43.62955" lon="5.83555">
        <ele>387</ele>
        <time>2016-01-30T10:03:16.276Z</time>
      </trkpt>
      <trkpt lat="43.62953" lon="5.83557">
        <ele>388</ele>
        <time>2016-01-30T10:03:17.252Z</time>
      </trkpt>
      <trkpt lat="43.62948" lon="5.83566">
        <ele>387</ele>
        <time>2016-01-30T10:03:22.275Z</time>
      </trkpt>
      <trkpt lat="43.62947" lon="5.83569">
        <ele>387</ele>
        <time>2016-01-30T10:03:23.253Z</time>
      </trkpt>
      <trkpt lat="43.62944" lon="5.8358">
        <ele>387</ele>
        <time>2016-01-30T10:03:27.277Z</time>
      </trkpt>
      <trkpt lat="43.62944" lon="5.83583">
        <ele>387</ele>
        <time>2016-01-30T10:03:28.264Z</time>
      </trkpt>
      <trkpt lat="43.62944" lon="5.83592">
        <ele>387</ele>
        <time>2016-01-30T10:03:31.278Z</time>
      </trkpt>
      <trkpt lat="43.62945" lon="5.83595">
        <ele>386</ele>
        <time>2016-01-30T10:03:32.280Z</time>
      </trkpt>
      <trkpt lat="43.6295" lon="5.83605">
        <ele>386</ele>
        <time>2016-01-30T10:03:35.277Z</time>
      </trkpt>
      <trkpt lat="43.62952" lon="5.83609">
        <ele>386</ele>
        <time>2016-01-30T10:03:36.252Z</time>
      </trkpt>
      <trkpt lat="43.62955" lon="5.83616">
        <ele>385</ele>
        <time>2016-01-30T10:03:38.277Z</time>
      </trkpt>
      <trkpt lat="43.62957" lon="5.83619">
        <ele>385</ele>
        <time>2016-01-30T10:03:39.253Z</time>
      </trkpt>
      <trkpt lat="43.62961" lon="5.83625">
        <ele>385</ele>
        <time>2016-01-30T10:03:41.276Z</time>
      </trkpt>
      <trkpt lat="43.62963" lon="5.83628">
        <ele>385</ele>
        <time>2016-01-30T10:03:42.252Z</time>
      </trkpt>
      <trkpt lat="43.62969" lon="5.83636">
        <ele>385</ele>
        <time>2016-01-30T10:03:44.277Z</time>
      </trkpt>
      <trkpt lat="43.62971" lon="5.8364">
        <ele>385</ele>
        <time>2016-01-30T10:03:45.253Z</time>
      </trkpt>
      <trkpt lat="43.62975" lon="5.83648">
        <ele>384</ele>
        <time>2016-01-30T10:03:47.276Z</time>
      </trkpt>
      <trkpt lat="43.62977" lon="5.83652">
        <ele>384</ele>
        <time>2016-01-30T10:03:48.248Z</time>
      </trkpt>
      <trkpt lat="43.6298" lon="5.83661">
        <ele>383</ele>
        <time>2016-01-30T10:03:50.323Z</time>
      </trkpt>
      <trkpt lat="43.62981" lon="5.83665">
        <ele>383</ele>
        <time>2016-01-30T10:03:51.249Z</time>
      </trkpt>
      <trkpt lat="43.62984" lon="5.83674">
        <ele>383</ele>
        <time>2016-01-30T10:03:53.262Z</time>
      </trkpt>
      <trkpt lat="43.62986" lon="5.83679">
        <ele>383</ele>
        <time>2016-01-30T10:03:54.248Z</time>
      </trkpt>
      <trkpt lat="43.62988" lon="5.83688">
        <ele>382</ele>
        <time>2016-01-30T10:03:56.278Z</time>
      </trkpt>
      <trkpt lat="43.62989" lon="5.83694">
        <ele>382</ele>
        <time>2016-01-30T10:03:57.252Z</time>
      </trkpt>
      <trkpt lat="43.62992" lon="5.83703">
        <ele>382</ele>
        <time>2016-01-30T10:03:59.319Z</time>
      </trkpt>
      <trkpt lat="43.62993" lon="5.83708">
        <ele>382</ele>
        <time>2016-01-30T10:04:00.242Z</time>
      </trkpt>
      <trkpt lat="43.62995" lon="5.83718">
        <ele>381</ele>
        <time>2016-01-30T10:04:02.277Z</time>
      </trkpt>
      <trkpt lat="43.62996" lon="5.83723">
        <ele>381</ele>
        <time>2016-01-30T10:04:03.252Z</time>
      </trkpt>
      <trkpt lat="43.62998" lon="5.83734">
        <ele>381</ele>
        <time>2016-01-30T10:04:05.278Z</time>
      </trkpt>
      <trkpt lat="43.62999" lon="5.83739">
        <ele>381</ele>
        <time>2016-01-30T10:04:06.253Z</time>
      </trkpt>
      <trkpt lat="43.63" lon="5.8375">
        <ele>380</ele>
        <time>2016-01-30T10:04:08.273Z</time>
      </trkpt>
      <trkpt lat="43.63" lon="5.83755">
        <ele>380</ele>
        <time>2016-01-30T10:04:09.253Z</time>
      </trkpt>
      <trkpt lat="43.63001" lon="5.83766">
        <ele>380</ele>
        <time>2016-01-30T10:04:11.277Z</time>
      </trkpt>
      <trkpt lat="43.63001" lon="5.83771">
        <ele>381</ele>
        <time>2016-01-30T10:04:12.253Z</time>
      </trkpt>
      <trkpt lat="43.63" lon="5.83782">
        <ele>380</ele>
        <time>2016-01-30T10:04:14.278Z</time>
      </trkpt>
      <trkpt lat="43.62999" lon="5.83787">
        <ele>381</ele>
        <time>2016-01-30T10:04:15.253Z</time>
      </trkpt>
      <trkpt lat="43.62997" lon="5.83796">
        <ele>381</ele>
        <time>2016-01-30T10:04:17.278Z</time>
      </trkpt>
      <trkpt lat="43.62996" lon="5.838">
        <ele>381</ele>
        <time>2016-01-30T10:04:18.253Z</time>
      </trkpt>
      <trkpt lat="43.62994" lon="5.83809">
        <ele>381</ele>
        <time>2016-01-30T10:04:20.279Z</time>
      </trkpt>
      <trkpt lat="43.62993" lon="5.83813">
        <ele>381</ele>
        <time>2016-01-30T10:04:21.248Z</time>
      </trkpt>
      <trkpt lat="43.6299" lon="5.83821">
        <ele>381</ele>
        <time>2016-01-30T10:04:23.274Z</time>
      </trkpt>
      <trkpt lat="43.62988" lon="5.83826">
        <ele>380</ele>
        <time>2016-01-30T10:04:24.252Z</time>
      </trkpt>
      <trkpt lat="43.62984" lon="5.83836">
        <ele>381</ele>
        <time>2016-01-30T10:04:27.278Z</time>
      </trkpt>
      <trkpt lat="43.62983" lon="5.83839">
        <ele>380</ele>
        <time>2016-01-30T10:04:28.243Z</time>
      </trkpt>
      <trkpt lat="43.6298" lon="5.83847">
        <ele>381</ele>
        <time>2016-01-30T10:04:30.278Z</time>
      </trkpt>
      <trkpt lat="43.62979" lon="5.8385">
        <ele>381</ele>
        <time>2016-01-30T10:04:31.279Z</time>
      </trkpt>
      <trkpt lat="43.62976" lon="5.83858">
        <ele>381</ele>
        <time>2016-01-30T10:04:33.280Z</time>
      </trkpt>
      <trkpt lat="43.62974" lon="5.83862">
        <ele>381</ele>
        <time>2016-01-30T10:04:34.254Z</time>
      </trkpt>
      <trkpt lat="43.6297" lon="5.83869">
        <ele>381</ele>
        <time>2016-01-30T10:04:36.279Z</time>
      </trkpt>
      <trkpt lat="43.62967" lon="5.83872">
        <ele>382</ele>
        <time>2016-01-30T10:04:37.254Z</time>
      </trkpt>
      <trkpt lat="43.62962" lon="5.83878">
        <ele>382</ele>
        <time>2016-01-30T10:04:39.280Z</time>
      </trkpt>
      <trkpt lat="43.6296" lon="5.83881">
        <ele>381</ele>
        <time>2016-01-30T10:04:40.254Z</time>
      </trkpt>
      <trkpt lat="43.62957" lon="5.8389">
        <ele>382</ele>
        <time>2016-01-30T10:04:42.314Z</time>
      </trkpt>
      <trkpt lat="43.62956" lon="5.83894">
        <ele>381</ele>
        <time>2016-01-30T10:04:43.252Z</time>
      </trkpt>
      <trkpt lat="43.62954" lon="5.83903">
        <ele>381</ele>
        <time>2016-01-30T10:04:45.279Z</time>
      </trkpt>
      <trkpt lat="43.62952" lon="5.83907">
        <ele>381</ele>
        <time>2016-01-30T10:04:46.249Z</time>
      </trkpt>
      <trkpt lat="43.62947" lon="5.83914">
        <ele>381</ele>
        <time>2016-01-30T10:04:48.274Z</time>
      </trkpt>
      <trkpt lat="43.62945" lon="5.83918">
        <ele>381</ele>
        <time>2016-01-30T10:04:49.253Z</time>
      </trkpt>
      <trkpt lat="43.62943" lon="5.83927">
        <ele>382</ele>
        <time>2016-01-30T10:04:51.278Z</time>
      </trkpt>
      <trkpt lat="43.62943" lon="5.83932">
        <ele>382</ele>
        <time>2016-01-30T10:04:52.253Z</time>
      </trkpt>
      <trkpt lat="43.62943" lon="5.83941">
        <ele>381</ele>
        <time>2016-01-30T10:04:54.274Z</time>
      </trkpt>
      <trkpt lat="43.62944" lon="5.83946">
        <ele>381</ele>
        <time>2016-01-30T10:04:55.252Z</time>
      </trkpt>
      <trkpt lat="43.62944" lon="5.83956">
        <ele>382</ele>
        <time>2016-01-30T10:04:57.274Z</time>
      </trkpt>
      <trkpt lat="43.62945" lon="5.83961">
        <ele>382</ele>
        <time>2016-01-30T10:04:58.253Z</time>
      </trkpt>
      <trkpt lat="43.62947" lon="5.83971">
        <ele>382</ele>
        <time>2016-01-30T10:05:00.278Z</time>
      </trkpt>
      <trkpt lat="43.62947" lon="5.83976">
        <ele>382</ele>
        <time>2016-01-30T10:05:01.253Z</time>
      </trkpt>
      <trkpt lat="43.62948" lon="5.83985">
        <ele>382</ele>
        <time>2016-01-30T10:05:03.279Z</time>
      </trkpt>
      <trkpt lat="43.62948" lon="5.83991">
        <ele>382</ele>
        <time>2016-01-30T10:05:04.281Z</time>
      </trkpt>
      <trkpt lat="43.62947" lon="5.84002">
        <ele>382</ele>
        <time>2016-01-30T10:05:06.278Z</time>
      </trkpt>
      <trkpt lat="43.62945" lon="5.84007">
        <ele>382</ele>
        <time>2016-01-30T10:05:07.245Z</time>
      </trkpt>
      <trkpt lat="43.62941" lon="5.84018">
        <ele>382</ele>
        <time>2016-01-30T10:05:09.277Z</time>
      </trkpt>
      <trkpt lat="43.62939" lon="5.84022">
        <ele>382</ele>
        <time>2016-01-30T10:05:10.255Z</time>
      </trkpt>
      <trkpt lat="43.62936" lon="5.84032">
        <ele>383</ele>
        <time>2016-01-30T10:05:12.284Z</time>
      </trkpt>
      <trkpt lat="43.62935" lon="5.84036">
        <ele>383</ele>
        <time>2016-01-30T10:05:13.253Z</time>
      </trkpt>
      <trkpt lat="43.62933" lon="5.84044">
        <ele>383</ele>
        <time>2016-01-30T10:05:15.315Z</time>
      </trkpt>
      <trkpt lat="43.62933" lon="5.84049">
        <ele>383</ele>
        <time>2016-01-30T10:05:16.253Z</time>
      </trkpt>
      <trkpt lat="43.62933" lon="5.84058">
        <ele>383</ele>
        <time>2016-01-30T10:05:18.279Z</time>
      </trkpt>
      <trkpt lat="43.62935" lon="5.84062">
        <ele>383</ele>
        <time>2016-01-30T10:05:19.243Z</time>
      </trkpt>
      <trkpt lat="43.62935" lon="5.84072">
        <ele>383</ele>
        <time>2016-01-30T10:05:21.278Z</time>
      </trkpt>
      <trkpt lat="43.62935" lon="5.84077">
        <ele>384</ele>
        <time>2016-01-30T10:05:22.251Z</time>
      </trkpt>
      <trkpt lat="43.62934" lon="5.84086">
        <ele>383</ele>
        <time>2016-01-30T10:05:24.279Z</time>
      </trkpt>
      <trkpt lat="43.62934" lon="5.84092">
        <ele>383</ele>
        <time>2016-01-30T10:05:25.253Z</time>
      </trkpt>
      <trkpt lat="43.62935" lon="5.84101">
        <ele>383</ele>
        <time>2016-01-30T10:05:27.300Z</time>
      </trkpt>
      <trkpt lat="43.62936" lon="5.84106">
        <ele>382</ele>
        <time>2016-01-30T10:05:28.253Z</time>
      </trkpt>
      <trkpt lat="43.62939" lon="5.84115">
        <ele>382</ele>
        <time>2016-01-30T10:05:30.278Z</time>
      </trkpt>
      <trkpt lat="43.6294" lon="5.8412">
        <ele>382</ele>
        <time>2016-01-30T10:05:31.252Z</time>
      </trkpt>
      <trkpt lat="43.62942" lon="5.84131">
        <ele>382</ele>
        <time>2016-01-30T10:05:33.278Z</time>
      </trkpt>
      <trkpt lat="43.62942" lon="5.84137">
        <ele>382</ele>
        <time>2016-01-30T10:05:34.252Z</time>
      </trkpt>
      <trkpt lat="43.62941" lon="5.84148">
        <ele>383</ele>
        <time>2016-01-30T10:05:36.277Z</time>
      </trkpt>
      <trkpt lat="43.6294" lon="5.84153">
        <ele>383</ele>
        <time>2016-01-30T10:05:37.253Z</time>
      </trkpt>
      <trkpt lat="43.62937" lon="5.84162">
        <ele>384</ele>
        <time>2016-01-30T10:05:39.345Z</time>
      </trkpt>
      <trkpt lat="43.62936" lon="5.84164">
        <ele>384</ele>
        <time>2016-01-30T10:05:40.249Z</time>
      </trkpt>
      <trkpt lat="43.6293" lon="5.8417">
        <ele>384</ele>
        <time>2016-01-30T10:05:43.364Z</time>
      </trkpt>
      <trkpt lat="43.62928" lon="5.84172">
        <ele>384</ele>
        <time>2016-01-30T10:05:44.254Z</time>
      </trkpt>
      <trkpt lat="43.62922" lon="5.8418">
        <ele>385</ele>
        <time>2016-01-30T10:05:49.274Z</time>
      </trkpt>
      <trkpt lat="43.6292" lon="5.84182">
        <ele>385</ele>
        <time>2016-01-30T10:05:50.253Z</time>
      </trkpt>
      <trkpt lat="43.62913" lon="5.84188">
        <ele>386</ele>
        <time>2016-01-30T10:05:55.275Z</time>
      </trkpt>
      <trkpt lat="43.62911" lon="5.84189">
        <ele>386</ele>
        <time>2016-01-30T10:05:56.254Z</time>
      </trkpt>
      <trkpt lat="43.62903" lon="5.84193">
        <ele>386</ele>
        <time>2016-01-30T10:06:01.278Z</time>
      </trkpt>
      <trkpt lat="43.62902" lon="5.84195">
        <ele>387</ele>
        <time>2016-01-30T10:06:02.253Z</time>
      </trkpt>
      <trkpt lat="43.62896" lon="5.84202">
        <ele>387</ele>
        <time>2016-01-30T10:06:07.268Z</time>
      </trkpt>
      <trkpt lat="43.62895" lon="5.84203">
        <ele>387</ele>
        <time>2016-01-30T10:06:08.249Z</time>
      </trkpt>
      <trkpt lat="43.62888" lon="5.8421">
        <ele>388</ele>
        <time>2016-01-30T10:06:13.277Z</time>
      </trkpt>
      <trkpt lat="43.62886" lon="5.84211">
        <ele>388</ele>
        <time>2016-01-30T10:06:14.255Z</time>
      </trkpt>
      <trkpt lat="43.62879" lon="5.84217">
        <ele>390</ele>
        <time>2016-01-30T10:06:19.278Z</time>
      </trkpt>
      <trkpt lat="43.62877" lon="5.84218">
        <ele>390</ele>
        <time>2016-01-30T10:06:20.253Z</time>
      </trkpt>
      <trkpt lat="43.62872" lon="5.84226">
        <ele>390</ele>
        <time>2016-01-30T10:06:24.279Z</time>
      </trkpt>
      <trkpt lat="43.62871" lon="5.84228">
        <ele>391</ele>
        <time>2016-01-30T10:06:25.268Z</time>
      </trkpt>
      <trkpt lat="43.62868" lon="5.84236">
        <ele>391</ele>
        <time>2016-01-30T10:06:28.279Z</time>
      </trkpt>
      <trkpt lat="43.62866" lon="5.84238">
        <ele>390</ele>
        <time>2016-01-30T10:06:29.254Z</time>
      </trkpt>
      <trkpt lat="43.6286" lon="5.84245">
        <ele>391</ele>
        <time>2016-01-30T10:06:33.277Z</time>
      </trkpt>
      <trkpt lat="43.62858" lon="5.84247">
        <ele>391</ele>
        <time>2016-01-30T10:06:34.255Z</time>
      </trkpt>
      <trkpt lat="43.62855" lon="5.84256">
        <ele>392</ele>
        <time>2016-01-30T10:06:38.279Z</time>
      </trkpt>
      <trkpt lat="43.62854" lon="5.84258">
        <ele>393</ele>
        <time>2016-01-30T10:06:39.254Z</time>
      </trkpt>
      <trkpt lat="43.62849" lon="5.84268">
        <ele>393</ele>
        <time>2016-01-30T10:06:43.280Z</time>
      </trkpt>
      <trkpt lat="43.62848" lon="5.84271">
        <ele>393</ele>
        <time>2016-01-30T10:06:44.254Z</time>
      </trkpt>
      <trkpt lat="43.62844" lon="5.8428">
        <ele>395</ele>
        <time>2016-01-30T10:06:48.278Z</time>
      </trkpt>
      <trkpt lat="43.62843" lon="5.84282">
        <ele>395</ele>
        <time>2016-01-30T10:06:49.253Z</time>
      </trkpt>
      <trkpt lat="43.6284" lon="5.84289">
        <ele>395</ele>
        <time>2016-01-30T10:06:52.278Z</time>
      </trkpt>
      <trkpt lat="43.62839" lon="5.84293">
        <ele>395</ele>
        <time>2016-01-30T10:06:53.253Z</time>
      </trkpt>
      <trkpt lat="43.62834" lon="5.84302">
        <ele>395</ele>
        <time>2016-01-30T10:06:56.279Z</time>
      </trkpt>
      <trkpt lat="43.62832" lon="5.84304">
        <ele>395</ele>
        <time>2016-01-30T10:06:57.253Z</time>
      </trkpt>
      <trkpt lat="43.62827" lon="5.84313">
        <ele>395</ele>
        <time>2016-01-30T10:07:01.279Z</time>
      </trkpt>
      <trkpt lat="43.62827" lon="5.84316">
        <ele>396</ele>
        <time>2016-01-30T10:07:02.283Z</time>
      </trkpt>
      <trkpt lat="43.62826" lon="5.84325">
        <ele>395</ele>
        <time>2016-01-30T10:07:05.280Z</time>
      </trkpt>
      <trkpt lat="43.62826" lon="5.84328">
        <ele>395</ele>
        <time>2016-01-30T10:07:06.250Z</time>
      </trkpt>
      <trkpt lat="43.62824" lon="5.84339">
        <ele>395</ele>
        <time>2016-01-30T10:07:09.279Z</time>
      </trkpt>
      <trkpt lat="43.62823" lon="5.84342">
        <ele>395</ele>
        <time>2016-01-30T10:07:10.249Z</time>
      </trkpt>
      <trkpt lat="43.62824" lon="5.84354">
        <ele>395</ele>
        <time>2016-01-30T10:07:13.306Z</time>
      </trkpt>
      <trkpt lat="43.62825" lon="5.84358">
        <ele>396</ele>
        <time>2016-01-30T10:07:14.262Z</time>
      </trkpt>
      <trkpt lat="43.62823" lon="5.84369">
        <ele>397</ele>
        <time>2016-01-30T10:07:17.278Z</time>
      </trkpt>
      <trkpt lat="43.62821" lon="5.84372">
        <ele>396</ele>
        <time>2016-01-30T10:07:18.255Z</time>
      </trkpt>
      <trkpt lat="43.62816" lon="5.8438">
        <ele>396</ele>
        <time>2016-01-30T10:07:21.279Z</time>
      </trkpt>
      <trkpt lat="43.62813" lon="5.84382">
        <ele>396</ele>
        <time>2016-01-30T10:07:22.254Z</time>
      </trkpt>
      <trkpt lat="43.62807" lon="5.84389">
        <ele>396</ele>
        <time>2016-01-30T10:07:25.279Z</time>
      </trkpt>
      <trkpt lat="43.62806" lon="5.84392">
        <ele>396</ele>
        <time>2016-01-30T10:07:26.254Z</time>
      </trkpt>
      <trkpt lat="43.62803" lon="5.84402">
        <ele>396</ele>
        <time>2016-01-30T10:07:29.275Z</time>
      </trkpt>
      <trkpt lat="43.62802" lon="5.84406">
        <ele>396</ele>
        <time>2016-01-30T10:07:30.255Z</time>
      </trkpt>
      <trkpt lat="43.628" lon="5.84417">
        <ele>396</ele>
        <time>2016-01-30T10:07:33.283Z</time>
      </trkpt>
      <trkpt lat="43.628" lon="5.84421">
        <ele>396</ele>
        <time>2016-01-30T10:07:34.253Z</time>
      </trkpt>
      <trkpt lat="43.62797" lon="5.84432">
        <ele>397</ele>
        <time>2016-01-30T10:07:37.270Z</time>
      </trkpt>
      <trkpt lat="43.62795" lon="5.84435">
        <ele>397</ele>
        <time>2016-01-30T10:07:38.253Z</time>
      </trkpt>
      <trkpt lat="43.62792" lon="5.84447">
        <ele>396</ele>
        <time>2016-01-30T10:07:41.279Z</time>
      </trkpt>
      <trkpt lat="43.62791" lon="5.8445">
        <ele>397</ele>
        <time>2016-01-30T10:07:42.250Z</time>
      </trkpt>
      <trkpt lat="43.62789" lon="5.84459">
        <ele>397</ele>
        <time>2016-01-30T10:07:44.279Z</time>
      </trkpt>
      <trkpt lat="43.62788" lon="5.84464">
        <ele>397</ele>
        <time>2016-01-30T10:07:45.254Z</time>
      </trkpt>
      <trkpt lat="43.62788" lon="5.84473">
        <ele>397</ele>
        <time>2016-01-30T10:07:47.278Z</time>
      </trkpt>
      <trkpt lat="43.62788" lon="5.84477">
        <ele>397</ele>
        <time>2016-01-30T10:07:48.254Z</time>
      </trkpt>
      <trkpt lat="43.62787" lon="5.84486">
        <ele>397</ele>
        <time>2016-01-30T10:07:50.279Z</time>
      </trkpt>
      <trkpt lat="43.62787" lon="5.8449">
        <ele>397</ele>
        <time>2016-01-30T10:07:51.283Z</time>
      </trkpt>
      <trkpt lat="43.62785" lon="5.84499">
        <ele>397</ele>
        <time>2016-01-30T10:07:53.285Z</time>
      </trkpt>
      <trkpt lat="43.62785" lon="5.84503">
        <ele>397</ele>
        <time>2016-01-30T10:07:54.254Z</time>
      </trkpt>
      <trkpt lat="43.62783" lon="5.84512">
        <ele>397</ele>
        <time>2016-01-30T10:07:56.279Z</time>
      </trkpt>
      <trkpt lat="43.62782" lon="5.84516">
        <ele>397</ele>
        <time>2016-01-30T10:07:57.254Z</time>
      </trkpt>
      <trkpt lat="43.6278" lon="5.84524">
        <ele>397</ele>
        <time>2016-01-30T10:07:59.283Z</time>
      </trkpt>
      <trkpt lat="43.62779" lon="5.84529">
        <ele>398</ele>
        <time>2016-01-30T10:08:00.267Z</time>
      </trkpt>
      <trkpt lat="43.62776" lon="5.84541">
        <ele>398</ele>
        <time>2016-01-30T10:08:03.279Z</time>
      </trkpt>
      <trkpt lat="43.62776" lon="5.84545">
        <ele>398</ele>
        <time>2016-01-30T10:08:04.254Z</time>
      </trkpt>
      <trkpt lat="43.6278" lon="5.84555">
        <ele>398</ele>
        <time>2016-01-30T10:08:07.263Z</time>
      </trkpt>
      <trkpt lat="43.62783" lon="5.84558">
        <ele>398</ele>
        <time>2016-01-30T10:08:08.249Z</time>
      </trkpt>
      <trkpt lat="43.62789" lon="5.84561">
        <ele>397</ele>
        <time>2016-01-30T10:08:10.278Z</time>
      </trkpt>
      <trkpt lat="43.62792" lon="5.84563">
        <ele>397</ele>
        <time>2016-01-30T10:08:11.253Z</time>
      </trkpt>
      <trkpt lat="43.62799" lon="5.84566">
        <ele>397</ele>
        <time>2016-01-30T10:08:13.278Z</time>
      </trkpt>
      <trkpt lat="43.62802" lon="5.84565">
        <ele>397</ele>
        <time>2016-01-30T10:08:14.245Z</time>
      </trkpt>
      <trkpt lat="43.62809" lon="5.84564">
        <ele>397</ele>
        <time>2016-01-30T10:08:16.279Z</time>
      </trkpt>
      <trkpt lat="43.62813" lon="5.84564">
        <ele>397</ele>
        <time>2016-01-30T10:08:17.250Z</time>
      </trkpt>
      <trkpt lat="43.62821" lon="5.84564">
        <ele>397</ele>
        <time>2016-01-30T10:08:19.278Z</time>
      </trkpt>
      <trkpt lat="43.62825" lon="5.84563">
        <ele>396</ele>
        <time>2016-01-30T10:08:20.256Z</time>
      </trkpt>
      <trkpt lat="43.6283" lon="5.84563">
        <ele>396</ele>
        <time>2016-01-30T10:08:21.280Z</time>
      </trkpt>
      <trkpt lat="43.62836" lon="5.84561">
        <ele>396</ele>
        <time>2016-01-30T10:08:22.256Z</time>
      </trkpt>
      <trkpt lat="43.6284" lon="5.84561">
        <ele>396</ele>
        <time>2016-01-30T10:08:23.279Z</time>
      </trkpt>
      <trkpt lat="43.62845" lon="5.84561">
        <ele>395</ele>
        <time>2016-01-30T10:08:24.254Z</time>
      </trkpt>
      <trkpt lat="43.6285" lon="5.84562">
        <ele>395</ele>
        <time>2016-01-30T10:08:25.278Z</time>
      </trkpt>
      <trkpt lat="43.62855" lon="5.84564">
        <ele>395</ele>
        <time>2016-01-30T10:08:26.255Z</time>
      </trkpt>
      <trkpt lat="43.6286" lon="5.84566">
        <ele>395</ele>
        <time>2016-01-30T10:08:27.270Z</time>
      </trkpt>
      <trkpt lat="43.62865" lon="5.84569">
        <ele>395</ele>
        <time>2016-01-30T10:08:28.255Z</time>
      </trkpt>
      <trkpt lat="43.6287" lon="5.84572">
        <ele>394</ele>
        <time>2016-01-30T10:08:29.278Z</time>
      </trkpt>
      <trkpt lat="43.62876" lon="5.84572">
        <ele>393</ele>
        <time>2016-01-30T10:08:30.256Z</time>
      </trkpt>
      <trkpt lat="43.62881" lon="5.84574">
        <ele>392</ele>
        <time>2016-01-30T10:08:31.279Z</time>
      </trkpt>
      <trkpt lat="43.62888" lon="5.84576">
        <ele>391</ele>
        <time>2016-01-30T10:08:32.256Z</time>
      </trkpt>
      <trkpt lat="43.62893" lon="5.84581">
        <ele>391</ele>
        <time>2016-01-30T10:08:33.279Z</time>
      </trkpt>
      <trkpt lat="43.62898" lon="5.84586">
        <ele>391</ele>
        <time>2016-01-30T10:08:34.269Z</time>
      </trkpt>
      <trkpt lat="43.62903" lon="5.84591">
        <ele>391</ele>
        <time>2016-01-30T10:08:35.279Z</time>
      </trkpt>
      <trkpt lat="43.62909" lon="5.84595">
        <ele>391</ele>
        <time>2016-01-30T10:08:36.252Z</time>
      </trkpt>
      <trkpt lat="43.62914" lon="5.84598">
        <ele>391</ele>
        <time>2016-01-30T10:08:37.345Z</time>
      </trkpt>
      <trkpt lat="43.62918" lon="5.846">
        <ele>391</ele>
        <time>2016-01-30T10:08:38.257Z</time>
      </trkpt>
      <trkpt lat="43.62922" lon="5.84603">
        <ele>390</ele>
        <time>2016-01-30T10:08:39.276Z</time>
      </trkpt>
      <trkpt lat="43.62927" lon="5.84605">
        <ele>391</ele>
        <time>2016-01-30T10:08:40.257Z</time>
      </trkpt>
      <trkpt lat="43.62931" lon="5.84613">
        <ele>391</ele>
        <time>2016-01-30T10:08:42.298Z</time>
      </trkpt>
      <trkpt lat="43.62933" lon="5.84617">
        <ele>391</ele>
        <time>2016-01-30T10:08:43.251Z</time>
      </trkpt>
      <trkpt lat="43.62936" lon="5.84628">
        <ele>391</ele>
        <time>2016-01-30T10:08:46.294Z</time>
      </trkpt>
      <trkpt lat="43.62936" lon="5.84632">
        <ele>390</ele>
        <time>2016-01-30T10:08:47.246Z</time>
      </trkpt>
      <trkpt lat="43.62937" lon="5.84641">
        <ele>391</ele>
        <time>2016-01-30T10:08:49.540Z</time>
      </trkpt>
      <trkpt lat="43.62936" lon="5.84645">
        <ele>391</ele>
        <time>2016-01-30T10:08:50.255Z</time>
      </trkpt>
      <trkpt lat="43.62935" lon="5.84654">
        <ele>392</ele>
        <time>2016-01-30T10:08:52.268Z</time>
      </trkpt>
      <trkpt lat="43.62934" lon="5.84659">
        <ele>392</ele>
        <time>2016-01-30T10:08:53.252Z</time>
      </trkpt>
      <trkpt lat="43.62932" lon="5.84667">
        <ele>392</ele>
        <time>2016-01-30T10:08:55.288Z</time>
      </trkpt>
      <trkpt lat="43.62932" lon="5.84671">
        <ele>392</ele>
        <time>2016-01-30T10:08:56.257Z</time>
      </trkpt>
      <trkpt lat="43.6293" lon="5.84679">
        <ele>393</ele>
        <time>2016-01-30T10:08:58.284Z</time>
      </trkpt>
      <trkpt lat="43.6293" lon="5.84683">
        <ele>393</ele>
        <time>2016-01-30T10:08:59.256Z</time>
      </trkpt>
      <trkpt lat="43.6293" lon="5.84696">
        <ele>393</ele>
        <time>2016-01-30T10:09:02.279Z</time>
      </trkpt>
      <trkpt lat="43.62931" lon="5.847">
        <ele>393</ele>
        <time>2016-01-30T10:09:03.255Z</time>
      </trkpt>
      <trkpt lat="43.62933" lon="5.84708">
        <ele>393</ele>
        <time>2016-01-30T10:09:05.289Z</time>
      </trkpt>
      <trkpt lat="43.62935" lon="5.84712">
        <ele>394</ele>
        <time>2016-01-30T10:09:06.254Z</time>
      </trkpt>
      <trkpt lat="43.62941" lon="5.8472">
        <ele>394</ele>
        <time>2016-01-30T10:09:10.282Z</time>
      </trkpt>
      <trkpt lat="43.62941" lon="5.84721">
        <ele>394</ele>
        <time>2016-01-30T10:09:11.256Z</time>
      </trkpt>
      <trkpt lat="43.62948" lon="5.84721">
        <ele>394</ele>
        <time>2016-01-30T10:09:21.279Z</time>
      </trkpt>
      <trkpt lat="43.6295" lon="5.84719">
        <ele>394</ele>
        <time>2016-01-30T10:09:22.244Z</time>
      </trkpt>
      <trkpt lat="43.62957" lon="5.84713">
        <ele>393</ele>
        <time>2016-01-30T10:09:25.280Z</time>
      </trkpt>
      <trkpt lat="43.62959" lon="5.84711">
        <ele>393</ele>
        <time>2016-01-30T10:09:26.256Z</time>
      </trkpt>
      <trkpt lat="43.62966" lon="5.84706">
        <ele>394</ele>
        <time>2016-01-30T10:09:29.269Z</time>
      </trkpt>
      <trkpt lat="43.62968" lon="5.84705">
        <ele>394</ele>
        <time>2016-01-30T10:09:30.255Z</time>
      </trkpt>
      <trkpt lat="43.62976" lon="5.84701">
        <ele>394</ele>
        <time>2016-01-30T10:09:33.280Z</time>
      </trkpt>
      <trkpt lat="43.62978" lon="5.84701">
        <ele>394</ele>
        <time>2016-01-30T10:09:34.270Z</time>
      </trkpt>
      <trkpt lat="43.62987" lon="5.84699">
        <ele>394</ele>
        <time>2016-01-30T10:09:37.269Z</time>
      </trkpt>
      <trkpt lat="43.6299" lon="5.847">
        <ele>395</ele>
        <time>2016-01-30T10:09:38.254Z</time>
      </trkpt>
      <trkpt lat="43.62998" lon="5.847">
        <ele>395</ele>
        <time>2016-01-30T10:09:41.280Z</time>
      </trkpt>
      <trkpt lat="43.63" lon="5.84701">
        <ele>395</ele>
        <time>2016-01-30T10:09:42.255Z</time>
      </trkpt>
      <trkpt lat="43.63009" lon="5.84702">
        <ele>395</ele>
        <time>2016-01-30T10:09:45.316Z</time>
      </trkpt>
      <trkpt lat="43.63012" lon="5.84703">
        <ele>395</ele>
        <time>2016-01-30T10:09:46.254Z</time>
      </trkpt>
      <trkpt lat="43.63018" lon="5.84703">
        <ele>394</ele>
        <time>2016-01-30T10:09:48.281Z</time>
      </trkpt>
      <trkpt lat="43.63022" lon="5.84703">
        <ele>394</ele>
        <time>2016-01-30T10:09:49.255Z</time>
      </trkpt>
      <trkpt lat="43.6303" lon="5.84703">
        <ele>394</ele>
        <time>2016-01-30T10:09:51.504Z</time>
      </trkpt>
      <trkpt lat="43.63034" lon="5.84703">
        <ele>394</ele>
        <time>2016-01-30T10:09:52.256Z</time>
      </trkpt>
      <trkpt lat="43.63043" lon="5.84703">
        <ele>394</ele>
        <time>2016-01-30T10:09:54.280Z</time>
      </trkpt>
      <trkpt lat="43.63047" lon="5.84702">
        <ele>394</ele>
        <time>2016-01-30T10:09:55.251Z</time>
      </trkpt>
      <trkpt lat="43.63052" lon="5.84701">
        <ele>394</ele>
        <time>2016-01-30T10:09:56.318Z</time>
      </trkpt>
      <trkpt lat="43.63057" lon="5.847">
        <ele>394</ele>
        <time>2016-01-30T10:09:57.251Z</time>
      </trkpt>
      <trkpt lat="43.63062" lon="5.847">
        <ele>394</ele>
        <time>2016-01-30T10:09:58.280Z</time>
      </trkpt>
      <trkpt lat="43.63067" lon="5.84698">
        <ele>393</ele>
        <time>2016-01-30T10:09:59.255Z</time>
      </trkpt>
      <trkpt lat="43.63073" lon="5.84696">
        <ele>393</ele>
        <time>2016-01-30T10:10:00.273Z</time>
      </trkpt>
      <trkpt lat="43.63077" lon="5.84695">
        <ele>393</ele>
        <time>2016-01-30T10:10:01.251Z</time>
      </trkpt>
      <trkpt lat="43.63083" lon="5.84692">
        <ele>393</ele>
        <time>2016-01-30T10:10:02.277Z</time>
      </trkpt>
      <trkpt lat="43.63089" lon="5.8469">
        <ele>392</ele>
        <time>2016-01-30T10:10:03.255Z</time>
      </trkpt>
      <trkpt lat="43.63094" lon="5.84688">
        <ele>392</ele>
        <time>2016-01-30T10:10:04.281Z</time>
      </trkpt>
      <trkpt lat="43.631" lon="5.84686">
        <ele>391</ele>
        <time>2016-01-30T10:10:05.255Z</time>
      </trkpt>
      <trkpt lat="43.63105" lon="5.84683">
        <ele>391</ele>
        <time>2016-01-30T10:10:06.279Z</time>
      </trkpt>
      <trkpt lat="43.63111" lon="5.84681">
        <ele>391</ele>
        <time>2016-01-30T10:10:07.271Z</time>
      </trkpt>
      <trkpt lat="43.63117" lon="5.84677">
        <ele>391</ele>
        <time>2016-01-30T10:10:08.280Z</time>
      </trkpt>
      <trkpt lat="43.63122" lon="5.84674">
        <ele>391</ele>
        <time>2016-01-30T10:10:09.254Z</time>
      </trkpt>
      <trkpt lat="43.63128" lon="5.8467">
        <ele>391</ele>
        <time>2016-01-30T10:10:10.281Z</time>
      </trkpt>
      <trkpt lat="43.63133" lon="5.84667">
        <ele>391</ele>
        <time>2016-01-30T10:10:11.256Z</time>
      </trkpt>
      <trkpt lat="43.63137" lon="5.84664">
        <ele>391</ele>
        <time>2016-01-30T10:10:12.281Z</time>
      </trkpt>
      <trkpt lat="43.63142" lon="5.84661">
        <ele>391</ele>
        <time>2016-01-30T10:10:13.255Z</time>
      </trkpt>
      <trkpt lat="43.63147" lon="5.84657">
        <ele>391</ele>
        <time>2016-01-30T10:10:14.511Z</time>
      </trkpt>
      <trkpt lat="43.63152" lon="5.84654">
        <ele>391</ele>
        <time>2016-01-30T10:10:15.251Z</time>
      </trkpt>
      <trkpt lat="43.63156" lon="5.8465">
        <ele>391</ele>
        <time>2016-01-30T10:10:16.281Z</time>
      </trkpt>
      <trkpt lat="43.6316" lon="5.84646">
        <ele>391</ele>
        <time>2016-01-30T10:10:17.245Z</time>
      </trkpt>
      <trkpt lat="43.63165" lon="5.84642">
        <ele>390</ele>
        <time>2016-01-30T10:10:18.316Z</time>
      </trkpt>
      <trkpt lat="43.6317" lon="5.84638">
        <ele>390</ele>
        <time>2016-01-30T10:10:19.255Z</time>
      </trkpt>
      <trkpt lat="43.63177" lon="5.84633">
        <ele>390</ele>
        <time>2016-01-30T10:10:21.280Z</time>
      </trkpt>
      <trkpt lat="43.6318" lon="5.8463">
        <ele>390</ele>
        <time>2016-01-30T10:10:22.255Z</time>
      </trkpt>
      <trkpt lat="43.63184" lon="5.84627">
        <ele>389</ele>
        <time>2016-01-30T10:10:23.280Z</time>
      </trkpt>
      <trkpt lat="43.63189" lon="5.84624">
        <ele>389</ele>
        <time>2016-01-30T10:10:24.255Z</time>
      </trkpt>
      <trkpt lat="43.63193" lon="5.84622">
        <ele>389</ele>
        <time>2016-01-30T10:10:25.277Z</time>
      </trkpt>
      <trkpt lat="43.63198" lon="5.8462">
        <ele>389</ele>
        <time>2016-01-30T10:10:26.254Z</time>
      </trkpt>
      <trkpt lat="43.63203" lon="5.84618">
        <ele>389</ele>
        <time>2016-01-30T10:10:27.281Z</time>
      </trkpt>
      <trkpt lat="43.63209" lon="5.84617">
        <ele>388</ele>
        <time>2016-01-30T10:10:28.248Z</time>
      </trkpt>
      <trkpt lat="43.63214" lon="5.84616">
        <ele>388</ele>
        <time>2016-01-30T10:10:29.279Z</time>
      </trkpt>
      <trkpt lat="43.63219" lon="5.84615">
        <ele>388</ele>
        <time>2016-01-30T10:10:30.257Z</time>
      </trkpt>
      <trkpt lat="43.63225" lon="5.84616">
        <ele>388</ele>
        <time>2016-01-30T10:10:31.281Z</time>
      </trkpt>
      <trkpt lat="43.63231" lon="5.84615">
        <ele>388</ele>
        <time>2016-01-30T10:10:32.255Z</time>
      </trkpt>
      <trkpt lat="43.63235" lon="5.84615">
        <ele>388</ele>
        <time>2016-01-30T10:10:33.281Z</time>
      </trkpt>
      <trkpt lat="43.63241" lon="5.84615">
        <ele>388</ele>
        <time>2016-01-30T10:10:34.269Z</time>
      </trkpt>
      <trkpt lat="43.63245" lon="5.84615">
        <ele>389</ele>
        <time>2016-01-30T10:10:35.280Z</time>
      </trkpt>
      <trkpt lat="43.6325" lon="5.84615">
        <ele>388</ele>
        <time>2016-01-30T10:10:36.255Z</time>
      </trkpt>
      <trkpt lat="43.63255" lon="5.84616">
        <ele>388</ele>
        <time>2016-01-30T10:10:37.283Z</time>
      </trkpt>
      <trkpt lat="43.63259" lon="5.84616">
        <ele>388</ele>
        <time>2016-01-30T10:10:38.255Z</time>
      </trkpt>
      <trkpt lat="43.63264" lon="5.84616">
        <ele>388</ele>
        <time>2016-01-30T10:10:39.279Z</time>
      </trkpt>
      <trkpt lat="43.63269" lon="5.84617">
        <ele>388</ele>
        <time>2016-01-30T10:10:40.257Z</time>
      </trkpt>
      <trkpt lat="43.63278" lon="5.84618">
        <ele>387</ele>
        <time>2016-01-30T10:10:42.281Z</time>
      </trkpt>
      <trkpt lat="43.63282" lon="5.84619">
        <ele>387</ele>
        <time>2016-01-30T10:10:43.250Z</time>
      </trkpt>
      <trkpt lat="43.63287" lon="5.84619">
        <ele>388</ele>
        <time>2016-01-30T10:10:44.280Z</time>
      </trkpt>
      <trkpt lat="43.63292" lon="5.8462">
        <ele>387</ele>
        <time>2016-01-30T10:10:45.268Z</time>
      </trkpt>
      <trkpt lat="43.63297" lon="5.84621">
        <ele>387</ele>
        <time>2016-01-30T10:10:46.278Z</time>
      </trkpt>
      <trkpt lat="43.63302" lon="5.84621">
        <ele>387</ele>
        <time>2016-01-30T10:10:47.256Z</time>
      </trkpt>
      <trkpt lat="43.63307" lon="5.84622">
        <ele>386</ele>
        <time>2016-01-30T10:10:48.283Z</time>
      </trkpt>
      <trkpt lat="43.63311" lon="5.84623">
        <ele>386</ele>
        <time>2016-01-30T10:10:49.257Z</time>
      </trkpt>
      <trkpt lat="43.63316" lon="5.84624">
        <ele>386</ele>
        <time>2016-01-30T10:10:50.281Z</time>
      </trkpt>
      <trkpt lat="43.63321" lon="5.84624">
        <ele>386</ele>
        <time>2016-01-30T10:10:51.256Z</time>
      </trkpt>
      <trkpt lat="43.63325" lon="5.84625">
        <ele>386</ele>
        <time>2016-01-30T10:10:52.282Z</time>
      </trkpt>
      <trkpt lat="43.63331" lon="5.84626">
        <ele>386</ele>
        <time>2016-01-30T10:10:53.249Z</time>
      </trkpt>
      <trkpt lat="43.63335" lon="5.84626">
        <ele>385</ele>
        <time>2016-01-30T10:10:54.282Z</time>
      </trkpt>
      <trkpt lat="43.6334" lon="5.84627">
        <ele>385</ele>
        <time>2016-01-30T10:10:55.255Z</time>
      </trkpt>
      <trkpt lat="43.63345" lon="5.84628">
        <ele>385</ele>
        <time>2016-01-30T10:10:56.314Z</time>
      </trkpt>
      <trkpt lat="43.63349" lon="5.84629">
        <ele>385</ele>
        <time>2016-01-30T10:10:57.252Z</time>
      </trkpt>
      <trkpt lat="43.63356" lon="5.84631">
        <ele>384</ele>
        <time>2016-01-30T10:10:59.276Z</time>
      </trkpt>
      <trkpt lat="43.6336" lon="5.84632">
        <ele>384</ele>
        <time>2016-01-30T10:11:00.245Z</time>
      </trkpt>
      <trkpt lat="43.63363" lon="5.84644">
        <ele>383</ele>
        <time>2016-01-30T10:11:03.283Z</time>
      </trkpt>
      <trkpt lat="43.63361" lon="5.84648">
        <ele>383</ele>
        <time>2016-01-30T10:11:04.255Z</time>
      </trkpt>
      <trkpt lat="43.63355" lon="5.84654">
        <ele>382</ele>
        <time>2016-01-30T10:11:06.282Z</time>
      </trkpt>
      <trkpt lat="43.63352" lon="5.84657">
        <ele>382</ele>
        <time>2016-01-30T10:11:07.287Z</time>
      </trkpt>
      <trkpt lat="43.63346" lon="5.84663">
        <ele>382</ele>
        <time>2016-01-30T10:11:09.280Z</time>
      </trkpt>
      <trkpt lat="43.63343" lon="5.84666">
        <ele>381</ele>
        <time>2016-01-30T10:11:10.255Z</time>
      </trkpt>
      <trkpt lat="43.63337" lon="5.84673">
        <ele>381</ele>
        <time>2016-01-30T10:11:12.277Z</time>
      </trkpt>
      <trkpt lat="43.63334" lon="5.84676">
        <ele>381</ele>
        <time>2016-01-30T10:11:13.255Z</time>
      </trkpt>
      <trkpt lat="43.63328" lon="5.84682">
        <ele>381</ele>
        <time>2016-01-30T10:11:15.281Z</time>
      </trkpt>
      <trkpt lat="43.63324" lon="5.84685">
        <ele>381</ele>
        <time>2016-01-30T10:11:16.255Z</time>
      </trkpt>
      <trkpt lat="43.63318" lon="5.84692">
        <ele>381</ele>
        <time>2016-01-30T10:11:18.294Z</time>
      </trkpt>
      <trkpt lat="43.63316" lon="5.84695">
        <ele>381</ele>
        <time>2016-01-30T10:11:19.252Z</time>
      </trkpt>
      <trkpt lat="43.6331" lon="5.84702">
        <ele>381</ele>
        <time>2016-01-30T10:11:21.280Z</time>
      </trkpt>
      <trkpt lat="43.63306" lon="5.84705">
        <ele>381</ele>
        <time>2016-01-30T10:11:22.256Z</time>
      </trkpt>
      <trkpt lat="43.633" lon="5.84711">
        <ele>381</ele>
        <time>2016-01-30T10:11:24.280Z</time>
      </trkpt>
      <trkpt lat="43.63294" lon="5.84715">
        <ele>381</ele>
        <time>2016-01-30T10:11:25.255Z</time>
      </trkpt>
      <trkpt lat="43.6329" lon="5.84717">
        <ele>381</ele>
        <time>2016-01-30T10:11:26.282Z</time>
      </trkpt>
      <trkpt lat="43.63286" lon="5.8472">
        <ele>380</ele>
        <time>2016-01-30T10:11:27.255Z</time>
      </trkpt>
      <trkpt lat="43.63281" lon="5.84722">
        <ele>380</ele>
        <time>2016-01-30T10:11:28.280Z</time>
      </trkpt>
      <trkpt lat="43.63277" lon="5.84723">
        <ele>380</ele>
        <time>2016-01-30T10:11:29.255Z</time>
      </trkpt>
      <trkpt lat="43.63272" lon="5.84724">
        <ele>380</ele>
        <time>2016-01-30T10:11:30.282Z</time>
      </trkpt>
      <trkpt lat="43.63267" lon="5.84725">
        <ele>380</ele>
        <time>2016-01-30T10:11:31.255Z</time>
      </trkpt>
      <trkpt lat="43.63263" lon="5.84726">
        <ele>380</ele>
        <time>2016-01-30T10:11:32.282Z</time>
      </trkpt>
      <trkpt lat="43.63258" lon="5.84727">
        <ele>380</ele>
        <time>2016-01-30T10:11:33.255Z</time>
      </trkpt>
      <trkpt lat="43.63253" lon="5.84729">
        <ele>380</ele>
        <time>2016-01-30T10:11:34.323Z</time>
      </trkpt>
      <trkpt lat="43.63248" lon="5.84729">
        <ele>380</ele>
        <time>2016-01-30T10:11:35.256Z</time>
      </trkpt>
      <trkpt lat="43.63243" lon="5.8473">
        <ele>381</ele>
        <time>2016-01-30T10:11:36.281Z</time>
      </trkpt>
      <trkpt lat="43.63239" lon="5.84731">
        <ele>381</ele>
        <time>2016-01-30T10:11:37.256Z</time>
      </trkpt>
      <trkpt lat="43.63231" lon="5.84735">
        <ele>381</ele>
        <time>2016-01-30T10:11:39.281Z</time>
      </trkpt>
      <trkpt lat="43.63227" lon="5.84736">
        <ele>381</ele>
        <time>2016-01-30T10:11:40.252Z</time>
      </trkpt>
      <trkpt lat="43.6322" lon="5.84741">
        <ele>381</ele>
        <time>2016-01-30T10:11:42.281Z</time>
      </trkpt>
      <trkpt lat="43.63217" lon="5.84744">
        <ele>381</ele>
        <time>2016-01-30T10:11:43.255Z</time>
      </trkpt>
      <trkpt lat="43.6321" lon="5.84752">
        <ele>381</ele>
        <time>2016-01-30T10:11:45.285Z</time>
      </trkpt>
      <trkpt lat="43.63207" lon="5.84756">
        <ele>381</ele>
        <time>2016-01-30T10:11:46.252Z</time>
      </trkpt>
      <trkpt lat="43.63202" lon="5.84766">
        <ele>381</ele>
        <time>2016-01-30T10:11:48.280Z</time>
      </trkpt>
      <trkpt lat="43.632" lon="5.84771">
        <ele>381</ele>
        <time>2016-01-30T10:11:49.256Z</time>
      </trkpt>
      <trkpt lat="43.63196" lon="5.84781">
        <ele>381</ele>
        <time>2016-01-30T10:11:51.277Z</time>
      </trkpt>
      <trkpt lat="43.63194" lon="5.84787">
        <ele>381</ele>
        <time>2016-01-30T10:11:52.256Z</time>
      </trkpt>
      <trkpt lat="43.63192" lon="5.84798">
        <ele>381</ele>
        <time>2016-01-30T10:11:54.280Z</time>
      </trkpt>
      <trkpt lat="43.6319" lon="5.84804">
        <ele>381</ele>
        <time>2016-01-30T10:11:55.283Z</time>
      </trkpt>
      <trkpt lat="43.6319" lon="5.8481">
        <ele>381</ele>
        <time>2016-01-30T10:11:56.282Z</time>
      </trkpt>
      <trkpt lat="43.63188" lon="5.84816">
        <ele>381</ele>
        <time>2016-01-30T10:11:57.265Z</time>
      </trkpt>
      <trkpt lat="43.63186" lon="5.84828">
        <ele>381</ele>
        <time>2016-01-30T10:11:59.279Z</time>
      </trkpt>
      <trkpt lat="43.63184" lon="5.84833">
        <ele>381</ele>
        <time>2016-01-30T10:12:00.257Z</time>
      </trkpt>
      <trkpt lat="43.63181" lon="5.84844">
        <ele>381</ele>
        <time>2016-01-30T10:12:02.281Z</time>
      </trkpt>
      <trkpt lat="43.63179" lon="5.84849">
        <ele>381</ele>
        <time>2016-01-30T10:12:03.257Z</time>
      </trkpt>
      <trkpt lat="43.63176" lon="5.8486">
        <ele>380</ele>
        <time>2016-01-30T10:12:05.281Z</time>
      </trkpt>
      <trkpt lat="43.63175" lon="5.84865">
        <ele>380</ele>
        <time>2016-01-30T10:12:06.284Z</time>
      </trkpt>
      <trkpt lat="43.63172" lon="5.84874">
        <ele>380</ele>
        <time>2016-01-30T10:12:08.272Z</time>
      </trkpt>
      <trkpt lat="43.63171" lon="5.84878">
        <ele>380</ele>
        <time>2016-01-30T10:12:09.244Z</time>
      </trkpt>
      <trkpt lat="43.63168" lon="5.84887">
        <ele>380</ele>
        <time>2016-01-30T10:12:11.279Z</time>
      </trkpt>
      <trkpt lat="43.63167" lon="5.8489">
        <ele>380</ele>
        <time>2016-01-30T10:12:12.255Z</time>
      </trkpt>
      <trkpt lat="43.63163" lon="5.84899">
        <ele>381</ele>
        <time>2016-01-30T10:12:14.281Z</time>
      </trkpt>
      <trkpt lat="43.63162" lon="5.84903">
        <ele>381</ele>
        <time>2016-01-30T10:12:15.246Z</time>
      </trkpt>
      <trkpt lat="43.63158" lon="5.84913">
        <ele>381</ele>
        <time>2016-01-30T10:12:17.300Z</time>
      </trkpt>
      <trkpt lat="43.63156" lon="5.84918">
        <ele>381</ele>
        <time>2016-01-30T10:12:18.251Z</time>
      </trkpt>
      <trkpt lat="43.63152" lon="5.84928">
        <ele>381</ele>
        <time>2016-01-30T10:12:20.515Z</time>
      </trkpt>
      <trkpt lat="43.6315" lon="5.84934">
        <ele>382</ele>
        <time>2016-01-30T10:12:21.253Z</time>
      </trkpt>
      <trkpt lat="43.63146" lon="5.84944">
        <ele>382</ele>
        <time>2016-01-30T10:12:23.273Z</time>
      </trkpt>
      <trkpt lat="43.63144" lon="5.8495">
        <ele>382</ele>
        <time>2016-01-30T10:12:24.255Z</time>
      </trkpt>
      <trkpt lat="43.63139" lon="5.8496">
        <ele>382</ele>
        <time>2016-01-30T10:12:26.280Z</time>
      </trkpt>
      <trkpt lat="43.63137" lon="5.84965">
        <ele>382</ele>
        <time>2016-01-30T10:12:27.257Z</time>
      </trkpt>
      <trkpt lat="43.63131" lon="5.84975">
        <ele>382</ele>
        <time>2016-01-30T10:12:29.280Z</time>
      </trkpt>
      <trkpt lat="43.63128" lon="5.84979">
        <ele>383</ele>
        <time>2016-01-30T10:12:30.255Z</time>
      </trkpt>
      <trkpt lat="43.63125" lon="5.84983">
        <ele>383</ele>
        <time>2016-01-30T10:12:31.358Z</time>
      </trkpt>
      <trkpt lat="43.63122" lon="5.84987">
        <ele>383</ele>
        <time>2016-01-30T10:12:32.251Z</time>
      </trkpt>
      <trkpt lat="43.63115" lon="5.84995">
        <ele>384</ele>
        <time>2016-01-30T10:12:34.290Z</time>
      </trkpt>
      <trkpt lat="43.63112" lon="5.84998">
        <ele>384</ele>
        <time>2016-01-30T10:12:35.256Z</time>
      </trkpt>
      <trkpt lat="43.63108" lon="5.85002">
        <ele>384</ele>
        <time>2016-01-30T10:12:36.283Z</time>
      </trkpt>
      <trkpt lat="43.63105" lon="5.85006">
        <ele>384</ele>
        <time>2016-01-30T10:12:37.257Z</time>
      </trkpt>
      <trkpt lat="43.63098" lon="5.85013">
        <ele>384</ele>
        <time>2016-01-30T10:12:39.288Z</time>
      </trkpt>
      <trkpt lat="43.63094" lon="5.85017">
        <ele>384</ele>
        <time>2016-01-30T10:12:40.256Z</time>
      </trkpt>
      <trkpt lat="43.63087" lon="5.85024">
        <ele>385</ele>
        <time>2016-01-30T10:12:42.298Z</time>
      </trkpt>
      <trkpt lat="43.63084" lon="5.85027">
        <ele>385</ele>
        <time>2016-01-30T10:12:43.255Z</time>
      </trkpt>
      <trkpt lat="43.63078" lon="5.85034">
        <ele>385</ele>
        <time>2016-01-30T10:12:45.276Z</time>
      </trkpt>
      <trkpt lat="43.63075" lon="5.85037">
        <ele>385</ele>
        <time>2016-01-30T10:12:46.257Z</time>
      </trkpt>
      <trkpt lat="43.63069" lon="5.85044">
        <ele>385</ele>
        <time>2016-01-30T10:12:48.280Z</time>
      </trkpt>
      <trkpt lat="43.63067" lon="5.85047">
        <ele>385</ele>
        <time>2016-01-30T10:12:49.256Z</time>
      </trkpt>
      <trkpt lat="43.63062" lon="5.85055">
        <ele>385</ele>
        <time>2016-01-30T10:12:51.281Z</time>
      </trkpt>
      <trkpt lat="43.6306" lon="5.85059">
        <ele>385</ele>
        <time>2016-01-30T10:12:52.252Z</time>
      </trkpt>
      <trkpt lat="43.63056" lon="5.85069">
        <ele>385</ele>
        <time>2016-01-30T10:12:56.275Z</time>
      </trkpt>
      <trkpt lat="43.63056" lon="5.85071">
        <ele>385</ele>
        <time>2016-01-30T10:12:57.256Z</time>
      </trkpt>
      <trkpt lat="43.63055" lon="5.85082">
        <ele>385</ele>
        <time>2016-01-30T10:13:00.418Z</time>
      </trkpt>
      <trkpt lat="43.63055" lon="5.85086">
        <ele>385</ele>
        <time>2016-01-30T10:13:01.256Z</time>
      </trkpt>
      <trkpt lat="43.63054" lon="5.85095">
        <ele>385</ele>
        <time>2016-01-30T10:13:03.273Z</time>
      </trkpt>
      <trkpt lat="43.63054" lon="5.851">
        <ele>386</ele>
        <time>2016-01-30T10:13:04.256Z</time>
      </trkpt>
      <trkpt lat="43.63055" lon="5.85109">
        <ele>386</ele>
        <time>2016-01-30T10:13:06.275Z</time>
      </trkpt>
      <trkpt lat="43.63055" lon="5.85113">
        <ele>386</ele>
        <time>2016-01-30T10:13:07.257Z</time>
      </trkpt>
      <trkpt lat="43.63057" lon="5.85123">
        <ele>386</ele>
        <time>2016-01-30T10:13:09.280Z</time>
      </trkpt>
      <trkpt lat="43.63058" lon="5.85128">
        <ele>386</ele>
        <time>2016-01-30T10:13:10.265Z</time>
      </trkpt>
      <trkpt lat="43.63061" lon="5.85137">
        <ele>386</ele>
        <time>2016-01-30T10:13:12.281Z</time>
      </trkpt>
      <trkpt lat="43.63063" lon="5.85141">
        <ele>386</ele>
        <time>2016-01-30T10:13:13.258Z</time>
      </trkpt>
      <trkpt lat="43.63066" lon="5.8515">
        <ele>386</ele>
        <time>2016-01-30T10:13:15.290Z</time>
      </trkpt>
      <trkpt lat="43.63067" lon="5.85154">
        <ele>386</ele>
        <time>2016-01-30T10:13:16.256Z</time>
      </trkpt>
      <trkpt lat="43.63071" lon="5.85162">
        <ele>387</ele>
        <time>2016-01-30T10:13:18.278Z</time>
      </trkpt>
      <trkpt lat="43.63073" lon="5.85166">
        <ele>386</ele>
        <time>2016-01-30T10:13:19.255Z</time>
      </trkpt>
      <trkpt lat="43.63077" lon="5.85175">
        <ele>386</ele>
        <time>2016-01-30T10:13:21.281Z</time>
      </trkpt>
      <trkpt lat="43.63079" lon="5.85179">
        <ele>386</ele>
        <time>2016-01-30T10:13:22.244Z</time>
      </trkpt>
      <trkpt lat="43.63083" lon="5.85188">
        <ele>386</ele>
        <time>2016-01-30T10:13:24.282Z</time>
      </trkpt>
      <trkpt lat="43.63085" lon="5.85192">
        <ele>386</ele>
        <time>2016-01-30T10:13:25.257Z</time>
      </trkpt>
      <trkpt lat="43.63089" lon="5.85201">
        <ele>386</ele>
        <time>2016-01-30T10:13:27.311Z</time>
      </trkpt>
      <trkpt lat="43.63091" lon="5.85205">
        <ele>386</ele>
        <time>2016-01-30T10:13:28.257Z</time>
      </trkpt>
      <trkpt lat="43.63095" lon="5.85213">
        <ele>386</ele>
        <time>2016-01-30T10:13:30.278Z</time>
      </trkpt>
      <trkpt lat="43.63097" lon="5.85218">
        <ele>386</ele>
        <time>2016-01-30T10:13:31.256Z</time>
      </trkpt>
      <trkpt lat="43.63101" lon="5.85226">
        <ele>386</ele>
        <time>2016-01-30T10:13:33.285Z</time>
      </trkpt>
      <trkpt lat="43.63103" lon="5.8523">
        <ele>386</ele>
        <time>2016-01-30T10:13:34.256Z</time>
      </trkpt>
      <trkpt lat="43.63107" lon="5.8524">
        <ele>385</ele>
        <time>2016-01-30T10:13:36.281Z</time>
      </trkpt>
      <trkpt lat="43.63108" lon="5.85244">
        <ele>385</ele>
        <time>2016-01-30T10:13:37.252Z</time>
      </trkpt>
      <trkpt lat="43.63111" lon="5.85254">
        <ele>385</ele>
        <time>2016-01-30T10:13:39.283Z</time>
      </trkpt>
      <trkpt lat="43.63112" lon="5.85259">
        <ele>385</ele>
        <time>2016-01-30T10:13:40.256Z</time>
      </trkpt>
      <trkpt lat="43.63114" lon="5.85271">
        <ele>384</ele>
        <time>2016-01-30T10:13:42.281Z</time>
      </trkpt>
      <trkpt lat="43.63115" lon="5.85277">
        <ele>384</ele>
        <time>2016-01-30T10:13:43.257Z</time>
      </trkpt>
      <trkpt lat="43.63117" lon="5.85289">
        <ele>384</ele>
        <time>2016-01-30T10:13:45.283Z</time>
      </trkpt>
      <trkpt lat="43.63118" lon="5.85295">
        <ele>384</ele>
        <time>2016-01-30T10:13:46.257Z</time>
      </trkpt>
      <trkpt lat="43.63118" lon="5.85303">
        <ele>384</ele>
        <time>2016-01-30T10:13:47.288Z</time>
      </trkpt>
      <trkpt lat="43.63119" lon="5.85309">
        <ele>384</ele>
        <time>2016-01-30T10:13:48.252Z</time>
      </trkpt>
      <trkpt lat="43.63119" lon="5.85315">
        <ele>384</ele>
        <time>2016-01-30T10:13:49.318Z</time>
      </trkpt>
      <trkpt lat="43.6312" lon="5.85321">
        <ele>384</ele>
        <time>2016-01-30T10:13:50.257Z</time>
      </trkpt>
      <trkpt lat="43.6312" lon="5.85327">
        <ele>383</ele>
        <time>2016-01-30T10:13:51.270Z</time>
      </trkpt>
      <trkpt lat="43.6312" lon="5.85334">
        <ele>383</ele>
        <time>2016-01-30T10:13:52.257Z</time>
      </trkpt>
      <trkpt lat="43.6312" lon="5.8534">
        <ele>383</ele>
        <time>2016-01-30T10:13:53.281Z</time>
      </trkpt>
      <trkpt lat="43.63119" lon="5.85346">
        <ele>384</ele>
        <time>2016-01-30T10:13:54.256Z</time>
      </trkpt>
      <trkpt lat="43.63119" lon="5.85357">
        <ele>384</ele>
        <time>2016-01-30T10:13:56.276Z</time>
      </trkpt>
      <trkpt lat="43.63118" lon="5.85363">
        <ele>384</ele>
        <time>2016-01-30T10:13:57.256Z</time>
      </trkpt>
      <trkpt lat="43.63117" lon="5.85375">
        <ele>384</ele>
        <time>2016-01-30T10:13:59.281Z</time>
      </trkpt>
      <trkpt lat="43.63117" lon="5.85381">
        <ele>384</ele>
        <time>2016-01-30T10:14:00.256Z</time>
      </trkpt>
      <trkpt lat="43.63116" lon="5.85392">
        <ele>384</ele>
        <time>2016-01-30T10:14:02.269Z</time>
      </trkpt>
      <trkpt lat="43.63115" lon="5.85398">
        <ele>384</ele>
        <time>2016-01-30T10:14:03.256Z</time>
      </trkpt>
      <trkpt lat="43.63115" lon="5.85408">
        <ele>384</ele>
        <time>2016-01-30T10:14:05.278Z</time>
      </trkpt>
      <trkpt lat="43.63114" lon="5.85413">
        <ele>384</ele>
        <time>2016-01-30T10:14:06.258Z</time>
      </trkpt>
      <trkpt lat="43.63113" lon="5.85424">
        <ele>384</ele>
        <time>2016-01-30T10:14:08.280Z</time>
      </trkpt>
      <trkpt lat="43.63113" lon="5.85429">
        <ele>384</ele>
        <time>2016-01-30T10:14:09.243Z</time>
      </trkpt>
      <trkpt lat="43.63112" lon="5.85439">
        <ele>384</ele>
        <time>2016-01-30T10:14:11.319Z</time>
      </trkpt>
      <trkpt lat="43.63112" lon="5.85444">
        <ele>384</ele>
        <time>2016-01-30T10:14:12.251Z</time>
      </trkpt>
      <trkpt lat="43.63112" lon="5.85454">
        <ele>384</ele>
        <time>2016-01-30T10:14:14.269Z</time>
      </trkpt>
      <trkpt lat="43.63112" lon="5.8546">
        <ele>384</ele>
        <time>2016-01-30T10:14:15.253Z</time>
      </trkpt>
      <trkpt lat="43.63112" lon="5.8547">
        <ele>384</ele>
        <time>2016-01-30T10:14:17.275Z</time>
      </trkpt>
      <trkpt lat="43.63112" lon="5.85475">
        <ele>384</ele>
        <time>2016-01-30T10:14:18.256Z</time>
      </trkpt>
      <trkpt lat="43.63112" lon="5.85484">
        <ele>384</ele>
        <time>2016-01-30T10:14:20.283Z</time>
      </trkpt>
      <trkpt lat="43.63113" lon="5.85489">
        <ele>384</ele>
        <time>2016-01-30T10:14:21.258Z</time>
      </trkpt>
      <trkpt lat="43.63113" lon="5.85497">
        <ele>384</ele>
        <time>2016-01-30T10:14:23.281Z</time>
      </trkpt>
      <trkpt lat="43.63114" lon="5.85502">
        <ele>384</ele>
        <time>2016-01-30T10:14:24.256Z</time>
      </trkpt>
      <trkpt lat="43.63115" lon="5.85512">
        <ele>384</ele>
        <time>2016-01-30T10:14:26.282Z</time>
      </trkpt>
      <trkpt lat="43.63115" lon="5.85516">
        <ele>384</ele>
        <time>2016-01-30T10:14:27.249Z</time>
      </trkpt>
      <trkpt lat="43.63116" lon="5.85526">
        <ele>384</ele>
        <time>2016-01-30T10:14:29.279Z</time>
      </trkpt>
      <trkpt lat="43.63116" lon="5.85531">
        <ele>384</ele>
        <time>2016-01-30T10:14:30.256Z</time>
      </trkpt>
      <trkpt lat="43.63117" lon="5.85541">
        <ele>383</ele>
        <time>2016-01-30T10:14:32.265Z</time>
      </trkpt>
      <trkpt lat="43.63117" lon="5.85546">
        <ele>383</ele>
        <time>2016-01-30T10:14:33.252Z</time>
      </trkpt>
      <trkpt lat="43.63118" lon="5.85556">
        <ele>383</ele>
        <time>2016-01-30T10:14:35.279Z</time>
      </trkpt>
      <trkpt lat="43.63118" lon="5.85561">
        <ele>382</ele>
        <time>2016-01-30T10:14:36.258Z</time>
      </trkpt>
      <trkpt lat="43.63119" lon="5.85571">
        <ele>382</ele>
        <time>2016-01-30T10:14:38.322Z</time>
      </trkpt>
      <trkpt lat="43.63119" lon="5.85577">
        <ele>382</ele>
        <time>2016-01-30T10:14:39.252Z</time>
      </trkpt>
      <trkpt lat="43.6312" lon="5.85587">
        <ele>382</ele>
        <time>2016-01-30T10:14:41.277Z</time>
      </trkpt>
      <trkpt lat="43.6312" lon="5.85593">
        <ele>382</ele>
        <time>2016-01-30T10:14:42.257Z</time>
      </trkpt>
      <trkpt lat="43.63121" lon="5.85604">
        <ele>381</ele>
        <time>2016-01-30T10:14:44.281Z</time>
      </trkpt>
      <trkpt lat="43.63121" lon="5.85609">
        <ele>381</ele>
        <time>2016-01-30T10:14:45.256Z</time>
      </trkpt>
      <trkpt lat="43.63121" lon="5.8562">
        <ele>381</ele>
        <time>2016-01-30T10:14:47.367Z</time>
      </trkpt>
      <trkpt lat="43.63121" lon="5.85625">
        <ele>381</ele>
        <time>2016-01-30T10:14:48.252Z</time>
      </trkpt>
      <trkpt lat="43.63121" lon="5.85636">
        <ele>381</ele>
        <time>2016-01-30T10:14:50.278Z</time>
      </trkpt>
      <trkpt lat="43.63121" lon="5.85641">
        <ele>381</ele>
        <time>2016-01-30T10:14:51.248Z</time>
      </trkpt>
      <trkpt lat="43.63122" lon="5.85652">
        <ele>381</ele>
        <time>2016-01-30T10:14:53.287Z</time>
      </trkpt>
      <trkpt lat="43.63122" lon="5.85656">
        <ele>381</ele>
        <time>2016-01-30T10:14:54.249Z</time>
      </trkpt>
      <trkpt lat="43.63122" lon="5.85667">
        <ele>381</ele>
        <time>2016-01-30T10:14:56.284Z</time>
      </trkpt>
      <trkpt lat="43.63121" lon="5.85672">
        <ele>381</ele>
        <time>2016-01-30T10:14:57.256Z</time>
      </trkpt>
      <trkpt lat="43.63121" lon="5.85682">
        <ele>381</ele>
        <time>2016-01-30T10:14:59.282Z</time>
      </trkpt>
      <trkpt lat="43.63121" lon="5.85687">
        <ele>382</ele>
        <time>2016-01-30T10:15:00.292Z</time>
      </trkpt>
      <trkpt lat="43.6312" lon="5.85697">
        <ele>382</ele>
        <time>2016-01-30T10:15:02.267Z</time>
      </trkpt>
      <trkpt lat="43.6312" lon="5.85702">
        <ele>382</ele>
        <time>2016-01-30T10:15:03.257Z</time>
      </trkpt>
      <trkpt lat="43.6312" lon="5.85712">
        <ele>383</ele>
        <time>2016-01-30T10:15:05.277Z</time>
      </trkpt>
      <trkpt lat="43.6312" lon="5.85717">
        <ele>383</ele>
        <time>2016-01-30T10:15:06.257Z</time>
      </trkpt>
      <trkpt lat="43.63122" lon="5.85724">
        <ele>383</ele>
        <time>2016-01-30T10:15:08.280Z</time>
      </trkpt>
      <trkpt lat="43.63124" lon="5.85728">
        <ele>383</ele>
        <time>2016-01-30T10:15:09.257Z</time>
      </trkpt>
      <trkpt lat="43.6313" lon="5.85734">
        <ele>383</ele>
        <time>2016-01-30T10:15:11.323Z</time>
      </trkpt>
      <trkpt lat="43.63133" lon="5.85738">
        <ele>382</ele>
        <time>2016-01-30T10:15:12.257Z</time>
      </trkpt>
      <trkpt lat="43.63136" lon="5.85742">
        <ele>382</ele>
        <time>2016-01-30T10:15:13.297Z</time>
      </trkpt>
      <trkpt lat="43.6314" lon="5.85746">
        <ele>382</ele>
        <time>2016-01-30T10:15:14.257Z</time>
      </trkpt>
      <trkpt lat="43.63147" lon="5.85753">
        <ele>383</ele>
        <time>2016-01-30T10:15:16.363Z</time>
      </trkpt>
      <trkpt lat="43.63151" lon="5.85757">
        <ele>382</ele>
        <time>2016-01-30T10:15:17.257Z</time>
      </trkpt>
      <trkpt lat="43.63157" lon="5.85764">
        <ele>383</ele>
        <time>2016-01-30T10:15:19.282Z</time>
      </trkpt>
      <trkpt lat="43.63161" lon="5.85767">
        <ele>383</ele>
        <time>2016-01-30T10:15:20.254Z</time>
      </trkpt>
      <trkpt lat="43.63167" lon="5.85774">
        <ele>384</ele>
        <time>2016-01-30T10:15:22.281Z</time>
      </trkpt>
      <trkpt lat="43.6317" lon="5.85777">
        <ele>384</ele>
        <time>2016-01-30T10:15:23.257Z</time>
      </trkpt>
      <trkpt lat="43.63177" lon="5.85784">
        <ele>384</ele>
        <time>2016-01-30T10:15:25.284Z</time>
      </trkpt>
      <trkpt lat="43.63179" lon="5.85787">
        <ele>384</ele>
        <time>2016-01-30T10:15:26.257Z</time>
      </trkpt>
      <trkpt lat="43.63186" lon="5.85793">
        <ele>384</ele>
        <time>2016-01-30T10:15:28.486Z</time>
      </trkpt>
      <trkpt lat="43.63188" lon="5.85796">
        <ele>385</ele>
        <time>2016-01-30T10:15:29.253Z</time>
      </trkpt>
      <trkpt lat="43.63194" lon="5.85802">
        <ele>385</ele>
        <time>2016-01-30T10:15:31.282Z</time>
      </trkpt>
      <trkpt lat="43.63197" lon="5.85805">
        <ele>386</ele>
        <time>2016-01-30T10:15:32.258Z</time>
      </trkpt>
      <trkpt lat="43.63203" lon="5.85811">
        <ele>386</ele>
        <time>2016-01-30T10:15:34.284Z</time>
      </trkpt>
      <trkpt lat="43.63206" lon="5.85814">
        <ele>386</ele>
        <time>2016-01-30T10:15:35.257Z</time>
      </trkpt>
      <trkpt lat="43.63212" lon="5.8582">
        <ele>386</ele>
        <time>2016-01-30T10:15:37.278Z</time>
      </trkpt>
      <trkpt lat="43.63215" lon="5.85823">
        <ele>386</ele>
        <time>2016-01-30T10:15:38.284Z</time>
      </trkpt>
      <trkpt lat="43.63221" lon="5.85829">
        <ele>386</ele>
        <time>2016-01-30T10:15:40.280Z</time>
      </trkpt>
      <trkpt lat="43.63224" lon="5.85832">
        <ele>387</ele>
        <time>2016-01-30T10:15:41.257Z</time>
      </trkpt>
      <trkpt lat="43.6323" lon="5.85838">
        <ele>387</ele>
        <time>2016-01-30T10:15:43.280Z</time>
      </trkpt>
      <trkpt lat="43.63234" lon="5.85842">
        <ele>387</ele>
        <time>2016-01-30T10:15:44.258Z</time>
      </trkpt>
      <trkpt lat="43.63239" lon="5.85848">
        <ele>388</ele>
        <time>2016-01-30T10:15:46.282Z</time>
      </trkpt>
      <trkpt lat="43.63242" lon="5.85852">
        <ele>388</ele>
        <time>2016-01-30T10:15:47.250Z</time>
      </trkpt>
      <trkpt lat="43.63248" lon="5.85859">
        <ele>388</ele>
        <time>2016-01-30T10:15:49.316Z</time>
      </trkpt>
      <trkpt lat="43.63251" lon="5.85861">
        <ele>388</ele>
        <time>2016-01-30T10:15:50.255Z</time>
      </trkpt>
      <trkpt lat="43.63257" lon="5.85868">
        <ele>389</ele>
        <time>2016-01-30T10:15:52.279Z</time>
      </trkpt>
      <trkpt lat="43.6326" lon="5.85871">
        <ele>389</ele>
        <time>2016-01-30T10:15:53.253Z</time>
      </trkpt>
      <trkpt lat="43.63266" lon="5.85878">
        <ele>389</ele>
        <time>2016-01-30T10:15:55.281Z</time>
      </trkpt>
      <trkpt lat="43.63269" lon="5.85881">
        <ele>389</ele>
        <time>2016-01-30T10:15:56.257Z</time>
      </trkpt>
      <trkpt lat="43.63274" lon="5.85888">
        <ele>389</ele>
        <time>2016-01-30T10:15:58.281Z</time>
      </trkpt>
      <trkpt lat="43.63277" lon="5.85891">
        <ele>389</ele>
        <time>2016-01-30T10:15:59.249Z</time>
      </trkpt>
      <trkpt lat="43.63283" lon="5.85897">
        <ele>389</ele>
        <time>2016-01-30T10:16:01.281Z</time>
      </trkpt>
      <trkpt lat="43.63286" lon="5.85901">
        <ele>389</ele>
        <time>2016-01-30T10:16:02.257Z</time>
      </trkpt>
      <trkpt lat="43.63292" lon="5.85906">
        <ele>389</ele>
        <time>2016-01-30T10:16:04.277Z</time>
      </trkpt>
      <trkpt lat="43.63295" lon="5.85909">
        <ele>389</ele>
        <time>2016-01-30T10:16:05.257Z</time>
      </trkpt>
      <trkpt lat="43.63301" lon="5.85914">
        <ele>389</ele>
        <time>2016-01-30T10:16:07.262Z</time>
      </trkpt>
      <trkpt lat="43.63305" lon="5.85917">
        <ele>389</ele>
        <time>2016-01-30T10:16:08.253Z</time>
      </trkpt>
      <trkpt lat="43.63311" lon="5.85921">
        <ele>389</ele>
        <time>2016-01-30T10:16:10.282Z</time>
      </trkpt>
      <trkpt lat="43.63315" lon="5.85923">
        <ele>389</ele>
        <time>2016-01-30T10:16:11.257Z</time>
      </trkpt>
      <trkpt lat="43.63322" lon="5.85925">
        <ele>390</ele>
        <time>2016-01-30T10:16:13.282Z</time>
      </trkpt>
      <trkpt lat="43.63325" lon="5.85926">
        <ele>390</ele>
        <time>2016-01-30T10:16:14.250Z</time>
      </trkpt>
      <trkpt lat="43.63331" lon="5.85928">
        <ele>390</ele>
        <time>2016-01-30T10:16:16.524Z</time>
      </trkpt>
      <trkpt lat="43.63334" lon="5.85929">
        <ele>390</ele>
        <time>2016-01-30T10:16:17.253Z</time>
      </trkpt>
      <trkpt lat="43.6334" lon="5.85931">
        <ele>390</ele>
        <time>2016-01-30T10:16:19.264Z</time>
      </trkpt>
      <trkpt lat="43.63343" lon="5.85933">
        <ele>390</ele>
        <time>2016-01-30T10:16:20.254Z</time>
      </trkpt>
      <trkpt lat="43.63347" lon="5.85939">
        <ele>390</ele>
        <time>2016-01-30T10:16:22.282Z</time>
      </trkpt>
      <trkpt lat="43.63348" lon="5.85943">
        <ele>390</ele>
        <time>2016-01-30T10:16:23.257Z</time>
      </trkpt>
      <trkpt lat="43.63351" lon="5.85951">
        <ele>390</ele>
        <time>2016-01-30T10:16:25.282Z</time>
      </trkpt>
      <trkpt lat="43.63352" lon="5.85955">
        <ele>390</ele>
        <time>2016-01-30T10:16:26.257Z</time>
      </trkpt>
      <trkpt lat="43.63354" lon="5.85963">
        <ele>390</ele>
        <time>2016-01-30T10:16:28.428Z</time>
      </trkpt>
      <trkpt lat="43.63354" lon="5.85967">
        <ele>390</ele>
        <time>2016-01-30T10:16:29.257Z</time>
      </trkpt>
      <trkpt lat="43.63356" lon="5.85978">
        <ele>390</ele>
        <time>2016-01-30T10:16:32.281Z</time>
      </trkpt>
      <trkpt lat="43.63358" lon="5.8598">
        <ele>391</ele>
        <time>2016-01-30T10:16:33.248Z</time>
      </trkpt>
      <trkpt lat="43.63366" lon="5.85977">
        <ele>390</ele>
        <time>2016-01-30T10:16:36.284Z</time>
      </trkpt>
      <trkpt lat="43.63369" lon="5.85975">
        <ele>390</ele>
        <time>2016-01-30T10:16:37.258Z</time>
      </trkpt>
      <trkpt lat="43.63376" lon="5.85972">
        <ele>390</ele>
        <time>2016-01-30T10:16:39.503Z</time>
      </trkpt>
      <trkpt lat="43.63379" lon="5.85969">
        <ele>390</ele>
        <time>2016-01-30T10:16:40.255Z</time>
      </trkpt>
      <trkpt lat="43.63386" lon="5.85964">
        <ele>390</ele>
        <time>2016-01-30T10:16:42.283Z</time>
      </trkpt>
      <trkpt lat="43.63389" lon="5.85962">
        <ele>390</ele>
        <time>2016-01-30T10:16:43.259Z</time>
      </trkpt>
      <trkpt lat="43.63396" lon="5.85957">
        <ele>390</ele>
        <time>2016-01-30T10:16:45.268Z</time>
      </trkpt>
      <trkpt lat="43.63399" lon="5.85955">
        <ele>390</ele>
        <time>2016-01-30T10:16:46.259Z</time>
      </trkpt>
      <trkpt lat="43.63406" lon="5.85951">
        <ele>389</ele>
        <time>2016-01-30T10:16:48.313Z</time>
      </trkpt>
      <trkpt lat="43.63409" lon="5.85949">
        <ele>389</ele>
        <time>2016-01-30T10:16:49.258Z</time>
      </trkpt>
      <trkpt lat="43.63415" lon="5.85945">
        <ele>389</ele>
        <time>2016-01-30T10:16:51.513Z</time>
      </trkpt>
      <trkpt lat="43.63418" lon="5.85943">
        <ele>389</ele>
        <time>2016-01-30T10:16:52.258Z</time>
      </trkpt>
      <trkpt lat="43.63425" lon="5.85938">
        <ele>389</ele>
        <time>2016-01-30T10:16:54.280Z</time>
      </trkpt>
      <trkpt lat="43.63428" lon="5.85936">
        <ele>388</ele>
        <time>2016-01-30T10:16:55.252Z</time>
      </trkpt>
      <trkpt lat="43.63435" lon="5.85932">
        <ele>388</ele>
        <time>2016-01-30T10:16:57.282Z</time>
      </trkpt>
      <trkpt lat="43.63439" lon="5.85929">
        <ele>388</ele>
        <time>2016-01-30T10:16:58.257Z</time>
      </trkpt>
      <trkpt lat="43.63445" lon="5.85925">
        <ele>388</ele>
        <time>2016-01-30T10:17:00.268Z</time>
      </trkpt>
      <trkpt lat="43.63449" lon="5.85922">
        <ele>388</ele>
        <time>2016-01-30T10:17:01.258Z</time>
      </trkpt>
      <trkpt lat="43.63457" lon="5.85916">
        <ele>387</ele>
        <time>2016-01-30T10:17:03.512Z</time>
      </trkpt>
      <trkpt lat="43.63461" lon="5.85913">
        <ele>387</ele>
        <time>2016-01-30T10:17:04.287Z</time>
      </trkpt>
      <trkpt lat="43.63468" lon="5.85908">
        <ele>388</ele>
        <time>2016-01-30T10:17:06.281Z</time>
      </trkpt>
      <trkpt lat="43.63471" lon="5.85906">
        <ele>388</ele>
        <time>2016-01-30T10:17:07.252Z</time>
      </trkpt>
      <trkpt lat="43.63479" lon="5.85902">
        <ele>387</ele>
        <time>2016-01-30T10:17:09.282Z</time>
      </trkpt>
      <trkpt lat="43.63483" lon="5.859">
        <ele>387</ele>
        <time>2016-01-30T10:17:10.247Z</time>
      </trkpt>
      <trkpt lat="43.6349" lon="5.85895">
        <ele>387</ele>
        <time>2016-01-30T10:17:12.282Z</time>
      </trkpt>
      <trkpt lat="43.63494" lon="5.85893">
        <ele>387</ele>
        <time>2016-01-30T10:17:13.244Z</time>
      </trkpt>
      <trkpt lat="43.63502" lon="5.85889">
        <ele>386</ele>
        <time>2016-01-30T10:17:15.526Z</time>
      </trkpt>
      <trkpt lat="43.63505" lon="5.85887">
        <ele>386</ele>
        <time>2016-01-30T10:17:16.253Z</time>
      </trkpt>
      <trkpt lat="43.63513" lon="5.85883">
        <ele>386</ele>
        <time>2016-01-30T10:17:18.281Z</time>
      </trkpt>
      <trkpt lat="43.63516" lon="5.85881">
        <ele>386</ele>
        <time>2016-01-30T10:17:19.257Z</time>
      </trkpt>
      <trkpt lat="43.63524" lon="5.85877">
        <ele>386</ele>
        <time>2016-01-30T10:17:21.283Z</time>
      </trkpt>
      <trkpt lat="43.63528" lon="5.85875">
        <ele>386</ele>
        <time>2016-01-30T10:17:22.250Z</time>
      </trkpt>
      <trkpt lat="43.63535" lon="5.85871">
        <ele>386</ele>
        <time>2016-01-30T10:17:24.283Z</time>
      </trkpt>
      <trkpt lat="43.63538" lon="5.85868">
        <ele>386</ele>
        <time>2016-01-30T10:17:25.257Z</time>
      </trkpt>
      <trkpt lat="43.63544" lon="5.85863">
        <ele>386</ele>
        <time>2016-01-30T10:17:27.505Z</time>
      </trkpt>
      <trkpt lat="43.63548" lon="5.85861">
        <ele>386</ele>
        <time>2016-01-30T10:17:28.253Z</time>
      </trkpt>
      <trkpt lat="43.63554" lon="5.85858">
        <ele>387</ele>
        <time>2016-01-30T10:17:30.282Z</time>
      </trkpt>
      <trkpt lat="43.63556" lon="5.85856">
        <ele>387</ele>
        <time>2016-01-30T10:17:31.258Z</time>
      </trkpt>
      <trkpt lat="43.63562" lon="5.85852">
        <ele>387</ele>
        <time>2016-01-30T10:17:33.282Z</time>
      </trkpt>
      <trkpt lat="43.63565" lon="5.85851">
        <ele>388</ele>
        <time>2016-01-30T10:17:34.258Z</time>
      </trkpt>
      <trkpt lat="43.63572" lon="5.85847">
        <ele>388</ele>
        <time>2016-01-30T10:17:36.285Z</time>
      </trkpt>
      <trkpt lat="43.63575" lon="5.85846">
        <ele>388</ele>
        <time>2016-01-30T10:17:37.259Z</time>
      </trkpt>
      <trkpt lat="43.63581" lon="5.85842">
        <ele>388</ele>
        <time>2016-01-30T10:17:39.279Z</time>
      </trkpt>
      <trkpt lat="43.63584" lon="5.8584">
        <ele>388</ele>
        <time>2016-01-30T10:17:40.258Z</time>
      </trkpt>
      <trkpt lat="43.63591" lon="5.85836">
        <ele>388</ele>
        <time>2016-01-30T10:17:42.312Z</time>
      </trkpt>
      <trkpt lat="43.63594" lon="5.85834">
        <ele>388</ele>
        <time>2016-01-30T10:17:43.258Z</time>
      </trkpt>
      <trkpt lat="43.63601" lon="5.8583">
        <ele>387</ele>
        <time>2016-01-30T10:17:45.270Z</time>
      </trkpt>
      <trkpt lat="43.63604" lon="5.85827">
        <ele>388</ele>
        <time>2016-01-30T10:17:46.257Z</time>
      </trkpt>
      <trkpt lat="43.63612" lon="5.85823">
        <ele>388</ele>
        <time>2016-01-30T10:17:48.282Z</time>
      </trkpt>
      <trkpt lat="43.63616" lon="5.85821">
        <ele>388</ele>
        <time>2016-01-30T10:17:49.257Z</time>
      </trkpt>
      <trkpt lat="43.63622" lon="5.85817">
        <ele>388</ele>
        <time>2016-01-30T10:17:51.281Z</time>
      </trkpt>
      <trkpt lat="43.63626" lon="5.85815">
        <ele>388</ele>
        <time>2016-01-30T10:17:52.249Z</time>
      </trkpt>
      <trkpt lat="43.63633" lon="5.85811">
        <ele>388</ele>
        <time>2016-01-30T10:17:54.282Z</time>
      </trkpt>
      <trkpt lat="43.63637" lon="5.85809">
        <ele>388</ele>
        <time>2016-01-30T10:17:55.257Z</time>
      </trkpt>
      <trkpt lat="43.63644" lon="5.85805">
        <ele>388</ele>
        <time>2016-01-30T10:17:57.280Z</time>
      </trkpt>
      <trkpt lat="43.63648" lon="5.85802">
        <ele>388</ele>
        <time>2016-01-30T10:17:58.257Z</time>
      </trkpt>
      <trkpt lat="43.63655" lon="5.85798">
        <ele>388</ele>
        <time>2016-01-30T10:18:00.264Z</time>
      </trkpt>
      <trkpt lat="43.63658" lon="5.85795">
        <ele>388</ele>
        <time>2016-01-30T10:18:01.253Z</time>
      </trkpt>
      <trkpt lat="43.63665" lon="5.8579">
        <ele>388</ele>
        <time>2016-01-30T10:18:03.281Z</time>
      </trkpt>
      <trkpt lat="43.63668" lon="5.85788">
        <ele>388</ele>
        <time>2016-01-30T10:18:04.285Z</time>
      </trkpt>
      <trkpt lat="43.63675" lon="5.85784">
        <ele>388</ele>
        <time>2016-01-30T10:18:06.282Z</time>
      </trkpt>
      <trkpt lat="43.63679" lon="5.85782">
        <ele>388</ele>
        <time>2016-01-30T10:18:07.257Z</time>
      </trkpt>
      <trkpt lat="43.63687" lon="5.8578">
        <ele>389</ele>
        <time>2016-01-30T10:18:09.282Z</time>
      </trkpt>
      <trkpt lat="43.63691" lon="5.85779">
        <ele>389</ele>
        <time>2016-01-30T10:18:10.258Z</time>
      </trkpt>
      <trkpt lat="43.63698" lon="5.85777">
        <ele>389</ele>
        <time>2016-01-30T10:18:12.283Z</time>
      </trkpt>
      <trkpt lat="43.63702" lon="5.85776">
        <ele>390</ele>
        <time>2016-01-30T10:18:13.258Z</time>
      </trkpt>
      <trkpt lat="43.63709" lon="5.85771">
        <ele>388</ele>
        <time>2016-01-30T10:18:15.316Z</time>
      </trkpt>
      <trkpt lat="43.63713" lon="5.85768">
        <ele>388</ele>
        <time>2016-01-30T10:18:16.253Z</time>
      </trkpt>
      <trkpt lat="43.6372" lon="5.85763">
        <ele>389</ele>
        <time>2016-01-30T10:18:18.282Z</time>
      </trkpt>
      <trkpt lat="43.63723" lon="5.8576">
        <ele>389</ele>
        <time>2016-01-30T10:18:19.258Z</time>
      </trkpt>
      <trkpt lat="43.63731" lon="5.85756">
        <ele>389</ele>
        <time>2016-01-30T10:18:21.281Z</time>
      </trkpt>
      <trkpt lat="43.63734" lon="5.85754">
        <ele>389</ele>
        <time>2016-01-30T10:18:22.254Z</time>
      </trkpt>
      <trkpt lat="43.63742" lon="5.85749">
        <ele>388</ele>
        <time>2016-01-30T10:18:24.283Z</time>
      </trkpt>
      <trkpt lat="43.63746" lon="5.85747">
        <ele>388</ele>
        <time>2016-01-30T10:18:25.257Z</time>
      </trkpt>
      <trkpt lat="43.63753" lon="5.85742">
        <ele>388</ele>
        <time>2016-01-30T10:18:27.280Z</time>
      </trkpt>
      <trkpt lat="43.63757" lon="5.8574">
        <ele>388</ele>
        <time>2016-01-30T10:18:28.256Z</time>
      </trkpt>
      <trkpt lat="43.63765" lon="5.85736">
        <ele>388</ele>
        <time>2016-01-30T10:18:30.268Z</time>
      </trkpt>
      <trkpt lat="43.63769" lon="5.85733">
        <ele>388</ele>
        <time>2016-01-30T10:18:31.257Z</time>
      </trkpt>
      <trkpt lat="43.63776" lon="5.85729">
        <ele>388</ele>
        <time>2016-01-30T10:18:33.282Z</time>
      </trkpt>
      <trkpt lat="43.6378" lon="5.85726">
        <ele>388</ele>
        <time>2016-01-30T10:18:34.258Z</time>
      </trkpt>
      <trkpt lat="43.63788" lon="5.85722">
        <ele>389</ele>
        <time>2016-01-30T10:18:36.285Z</time>
      </trkpt>
      <trkpt lat="43.63792" lon="5.85719">
        <ele>389</ele>
        <time>2016-01-30T10:18:37.287Z</time>
      </trkpt>
      <trkpt lat="43.63798" lon="5.85714">
        <ele>388</ele>
        <time>2016-01-30T10:18:39.283Z</time>
      </trkpt>
      <trkpt lat="43.63802" lon="5.8571">
        <ele>387</ele>
        <time>2016-01-30T10:18:40.259Z</time>
      </trkpt>
      <trkpt lat="43.63808" lon="5.85705">
        <ele>388</ele>
        <time>2016-01-30T10:18:42.283Z</time>
      </trkpt>
      <trkpt lat="43.63811" lon="5.85703">
        <ele>388</ele>
        <time>2016-01-30T10:18:43.257Z</time>
      </trkpt>
      <trkpt lat="43.63817" lon="5.85699">
        <ele>387</ele>
        <time>2016-01-30T10:18:45.282Z</time>
      </trkpt>
      <trkpt lat="43.6382" lon="5.85697">
        <ele>387</ele>
        <time>2016-01-30T10:18:46.258Z</time>
      </trkpt>
      <trkpt lat="43.63828" lon="5.85701">
        <ele>389</ele>
        <time>2016-01-30T10:18:49.283Z</time>
      </trkpt>
      <trkpt lat="43.63829" lon="5.85705">
        <ele>389</ele>
        <time>2016-01-30T10:18:50.259Z</time>
      </trkpt>
      <trkpt lat="43.63832" lon="5.85716">
        <ele>389</ele>
        <time>2016-01-30T10:18:53.282Z</time>
      </trkpt>
      <trkpt lat="43.63833" lon="5.8572">
        <ele>389</ele>
        <time>2016-01-30T10:18:54.265Z</time>
      </trkpt>
      <trkpt lat="43.63836" lon="5.85727">
        <ele>389</ele>
        <time>2016-01-30T10:18:56.282Z</time>
      </trkpt>
      <trkpt lat="43.63837" lon="5.8573">
        <ele>390</ele>
        <time>2016-01-30T10:18:57.259Z</time>
      </trkpt>
      <trkpt lat="43.63841" lon="5.85737">
        <ele>389</ele>
        <time>2016-01-30T10:18:59.315Z</time>
      </trkpt>
      <trkpt lat="43.63843" lon="5.8574">
        <ele>389</ele>
        <time>2016-01-30T10:19:00.260Z</time>
      </trkpt>
      <trkpt lat="43.63847" lon="5.85748">
        <ele>389</ele>
        <time>2016-01-30T10:19:02.282Z</time>
      </trkpt>
      <trkpt lat="43.6385" lon="5.85751">
        <ele>389</ele>
        <time>2016-01-30T10:19:03.259Z</time>
      </trkpt>
      <trkpt lat="43.63854" lon="5.85758">
        <ele>389</ele>
        <time>2016-01-30T10:19:05.283Z</time>
      </trkpt>
      <trkpt lat="43.63856" lon="5.85762">
        <ele>389</ele>
        <time>2016-01-30T10:19:06.255Z</time>
      </trkpt>
      <trkpt lat="43.63859" lon="5.85769">
        <ele>389</ele>
        <time>2016-01-30T10:19:08.281Z</time>
      </trkpt>
      <trkpt lat="43.63862" lon="5.85772">
        <ele>389</ele>
        <time>2016-01-30T10:19:09.258Z</time>
      </trkpt>
      <trkpt lat="43.63865" lon="5.85779">
        <ele>388</ele>
        <time>2016-01-30T10:19:11.282Z</time>
      </trkpt>
      <trkpt lat="43.63867" lon="5.85783">
        <ele>388</ele>
        <time>2016-01-30T10:19:12.258Z</time>
      </trkpt>
      <trkpt lat="43.63871" lon="5.85793">
        <ele>388</ele>
        <time>2016-01-30T10:19:15.282Z</time>
      </trkpt>
      <trkpt lat="43.63872" lon="5.85797">
        <ele>389</ele>
        <time>2016-01-30T10:19:16.258Z</time>
      </trkpt>
      <trkpt lat="43.63874" lon="5.85808">
        <ele>390</ele>
        <time>2016-01-30T10:19:19.282Z</time>
      </trkpt>
      <trkpt lat="43.63875" lon="5.85811">
        <ele>390</ele>
        <time>2016-01-30T10:19:20.258Z</time>
      </trkpt>
      <trkpt lat="43.63876" lon="5.85821">
        <ele>392</ele>
        <time>2016-01-30T10:19:25.282Z</time>
      </trkpt>
      <trkpt lat="43.63876" lon="5.85823">
        <ele>392</ele>
        <time>2016-01-30T10:19:26.258Z</time>
      </trkpt>
      <trkpt lat="43.63878" lon="5.85834">
        <ele>394</ele>
        <time>2016-01-30T10:19:32.282Z</time>
      </trkpt>
      <trkpt lat="43.63879" lon="5.85836">
        <ele>394</ele>
        <time>2016-01-30T10:19:33.253Z</time>
      </trkpt>
      <trkpt lat="43.63881" lon="5.85847">
        <ele>395</ele>
        <time>2016-01-30T10:19:59.282Z</time>
      </trkpt>
      <trkpt lat="43.63881" lon="5.85849">
        <ele>394</ele>
        <time>2016-01-30T10:20:00.250Z</time>
      </trkpt>
      <trkpt lat="43.63885" lon="5.85859">
        <ele>395</ele>
        <time>2016-01-30T10:20:05.282Z</time>
      </trkpt>
      <trkpt lat="43.63886" lon="5.85862">
        <ele>395</ele>
        <time>2016-01-30T10:20:06.255Z</time>
      </trkpt>
      <trkpt lat="43.63887" lon="5.85873">
        <ele>396</ele>
        <time>2016-01-30T10:20:11.282Z</time>
      </trkpt>
      <trkpt lat="43.63887" lon="5.85875">
        <ele>396</ele>
        <time>2016-01-30T10:20:12.254Z</time>
      </trkpt>
      <trkpt lat="43.6389" lon="5.85885">
        <ele>396</ele>
        <time>2016-01-30T10:20:17.282Z</time>
      </trkpt>
      <trkpt lat="43.63891" lon="5.85887">
        <ele>396</ele>
        <time>2016-01-30T10:20:18.258Z</time>
      </trkpt>
      <trkpt lat="43.63892" lon="5.85898">
        <ele>398</ele>
        <time>2016-01-30T10:20:23.313Z</time>
      </trkpt>
      <trkpt lat="43.63892" lon="5.859">
        <ele>398</ele>
        <time>2016-01-30T10:20:24.256Z</time>
      </trkpt>
      <trkpt lat="43.63896" lon="5.8591">
        <ele>398</ele>
        <time>2016-01-30T10:20:29.284Z</time>
      </trkpt>
      <trkpt lat="43.63897" lon="5.85912">
        <ele>399</ele>
        <time>2016-01-30T10:20:30.257Z</time>
      </trkpt>
      <trkpt lat="43.63901" lon="5.85922">
        <ele>399</ele>
        <time>2016-01-30T10:20:35.282Z</time>
      </trkpt>
      <trkpt lat="43.63902" lon="5.85924">
        <ele>399</ele>
        <time>2016-01-30T10:20:36.258Z</time>
      </trkpt>
      <trkpt lat="43.63905" lon="5.85934">
        <ele>400</ele>
        <time>2016-01-30T10:20:41.283Z</time>
      </trkpt>
      <trkpt lat="43.63906" lon="5.85936">
        <ele>400</ele>
        <time>2016-01-30T10:20:42.258Z</time>
      </trkpt>
      <trkpt lat="43.63908" lon="5.85946">
        <ele>401</ele>
        <time>2016-01-30T10:20:47.282Z</time>
      </trkpt>
      <trkpt lat="43.63909" lon="5.85948">
        <ele>401</ele>
        <time>2016-01-30T10:20:48.258Z</time>
      </trkpt>
      <trkpt lat="43.6391" lon="5.85959">
        <ele>401</ele>
        <time>2016-01-30T10:20:53.322Z</time>
      </trkpt>
      <trkpt lat="43.6391" lon="5.85961">
        <ele>401</ele>
        <time>2016-01-30T10:20:54.255Z</time>
      </trkpt>
      <trkpt lat="43.63912" lon="5.85973">
        <ele>402</ele>
        <time>2016-01-30T10:20:59.283Z</time>
      </trkpt>
      <trkpt lat="43.63913" lon="5.85975">
        <ele>402</ele>
        <time>2016-01-30T10:21:00.260Z</time>
      </trkpt>
      <trkpt lat="43.63914" lon="5.85984">
        <ele>403</ele>
        <time>2016-01-30T10:21:03.284Z</time>
      </trkpt>
      <trkpt lat="43.63915" lon="5.85988">
        <ele>403</ele>
        <time>2016-01-30T10:21:04.292Z</time>
      </trkpt>
      <trkpt lat="43.63917" lon="5.85998">
        <ele>402</ele>
        <time>2016-01-30T10:21:07.279Z</time>
      </trkpt>
      <trkpt lat="43.63917" lon="5.86001">
        <ele>402</ele>
        <time>2016-01-30T10:21:08.259Z</time>
      </trkpt>
      <trkpt lat="43.63916" lon="5.86012">
        <ele>403</ele>
        <time>2016-01-30T10:21:13.285Z</time>
      </trkpt>
      <trkpt lat="43.63915" lon="5.86016">
        <ele>403</ele>
        <time>2016-01-30T10:21:14.259Z</time>
      </trkpt>
      <trkpt lat="43.63914" lon="5.86026">
        <ele>403</ele>
        <time>2016-01-30T10:21:17.283Z</time>
      </trkpt>
      <trkpt lat="43.63914" lon="5.8603">
        <ele>403</ele>
        <time>2016-01-30T10:21:18.259Z</time>
      </trkpt>
      <trkpt lat="43.63913" lon="5.86041">
        <ele>403</ele>
        <time>2016-01-30T10:21:21.284Z</time>
      </trkpt>
      <trkpt lat="43.63913" lon="5.86045">
        <ele>404</ele>
        <time>2016-01-30T10:21:22.259Z</time>
      </trkpt>
      <trkpt lat="43.63914" lon="5.86055">
        <ele>403</ele>
        <time>2016-01-30T10:21:25.280Z</time>
      </trkpt>
      <trkpt lat="43.63914" lon="5.86058">
        <ele>403</ele>
        <time>2016-01-30T10:21:26.286Z</time>
      </trkpt>
      <trkpt lat="43.63915" lon="5.86068">
        <ele>404</ele>
        <time>2016-01-30T10:21:29.284Z</time>
      </trkpt>
      <trkpt lat="43.63915" lon="5.86072">
        <ele>405</ele>
        <time>2016-01-30T10:21:30.259Z</time>
      </trkpt>
      <trkpt lat="43.63917" lon="5.86082">
        <ele>405</ele>
        <time>2016-01-30T10:21:33.283Z</time>
      </trkpt>
      <trkpt lat="43.63917" lon="5.86085">
        <ele>405</ele>
        <time>2016-01-30T10:21:34.259Z</time>
      </trkpt>
      <trkpt lat="43.63921" lon="5.86095">
        <ele>406</ele>
        <time>2016-01-30T10:21:38.284Z</time>
      </trkpt>
      <trkpt lat="43.63921" lon="5.86097">
        <ele>406</ele>
        <time>2016-01-30T10:21:39.260Z</time>
      </trkpt>
      <trkpt lat="43.63922" lon="5.86109">
        <ele>408</ele>
        <time>2016-01-30T10:21:43.284Z</time>
      </trkpt>
      <trkpt lat="43.63922" lon="5.86112">
        <ele>408</ele>
        <time>2016-01-30T10:21:44.259Z</time>
      </trkpt>
      <trkpt lat="43.63922" lon="5.86124">
        <ele>409</ele>
        <time>2016-01-30T10:21:48.286Z</time>
      </trkpt>
      <trkpt lat="43.63922" lon="5.86127">
        <ele>409</ele>
        <time>2016-01-30T10:21:49.255Z</time>
      </trkpt>
      <trkpt lat="43.63923" lon="5.86138">
        <ele>409</ele>
        <time>2016-01-30T10:21:53.283Z</time>
      </trkpt>
      <trkpt lat="43.63924" lon="5.86141">
        <ele>409</ele>
        <time>2016-01-30T10:21:54.259Z</time>
      </trkpt>
      <trkpt lat="43.63926" lon="5.86152">
        <ele>407</ele>
        <time>2016-01-30T10:21:58.282Z</time>
      </trkpt>
      <trkpt lat="43.63926" lon="5.86154">
        <ele>408</ele>
        <time>2016-01-30T10:21:59.289Z</time>
      </trkpt>
      <trkpt lat="43.63925" lon="5.86164">
        <ele>410</ele>
        <time>2016-01-30T10:22:02.284Z</time>
      </trkpt>
      <trkpt lat="43.63924" lon="5.86167">
        <ele>410</ele>
        <time>2016-01-30T10:22:03.259Z</time>
      </trkpt>
      <trkpt lat="43.63923" lon="5.86176">
        <ele>411</ele>
        <time>2016-01-30T10:22:06.284Z</time>
      </trkpt>
      <trkpt lat="43.63922" lon="5.86179">
        <ele>412</ele>
        <time>2016-01-30T10:22:07.249Z</time>
      </trkpt>
      <trkpt lat="43.6392" lon="5.86189">
        <ele>412</ele>
        <time>2016-01-30T10:22:10.320Z</time>
      </trkpt>
      <trkpt lat="43.6392" lon="5.86192">
        <ele>413</ele>
        <time>2016-01-30T10:22:11.260Z</time>
      </trkpt>
      <trkpt lat="43.63919" lon="5.86204">
        <ele>413</ele>
        <time>2016-01-30T10:22:15.285Z</time>
      </trkpt>
      <trkpt lat="43.63918" lon="5.86207">
        <ele>413</ele>
        <time>2016-01-30T10:22:16.258Z</time>
      </trkpt>
      <trkpt lat="43.63917" lon="5.86218">
        <ele>413</ele>
        <time>2016-01-30T10:22:20.287Z</time>
      </trkpt>
      <trkpt lat="43.63917" lon="5.86221">
        <ele>413</ele>
        <time>2016-01-30T10:22:21.507Z</time>
      </trkpt>
      <trkpt lat="43.63916" lon="5.86231">
        <ele>412</ele>
        <time>2016-01-30T10:22:24.285Z</time>
      </trkpt>
      <trkpt lat="43.63915" lon="5.86237">
        <ele>411</ele>
        <time>2016-01-30T10:22:25.256Z</time>
      </trkpt>
      <trkpt lat="43.63915" lon="5.86249">
        <ele>411</ele>
        <time>2016-01-30T10:22:26.283Z</time>
      </trkpt>
      <trkpt lat="43.63917" lon="5.86256">
        <ele>410</ele>
        <time>2016-01-30T10:22:27.269Z</time>
      </trkpt>
      <trkpt lat="43.63916" lon="5.86264">
        <ele>409</ele>
        <time>2016-01-30T10:22:28.282Z</time>
      </trkpt>
      <trkpt lat="43.63913" lon="5.86272">
        <ele>409</ele>
        <time>2016-01-30T10:22:29.259Z</time>
      </trkpt>
      <trkpt lat="43.6391" lon="5.86279">
        <ele>409</ele>
        <time>2016-01-30T10:22:30.283Z</time>
      </trkpt>
      <trkpt lat="43.63907" lon="5.86286">
        <ele>409</ele>
        <time>2016-01-30T10:22:31.261Z</time>
      </trkpt>
      <trkpt lat="43.63903" lon="5.86293">
        <ele>409</ele>
        <time>2016-01-30T10:22:32.535Z</time>
      </trkpt>
      <trkpt lat="43.639" lon="5.86298">
        <ele>409</ele>
        <time>2016-01-30T10:22:33.249Z</time>
      </trkpt>
      <trkpt lat="43.63897" lon="5.86304">
        <ele>409</ele>
        <time>2016-01-30T10:22:34.281Z</time>
      </trkpt>
      <trkpt lat="43.63895" lon="5.86308">
        <ele>409</ele>
        <time>2016-01-30T10:22:35.259Z</time>
      </trkpt>
      <trkpt lat="43.6389" lon="5.86315">
        <ele>409</ele>
        <time>2016-01-30T10:22:37.284Z</time>
      </trkpt>
      <trkpt lat="43.63889" lon="5.86318">
        <ele>410</ele>
        <time>2016-01-30T10:22:38.261Z</time>
      </trkpt>
      <trkpt lat="43.63883" lon="5.86324">
        <ele>411</ele>
        <time>2016-01-30T10:22:41.280Z</time>
      </trkpt>
      <trkpt lat="43.63882" lon="5.86326">
        <ele>411</ele>
        <time>2016-01-30T10:22:42.259Z</time>
      </trkpt>
      <trkpt lat="43.63876" lon="5.86333">
        <ele>412</ele>
        <time>2016-01-30T10:22:45.280Z</time>
      </trkpt>
      <trkpt lat="43.63875" lon="5.86335">
        <ele>412</ele>
        <time>2016-01-30T10:22:46.259Z</time>
      </trkpt>
      <trkpt lat="43.63869" lon="5.86344">
        <ele>413</ele>
        <time>2016-01-30T10:22:50.284Z</time>
      </trkpt>
      <trkpt lat="43.63868" lon="5.86346">
        <ele>413</ele>
        <time>2016-01-30T10:22:51.259Z</time>
      </trkpt>
      <trkpt lat="43.63863" lon="5.86353">
        <ele>415</ele>
        <time>2016-01-30T10:22:55.279Z</time>
      </trkpt>
      <trkpt lat="43.63861" lon="5.86355">
        <ele>416</ele>
        <time>2016-01-30T10:22:56.260Z</time>
      </trkpt>
      <trkpt lat="43.63855" lon="5.86362">
        <ele>415</ele>
        <time>2016-01-30T10:23:00.287Z</time>
      </trkpt>
      <trkpt lat="43.63854" lon="5.86364">
        <ele>416</ele>
        <time>2016-01-30T10:23:01.259Z</time>
      </trkpt>
      <trkpt lat="43.6385" lon="5.86373">
        <ele>418</ele>
        <time>2016-01-30T10:23:05.281Z</time>
      </trkpt>
      <trkpt lat="43.63849" lon="5.86376">
        <ele>418</ele>
        <time>2016-01-30T10:23:06.259Z</time>
      </trkpt>
      <trkpt lat="43.63853" lon="5.86385">
        <ele>418</ele>
        <time>2016-01-30T10:23:11.284Z</time>
      </trkpt>
      <trkpt lat="43.63855" lon="5.86385">
        <ele>417</ele>
        <time>2016-01-30T10:23:12.260Z</time>
      </trkpt>
      <trkpt lat="43.63862" lon="5.86391">
        <ele>416</ele>
        <time>2016-01-30T10:23:19.284Z</time>
      </trkpt>
      <trkpt lat="43.63863" lon="5.86393">
        <ele>416</ele>
        <time>2016-01-30T10:23:20.261Z</time>
      </trkpt>
      <trkpt lat="43.63871" lon="5.86395">
        <ele>415</ele>
        <time>2016-01-30T10:23:24.286Z</time>
      </trkpt>
      <trkpt lat="43.63874" lon="5.86395">
        <ele>415</ele>
        <time>2016-01-30T10:23:25.254Z</time>
      </trkpt>
      <trkpt lat="43.63883" lon="5.86399">
        <ele>416</ele>
        <time>2016-01-30T10:23:28.286Z</time>
      </trkpt>
      <trkpt lat="43.63885" lon="5.86401">
        <ele>416</ele>
        <time>2016-01-30T10:23:29.265Z</time>
      </trkpt>
      <trkpt lat="43.63891" lon="5.86407">
        <ele>418</ele>
        <time>2016-01-30T10:23:33.313Z</time>
      </trkpt>
      <trkpt lat="43.63892" lon="5.86408">
        <ele>418</ele>
        <time>2016-01-30T10:23:34.259Z</time>
      </trkpt>
      <trkpt lat="43.63898" lon="5.86416">
        <ele>417</ele>
        <time>2016-01-30T10:23:38.285Z</time>
      </trkpt>
      <trkpt lat="43.63899" lon="5.86418">
        <ele>417</ele>
        <time>2016-01-30T10:23:39.260Z</time>
      </trkpt>
      <trkpt lat="43.63906" lon="5.86425">
        <ele>419</ele>
        <time>2016-01-30T10:23:43.283Z</time>
      </trkpt>
      <trkpt lat="43.63907" lon="5.86427">
        <ele>420</ele>
        <time>2016-01-30T10:23:44.261Z</time>
      </trkpt>
      <trkpt lat="43.63912" lon="5.86433">
        <ele>420</ele>
        <time>2016-01-30T10:23:48.319Z</time>
      </trkpt>
      <trkpt lat="43.63914" lon="5.86435">
        <ele>421</ele>
        <time>2016-01-30T10:23:49.256Z</time>
      </trkpt>
      <trkpt lat="43.63919" lon="5.86443">
        <ele>422</ele>
        <time>2016-01-30T10:23:53.284Z</time>
      </trkpt>
      <trkpt lat="43.63921" lon="5.86445">
        <ele>422</ele>
        <time>2016-01-30T10:23:54.260Z</time>
      </trkpt>
      <trkpt lat="43.63927" lon="5.86449">
        <ele>423</ele>
        <time>2016-01-30T10:23:58.286Z</time>
      </trkpt>
      <trkpt lat="43.63929" lon="5.8645">
        <ele>423</ele>
        <time>2016-01-30T10:23:59.286Z</time>
      </trkpt>
      <trkpt lat="43.63936" lon="5.86454">
        <ele>423</ele>
        <time>2016-01-30T10:24:03.286Z</time>
      </trkpt>
      <trkpt lat="43.63938" lon="5.86455">
        <ele>422</ele>
        <time>2016-01-30T10:24:04.261Z</time>
      </trkpt>
      <trkpt lat="43.63945" lon="5.86459">
        <ele>423</ele>
        <time>2016-01-30T10:24:08.284Z</time>
      </trkpt>
      <trkpt lat="43.63947" lon="5.86461">
        <ele>423</ele>
        <time>2016-01-30T10:24:09.260Z</time>
      </trkpt>
      <trkpt lat="43.63955" lon="5.86465">
        <ele>424</ele>
        <time>2016-01-30T10:24:13.280Z</time>
      </trkpt>
      <trkpt lat="43.63957" lon="5.86466">
        <ele>423</ele>
        <time>2016-01-30T10:24:14.260Z</time>
      </trkpt>
      <trkpt lat="43.63964" lon="5.86468">
        <ele>422</ele>
        <time>2016-01-30T10:24:16.284Z</time>
      </trkpt>
      <trkpt lat="43.63968" lon="5.86468">
        <ele>422</ele>
        <time>2016-01-30T10:24:17.260Z</time>
      </trkpt>
      <trkpt lat="43.63975" lon="5.86471">
        <ele>421</ele>
        <time>2016-01-30T10:24:19.286Z</time>
      </trkpt>
      <trkpt lat="43.63979" lon="5.86472">
        <ele>421</ele>
        <time>2016-01-30T10:24:20.251Z</time>
      </trkpt>
      <trkpt lat="43.63988" lon="5.86473">
        <ele>421</ele>
        <time>2016-01-30T10:24:22.281Z</time>
      </trkpt>
      <trkpt lat="43.63992" lon="5.86474">
        <ele>420</ele>
        <time>2016-01-30T10:24:23.261Z</time>
      </trkpt>
      <trkpt lat="43.63997" lon="5.86474">
        <ele>420</ele>
        <time>2016-01-30T10:24:24.321Z</time>
      </trkpt>
      <trkpt lat="43.64003" lon="5.86476">
        <ele>419</ele>
        <time>2016-01-30T10:24:25.257Z</time>
      </trkpt>
      <trkpt lat="43.64008" lon="5.86477">
        <ele>420</ele>
        <time>2016-01-30T10:24:26.272Z</time>
      </trkpt>
      <trkpt lat="43.64013" lon="5.86477">
        <ele>420</ele>
        <time>2016-01-30T10:24:27.256Z</time>
      </trkpt>
      <trkpt lat="43.64021" lon="5.86474">
        <ele>419</ele>
        <time>2016-01-30T10:24:29.281Z</time>
      </trkpt>
      <trkpt lat="43.64026" lon="5.86473">
        <ele>419</ele>
        <time>2016-01-30T10:24:30.259Z</time>
      </trkpt>
      <trkpt lat="43.6403" lon="5.86472">
        <ele>419</ele>
        <time>2016-01-30T10:24:31.279Z</time>
      </trkpt>
      <trkpt lat="43.64035" lon="5.8647">
        <ele>419</ele>
        <time>2016-01-30T10:24:32.289Z</time>
      </trkpt>
      <trkpt lat="43.64041" lon="5.86464">
        <ele>419</ele>
        <time>2016-01-30T10:24:34.284Z</time>
      </trkpt>
      <trkpt lat="43.64044" lon="5.8646">
        <ele>419</ele>
        <time>2016-01-30T10:24:35.259Z</time>
      </trkpt>
      <trkpt lat="43.64049" lon="5.86452">
        <ele>419</ele>
        <time>2016-01-30T10:24:37.284Z</time>
      </trkpt>
      <trkpt lat="43.64052" lon="5.86448">
        <ele>419</ele>
        <time>2016-01-30T10:24:38.268Z</time>
      </trkpt>
      <trkpt lat="43.64057" lon="5.86442">
        <ele>419</ele>
        <time>2016-01-30T10:24:40.289Z</time>
      </trkpt>
      <trkpt lat="43.64059" lon="5.8644">
        <ele>419</ele>
        <time>2016-01-30T10:24:41.256Z</time>
      </trkpt>
      <trkpt lat="43.64065" lon="5.86434">
        <ele>420</ele>
        <time>2016-01-30T10:24:44.285Z</time>
      </trkpt>
      <trkpt lat="43.64067" lon="5.86433">
        <ele>420</ele>
        <time>2016-01-30T10:24:45.260Z</time>
      </trkpt>
      <trkpt lat="43.64075" lon="5.86432">
        <ele>422</ele>
        <time>2016-01-30T10:24:49.280Z</time>
      </trkpt>
      <trkpt lat="43.64077" lon="5.86431">
        <ele>422</ele>
        <time>2016-01-30T10:24:50.261Z</time>
      </trkpt>
      <trkpt lat="43.64084" lon="5.86425">
        <ele>423</ele>
        <time>2016-01-30T10:24:55.280Z</time>
      </trkpt>
      <trkpt lat="43.64085" lon="5.86423">
        <ele>424</ele>
        <time>2016-01-30T10:24:56.259Z</time>
      </trkpt>
      <trkpt lat="43.64092" lon="5.86415">
        <ele>424</ele>
        <time>2016-01-30T10:25:02.279Z</time>
      </trkpt>
      <trkpt lat="43.64093" lon="5.86413">
        <ele>424</ele>
        <time>2016-01-30T10:25:03.260Z</time>
      </trkpt>
      <trkpt lat="43.641" lon="5.86408">
        <ele>426</ele>
        <time>2016-01-30T10:25:08.286Z</time>
      </trkpt>
      <trkpt lat="43.64101" lon="5.86407">
        <ele>426</ele>
        <time>2016-01-30T10:25:09.256Z</time>
      </trkpt>
      <trkpt lat="43.64108" lon="5.86401">
        <ele>427</ele>
        <time>2016-01-30T10:25:14.284Z</time>
      </trkpt>
      <trkpt lat="43.6411" lon="5.86399">
        <ele>427</ele>
        <time>2016-01-30T10:25:15.260Z</time>
      </trkpt>
      <trkpt lat="43.64115" lon="5.86392">
        <ele>429</ele>
        <time>2016-01-30T10:25:20.288Z</time>
      </trkpt>
      <trkpt lat="43.64117" lon="5.86391">
        <ele>430</ele>
        <time>2016-01-30T10:25:21.288Z</time>
      </trkpt>
      <trkpt lat="43.64123" lon="5.86383">
        <ele>432</ele>
        <time>2016-01-30T10:25:27.271Z</time>
      </trkpt>
      <trkpt lat="43.64124" lon="5.86382">
        <ele>433</ele>
        <time>2016-01-30T10:25:28.257Z</time>
      </trkpt>
      <trkpt lat="43.64131" lon="5.86377">
        <ele>438</ele>
        <time>2016-01-30T10:25:34.268Z</time>
      </trkpt>
      <trkpt lat="43.64133" lon="5.86376">
        <ele>438</ele>
        <time>2016-01-30T10:25:35.261Z</time>
      </trkpt>
      <trkpt lat="43.6414" lon="5.86374">
        <ele>438</ele>
        <time>2016-01-30T10:25:40.287Z</time>
      </trkpt>
      <trkpt lat="43.64142" lon="5.86373">
        <ele>439</ele>
        <time>2016-01-30T10:25:41.260Z</time>
      </trkpt>
      <trkpt lat="43.64149" lon="5.86368">
        <ele>439</ele>
        <time>2016-01-30T10:25:46.285Z</time>
      </trkpt>
      <trkpt lat="43.6415" lon="5.86367">
        <ele>438</ele>
        <time>2016-01-30T10:25:47.259Z</time>
      </trkpt>
      <trkpt lat="43.64154" lon="5.86356">
        <ele>439</ele>
        <time>2016-01-30T10:25:52.280Z</time>
      </trkpt>
      <trkpt lat="43.64155" lon="5.86355">
        <ele>439</ele>
        <time>2016-01-30T10:25:53.259Z</time>
      </trkpt>
      <trkpt lat="43.64162" lon="5.86348">
        <ele>441</ele>
        <time>2016-01-30T10:25:59.321Z</time>
      </trkpt>
      <trkpt lat="43.64164" lon="5.86347">
        <ele>441</ele>
        <time>2016-01-30T10:26:00.257Z</time>
      </trkpt>
      <trkpt lat="43.64171" lon="5.86346">
        <ele>443</ele>
        <time>2016-01-30T10:26:06.287Z</time>
      </trkpt>
      <trkpt lat="43.64173" lon="5.86345">
        <ele>444</ele>
        <time>2016-01-30T10:26:07.261Z</time>
      </trkpt>
      <trkpt lat="43.6418" lon="5.86342">
        <ele>447</ele>
        <time>2016-01-30T10:26:13.285Z</time>
      </trkpt>
      <trkpt lat="43.64181" lon="5.86341">
        <ele>447</ele>
        <time>2016-01-30T10:26:14.259Z</time>
      </trkpt>
      <trkpt lat="43.6419" lon="5.86338">
        <ele>449</ele>
        <time>2016-01-30T10:26:22.284Z</time>
      </trkpt>
      <trkpt lat="43.64191" lon="5.86337">
        <ele>448</ele>
        <time>2016-01-30T10:26:23.259Z</time>
      </trkpt>
      <trkpt lat="43.642" lon="5.86333">
        <ele>450</ele>
        <time>2016-01-30T10:26:30.282Z</time>
      </trkpt>
      <trkpt lat="43.64201" lon="5.86333">
        <ele>450</ele>
        <time>2016-01-30T10:26:31.259Z</time>
      </trkpt>
      <trkpt lat="43.64209" lon="5.86331">
        <ele>451</ele>
        <time>2016-01-30T10:26:37.316Z</time>
      </trkpt>
      <trkpt lat="43.64211" lon="5.8633">
        <ele>451</ele>
        <time>2016-01-30T10:26:38.260Z</time>
      </trkpt>
      <trkpt lat="43.64218" lon="5.86326">
        <ele>453</ele>
        <time>2016-01-30T10:26:43.285Z</time>
      </trkpt>
      <trkpt lat="43.64219" lon="5.86326">
        <ele>454</ele>
        <time>2016-01-30T10:26:44.255Z</time>
      </trkpt>
      <trkpt lat="43.64227" lon="5.8632">
        <ele>449</ele>
        <time>2016-01-30T10:27:04.285Z</time>
      </trkpt>
      <trkpt lat="43.64228" lon="5.8632">
        <ele>448</ele>
        <time>2016-01-30T10:27:05.260Z</time>
      </trkpt>
      <trkpt lat="43.64234" lon="5.86328">
        <ele>448</ele>
        <time>2016-01-30T10:27:10.314Z</time>
      </trkpt>
      <trkpt lat="43.64234" lon="5.86329">
        <ele>450</ele>
        <time>2016-01-30T10:27:11.259Z</time>
      </trkpt>
      <trkpt lat="43.64241" lon="5.86337">
        <ele>452</ele>
        <time>2016-01-30T10:27:19.284Z</time>
      </trkpt>
      <trkpt lat="43.64241" lon="5.86338">
        <ele>452</ele>
        <time>2016-01-30T10:27:20.261Z</time>
      </trkpt>
      <trkpt lat="43.64248" lon="5.86346">
        <ele>452</ele>
        <time>2016-01-30T10:27:27.282Z</time>
      </trkpt>
      <trkpt lat="43.64249" lon="5.86347">
        <ele>452</ele>
        <time>2016-01-30T10:27:28.256Z</time>
      </trkpt>
      <trkpt lat="43.64255" lon="5.86355">
        <ele>454</ele>
        <time>2016-01-30T10:27:34.501Z</time>
      </trkpt>
      <trkpt lat="43.64256" lon="5.86357">
        <ele>454</ele>
        <time>2016-01-30T10:27:35.263Z</time>
      </trkpt>
      <trkpt lat="43.64263" lon="5.86364">
        <ele>453</ele>
        <time>2016-01-30T10:27:41.284Z</time>
      </trkpt>
      <trkpt lat="43.64264" lon="5.86366">
        <ele>452</ele>
        <time>2016-01-30T10:27:42.289Z</time>
      </trkpt>
      <trkpt lat="43.64269" lon="5.86373">
        <ele>452</ele>
        <time>2016-01-30T10:27:47.289Z</time>
      </trkpt>
      <trkpt lat="43.6427" lon="5.86375">
        <ele>452</ele>
        <time>2016-01-30T10:27:48.262Z</time>
      </trkpt>
      <trkpt lat="43.64276" lon="5.86383">
        <ele>453</ele>
        <time>2016-01-30T10:27:53.286Z</time>
      </trkpt>
      <trkpt lat="43.64278" lon="5.86384">
        <ele>453</ele>
        <time>2016-01-30T10:27:54.259Z</time>
      </trkpt>
      <trkpt lat="43.64283" lon="5.86393">
        <ele>452</ele>
        <time>2016-01-30T10:27:59.282Z</time>
      </trkpt>
      <trkpt lat="43.64284" lon="5.86395">
        <ele>453</ele>
        <time>2016-01-30T10:28:00.428Z</time>
      </trkpt>
      <trkpt lat="43.64289" lon="5.86404">
        <ele>454</ele>
        <time>2016-01-30T10:28:05.283Z</time>
      </trkpt>
      <trkpt lat="43.64291" lon="5.86406">
        <ele>454</ele>
        <time>2016-01-30T10:28:06.262Z</time>
      </trkpt>
      <trkpt lat="43.64296" lon="5.86414">
        <ele>455</ele>
        <time>2016-01-30T10:28:10.286Z</time>
      </trkpt>
      <trkpt lat="43.64297" lon="5.86416">
        <ele>455</ele>
        <time>2016-01-30T10:28:11.256Z</time>
      </trkpt>
      <trkpt lat="43.64303" lon="5.86425">
        <ele>454</ele>
        <time>2016-01-30T10:28:15.287Z</time>
      </trkpt>
      <trkpt lat="43.64305" lon="5.86427">
        <ele>454</ele>
        <time>2016-01-30T10:28:16.261Z</time>
      </trkpt>
      <trkpt lat="43.6431" lon="5.86436">
        <ele>455</ele>
        <time>2016-01-30T10:28:20.322Z</time>
      </trkpt>
      <trkpt lat="43.64312" lon="5.86439">
        <ele>455</ele>
        <time>2016-01-30T10:28:21.261Z</time>
      </trkpt>
      <trkpt lat="43.64318" lon="5.86448">
        <ele>454</ele>
        <time>2016-01-30T10:28:25.287Z</time>
      </trkpt>
      <trkpt lat="43.6432" lon="5.86449">
        <ele>455</ele>
        <time>2016-01-30T10:28:26.263Z</time>
      </trkpt>
      <trkpt lat="43.64325" lon="5.86458">
        <ele>456</ele>
        <time>2016-01-30T10:28:30.281Z</time>
      </trkpt>
      <trkpt lat="43.64326" lon="5.8646">
        <ele>455</ele>
        <time>2016-01-30T10:28:31.291Z</time>
      </trkpt>
      <trkpt lat="43.64331" lon="5.8647">
        <ele>456</ele>
        <time>2016-01-30T10:28:35.301Z</time>
      </trkpt>
      <trkpt lat="43.64332" lon="5.86473">
        <ele>456</ele>
        <time>2016-01-30T10:28:36.261Z</time>
      </trkpt>
      <trkpt lat="43.64338" lon="5.86481">
        <ele>457</ele>
        <time>2016-01-30T10:28:40.297Z</time>
      </trkpt>
      <trkpt lat="43.64339" lon="5.86483">
        <ele>456</ele>
        <time>2016-01-30T10:28:41.258Z</time>
      </trkpt>
      <trkpt lat="43.64346" lon="5.86492">
        <ele>455</ele>
        <time>2016-01-30T10:28:45.293Z</time>
      </trkpt>
      <trkpt lat="43.64347" lon="5.86494">
        <ele>456</ele>
        <time>2016-01-30T10:28:46.261Z</time>
      </trkpt>
      <trkpt lat="43.64352" lon="5.86503">
        <ele>457</ele>
        <time>2016-01-30T10:28:50.296Z</time>
      </trkpt>
      <trkpt lat="43.64353" lon="5.86505">
        <ele>458</ele>
        <time>2016-01-30T10:28:51.261Z</time>
      </trkpt>
      <trkpt lat="43.64358" lon="5.86513">
        <ele>458</ele>
        <time>2016-01-30T10:28:55.282Z</time>
      </trkpt>
      <trkpt lat="43.64359" lon="5.86516">
        <ele>458</ele>
        <time>2016-01-30T10:28:56.261Z</time>
      </trkpt>
      <trkpt lat="43.64365" lon="5.86523">
        <ele>458</ele>
        <time>2016-01-30T10:28:59.287Z</time>
      </trkpt>
      <trkpt lat="43.64366" lon="5.86525">
        <ele>458</ele>
        <time>2016-01-30T10:29:00.262Z</time>
      </trkpt>
      <trkpt lat="43.64371" lon="5.86532">
        <ele>458</ele>
        <time>2016-01-30T10:29:03.282Z</time>
      </trkpt>
      <trkpt lat="43.64373" lon="5.86535">
        <ele>459</ele>
        <time>2016-01-30T10:29:04.261Z</time>
      </trkpt>
      <trkpt lat="43.64377" lon="5.86542">
        <ele>458</ele>
        <time>2016-01-30T10:29:07.287Z</time>
      </trkpt>
      <trkpt lat="43.64379" lon="5.86545">
        <ele>457</ele>
        <time>2016-01-30T10:29:08.262Z</time>
      </trkpt>
      <trkpt lat="43.64385" lon="5.86553">
        <ele>458</ele>
        <time>2016-01-30T10:29:11.285Z</time>
      </trkpt>
      <trkpt lat="43.64386" lon="5.86556">
        <ele>458</ele>
        <time>2016-01-30T10:29:12.258Z</time>
      </trkpt>
      <trkpt lat="43.64392" lon="5.86566">
        <ele>458</ele>
        <time>2016-01-30T10:29:16.283Z</time>
      </trkpt>
      <trkpt lat="43.64394" lon="5.86568">
        <ele>458</ele>
        <time>2016-01-30T10:29:17.261Z</time>
      </trkpt>
      <trkpt lat="43.64399" lon="5.86574">
        <ele>457</ele>
        <time>2016-01-30T10:29:20.320Z</time>
      </trkpt>
      <trkpt lat="43.64401" lon="5.86576">
        <ele>457</ele>
        <time>2016-01-30T10:29:21.261Z</time>
      </trkpt>
      <trkpt lat="43.64405" lon="5.86584">
        <ele>459</ele>
        <time>2016-01-30T10:29:24.273Z</time>
      </trkpt>
      <trkpt lat="43.64407" lon="5.86586">
        <ele>459</ele>
        <time>2016-01-30T10:29:25.260Z</time>
      </trkpt>
      <trkpt lat="43.64412" lon="5.86596">
        <ele>459</ele>
        <time>2016-01-30T10:29:29.284Z</time>
      </trkpt>
      <trkpt lat="43.64414" lon="5.86598">
        <ele>459</ele>
        <time>2016-01-30T10:29:30.262Z</time>
      </trkpt>
      <trkpt lat="43.64419" lon="5.86607">
        <ele>460</ele>
        <time>2016-01-30T10:29:34.290Z</time>
      </trkpt>
      <trkpt lat="43.64421" lon="5.86609">
        <ele>459</ele>
        <time>2016-01-30T10:29:35.257Z</time>
      </trkpt>
      <trkpt lat="43.64429" lon="5.86615">
        <ele>460</ele>
        <time>2016-01-30T10:29:39.511Z</time>
      </trkpt>
      <trkpt lat="43.6443" lon="5.86616">
        <ele>460</ele>
        <time>2016-01-30T10:29:40.259Z</time>
      </trkpt>
      <trkpt lat="43.64437" lon="5.86625">
        <ele>461</ele>
        <time>2016-01-30T10:29:44.285Z</time>
      </trkpt>
      <trkpt lat="43.64438" lon="5.86626">
        <ele>462</ele>
        <time>2016-01-30T10:29:45.261Z</time>
      </trkpt>
      <trkpt lat="43.64445" lon="5.86633">
        <ele>463</ele>
        <time>2016-01-30T10:29:49.291Z</time>
      </trkpt>
      <trkpt lat="43.64447" lon="5.86634">
        <ele>464</ele>
        <time>2016-01-30T10:29:50.268Z</time>
      </trkpt>
      <trkpt lat="43.64454" lon="5.86641">
        <ele>464</ele>
        <time>2016-01-30T10:29:54.283Z</time>
      </trkpt>
      <trkpt lat="43.64456" lon="5.86643">
        <ele>464</ele>
        <time>2016-01-30T10:29:55.270Z</time>
      </trkpt>
      <trkpt lat="43.64462" lon="5.8665">
        <ele>466</ele>
        <time>2016-01-30T10:29:59.289Z</time>
      </trkpt>
      <trkpt lat="43.64464" lon="5.86652">
        <ele>465</ele>
        <time>2016-01-30T10:30:00.263Z</time>
      </trkpt>
      <trkpt lat="43.64471" lon="5.8666">
        <ele>466</ele>
        <time>2016-01-30T10:30:04.313Z</time>
      </trkpt>
      <trkpt lat="43.64473" lon="5.86662">
        <ele>466</ele>
        <time>2016-01-30T10:30:05.260Z</time>
      </trkpt>
      <trkpt lat="43.64478" lon="5.86668">
        <ele>466</ele>
        <time>2016-01-30T10:30:08.282Z</time>
      </trkpt>
      <trkpt lat="43.6448" lon="5.8667">
        <ele>467</ele>
        <time>2016-01-30T10:30:09.261Z</time>
      </trkpt>
      <trkpt lat="43.64485" lon="5.86676">
        <ele>467</ele>
        <time>2016-01-30T10:30:12.285Z</time>
      </trkpt>
      <trkpt lat="43.64487" lon="5.86679">
        <ele>466</ele>
        <time>2016-01-30T10:30:13.261Z</time>
      </trkpt>
      <trkpt lat="43.64493" lon="5.86688">
        <ele>468</ele>
        <time>2016-01-30T10:30:17.514Z</time>
      </trkpt>
      <trkpt lat="43.64495" lon="5.8669">
        <ele>466</ele>
        <time>2016-01-30T10:30:18.262Z</time>
      </trkpt>
      <trkpt lat="43.645" lon="5.86698">
        <ele>466</ele>
        <time>2016-01-30T10:30:21.286Z</time>
      </trkpt>
      <trkpt lat="43.64502" lon="5.867">
        <ele>466</ele>
        <time>2016-01-30T10:30:22.260Z</time>
      </trkpt>
      <trkpt lat="43.64509" lon="5.86707">
        <ele>465</ele>
        <time>2016-01-30T10:30:25.285Z</time>
      </trkpt>
      <trkpt lat="43.64511" lon="5.86709">
        <ele>464</ele>
        <time>2016-01-30T10:30:26.262Z</time>
      </trkpt>
      <trkpt lat="43.64518" lon="5.86714">
        <ele>464</ele>
        <time>2016-01-30T10:30:29.286Z</time>
      </trkpt>
      <trkpt lat="43.6452" lon="5.86716">
        <ele>465</ele>
        <time>2016-01-30T10:30:30.288Z</time>
      </trkpt>
      <trkpt lat="43.64525" lon="5.86721">
        <ele>467</ele>
        <time>2016-01-30T10:30:33.276Z</time>
      </trkpt>
      <trkpt lat="43.64527" lon="5.86724">
        <ele>467</ele>
        <time>2016-01-30T10:30:34.257Z</time>
      </trkpt>
      <trkpt lat="43.64532" lon="5.86731">
        <ele>466</ele>
        <time>2016-01-30T10:30:37.283Z</time>
      </trkpt>
      <trkpt lat="43.64533" lon="5.86734">
        <ele>466</ele>
        <time>2016-01-30T10:30:38.263Z</time>
      </trkpt>
      <trkpt lat="43.64537" lon="5.86742">
        <ele>466</ele>
        <time>2016-01-30T10:30:41.293Z</time>
      </trkpt>
      <trkpt lat="43.64539" lon="5.86744">
        <ele>465</ele>
        <time>2016-01-30T10:30:42.265Z</time>
      </trkpt>
      <trkpt lat="43.64543" lon="5.86753">
        <ele>465</ele>
        <time>2016-01-30T10:30:45.286Z</time>
      </trkpt>
      <trkpt lat="43.64545" lon="5.86757">
        <ele>465</ele>
        <time>2016-01-30T10:30:46.284Z</time>
      </trkpt>
      <trkpt lat="43.6455" lon="5.86763">
        <ele>465</ele>
        <time>2016-01-30T10:30:48.286Z</time>
      </trkpt>
      <trkpt lat="43.64552" lon="5.86765">
        <ele>465</ele>
        <time>2016-01-30T10:30:49.261Z</time>
      </trkpt>
      <trkpt lat="43.64559" lon="5.86766">
        <ele>465</ele>
        <time>2016-01-30T10:30:51.288Z</time>
      </trkpt>
      <trkpt lat="43.64563" lon="5.86765">
        <ele>463</ele>
        <time>2016-01-30T10:30:52.257Z</time>
      </trkpt>
      <trkpt lat="43.64571" lon="5.86763">
        <ele>463</ele>
        <time>2016-01-30T10:30:54.286Z</time>
      </trkpt>
      <trkpt lat="43.64575" lon="5.86762">
        <ele>463</ele>
        <time>2016-01-30T10:30:55.262Z</time>
      </trkpt>
      <trkpt lat="43.64582" lon="5.86761">
        <ele>464</ele>
        <time>2016-01-30T10:30:57.314Z</time>
      </trkpt>
      <trkpt lat="43.64586" lon="5.86761">
        <ele>463</ele>
        <time>2016-01-30T10:30:58.257Z</time>
      </trkpt>
      <trkpt lat="43.64592" lon="5.86759">
        <ele>463</ele>
        <time>2016-01-30T10:31:00.292Z</time>
      </trkpt>
      <trkpt lat="43.64595" lon="5.86757">
        <ele>463</ele>
        <time>2016-01-30T10:31:01.262Z</time>
      </trkpt>
      <trkpt lat="43.64599" lon="5.86749">
        <ele>460</ele>
        <time>2016-01-30T10:31:03.286Z</time>
      </trkpt>
      <trkpt lat="43.64601" lon="5.86744">
        <ele>460</ele>
        <time>2016-01-30T10:31:04.259Z</time>
      </trkpt>
      <trkpt lat="43.64604" lon="5.86736">
        <ele>459</ele>
        <time>2016-01-30T10:31:06.283Z</time>
      </trkpt>
      <trkpt lat="43.64605" lon="5.86732">
        <ele>458</ele>
        <time>2016-01-30T10:31:07.261Z</time>
      </trkpt>
      <trkpt lat="43.64611" lon="5.86727">
        <ele>461</ele>
        <time>2016-01-30T10:31:10.286Z</time>
      </trkpt>
      <trkpt lat="43.64614" lon="5.86726">
        <ele>461</ele>
        <time>2016-01-30T10:31:11.261Z</time>
      </trkpt>
      <trkpt lat="43.64621" lon="5.86728">
        <ele>462</ele>
        <time>2016-01-30T10:31:14.279Z</time>
      </trkpt>
      <trkpt lat="43.64624" lon="5.86731">
        <ele>462</ele>
        <time>2016-01-30T10:31:15.261Z</time>
      </trkpt>
      <trkpt lat="43.64631" lon="5.86735">
        <ele>463</ele>
        <time>2016-01-30T10:31:17.285Z</time>
      </trkpt>
      <trkpt lat="43.64634" lon="5.86735">
        <ele>462</ele>
        <time>2016-01-30T10:31:18.261Z</time>
      </trkpt>
      <trkpt lat="43.6464" lon="5.86735">
        <ele>462</ele>
        <time>2016-01-30T10:31:20.289Z</time>
      </trkpt>
      <trkpt lat="43.64643" lon="5.86736">
        <ele>462</ele>
        <time>2016-01-30T10:31:21.267Z</time>
      </trkpt>
      <trkpt lat="43.64651" lon="5.86742">
        <ele>464</ele>
        <time>2016-01-30T10:31:24.285Z</time>
      </trkpt>
      <trkpt lat="43.64653" lon="5.86743">
        <ele>463</ele>
        <time>2016-01-30T10:31:25.257Z</time>
      </trkpt>
      <trkpt lat="43.64659" lon="5.86746">
        <ele>464</ele>
        <time>2016-01-30T10:31:27.286Z</time>
      </trkpt>
      <trkpt lat="43.64662" lon="5.86748">
        <ele>463</ele>
        <time>2016-01-30T10:31:28.259Z</time>
      </trkpt>
      <trkpt lat="43.64668" lon="5.86755">
        <ele>462</ele>
        <time>2016-01-30T10:31:30.279Z</time>
      </trkpt>
      <trkpt lat="43.64671" lon="5.86758">
        <ele>462</ele>
        <time>2016-01-30T10:31:31.256Z</time>
      </trkpt>
      <trkpt lat="43.64679" lon="5.86762">
        <ele>462</ele>
        <time>2016-01-30T10:31:33.284Z</time>
      </trkpt>
      <trkpt lat="43.64682" lon="5.86764">
        <ele>462</ele>
        <time>2016-01-30T10:31:34.257Z</time>
      </trkpt>
      <trkpt lat="43.64689" lon="5.86769">
        <ele>462</ele>
        <time>2016-01-30T10:31:36.293Z</time>
      </trkpt>
      <trkpt lat="43.64691" lon="5.86772">
        <ele>462</ele>
        <time>2016-01-30T10:31:37.263Z</time>
      </trkpt>
      <trkpt lat="43.64694" lon="5.86781">
        <ele>462</ele>
        <time>2016-01-30T10:31:39.286Z</time>
      </trkpt>
      <trkpt lat="43.64694" lon="5.86785">
        <ele>462</ele>
        <time>2016-01-30T10:31:40.293Z</time>
      </trkpt>
      <trkpt lat="43.64696" lon="5.86794">
        <ele>461</ele>
        <time>2016-01-30T10:31:42.283Z</time>
      </trkpt>
      <trkpt lat="43.64698" lon="5.86797">
        <ele>461</ele>
        <time>2016-01-30T10:31:43.260Z</time>
      </trkpt>
      <trkpt lat="43.64701" lon="5.86805">
        <ele>461</ele>
        <time>2016-01-30T10:31:45.286Z</time>
      </trkpt>
      <trkpt lat="43.64704" lon="5.86809">
        <ele>461</ele>
        <time>2016-01-30T10:31:46.261Z</time>
      </trkpt>
      <trkpt lat="43.64708" lon="5.86817">
        <ele>461</ele>
        <time>2016-01-30T10:31:48.286Z</time>
      </trkpt>
      <trkpt lat="43.64711" lon="5.86821">
        <ele>461</ele>
        <time>2016-01-30T10:31:49.262Z</time>
      </trkpt>
      <trkpt lat="43.64714" lon="5.86829">
        <ele>461</ele>
        <time>2016-01-30T10:31:51.321Z</time>
      </trkpt>
      <trkpt lat="43.64715" lon="5.86833">
        <ele>461</ele>
        <time>2016-01-30T10:31:52.258Z</time>
      </trkpt>
      <trkpt lat="43.64719" lon="5.86841">
        <ele>459</ele>
        <time>2016-01-30T10:31:54.288Z</time>
      </trkpt>
      <trkpt lat="43.64722" lon="5.86844">
        <ele>459</ele>
        <time>2016-01-30T10:31:55.257Z</time>
      </trkpt>
      <trkpt lat="43.64728" lon="5.86849">
        <ele>459</ele>
        <time>2016-01-30T10:31:57.282Z</time>
      </trkpt>
      <trkpt lat="43.64731" lon="5.86851">
        <ele>459</ele>
        <time>2016-01-30T10:31:58.258Z</time>
      </trkpt>
      <trkpt lat="43.64737" lon="5.86856">
        <ele>458</ele>
        <time>2016-01-30T10:32:01.286Z</time>
      </trkpt>
      <trkpt lat="43.64739" lon="5.86858">
        <ele>458</ele>
        <time>2016-01-30T10:32:02.286Z</time>
      </trkpt>
      <trkpt lat="43.64747" lon="5.86863">
        <ele>457</ele>
        <time>2016-01-30T10:32:05.507Z</time>
      </trkpt>
      <trkpt lat="43.64749" lon="5.86866">
        <ele>457</ele>
        <time>2016-01-30T10:32:06.261Z</time>
      </trkpt>
      <trkpt lat="43.64749" lon="5.86877">
        <ele>456</ele>
        <time>2016-01-30T10:32:09.288Z</time>
      </trkpt>
      <trkpt lat="43.64751" lon="5.86879">
        <ele>456</ele>
        <time>2016-01-30T10:32:10.257Z</time>
      </trkpt>
      <trkpt lat="43.64757" lon="5.86882">
        <ele>457</ele>
        <time>2016-01-30T10:32:13.319Z</time>
      </trkpt>
      <trkpt lat="43.64759" lon="5.86884">
        <ele>457</ele>
        <time>2016-01-30T10:32:14.261Z</time>
      </trkpt>
      <trkpt lat="43.64765" lon="5.86891">
        <ele>456</ele>
        <time>2016-01-30T10:32:17.285Z</time>
      </trkpt>
      <trkpt lat="43.64768" lon="5.86894">
        <ele>455</ele>
        <time>2016-01-30T10:32:18.257Z</time>
      </trkpt>
      <trkpt lat="43.64772" lon="5.86899">
        <ele>454</ele>
        <time>2016-01-30T10:32:20.288Z</time>
      </trkpt>
      <trkpt lat="43.64774" lon="5.86903">
        <ele>454</ele>
        <time>2016-01-30T10:32:21.262Z</time>
      </trkpt>
      <trkpt lat="43.64778" lon="5.86909">
        <ele>454</ele>
        <time>2016-01-30T10:32:23.286Z</time>
      </trkpt>
      <trkpt lat="43.64781" lon="5.86912">
        <ele>454</ele>
        <time>2016-01-30T10:32:24.283Z</time>
      </trkpt>
      <trkpt lat="43.6479" lon="5.86912">
        <ele>454</ele>
        <time>2016-01-30T10:32:27.287Z</time>
      </trkpt>
      <trkpt lat="43.64791" lon="5.8691">
        <ele>454</ele>
        <time>2016-01-30T10:32:28.258Z</time>
      </trkpt>
      <trkpt lat="43.64798" lon="5.86916">
        <ele>454</ele>
        <time>2016-01-30T10:32:49.290Z</time>
      </trkpt>
      <trkpt lat="43.64799" lon="5.86919">
        <ele>453</ele>
        <time>2016-01-30T10:32:50.261Z</time>
      </trkpt>
      <trkpt lat="43.64807" lon="5.86924">
        <ele>450</ele>
        <time>2016-01-30T10:33:02.287Z</time>
      </trkpt>
      <trkpt lat="43.64808" lon="5.86924">
        <ele>450</ele>
        <time>2016-01-30T10:33:03.262Z</time>
      </trkpt>
      <trkpt lat="43.64816" lon="5.86924">
        <ele>450</ele>
        <time>2016-01-30T10:33:13.282Z</time>
      </trkpt>
      <trkpt lat="43.64817" lon="5.86926">
        <ele>449</ele>
        <time>2016-01-30T10:33:14.262Z</time>
      </trkpt>
      <trkpt lat="43.64822" lon="5.86931">
        <ele>448</ele>
        <time>2016-01-30T10:33:16.283Z</time>
      </trkpt>
      <trkpt lat="43.64826" lon="5.86933">
        <ele>448</ele>
        <time>2016-01-30T10:33:17.263Z</time>
      </trkpt>
      <trkpt lat="43.64834" lon="5.86934">
        <ele>448</ele>
        <time>2016-01-30T10:33:21.286Z</time>
      </trkpt>
      <trkpt lat="43.64836" lon="5.86935">
        <ele>448</ele>
        <time>2016-01-30T10:33:22.258Z</time>
      </trkpt>
      <trkpt lat="43.64844" lon="5.86938">
        <ele>449</ele>
        <time>2016-01-30T10:33:25.287Z</time>
      </trkpt>
      <trkpt lat="43.64847" lon="5.86939">
        <ele>448</ele>
        <time>2016-01-30T10:33:26.262Z</time>
      </trkpt>
      <trkpt lat="43.64855" lon="5.8694">
        <ele>448</ele>
        <time>2016-01-30T10:33:33.286Z</time>
      </trkpt>
      <trkpt lat="43.64857" lon="5.86939">
        <ele>448</ele>
        <time>2016-01-30T10:33:34.288Z</time>
      </trkpt>
      <trkpt lat="43.64864" lon="5.86937">
        <ele>448</ele>
        <time>2016-01-30T10:33:36.286Z</time>
      </trkpt>
      <trkpt lat="43.64867" lon="5.86937">
        <ele>449</ele>
        <time>2016-01-30T10:33:37.263Z</time>
      </trkpt>
      <trkpt lat="43.64873" lon="5.86936">
        <ele>449</ele>
        <time>2016-01-30T10:33:39.286Z</time>
      </trkpt>
      <trkpt lat="43.64877" lon="5.86935">
        <ele>448</ele>
        <time>2016-01-30T10:33:40.263Z</time>
      </trkpt>
      <trkpt lat="43.64883" lon="5.86933">
        <ele>444</ele>
        <time>2016-01-30T10:33:42.282Z</time>
      </trkpt>
      <trkpt lat="43.64885" lon="5.86931">
        <ele>444</ele>
        <time>2016-01-30T10:33:43.262Z</time>
      </trkpt>
      <trkpt lat="43.64894" lon="5.8693">
        <ele>444</ele>
        <time>2016-01-30T10:33:46.286Z</time>
      </trkpt>
      <trkpt lat="43.64897" lon="5.86929">
        <ele>444</ele>
        <time>2016-01-30T10:33:47.263Z</time>
      </trkpt>
      <trkpt lat="43.64904" lon="5.86929">
        <ele>442</ele>
        <time>2016-01-30T10:33:49.288Z</time>
      </trkpt>
      <trkpt lat="43.64907" lon="5.8693">
        <ele>442</ele>
        <time>2016-01-30T10:33:50.263Z</time>
      </trkpt>
      <trkpt lat="43.64914" lon="5.86931">
        <ele>445</ele>
        <time>2016-01-30T10:33:52.284Z</time>
      </trkpt>
      <trkpt lat="43.64917" lon="5.8693">
        <ele>444</ele>
        <time>2016-01-30T10:33:53.262Z</time>
      </trkpt>
      <trkpt lat="43.64924" lon="5.86928">
        <ele>445</ele>
        <time>2016-01-30T10:33:55.288Z</time>
      </trkpt>
      <trkpt lat="43.64927" lon="5.86928">
        <ele>445</ele>
        <time>2016-01-30T10:33:56.284Z</time>
      </trkpt>
      <trkpt lat="43.64934" lon="5.86927">
        <ele>444</ele>
        <time>2016-01-30T10:33:58.287Z</time>
      </trkpt>
      <trkpt lat="43.64938" lon="5.86927">
        <ele>444</ele>
        <time>2016-01-30T10:33:59.258Z</time>
      </trkpt>
      <trkpt lat="43.64945" lon="5.86929">
        <ele>443</ele>
        <time>2016-01-30T10:34:01.286Z</time>
      </trkpt>
      <trkpt lat="43.64948" lon="5.86929">
        <ele>442</ele>
        <time>2016-01-30T10:34:02.267Z</time>
      </trkpt>
      <trkpt lat="43.64956" lon="5.86924">
        <ele>440</ele>
        <time>2016-01-30T10:34:05.293Z</time>
      </trkpt>
      <trkpt lat="43.64959" lon="5.86922">
        <ele>438</ele>
        <time>2016-01-30T10:34:06.264Z</time>
      </trkpt>
      <trkpt lat="43.64963" lon="5.8692">
        <ele>439</ele>
        <time>2016-01-30T10:34:07.296Z</time>
      </trkpt>
      <trkpt lat="43.64971" lon="5.86917">
        <ele>438</ele>
        <time>2016-01-30T10:34:08.262Z</time>
      </trkpt>
      <trkpt lat="43.64972" lon="5.8691">
        <ele>438</ele>
        <time>2016-01-30T10:34:18.286Z</time>
      </trkpt>
      <trkpt lat="43.64974" lon="5.86905">
        <ele>437</ele>
        <time>2016-01-30T10:34:19.262Z</time>
      </trkpt>
      <trkpt lat="43.64978" lon="5.86896">
        <ele>437</ele>
        <time>2016-01-30T10:34:22.285Z</time>
      </trkpt>
      <trkpt lat="43.64979" lon="5.86894">
        <ele>438</ele>
        <time>2016-01-30T10:34:23.261Z</time>
      </trkpt>
      <trkpt lat="43.64987" lon="5.86891">
        <ele>441</ele>
        <time>2016-01-30T10:34:30.286Z</time>
      </trkpt>
      <trkpt lat="43.64988" lon="5.86891">
        <ele>441</ele>
        <time>2016-01-30T10:34:31.262Z</time>
      </trkpt>
      <trkpt lat="43.64996" lon="5.86892">
        <ele>444</ele>
        <time>2016-01-30T10:34:37.285Z</time>
      </trkpt>
      <trkpt lat="43.64997" lon="5.86893">
        <ele>444</ele>
        <time>2016-01-30T10:34:38.262Z</time>
      </trkpt>
      <trkpt lat="43.65006" lon="5.86893">
        <ele>448</ele>
        <time>2016-01-30T10:34:48.281Z</time>
      </trkpt>
      <trkpt lat="43.65007" lon="5.86893">
        <ele>448</ele>
        <time>2016-01-30T10:34:49.289Z</time>
      </trkpt>
      <trkpt lat="43.65014" lon="5.86887">
        <ele>450</ele>
        <time>2016-01-30T10:35:01.281Z</time>
      </trkpt>
      <trkpt lat="43.65015" lon="5.86887">
        <ele>450</ele>
        <time>2016-01-30T10:35:02.262Z</time>
      </trkpt>
      <trkpt lat="43.65023" lon="5.86884">
        <ele>449</ele>
        <time>2016-01-30T10:35:12.286Z</time>
      </trkpt>
      <trkpt lat="43.65024" lon="5.86883">
        <ele>450</ele>
        <time>2016-01-30T10:35:13.261Z</time>
      </trkpt>
      <trkpt lat="43.65033" lon="5.86882">
        <ele>450</ele>
        <time>2016-01-30T10:36:18.286Z</time>
      </trkpt>
      <trkpt lat="43.65034" lon="5.86882">
        <ele>450</ele>
        <time>2016-01-30T10:36:19.262Z</time>
      </trkpt>
      <trkpt lat="43.65042" lon="5.86877">
        <ele>451</ele>
        <time>2016-01-30T10:36:32.287Z</time>
      </trkpt>
      <trkpt lat="43.65042" lon="5.86876">
        <ele>451</ele>
        <time>2016-01-30T10:36:33.261Z</time>
      </trkpt>
      <trkpt lat="43.6505" lon="5.86874">
        <ele>453</ele>
        <time>2016-01-30T10:36:43.282Z</time>
      </trkpt>
      <trkpt lat="43.65051" lon="5.86875">
        <ele>453</ele>
        <time>2016-01-30T10:36:44.262Z</time>
      </trkpt>
      <trkpt lat="43.65058" lon="5.86869">
        <ele>454</ele>
        <time>2016-01-30T10:36:56.287Z</time>
      </trkpt>
      <trkpt lat="43.65059" lon="5.86867">
        <ele>453</ele>
        <time>2016-01-30T10:36:57.265Z</time>
      </trkpt>
      <trkpt lat="43.65065" lon="5.86862">
        <ele>453</ele>
        <time>2016-01-30T10:37:01.287Z</time>
      </trkpt>
      <trkpt lat="43.65067" lon="5.86861">
        <ele>453</ele>
        <time>2016-01-30T10:37:02.259Z</time>
      </trkpt>
      <trkpt lat="43.65074" lon="5.86856">
        <ele>453</ele>
        <time>2016-01-30T10:37:06.292Z</time>
      </trkpt>
      <trkpt lat="43.65075" lon="5.86855">
        <ele>453</ele>
        <time>2016-01-30T10:37:07.258Z</time>
      </trkpt>
      <trkpt lat="43.65081" lon="5.86848">
        <ele>452</ele>
        <time>2016-01-30T10:37:11.283Z</time>
      </trkpt>
      <trkpt lat="43.65083" lon="5.86846">
        <ele>452</ele>
        <time>2016-01-30T10:37:12.263Z</time>
      </trkpt>
      <trkpt lat="43.65091" lon="5.86847">
        <ele>455</ele>
        <time>2016-01-30T10:37:30.282Z</time>
      </trkpt>
      <trkpt lat="43.65093" lon="5.86848">
        <ele>455</ele>
        <time>2016-01-30T10:37:31.261Z</time>
      </trkpt>
      <trkpt lat="43.651" lon="5.86852">
        <ele>456</ele>
        <time>2016-01-30T10:37:35.285Z</time>
      </trkpt>
      <trkpt lat="43.65102" lon="5.86852">
        <ele>456</ele>
        <time>2016-01-30T10:37:36.290Z</time>
      </trkpt>
      <trkpt lat="43.6511" lon="5.8685">
        <ele>456</ele>
        <time>2016-01-30T10:37:40.291Z</time>
      </trkpt>
      <trkpt lat="43.65113" lon="5.86848">
        <ele>456</ele>
        <time>2016-01-30T10:37:41.263Z</time>
      </trkpt>
      <trkpt lat="43.65121" lon="5.86845">
        <ele>457</ele>
        <time>2016-01-30T10:37:44.274Z</time>
      </trkpt>
      <trkpt lat="43.65123" lon="5.86845">
        <ele>457</ele>
        <time>2016-01-30T10:37:45.257Z</time>
      </trkpt>
      <trkpt lat="43.6513" lon="5.8685">
        <ele>457</ele>
        <time>2016-01-30T10:37:48.288Z</time>
      </trkpt>
      <trkpt lat="43.65132" lon="5.86852">
        <ele>457</ele>
        <time>2016-01-30T10:37:49.263Z</time>
      </trkpt>
      <trkpt lat="43.65138" lon="5.86861">
        <ele>456</ele>
        <time>2016-01-30T10:37:53.284Z</time>
      </trkpt>
      <trkpt lat="43.65139" lon="5.86864">
        <ele>456</ele>
        <time>2016-01-30T10:37:54.263Z</time>
      </trkpt>
      <trkpt lat="43.65143" lon="5.86873">
        <ele>458</ele>
        <time>2016-01-30T10:37:58.288Z</time>
      </trkpt>
      <trkpt lat="43.65144" lon="5.86875">
        <ele>458</ele>
        <time>2016-01-30T10:37:59.264Z</time>
      </trkpt>
      <trkpt lat="43.65149" lon="5.86883">
        <ele>458</ele>
        <time>2016-01-30T10:38:03.265Z</time>
      </trkpt>
      <trkpt lat="43.65151" lon="5.86883">
        <ele>458</ele>
        <time>2016-01-30T10:38:04.263Z</time>
      </trkpt>
      <trkpt lat="43.65156" lon="5.86892">
        <ele>461</ele>
        <time>2016-01-30T10:38:09.288Z</time>
      </trkpt>
      <trkpt lat="43.65156" lon="5.86894">
        <ele>461</ele>
        <time>2016-01-30T10:38:10.252Z</time>
      </trkpt>
      <trkpt lat="43.65154" lon="5.86905">
        <ele>463</ele>
        <time>2016-01-30T10:38:15.288Z</time>
      </trkpt>
      <trkpt lat="43.65154" lon="5.86908">
        <ele>463</ele>
        <time>2016-01-30T10:38:16.263Z</time>
      </trkpt>
      <trkpt lat="43.65155" lon="5.8692">
        <ele>464</ele>
        <time>2016-01-30T10:38:22.288Z</time>
      </trkpt>
      <trkpt lat="43.65156" lon="5.86922">
        <ele>464</ele>
        <time>2016-01-30T10:38:23.258Z</time>
      </trkpt>
      <trkpt lat="43.65162" lon="5.86929">
        <ele>465</ele>
        <time>2016-01-30T10:38:29.287Z</time>
      </trkpt>
      <trkpt lat="43.65164" lon="5.8693">
        <ele>465</ele>
        <time>2016-01-30T10:38:30.258Z</time>
      </trkpt>
      <trkpt lat="43.65166" lon="5.86942">
        <ele>466</ele>
        <time>2016-01-30T10:38:37.286Z</time>
      </trkpt>
      <trkpt lat="43.65166" lon="5.86944">
        <ele>466</ele>
        <time>2016-01-30T10:38:38.263Z</time>
      </trkpt>
      <trkpt lat="43.65166" lon="5.86955">
        <ele>466</ele>
        <time>2016-01-30T10:38:44.286Z</time>
      </trkpt>
      <trkpt lat="43.65167" lon="5.86958">
        <ele>466</ele>
        <time>2016-01-30T10:38:45.263Z</time>
      </trkpt>
      <trkpt lat="43.65171" lon="5.86967">
        <ele>465</ele>
        <time>2016-01-30T10:38:51.287Z</time>
      </trkpt>
      <trkpt lat="43.65172" lon="5.86969">
        <ele>465</ele>
        <time>2016-01-30T10:38:52.285Z</time>
      </trkpt>
      <trkpt lat="43.65176" lon="5.86977">
        <ele>465</ele>
        <time>2016-01-30T10:38:57.287Z</time>
      </trkpt>
      <trkpt lat="43.65177" lon="5.86979">
        <ele>465</ele>
        <time>2016-01-30T10:38:58.263Z</time>
      </trkpt>
      <trkpt lat="43.65183" lon="5.86986">
        <ele>466</ele>
        <time>2016-01-30T10:39:02.287Z</time>
      </trkpt>
      <trkpt lat="43.65184" lon="5.86987">
        <ele>466</ele>
        <time>2016-01-30T10:39:03.290Z</time>
      </trkpt>
      <trkpt lat="43.65193" lon="5.86991">
        <ele>466</ele>
        <time>2016-01-30T10:39:08.282Z</time>
      </trkpt>
      <trkpt lat="43.65195" lon="5.86991">
        <ele>466</ele>
        <time>2016-01-30T10:39:09.264Z</time>
      </trkpt>
      <trkpt lat="43.65202" lon="5.86993">
        <ele>467</ele>
        <time>2016-01-30T10:39:14.311Z</time>
      </trkpt>
      <trkpt lat="43.65203" lon="5.86994">
        <ele>467</ele>
        <time>2016-01-30T10:39:15.264Z</time>
      </trkpt>
      <trkpt lat="43.65209" lon="5.87001">
        <ele>468</ele>
        <time>2016-01-30T10:39:20.290Z</time>
      </trkpt>
      <trkpt lat="43.65211" lon="5.87001">
        <ele>468</ele>
        <time>2016-01-30T10:39:21.261Z</time>
      </trkpt>
      <trkpt lat="43.65219" lon="5.87002">
        <ele>469</ele>
        <time>2016-01-30T10:39:26.283Z</time>
      </trkpt>
      <trkpt lat="43.6522" lon="5.87002">
        <ele>469</ele>
        <time>2016-01-30T10:39:27.265Z</time>
      </trkpt>
      <trkpt lat="43.65226" lon="5.87009">
        <ele>468</ele>
        <time>2016-01-30T10:39:32.268Z</time>
      </trkpt>
      <trkpt lat="43.65227" lon="5.87011">
        <ele>468</ele>
        <time>2016-01-30T10:39:33.259Z</time>
      </trkpt>
      <trkpt lat="43.65231" lon="5.8702">
        <ele>469</ele>
        <time>2016-01-30T10:39:38.333Z</time>
      </trkpt>
      <trkpt lat="43.65232" lon="5.87022">
        <ele>469</ele>
        <time>2016-01-30T10:39:39.264Z</time>
      </trkpt>
      <trkpt lat="43.65238" lon="5.87028">
        <ele>470</ele>
        <time>2016-01-30T10:39:43.289Z</time>
      </trkpt>
      <trkpt lat="43.6524" lon="5.8703">
        <ele>470</ele>
        <time>2016-01-30T10:39:44.264Z</time>
      </trkpt>
      <trkpt lat="43.65247" lon="5.87033">
        <ele>470</ele>
        <time>2016-01-30T10:39:48.288Z</time>
      </trkpt>
      <trkpt lat="43.6525" lon="5.87034">
        <ele>471</ele>
        <time>2016-01-30T10:39:49.265Z</time>
      </trkpt>
      <trkpt lat="43.65257" lon="5.87038">
        <ele>470</ele>
        <time>2016-01-30T10:39:53.284Z</time>
      </trkpt>
      <trkpt lat="43.65259" lon="5.87038">
        <ele>470</ele>
        <time>2016-01-30T10:39:54.264Z</time>
      </trkpt>
      <trkpt lat="43.65267" lon="5.87036">
        <ele>470</ele>
        <time>2016-01-30T10:39:59.270Z</time>
      </trkpt>
      <trkpt lat="43.65269" lon="5.87035">
        <ele>470</ele>
        <time>2016-01-30T10:40:00.249Z</time>
      </trkpt>
      <trkpt lat="43.65275" lon="5.87026">
        <ele>471</ele>
        <time>2016-01-30T10:40:05.279Z</time>
      </trkpt>
      <trkpt lat="43.65276" lon="5.87024">
        <ele>471</ele>
        <time>2016-01-30T10:40:06.263Z</time>
      </trkpt>
      <trkpt lat="43.65282" lon="5.87019">
        <ele>474</ele>
        <time>2016-01-30T10:40:11.287Z</time>
      </trkpt>
      <trkpt lat="43.65284" lon="5.87019">
        <ele>474</ele>
        <time>2016-01-30T10:40:12.264Z</time>
      </trkpt>
      <trkpt lat="43.65288" lon="5.87028">
        <ele>475</ele>
        <time>2016-01-30T10:40:16.288Z</time>
      </trkpt>
      <trkpt lat="43.65288" lon="5.87032">
        <ele>474</ele>
        <time>2016-01-30T10:40:17.259Z</time>
      </trkpt>
      <trkpt lat="43.65289" lon="5.87044">
        <ele>474</ele>
        <time>2016-01-30T10:40:20.288Z</time>
      </trkpt>
      <trkpt lat="43.65291" lon="5.87048">
        <ele>474</ele>
        <time>2016-01-30T10:40:21.263Z</time>
      </trkpt>
      <trkpt lat="43.65296" lon="5.87058">
        <ele>474</ele>
        <time>2016-01-30T10:40:24.284Z</time>
      </trkpt>
      <trkpt lat="43.65297" lon="5.8706">
        <ele>474</ele>
        <time>2016-01-30T10:40:25.263Z</time>
      </trkpt>
      <trkpt lat="43.65299" lon="5.87071">
        <ele>475</ele>
        <time>2016-01-30T10:40:28.287Z</time>
      </trkpt>
      <trkpt lat="43.653" lon="5.87075">
        <ele>475</ele>
        <time>2016-01-30T10:40:29.263Z</time>
      </trkpt>
      <trkpt lat="43.65302" lon="5.87086">
        <ele>475</ele>
        <time>2016-01-30T10:40:32.282Z</time>
      </trkpt>
      <trkpt lat="43.65302" lon="5.87088">
        <ele>475</ele>
        <time>2016-01-30T10:40:33.264Z</time>
      </trkpt>
      <trkpt lat="43.65303" lon="5.87099">
        <ele>475</ele>
        <time>2016-01-30T10:40:36.287Z</time>
      </trkpt>
      <trkpt lat="43.65304" lon="5.87103">
        <ele>474</ele>
        <time>2016-01-30T10:40:37.263Z</time>
      </trkpt>
      <trkpt lat="43.65306" lon="5.87114">
        <ele>473</ele>
        <time>2016-01-30T10:40:40.313Z</time>
      </trkpt>
      <trkpt lat="43.65306" lon="5.87117">
        <ele>473</ele>
        <time>2016-01-30T10:40:41.264Z</time>
      </trkpt>
      <trkpt lat="43.65307" lon="5.87129">
        <ele>474</ele>
        <time>2016-01-30T10:40:44.288Z</time>
      </trkpt>
      <trkpt lat="43.65308" lon="5.87133">
        <ele>475</ele>
        <time>2016-01-30T10:40:45.289Z</time>
      </trkpt>
      <trkpt lat="43.65312" lon="5.87143">
        <ele>474</ele>
        <time>2016-01-30T10:40:49.287Z</time>
      </trkpt>
      <trkpt lat="43.65314" lon="5.87144">
        <ele>474</ele>
        <time>2016-01-30T10:40:50.263Z</time>
      </trkpt>
      <trkpt lat="43.65321" lon="5.87138">
        <ele>475</ele>
        <time>2016-01-30T10:40:54.289Z</time>
      </trkpt>
      <trkpt lat="43.65322" lon="5.87135">
        <ele>475</ele>
        <time>2016-01-30T10:40:55.263Z</time>
      </trkpt>
      <trkpt lat="43.65327" lon="5.87126">
        <ele>475</ele>
        <time>2016-01-30T10:41:00.367Z</time>
      </trkpt>
      <trkpt lat="43.65329" lon="5.87124">
        <ele>474</ele>
        <time>2016-01-30T10:41:01.259Z</time>
      </trkpt>
      <trkpt lat="43.65335" lon="5.87115">
        <ele>475</ele>
        <time>2016-01-30T10:41:06.288Z</time>
      </trkpt>
      <trkpt lat="43.65336" lon="5.87113">
        <ele>475</ele>
        <time>2016-01-30T10:41:07.263Z</time>
      </trkpt>
      <trkpt lat="43.65342" lon="5.87107">
        <ele>477</ele>
        <time>2016-01-30T10:41:12.316Z</time>
      </trkpt>
      <trkpt lat="43.65343" lon="5.87105">
        <ele>477</ele>
        <time>2016-01-30T10:41:13.264Z</time>
      </trkpt>
      <trkpt lat="43.65349" lon="5.87096">
        <ele>478</ele>
        <time>2016-01-30T10:41:18.288Z</time>
      </trkpt>
      <trkpt lat="43.6535" lon="5.87094">
        <ele>478</ele>
        <time>2016-01-30T10:41:19.264Z</time>
      </trkpt>
      <trkpt lat="43.65356" lon="5.87087">
        <ele>477</ele>
        <time>2016-01-30T10:41:23.288Z</time>
      </trkpt>
      <trkpt lat="43.65357" lon="5.87086">
        <ele>477</ele>
        <time>2016-01-30T10:41:24.264Z</time>
      </trkpt>
      <trkpt lat="43.65363" lon="5.87081">
        <ele>477</ele>
        <time>2016-01-30T10:41:28.292Z</time>
      </trkpt>
      <trkpt lat="43.65365" lon="5.8708">
        <ele>477</ele>
        <time>2016-01-30T10:41:29.265Z</time>
      </trkpt>
      <trkpt lat="43.65372" lon="5.87075">
        <ele>479</ele>
        <time>2016-01-30T10:41:34.286Z</time>
      </trkpt>
      <trkpt lat="43.65374" lon="5.87074">
        <ele>479</ele>
        <time>2016-01-30T10:41:35.263Z</time>
      </trkpt>
      <trkpt lat="43.65381" lon="5.87069">
        <ele>481</ele>
        <time>2016-01-30T10:41:40.289Z</time>
      </trkpt>
      <trkpt lat="43.65382" lon="5.87068">
        <ele>481</ele>
        <time>2016-01-30T10:41:41.265Z</time>
      </trkpt>
      <trkpt lat="43.6539" lon="5.87062">
        <ele>481</ele>
        <time>2016-01-30T10:41:45.285Z</time>
      </trkpt>
      <trkpt lat="43.65391" lon="5.87061">
        <ele>481</ele>
        <time>2016-01-30T10:41:46.264Z</time>
      </trkpt>
      <trkpt lat="43.65399" lon="5.87056">
        <ele>481</ele>
        <time>2016-01-30T10:41:51.289Z</time>
      </trkpt>
      <trkpt lat="43.65401" lon="5.87055">
        <ele>481</ele>
        <time>2016-01-30T10:41:52.263Z</time>
      </trkpt>
      <trkpt lat="43.65408" lon="5.87049">
        <ele>481</ele>
        <time>2016-01-30T10:41:56.289Z</time>
      </trkpt>
      <trkpt lat="43.65409" lon="5.87048">
        <ele>482</ele>
        <time>2016-01-30T10:41:57.265Z</time>
      </trkpt>
      <trkpt lat="43.65416" lon="5.87042">
        <ele>484</ele>
        <time>2016-01-30T10:42:01.286Z</time>
      </trkpt>
      <trkpt lat="43.65417" lon="5.87041">
        <ele>484</ele>
        <time>2016-01-30T10:42:02.263Z</time>
      </trkpt>
      <trkpt lat="43.65424" lon="5.87035">
        <ele>485</ele>
        <time>2016-01-30T10:42:06.288Z</time>
      </trkpt>
      <trkpt lat="43.65426" lon="5.87034">
        <ele>485</ele>
        <time>2016-01-30T10:42:07.264Z</time>
      </trkpt>
      <trkpt lat="43.65432" lon="5.87029">
        <ele>485</ele>
        <time>2016-01-30T10:42:11.288Z</time>
      </trkpt>
      <trkpt lat="43.65434" lon="5.87028">
        <ele>485</ele>
        <time>2016-01-30T10:42:12.263Z</time>
      </trkpt>
      <trkpt lat="43.6544" lon="5.87021">
        <ele>484</ele>
        <time>2016-01-30T10:42:16.287Z</time>
      </trkpt>
      <trkpt lat="43.65442" lon="5.8702">
        <ele>485</ele>
        <time>2016-01-30T10:42:17.263Z</time>
      </trkpt>
      <trkpt lat="43.65447" lon="5.87015">
        <ele>485</ele>
        <time>2016-01-30T10:42:20.282Z</time>
      </trkpt>
      <trkpt lat="43.6545" lon="5.87013">
        <ele>484</ele>
        <time>2016-01-30T10:42:21.284Z</time>
      </trkpt>
      <trkpt lat="43.65455" lon="5.87005">
        <ele>484</ele>
        <time>2016-01-30T10:42:24.514Z</time>
      </trkpt>
      <trkpt lat="43.65456" lon="5.87003">
        <ele>484</ele>
        <time>2016-01-30T10:42:25.263Z</time>
      </trkpt>
      <trkpt lat="43.65462" lon="5.86997">
        <ele>485</ele>
        <time>2016-01-30T10:42:28.289Z</time>
      </trkpt>
      <trkpt lat="43.65463" lon="5.86995">
        <ele>485</ele>
        <time>2016-01-30T10:42:29.264Z</time>
      </trkpt>
      <trkpt lat="43.65471" lon="5.86989">
        <ele>486</ele>
        <time>2016-01-30T10:42:33.290Z</time>
      </trkpt>
      <trkpt lat="43.65473" lon="5.86987">
        <ele>485</ele>
        <time>2016-01-30T10:42:34.264Z</time>
      </trkpt>
      <trkpt lat="43.65479" lon="5.8698">
        <ele>485</ele>
        <time>2016-01-30T10:42:37.518Z</time>
      </trkpt>
      <trkpt lat="43.65481" lon="5.86978">
        <ele>485</ele>
        <time>2016-01-30T10:42:38.260Z</time>
      </trkpt>
      <trkpt lat="43.65487" lon="5.86971">
        <ele>485</ele>
        <time>2016-01-30T10:42:41.300Z</time>
      </trkpt>
      <trkpt lat="43.65489" lon="5.86968">
        <ele>485</ele>
        <time>2016-01-30T10:42:42.258Z</time>
      </trkpt>
      <trkpt lat="43.65495" lon="5.8696">
        <ele>485</ele>
        <time>2016-01-30T10:42:45.287Z</time>
      </trkpt>
      <trkpt lat="43.65497" lon="5.86958">
        <ele>485</ele>
        <time>2016-01-30T10:42:46.264Z</time>
      </trkpt>
      <trkpt lat="43.65503" lon="5.86953">
        <ele>486</ele>
        <time>2016-01-30T10:42:49.285Z</time>
      </trkpt>
      <trkpt lat="43.65506" lon="5.86951">
        <ele>486</ele>
        <time>2016-01-30T10:42:50.264Z</time>
      </trkpt>
      <trkpt lat="43.65512" lon="5.86946">
        <ele>486</ele>
        <time>2016-01-30T10:42:53.290Z</time>
      </trkpt>
      <trkpt lat="43.65514" lon="5.86944">
        <ele>486</ele>
        <time>2016-01-30T10:42:54.263Z</time>
      </trkpt>
      <trkpt lat="43.6552" lon="5.86938">
        <ele>485</ele>
        <time>2016-01-30T10:42:57.288Z</time>
      </trkpt>
      <trkpt lat="43.65522" lon="5.86936">
        <ele>485</ele>
        <time>2016-01-30T10:42:58.263Z</time>
      </trkpt>
      <trkpt lat="43.65528" lon="5.86928">
        <ele>486</ele>
        <time>2016-01-30T10:43:01.288Z</time>
      </trkpt>
      <trkpt lat="43.65529" lon="5.86926">
        <ele>486</ele>
        <time>2016-01-30T10:43:02.264Z</time>
      </trkpt>
      <trkpt lat="43.65534" lon="5.86918">
        <ele>486</ele>
        <time>2016-01-30T10:43:05.354Z</time>
      </trkpt>
      <trkpt lat="43.65536" lon="5.86916">
        <ele>485</ele>
        <time>2016-01-30T10:43:06.259Z</time>
      </trkpt>
      <trkpt lat="43.65542" lon="5.8691">
        <ele>485</ele>
        <time>2016-01-30T10:43:09.290Z</time>
      </trkpt>
      <trkpt lat="43.65544" lon="5.86908">
        <ele>486</ele>
        <time>2016-01-30T10:43:10.264Z</time>
      </trkpt>
      <trkpt lat="43.65551" lon="5.86904">
        <ele>488</ele>
        <time>2016-01-30T10:43:14.284Z</time>
      </trkpt>
      <trkpt lat="43.65553" lon="5.86903">
        <ele>487</ele>
        <time>2016-01-30T10:43:15.290Z</time>
      </trkpt>
      <trkpt lat="43.6556" lon="5.869">
        <ele>487</ele>
        <time>2016-01-30T10:43:18.288Z</time>
      </trkpt>
      <trkpt lat="43.65562" lon="5.86899">
        <ele>487</ele>
        <time>2016-01-30T10:43:19.265Z</time>
      </trkpt>
      <trkpt lat="43.65569" lon="5.86896">
        <ele>488</ele>
        <time>2016-01-30T10:43:22.289Z</time>
      </trkpt>
      <trkpt lat="43.65571" lon="5.86894">
        <ele>488</ele>
        <time>2016-01-30T10:43:23.265Z</time>
      </trkpt>
      <trkpt lat="43.65578" lon="5.8689">
        <ele>488</ele>
        <time>2016-01-30T10:43:26.316Z</time>
      </trkpt>
      <trkpt lat="43.6558" lon="5.86888">
        <ele>488</ele>
        <time>2016-01-30T10:43:27.260Z</time>
      </trkpt>
      <trkpt lat="43.65584" lon="5.86881">
        <ele>489</ele>
        <time>2016-01-30T10:43:30.289Z</time>
      </trkpt>
      <trkpt lat="43.65586" lon="5.86879">
        <ele>489</ele>
        <time>2016-01-30T10:43:31.265Z</time>
      </trkpt>
      <trkpt lat="43.65591" lon="5.86872">
        <ele>489</ele>
        <time>2016-01-30T10:43:34.284Z</time>
      </trkpt>
      <trkpt lat="43.65593" lon="5.86869">
        <ele>488</ele>
        <time>2016-01-30T10:43:35.264Z</time>
      </trkpt>
      <trkpt lat="43.65598" lon="5.86862">
        <ele>487</ele>
        <time>2016-01-30T10:43:38.288Z</time>
      </trkpt>
      <trkpt lat="43.656" lon="5.86859">
        <ele>487</ele>
        <time>2016-01-30T10:43:39.260Z</time>
      </trkpt>
      <trkpt lat="43.65605" lon="5.86854">
        <ele>487</ele>
        <time>2016-01-30T10:43:41.292Z</time>
      </trkpt>
      <trkpt lat="43.65607" lon="5.86851">
        <ele>487</ele>
        <time>2016-01-30T10:43:42.284Z</time>
      </trkpt>
      <trkpt lat="43.65613" lon="5.86846">
        <ele>486</ele>
        <time>2016-01-30T10:43:44.290Z</time>
      </trkpt>
      <trkpt lat="43.65615" lon="5.86843">
        <ele>486</ele>
        <time>2016-01-30T10:43:45.264Z</time>
      </trkpt>
      <trkpt lat="43.65619" lon="5.86836">
        <ele>486</ele>
        <time>2016-01-30T10:43:47.283Z</time>
      </trkpt>
      <trkpt lat="43.65621" lon="5.86832">
        <ele>485</ele>
        <time>2016-01-30T10:43:48.264Z</time>
      </trkpt>
      <trkpt lat="43.65625" lon="5.86825">
        <ele>484</ele>
        <time>2016-01-30T10:43:50.287Z</time>
      </trkpt>
      <trkpt lat="43.65627" lon="5.86821">
        <ele>485</ele>
        <time>2016-01-30T10:43:51.264Z</time>
      </trkpt>
      <trkpt lat="43.65631" lon="5.86811">
        <ele>486</ele>
        <time>2016-01-30T10:43:54.288Z</time>
      </trkpt>
      <trkpt lat="43.65632" lon="5.86808">
        <ele>486</ele>
        <time>2016-01-30T10:43:55.264Z</time>
      </trkpt>
      <trkpt lat="43.65637" lon="5.86801">
        <ele>486</ele>
        <time>2016-01-30T10:43:58.288Z</time>
      </trkpt>
      <trkpt lat="43.6564" lon="5.868">
        <ele>486</ele>
        <time>2016-01-30T10:43:59.264Z</time>
      </trkpt>
      <trkpt lat="43.65647" lon="5.86798">
        <ele>486</ele>
        <time>2016-01-30T10:44:02.507Z</time>
      </trkpt>
      <trkpt lat="43.65649" lon="5.86797">
        <ele>486</ele>
        <time>2016-01-30T10:44:03.260Z</time>
      </trkpt>
      <trkpt lat="43.65654" lon="5.86789">
        <ele>486</ele>
        <time>2016-01-30T10:44:06.284Z</time>
      </trkpt>
      <trkpt lat="43.65655" lon="5.86785">
        <ele>486</ele>
        <time>2016-01-30T10:44:07.265Z</time>
      </trkpt>
      <trkpt lat="43.65658" lon="5.86774">
        <ele>486</ele>
        <time>2016-01-30T10:44:10.291Z</time>
      </trkpt>
      <trkpt lat="43.65657" lon="5.8677">
        <ele>484</ele>
        <time>2016-01-30T10:44:11.264Z</time>
      </trkpt>
      <trkpt lat="43.65656" lon="5.86759">
        <ele>484</ele>
        <time>2016-01-30T10:44:14.288Z</time>
      </trkpt>
      <trkpt lat="43.65657" lon="5.86755">
        <ele>483</ele>
        <time>2016-01-30T10:44:15.264Z</time>
      </trkpt>
      <trkpt lat="43.65662" lon="5.86745">
        <ele>483</ele>
        <time>2016-01-30T10:44:18.288Z</time>
      </trkpt>
      <trkpt lat="43.65664" lon="5.86742">
        <ele>483</ele>
        <time>2016-01-30T10:44:19.264Z</time>
      </trkpt>
      <trkpt lat="43.65668" lon="5.86735">
        <ele>484</ele>
        <time>2016-01-30T10:44:21.288Z</time>
      </trkpt>
      <trkpt lat="43.6567" lon="5.86732">
        <ele>484</ele>
        <time>2016-01-30T10:44:22.265Z</time>
      </trkpt>
      <trkpt lat="43.65676" lon="5.86727">
        <ele>484</ele>
        <time>2016-01-30T10:44:24.289Z</time>
      </trkpt>
      <trkpt lat="43.65678" lon="5.86726">
        <ele>484</ele>
        <time>2016-01-30T10:44:25.264Z</time>
      </trkpt>
      <trkpt lat="43.65684" lon="5.86722">
        <ele>484</ele>
        <time>2016-01-30T10:44:27.285Z</time>
      </trkpt>
      <trkpt lat="43.65687" lon="5.86721">
        <ele>484</ele>
        <time>2016-01-30T10:44:28.259Z</time>
      </trkpt>
      <trkpt lat="43.65693" lon="5.86717">
        <ele>484</ele>
        <time>2016-01-30T10:44:30.292Z</time>
      </trkpt>
      <trkpt lat="43.65696" lon="5.86714">
        <ele>484</ele>
        <time>2016-01-30T10:44:31.286Z</time>
      </trkpt>
      <trkpt lat="43.65701" lon="5.86708">
        <ele>483</ele>
        <time>2016-01-30T10:44:33.288Z</time>
      </trkpt>
      <trkpt lat="43.65705" lon="5.86705">
        <ele>483</ele>
        <time>2016-01-30T10:44:34.267Z</time>
      </trkpt>
      <trkpt lat="43.6571" lon="5.867">
        <ele>484</ele>
        <time>2016-01-30T10:44:36.283Z</time>
      </trkpt>
      <trkpt lat="43.65713" lon="5.86698">
        <ele>484</ele>
        <time>2016-01-30T10:44:37.266Z</time>
      </trkpt>
      <trkpt lat="43.65719" lon="5.86694">
        <ele>483</ele>
        <time>2016-01-30T10:44:39.284Z</time>
      </trkpt>
      <trkpt lat="43.65723" lon="5.86692">
        <ele>484</ele>
        <time>2016-01-30T10:44:40.265Z</time>
      </trkpt>
      <trkpt lat="43.65729" lon="5.86688">
        <ele>486</ele>
        <time>2016-01-30T10:44:42.321Z</time>
      </trkpt>
      <trkpt lat="43.65732" lon="5.86687">
        <ele>487</ele>
        <time>2016-01-30T10:44:43.255Z</time>
      </trkpt>
      <trkpt lat="43.65738" lon="5.86685">
        <ele>489</ele>
        <time>2016-01-30T10:44:45.292Z</time>
      </trkpt>
      <trkpt lat="43.65741" lon="5.86684">
        <ele>490</ele>
        <time>2016-01-30T10:44:46.265Z</time>
      </trkpt>
      <trkpt lat="43.65747" lon="5.86683">
        <ele>491</ele>
        <time>2016-01-30T10:44:48.288Z</time>
      </trkpt>
      <trkpt lat="43.6575" lon="5.86682">
        <ele>490</ele>
        <time>2016-01-30T10:44:49.265Z</time>
      </trkpt>
      <trkpt lat="43.65757" lon="5.8668">
        <ele>489</ele>
        <time>2016-01-30T10:44:51.288Z</time>
      </trkpt>
      <trkpt lat="43.65761" lon="5.86679">
        <ele>489</ele>
        <time>2016-01-30T10:44:52.264Z</time>
      </trkpt>
      <trkpt lat="43.65769" lon="5.86676">
        <ele>489</ele>
        <time>2016-01-30T10:44:54.290Z</time>
      </trkpt>
      <trkpt lat="43.65773" lon="5.86676">
        <ele>488</ele>
        <time>2016-01-30T10:44:55.265Z</time>
      </trkpt>
      <trkpt lat="43.65781" lon="5.86675">
        <ele>488</ele>
        <time>2016-01-30T10:44:57.286Z</time>
      </trkpt>
      <trkpt lat="43.65786" lon="5.86674">
        <ele>488</ele>
        <time>2016-01-30T10:44:58.261Z</time>
      </trkpt>
      <trkpt lat="43.6579" lon="5.86674">
        <ele>488</ele>
        <time>2016-01-30T10:44:59.288Z</time>
      </trkpt>
      <trkpt lat="43.65796" lon="5.86672">
        <ele>488</ele>
        <time>2016-01-30T10:45:00.267Z</time>
      </trkpt>
      <trkpt lat="43.658" lon="5.86671">
        <ele>488</ele>
        <time>2016-01-30T10:45:01.273Z</time>
      </trkpt>
      <trkpt lat="43.65804" lon="5.86671">
        <ele>487</ele>
        <time>2016-01-30T10:45:02.265Z</time>
      </trkpt>
      <trkpt lat="43.65813" lon="5.8667">
        <ele>489</ele>
        <time>2016-01-30T10:45:04.317Z</time>
      </trkpt>
      <trkpt lat="43.65817" lon="5.86669">
        <ele>490</ele>
        <time>2016-01-30T10:45:05.266Z</time>
      </trkpt>
      <trkpt lat="43.65826" lon="5.86666">
        <ele>489</ele>
        <time>2016-01-30T10:45:07.289Z</time>
      </trkpt>
      <trkpt lat="43.6583" lon="5.86665">
        <ele>489</ele>
        <time>2016-01-30T10:45:08.265Z</time>
      </trkpt>
      <trkpt lat="43.65839" lon="5.86662">
        <ele>490</ele>
        <time>2016-01-30T10:45:10.285Z</time>
      </trkpt>
      <trkpt lat="43.65844" lon="5.8666">
        <ele>489</ele>
        <time>2016-01-30T10:45:11.265Z</time>
      </trkpt>
      <trkpt lat="43.65849" lon="5.86659">
        <ele>489</ele>
        <time>2016-01-30T10:45:12.290Z</time>
      </trkpt>
      <trkpt lat="43.65853" lon="5.86659">
        <ele>488</ele>
        <time>2016-01-30T10:45:13.262Z</time>
      </trkpt>
      <trkpt lat="43.65858" lon="5.86659">
        <ele>488</ele>
        <time>2016-01-30T10:45:14.286Z</time>
      </trkpt>
      <trkpt lat="43.65862" lon="5.8666">
        <ele>487</ele>
        <time>2016-01-30T10:45:15.292Z</time>
      </trkpt>
      <trkpt lat="43.65867" lon="5.8666">
        <ele>487</ele>
        <time>2016-01-30T10:45:16.291Z</time>
      </trkpt>
      <trkpt lat="43.65872" lon="5.8666">
        <ele>487</ele>
        <time>2016-01-30T10:45:17.266Z</time>
      </trkpt>
      <trkpt lat="43.65877" lon="5.8666">
        <ele>487</ele>
        <time>2016-01-30T10:45:18.291Z</time>
      </trkpt>
      <trkpt lat="43.65882" lon="5.86659">
        <ele>487</ele>
        <time>2016-01-30T10:45:19.264Z</time>
      </trkpt>
      <trkpt lat="43.65888" lon="5.86658">
        <ele>487</ele>
        <time>2016-01-30T10:45:20.293Z</time>
      </trkpt>
      <trkpt lat="43.65893" lon="5.86657">
        <ele>487</ele>
        <time>2016-01-30T10:45:21.266Z</time>
      </trkpt>
      <trkpt lat="43.65898" lon="5.86657">
        <ele>487</ele>
        <time>2016-01-30T10:45:22.290Z</time>
      </trkpt>
      <trkpt lat="43.65904" lon="5.86658">
        <ele>487</ele>
        <time>2016-01-30T10:45:23.266Z</time>
      </trkpt>
      <trkpt lat="43.65909" lon="5.86659">
        <ele>486</ele>
        <time>2016-01-30T10:45:24.291Z</time>
      </trkpt>
      <trkpt lat="43.65916" lon="5.86659">
        <ele>486</ele>
        <time>2016-01-30T10:45:25.266Z</time>
      </trkpt>
      <trkpt lat="43.65923" lon="5.86656">
        <ele>484</ele>
        <time>2016-01-30T10:45:26.319Z</time>
      </trkpt>
      <trkpt lat="43.65929" lon="5.86655">
        <ele>483</ele>
        <time>2016-01-30T10:45:27.262Z</time>
      </trkpt>
      <trkpt lat="43.65935" lon="5.86655">
        <ele>482</ele>
        <time>2016-01-30T10:45:28.289Z</time>
      </trkpt>
      <trkpt lat="43.65941" lon="5.86655">
        <ele>483</ele>
        <time>2016-01-30T10:45:29.264Z</time>
      </trkpt>
      <trkpt lat="43.65947" lon="5.86653">
        <ele>483</ele>
        <time>2016-01-30T10:45:30.289Z</time>
      </trkpt>
      <trkpt lat="43.65952" lon="5.86652">
        <ele>483</ele>
        <time>2016-01-30T10:45:31.264Z</time>
      </trkpt>
      <trkpt lat="43.65957" lon="5.8665">
        <ele>483</ele>
        <time>2016-01-30T10:45:32.289Z</time>
      </trkpt>
      <trkpt lat="43.65963" lon="5.86648">
        <ele>483</ele>
        <time>2016-01-30T10:45:33.262Z</time>
      </trkpt>
      <trkpt lat="43.65967" lon="5.86648">
        <ele>483</ele>
        <time>2016-01-30T10:45:34.289Z</time>
      </trkpt>
      <trkpt lat="43.65972" lon="5.86647">
        <ele>482</ele>
        <time>2016-01-30T10:45:35.265Z</time>
      </trkpt>
      <trkpt lat="43.65977" lon="5.86646">
        <ele>481</ele>
        <time>2016-01-30T10:45:36.288Z</time>
      </trkpt>
      <trkpt lat="43.65981" lon="5.86647">
        <ele>482</ele>
        <time>2016-01-30T10:45:37.266Z</time>
      </trkpt>
      <trkpt lat="43.65989" lon="5.86644">
        <ele>482</ele>
        <time>2016-01-30T10:45:39.288Z</time>
      </trkpt>
      <trkpt lat="43.65993" lon="5.86643">
        <ele>482</ele>
        <time>2016-01-30T10:45:40.266Z</time>
      </trkpt>
      <trkpt lat="43.66001" lon="5.86639">
        <ele>480</ele>
        <time>2016-01-30T10:45:42.323Z</time>
      </trkpt>
      <trkpt lat="43.66005" lon="5.86639">
        <ele>479</ele>
        <time>2016-01-30T10:45:43.262Z</time>
      </trkpt>
      <trkpt lat="43.66013" lon="5.86638">
        <ele>481</ele>
        <time>2016-01-30T10:45:45.289Z</time>
      </trkpt>
      <trkpt lat="43.66017" lon="5.86637">
        <ele>482</ele>
        <time>2016-01-30T10:45:46.261Z</time>
      </trkpt>
      <trkpt lat="43.66025" lon="5.86635">
        <ele>482</ele>
        <time>2016-01-30T10:45:48.367Z</time>
      </trkpt>
      <trkpt lat="43.66029" lon="5.86633">
        <ele>481</ele>
        <time>2016-01-30T10:45:49.261Z</time>
      </trkpt>
      <trkpt lat="43.66035" lon="5.86631">
        <ele>482</ele>
        <time>2016-01-30T10:45:50.289Z</time>
      </trkpt>
      <trkpt lat="43.66039" lon="5.8663">
        <ele>481</ele>
        <time>2016-01-30T10:45:51.267Z</time>
      </trkpt>
      <trkpt lat="43.66048" lon="5.86626">
        <ele>482</ele>
        <time>2016-01-30T10:45:53.290Z</time>
      </trkpt>
      <trkpt lat="43.66052" lon="5.86623">
        <ele>482</ele>
        <time>2016-01-30T10:45:54.266Z</time>
      </trkpt>
      <trkpt lat="43.66056" lon="5.8662">
        <ele>482</ele>
        <time>2016-01-30T10:45:55.289Z</time>
      </trkpt>
      <trkpt lat="43.6606" lon="5.86617">
        <ele>482</ele>
        <time>2016-01-30T10:45:56.265Z</time>
      </trkpt>
      <trkpt lat="43.66064" lon="5.86613">
        <ele>482</ele>
        <time>2016-01-30T10:45:57.288Z</time>
      </trkpt>
      <trkpt lat="43.66068" lon="5.86609">
        <ele>482</ele>
        <time>2016-01-30T10:45:58.290Z</time>
      </trkpt>
      <trkpt lat="43.66071" lon="5.86605">
        <ele>482</ele>
        <time>2016-01-30T10:45:59.272Z</time>
      </trkpt>
      <trkpt lat="43.66076" lon="5.86601">
        <ele>482</ele>
        <time>2016-01-30T10:46:00.254Z</time>
      </trkpt>
      <trkpt lat="43.6608" lon="5.86598">
        <ele>482</ele>
        <time>2016-01-30T10:46:01.287Z</time>
      </trkpt>
      <trkpt lat="43.66083" lon="5.86594">
        <ele>482</ele>
        <time>2016-01-30T10:46:02.265Z</time>
      </trkpt>
      <trkpt lat="43.66088" lon="5.8659">
        <ele>482</ele>
        <time>2016-01-30T10:46:03.290Z</time>
      </trkpt>
      <trkpt lat="43.66091" lon="5.86586">
        <ele>482</ele>
        <time>2016-01-30T10:46:04.265Z</time>
      </trkpt>
      <trkpt lat="43.66095" lon="5.8658">
        <ele>481</ele>
        <time>2016-01-30T10:46:05.289Z</time>
      </trkpt>
      <trkpt lat="43.66099" lon="5.86576">
        <ele>480</ele>
        <time>2016-01-30T10:46:06.266Z</time>
      </trkpt>
      <trkpt lat="43.66103" lon="5.86571">
        <ele>480</ele>
        <time>2016-01-30T10:46:07.283Z</time>
      </trkpt>
      <trkpt lat="43.66107" lon="5.86566">
        <ele>480</ele>
        <time>2016-01-30T10:46:08.266Z</time>
      </trkpt>
      <trkpt lat="43.6611" lon="5.86562">
        <ele>479</ele>
        <time>2016-01-30T10:46:09.290Z</time>
      </trkpt>
      <trkpt lat="43.66114" lon="5.86557">
        <ele>479</ele>
        <time>2016-01-30T10:46:10.267Z</time>
      </trkpt>
      <trkpt lat="43.66118" lon="5.86553">
        <ele>479</ele>
        <time>2016-01-30T10:46:11.288Z</time>
      </trkpt>
      <trkpt lat="43.66122" lon="5.8655">
        <ele>479</ele>
        <time>2016-01-30T10:46:12.261Z</time>
      </trkpt>
      <trkpt lat="43.66126" lon="5.86546">
        <ele>478</ele>
        <time>2016-01-30T10:46:13.290Z</time>
      </trkpt>
      <trkpt lat="43.6613" lon="5.86543">
        <ele>478</ele>
        <time>2016-01-30T10:46:14.291Z</time>
      </trkpt>
      <trkpt lat="43.66134" lon="5.86539">
        <ele>478</ele>
        <time>2016-01-30T10:46:15.291Z</time>
      </trkpt>
      <trkpt lat="43.66137" lon="5.86534">
        <ele>478</ele>
        <time>2016-01-30T10:46:16.265Z</time>
      </trkpt>
      <trkpt lat="43.66141" lon="5.86531">
        <ele>477</ele>
        <time>2016-01-30T10:46:17.291Z</time>
      </trkpt>
      <trkpt lat="43.66145" lon="5.86527">
        <ele>477</ele>
        <time>2016-01-30T10:46:18.266Z</time>
      </trkpt>
      <trkpt lat="43.66149" lon="5.86522">
        <ele>477</ele>
        <time>2016-01-30T10:46:19.295Z</time>
      </trkpt>
      <trkpt lat="43.66152" lon="5.86519">
        <ele>477</ele>
        <time>2016-01-30T10:46:20.255Z</time>
      </trkpt>
      <trkpt lat="43.66156" lon="5.86514">
        <ele>477</ele>
        <time>2016-01-30T10:46:21.289Z</time>
      </trkpt>
      <trkpt lat="43.66159" lon="5.86509">
        <ele>477</ele>
        <time>2016-01-30T10:46:22.266Z</time>
      </trkpt>
      <trkpt lat="43.66162" lon="5.86505">
        <ele>477</ele>
        <time>2016-01-30T10:46:23.372Z</time>
      </trkpt>
      <trkpt lat="43.66166" lon="5.86502">
        <ele>477</ele>
        <time>2016-01-30T10:46:24.268Z</time>
      </trkpt>
      <trkpt lat="43.6617" lon="5.86498">
        <ele>477</ele>
        <time>2016-01-30T10:46:25.295Z</time>
      </trkpt>
      <trkpt lat="43.66174" lon="5.86495">
        <ele>476</ele>
        <time>2016-01-30T10:46:26.268Z</time>
      </trkpt>
      <trkpt lat="43.66181" lon="5.86489">
        <ele>476</ele>
        <time>2016-01-30T10:46:28.290Z</time>
      </trkpt>
      <trkpt lat="43.66185" lon="5.86485">
        <ele>476</ele>
        <time>2016-01-30T10:46:29.266Z</time>
      </trkpt>
      <trkpt lat="43.66192" lon="5.86479">
        <ele>475</ele>
        <time>2016-01-30T10:46:31.285Z</time>
      </trkpt>
      <trkpt lat="43.66196" lon="5.86476">
        <ele>476</ele>
        <time>2016-01-30T10:46:32.262Z</time>
      </trkpt>
      <trkpt lat="43.66202" lon="5.86469">
        <ele>476</ele>
        <time>2016-01-30T10:46:34.281Z</time>
      </trkpt>
      <trkpt lat="43.66205" lon="5.86465">
        <ele>476</ele>
        <time>2016-01-30T10:46:35.261Z</time>
      </trkpt>
      <trkpt lat="43.66211" lon="5.8646">
        <ele>475</ele>
        <time>2016-01-30T10:46:37.286Z</time>
      </trkpt>
      <trkpt lat="43.66214" lon="5.86457">
        <ele>475</ele>
        <time>2016-01-30T10:46:38.265Z</time>
      </trkpt>
      <trkpt lat="43.66221" lon="5.86451">
        <ele>475</ele>
        <time>2016-01-30T10:46:40.295Z</time>
      </trkpt>
      <trkpt lat="43.66223" lon="5.86449">
        <ele>475</ele>
        <time>2016-01-30T10:46:41.291Z</time>
      </trkpt>
      <trkpt lat="43.6623" lon="5.86445">
        <ele>475</ele>
        <time>2016-01-30T10:46:43.289Z</time>
      </trkpt>
      <trkpt lat="43.66233" lon="5.86443">
        <ele>475</ele>
        <time>2016-01-30T10:46:44.262Z</time>
      </trkpt>
      <trkpt lat="43.6624" lon="5.8644">
        <ele>475</ele>
        <time>2016-01-30T10:46:46.291Z</time>
      </trkpt>
      <trkpt lat="43.66244" lon="5.86439">
        <ele>474</ele>
        <time>2016-01-30T10:46:47.261Z</time>
      </trkpt>
      <trkpt lat="43.66251" lon="5.86437">
        <ele>474</ele>
        <time>2016-01-30T10:46:49.289Z</time>
      </trkpt>
      <trkpt lat="43.66255" lon="5.86436">
        <ele>475</ele>
        <time>2016-01-30T10:46:50.266Z</time>
      </trkpt>
      <trkpt lat="43.66262" lon="5.86434">
        <ele>476</ele>
        <time>2016-01-30T10:46:52.313Z</time>
      </trkpt>
      <trkpt lat="43.66266" lon="5.86432">
        <ele>476</ele>
        <time>2016-01-30T10:46:53.264Z</time>
      </trkpt>
      <trkpt lat="43.66273" lon="5.8643">
        <ele>476</ele>
        <time>2016-01-30T10:46:55.507Z</time>
      </trkpt>
      <trkpt lat="43.66277" lon="5.86431">
        <ele>476</ele>
        <time>2016-01-30T10:46:56.261Z</time>
      </trkpt>
      <trkpt lat="43.66285" lon="5.86433">
        <ele>477</ele>
        <time>2016-01-30T10:46:58.290Z</time>
      </trkpt>
      <trkpt lat="43.66288" lon="5.86435">
        <ele>477</ele>
        <time>2016-01-30T10:46:59.266Z</time>
      </trkpt>
      <trkpt lat="43.66293" lon="5.86438">
        <ele>476</ele>
        <time>2016-01-30T10:47:00.270Z</time>
      </trkpt>
      <trkpt lat="43.66297" lon="5.86441">
        <ele>476</ele>
        <time>2016-01-30T10:47:01.261Z</time>
      </trkpt>
      <trkpt lat="43.66301" lon="5.86443">
        <ele>476</ele>
        <time>2016-01-30T10:47:02.292Z</time>
      </trkpt>
      <trkpt lat="43.66305" lon="5.86446">
        <ele>476</ele>
        <time>2016-01-30T10:47:03.292Z</time>
      </trkpt>
      <trkpt lat="43.6631" lon="5.86449">
        <ele>476</ele>
        <time>2016-01-30T10:47:04.292Z</time>
      </trkpt>
      <trkpt lat="43.66313" lon="5.86452">
        <ele>476</ele>
        <time>2016-01-30T10:47:05.266Z</time>
      </trkpt>
      <trkpt lat="43.66319" lon="5.86457">
        <ele>476</ele>
        <time>2016-01-30T10:47:06.292Z</time>
      </trkpt>
      <trkpt lat="43.66323" lon="5.86459">
        <ele>476</ele>
        <time>2016-01-30T10:47:07.266Z</time>
      </trkpt>
      <trkpt lat="43.66327" lon="5.86461">
        <ele>476</ele>
        <time>2016-01-30T10:47:08.292Z</time>
      </trkpt>
      <trkpt lat="43.66331" lon="5.86464">
        <ele>476</ele>
        <time>2016-01-30T10:47:09.266Z</time>
      </trkpt>
      <trkpt lat="43.66336" lon="5.86466">
        <ele>476</ele>
        <time>2016-01-30T10:47:10.294Z</time>
      </trkpt>
      <trkpt lat="43.6634" lon="5.86469">
        <ele>476</ele>
        <time>2016-01-30T10:47:11.266Z</time>
      </trkpt>
      <trkpt lat="43.66348" lon="5.86474">
        <ele>476</ele>
        <time>2016-01-30T10:47:13.291Z</time>
      </trkpt>
      <trkpt lat="43.66353" lon="5.86476">
        <ele>476</ele>
        <time>2016-01-30T10:47:14.267Z</time>
      </trkpt>
      <trkpt lat="43.66357" lon="5.86478">
        <ele>476</ele>
        <time>2016-01-30T10:47:15.292Z</time>
      </trkpt>
      <trkpt lat="43.66362" lon="5.86481">
        <ele>476</ele>
        <time>2016-01-30T10:47:16.267Z</time>
      </trkpt>
      <trkpt lat="43.66367" lon="5.86483">
        <ele>476</ele>
        <time>2016-01-30T10:47:17.291Z</time>
      </trkpt>
      <trkpt lat="43.6637" lon="5.86486">
        <ele>476</ele>
        <time>2016-01-30T10:47:18.267Z</time>
      </trkpt>
      <trkpt lat="43.66375" lon="5.86488">
        <ele>476</ele>
        <time>2016-01-30T10:47:19.328Z</time>
      </trkpt>
      <trkpt lat="43.66379" lon="5.86491">
        <ele>476</ele>
        <time>2016-01-30T10:47:20.263Z</time>
      </trkpt>
      <trkpt lat="43.66383" lon="5.86494">
        <ele>477</ele>
        <time>2016-01-30T10:47:21.285Z</time>
      </trkpt>
      <trkpt lat="43.66388" lon="5.86496">
        <ele>476</ele>
        <time>2016-01-30T10:47:22.265Z</time>
      </trkpt>
      <trkpt lat="43.66395" lon="5.86501">
        <ele>476</ele>
        <time>2016-01-30T10:47:24.288Z</time>
      </trkpt>
      <trkpt lat="43.664" lon="5.86503">
        <ele>476</ele>
        <time>2016-01-30T10:47:25.266Z</time>
      </trkpt>
      <trkpt lat="43.66405" lon="5.86506">
        <ele>476</ele>
        <time>2016-01-30T10:47:26.292Z</time>
      </trkpt>
      <trkpt lat="43.66409" lon="5.86508">
        <ele>476</ele>
        <time>2016-01-30T10:47:27.266Z</time>
      </trkpt>
      <trkpt lat="43.66413" lon="5.86511">
        <ele>476</ele>
        <time>2016-01-30T10:47:28.511Z</time>
      </trkpt>
      <trkpt lat="43.66417" lon="5.86513">
        <ele>476</ele>
        <time>2016-01-30T10:47:29.266Z</time>
      </trkpt>
      <trkpt lat="43.66422" lon="5.86516">
        <ele>476</ele>
        <time>2016-01-30T10:47:30.321Z</time>
      </trkpt>
      <trkpt lat="43.66426" lon="5.86517">
        <ele>476</ele>
        <time>2016-01-30T10:47:31.266Z</time>
      </trkpt>
      <trkpt lat="43.66431" lon="5.86519">
        <ele>477</ele>
        <time>2016-01-30T10:47:32.278Z</time>
      </trkpt>
      <trkpt lat="43.66436" lon="5.8652">
        <ele>477</ele>
        <time>2016-01-30T10:47:33.266Z</time>
      </trkpt>
      <trkpt lat="43.6644" lon="5.86522">
        <ele>476</ele>
        <time>2016-01-30T10:47:34.290Z</time>
      </trkpt>
      <trkpt lat="43.66445" lon="5.86524">
        <ele>476</ele>
        <time>2016-01-30T10:47:35.265Z</time>
      </trkpt>
      <trkpt lat="43.6645" lon="5.86526">
        <ele>476</ele>
        <time>2016-01-30T10:47:36.290Z</time>
      </trkpt>
      <trkpt lat="43.66455" lon="5.86527">
        <ele>476</ele>
        <time>2016-01-30T10:47:37.266Z</time>
      </trkpt>
      <trkpt lat="43.6646" lon="5.86528">
        <ele>477</ele>
        <time>2016-01-30T10:47:38.292Z</time>
      </trkpt>
      <trkpt lat="43.66465" lon="5.8653">
        <ele>477</ele>
        <time>2016-01-30T10:47:39.263Z</time>
      </trkpt>
      <trkpt lat="43.66469" lon="5.86532">
        <ele>477</ele>
        <time>2016-01-30T10:47:40.297Z</time>
      </trkpt>
      <trkpt lat="43.66474" lon="5.86535">
        <ele>478</ele>
        <time>2016-01-30T10:47:41.274Z</time>
      </trkpt>
      <trkpt lat="43.66478" lon="5.86537">
        <ele>477</ele>
        <time>2016-01-30T10:47:42.291Z</time>
      </trkpt>
      <trkpt lat="43.66482" lon="5.86538">
        <ele>478</ele>
        <time>2016-01-30T10:47:43.265Z</time>
      </trkpt>
      <trkpt lat="43.66487" lon="5.8654">
        <ele>477</ele>
        <time>2016-01-30T10:47:44.291Z</time>
      </trkpt>
      <trkpt lat="43.66491" lon="5.86542">
        <ele>478</ele>
        <time>2016-01-30T10:47:45.266Z</time>
      </trkpt>
      <trkpt lat="43.66496" lon="5.86544">
        <ele>478</ele>
        <time>2016-01-30T10:47:46.301Z</time>
      </trkpt>
      <trkpt lat="43.665" lon="5.86545">
        <ele>477</ele>
        <time>2016-01-30T10:47:47.266Z</time>
      </trkpt>
      <trkpt lat="43.66508" lon="5.86549">
        <ele>477</ele>
        <time>2016-01-30T10:47:49.522Z</time>
      </trkpt>
      <trkpt lat="43.66512" lon="5.8655">
        <ele>477</ele>
        <time>2016-01-30T10:47:50.266Z</time>
      </trkpt>
      <trkpt lat="43.66517" lon="5.86552">
        <ele>478</ele>
        <time>2016-01-30T10:47:51.316Z</time>
      </trkpt>
      <trkpt lat="43.66521" lon="5.86555">
        <ele>478</ele>
        <time>2016-01-30T10:47:52.265Z</time>
      </trkpt>
      <trkpt lat="43.66526" lon="5.86557">
        <ele>478</ele>
        <time>2016-01-30T10:47:53.291Z</time>
      </trkpt>
      <trkpt lat="43.6653" lon="5.8656">
        <ele>479</ele>
        <time>2016-01-30T10:47:54.266Z</time>
      </trkpt>
      <trkpt lat="43.66538" lon="5.86564">
        <ele>478</ele>
        <time>2016-01-30T10:47:56.364Z</time>
      </trkpt>
      <trkpt lat="43.66541" lon="5.86566">
        <ele>479</ele>
        <time>2016-01-30T10:47:57.266Z</time>
      </trkpt>
      <trkpt lat="43.66549" lon="5.8657">
        <ele>478</ele>
        <time>2016-01-30T10:47:59.290Z</time>
      </trkpt>
      <trkpt lat="43.66551" lon="5.86571">
        <ele>477</ele>
        <time>2016-01-30T10:48:00.270Z</time>
      </trkpt>
      <trkpt lat="43.66559" lon="5.86572">
        <ele>477</ele>
        <time>2016-01-30T10:48:02.289Z</time>
      </trkpt>
      <trkpt lat="43.66563" lon="5.86573">
        <ele>477</ele>
        <time>2016-01-30T10:48:03.265Z</time>
      </trkpt>
      <trkpt lat="43.6657" lon="5.86572">
        <ele>477</ele>
        <time>2016-01-30T10:48:05.292Z</time>
      </trkpt>
      <trkpt lat="43.66574" lon="5.86571">
        <ele>476</ele>
        <time>2016-01-30T10:48:06.260Z</time>
      </trkpt>
      <trkpt lat="43.66582" lon="5.86569">
        <ele>476</ele>
        <time>2016-01-30T10:48:08.289Z</time>
      </trkpt>
      <trkpt lat="43.66585" lon="5.86568">
        <ele>476</ele>
        <time>2016-01-30T10:48:09.266Z</time>
      </trkpt>
      <trkpt lat="43.66593" lon="5.86566">
        <ele>477</ele>
        <time>2016-01-30T10:48:11.284Z</time>
      </trkpt>
      <trkpt lat="43.66597" lon="5.86566">
        <ele>477</ele>
        <time>2016-01-30T10:48:12.262Z</time>
      </trkpt>
      <trkpt lat="43.66605" lon="5.86565">
        <ele>477</ele>
        <time>2016-01-30T10:48:14.290Z</time>
      </trkpt>
      <trkpt lat="43.66608" lon="5.86564">
        <ele>477</ele>
        <time>2016-01-30T10:48:15.266Z</time>
      </trkpt>
      <trkpt lat="43.66616" lon="5.86561">
        <ele>477</ele>
        <time>2016-01-30T10:48:17.289Z</time>
      </trkpt>
      <trkpt lat="43.6662" lon="5.86559">
        <ele>477</ele>
        <time>2016-01-30T10:48:18.266Z</time>
      </trkpt>
      <trkpt lat="43.66625" lon="5.86557">
        <ele>476</ele>
        <time>2016-01-30T10:48:19.291Z</time>
      </trkpt>
      <trkpt lat="43.66629" lon="5.86555">
        <ele>476</ele>
        <time>2016-01-30T10:48:20.312Z</time>
      </trkpt>
      <trkpt lat="43.66634" lon="5.86554">
        <ele>475</ele>
        <time>2016-01-30T10:48:21.291Z</time>
      </trkpt>
      <trkpt lat="43.66638" lon="5.86553">
        <ele>476</ele>
        <time>2016-01-30T10:48:22.266Z</time>
      </trkpt>
      <trkpt lat="43.66644" lon="5.86552">
        <ele>476</ele>
        <time>2016-01-30T10:48:23.541Z</time>
      </trkpt>
      <trkpt lat="43.66649" lon="5.86552">
        <ele>475</ele>
        <time>2016-01-30T10:48:24.266Z</time>
      </trkpt>
      <trkpt lat="43.66653" lon="5.86551">
        <ele>475</ele>
        <time>2016-01-30T10:48:25.290Z</time>
      </trkpt>
      <trkpt lat="43.66658" lon="5.86549">
        <ele>475</ele>
        <time>2016-01-30T10:48:26.266Z</time>
      </trkpt>
      <trkpt lat="43.66667" lon="5.86548">
        <ele>475</ele>
        <time>2016-01-30T10:48:28.335Z</time>
      </trkpt>
      <trkpt lat="43.66671" lon="5.86546">
        <ele>475</ele>
        <time>2016-01-30T10:48:29.266Z</time>
      </trkpt>
      <trkpt lat="43.6668" lon="5.86543">
        <ele>474</ele>
        <time>2016-01-30T10:48:31.289Z</time>
      </trkpt>
      <trkpt lat="43.66684" lon="5.86541">
        <ele>474</ele>
        <time>2016-01-30T10:48:32.267Z</time>
      </trkpt>
      <trkpt lat="43.66688" lon="5.86538">
        <ele>474</ele>
        <time>2016-01-30T10:48:33.272Z</time>
      </trkpt>
      <trkpt lat="43.66692" lon="5.86533">
        <ele>474</ele>
        <time>2016-01-30T10:48:34.291Z</time>
      </trkpt>
      <trkpt lat="43.66695" lon="5.86529">
        <ele>474</ele>
        <time>2016-01-30T10:48:35.290Z</time>
      </trkpt>
      <trkpt lat="43.66698" lon="5.86524">
        <ele>474</ele>
        <time>2016-01-30T10:48:36.266Z</time>
      </trkpt>
      <trkpt lat="43.66703" lon="5.8652">
        <ele>474</ele>
        <time>2016-01-30T10:48:37.294Z</time>
      </trkpt>
      <trkpt lat="43.66707" lon="5.86518">
        <ele>474</ele>
        <time>2016-01-30T10:48:38.262Z</time>
      </trkpt>
      <trkpt lat="43.66712" lon="5.86516">
        <ele>474</ele>
        <time>2016-01-30T10:48:39.316Z</time>
      </trkpt>
      <trkpt lat="43.66717" lon="5.86515">
        <ele>473</ele>
        <time>2016-01-30T10:48:40.267Z</time>
      </trkpt>
      <trkpt lat="43.66722" lon="5.86515">
        <ele>473</ele>
        <time>2016-01-30T10:48:41.274Z</time>
      </trkpt>
      <trkpt lat="43.66728" lon="5.86514">
        <ele>473</ele>
        <time>2016-01-30T10:48:42.262Z</time>
      </trkpt>
      <trkpt lat="43.66733" lon="5.86513">
        <ele>473</ele>
        <time>2016-01-30T10:48:43.298Z</time>
      </trkpt>
      <trkpt lat="43.66738" lon="5.86513">
        <ele>473</ele>
        <time>2016-01-30T10:48:44.265Z</time>
      </trkpt>
      <trkpt lat="43.66743" lon="5.86511">
        <ele>473</ele>
        <time>2016-01-30T10:48:45.292Z</time>
      </trkpt>
      <trkpt lat="43.66748" lon="5.86509">
        <ele>473</ele>
        <time>2016-01-30T10:48:46.267Z</time>
      </trkpt>
      <trkpt lat="43.66753" lon="5.86508">
        <ele>473</ele>
        <time>2016-01-30T10:48:47.293Z</time>
      </trkpt>
      <trkpt lat="43.66758" lon="5.86506">
        <ele>473</ele>
        <time>2016-01-30T10:48:48.267Z</time>
      </trkpt>
      <trkpt lat="43.66762" lon="5.86504">
        <ele>473</ele>
        <time>2016-01-30T10:48:49.293Z</time>
      </trkpt>
      <trkpt lat="43.66766" lon="5.865">
        <ele>472</ele>
        <time>2016-01-30T10:48:50.266Z</time>
      </trkpt>
      <trkpt lat="43.6677" lon="5.86496">
        <ele>473</ele>
        <time>2016-01-30T10:48:51.294Z</time>
      </trkpt>
      <trkpt lat="43.66774" lon="5.86493">
        <ele>472</ele>
        <time>2016-01-30T10:48:52.267Z</time>
      </trkpt>
      <trkpt lat="43.66782" lon="5.86488">
        <ele>472</ele>
        <time>2016-01-30T10:48:54.288Z</time>
      </trkpt>
      <trkpt lat="43.66786" lon="5.86487">
        <ele>472</ele>
        <time>2016-01-30T10:48:55.288Z</time>
      </trkpt>
      <trkpt lat="43.66795" lon="5.86487">
        <ele>471</ele>
        <time>2016-01-30T10:48:57.293Z</time>
      </trkpt>
      <trkpt lat="43.668" lon="5.86487">
        <ele>472</ele>
        <time>2016-01-30T10:48:58.267Z</time>
      </trkpt>
      <trkpt lat="43.66808" lon="5.86486">
        <ele>471</ele>
        <time>2016-01-30T10:49:00.395Z</time>
      </trkpt>
      <trkpt lat="43.66813" lon="5.86485">
        <ele>472</ele>
        <time>2016-01-30T10:49:01.266Z</time>
      </trkpt>
      <trkpt lat="43.66821" lon="5.86483">
        <ele>470</ele>
        <time>2016-01-30T10:49:03.294Z</time>
      </trkpt>
      <trkpt lat="43.66827" lon="5.86482">
        <ele>470</ele>
        <time>2016-01-30T10:49:04.262Z</time>
      </trkpt>
      <trkpt lat="43.66831" lon="5.8648">
        <ele>470</ele>
        <time>2016-01-30T10:49:05.293Z</time>
      </trkpt>
      <trkpt lat="43.66836" lon="5.86479">
        <ele>470</ele>
        <time>2016-01-30T10:49:06.266Z</time>
      </trkpt>
      <trkpt lat="43.66841" lon="5.86477">
        <ele>470</ele>
        <time>2016-01-30T10:49:07.293Z</time>
      </trkpt>
      <trkpt lat="43.66845" lon="5.86476">
        <ele>470</ele>
        <time>2016-01-30T10:49:08.267Z</time>
      </trkpt>
      <trkpt lat="43.6685" lon="5.86475">
        <ele>471</ele>
        <time>2016-01-30T10:49:09.289Z</time>
      </trkpt>
      <trkpt lat="43.66855" lon="5.86472">
        <ele>470</ele>
        <time>2016-01-30T10:49:10.266Z</time>
      </trkpt>
      <trkpt lat="43.66859" lon="5.86469">
        <ele>470</ele>
        <time>2016-01-30T10:49:11.322Z</time>
      </trkpt>
      <trkpt lat="43.66862" lon="5.86465">
        <ele>470</ele>
        <time>2016-01-30T10:49:12.263Z</time>
      </trkpt>
      <trkpt lat="43.6687" lon="5.86457">
        <ele>469</ele>
        <time>2016-01-30T10:49:14.291Z</time>
      </trkpt>
      <trkpt lat="43.66873" lon="5.86453">
        <ele>469</ele>
        <time>2016-01-30T10:49:15.268Z</time>
      </trkpt>
      <trkpt lat="43.66875" lon="5.86448">
        <ele>469</ele>
        <time>2016-01-30T10:49:16.292Z</time>
      </trkpt>
      <trkpt lat="43.66877" lon="5.86442">
        <ele>469</ele>
        <time>2016-01-30T10:49:17.267Z</time>
      </trkpt>
      <trkpt lat="43.66882" lon="5.86435">
        <ele>469</ele>
        <time>2016-01-30T10:49:19.318Z</time>
      </trkpt>
      <trkpt lat="43.66885" lon="5.86434">
        <ele>469</ele>
        <time>2016-01-30T10:49:20.268Z</time>
      </trkpt>
      <trkpt lat="43.66892" lon="5.86435">
        <ele>469</ele>
        <time>2016-01-30T10:49:22.292Z</time>
      </trkpt>
      <trkpt lat="43.66895" lon="5.86437">
        <ele>469</ele>
        <time>2016-01-30T10:49:23.266Z</time>
      </trkpt>
      <trkpt lat="43.66901" lon="5.86439">
        <ele>470</ele>
        <time>2016-01-30T10:49:25.294Z</time>
      </trkpt>
      <trkpt lat="43.66904" lon="5.86441">
        <ele>470</ele>
        <time>2016-01-30T10:49:26.267Z</time>
      </trkpt>
      <trkpt lat="43.66911" lon="5.86445">
        <ele>471</ele>
        <time>2016-01-30T10:49:28.291Z</time>
      </trkpt>
      <trkpt lat="43.66914" lon="5.86447">
        <ele>471</ele>
        <time>2016-01-30T10:49:29.266Z</time>
      </trkpt>
      <trkpt lat="43.66921" lon="5.86449">
        <ele>471</ele>
        <time>2016-01-30T10:49:31.345Z</time>
      </trkpt>
      <trkpt lat="43.66924" lon="5.86451">
        <ele>471</ele>
        <time>2016-01-30T10:49:32.262Z</time>
      </trkpt>
      <trkpt lat="43.66931" lon="5.86453">
        <ele>471</ele>
        <time>2016-01-30T10:49:34.294Z</time>
      </trkpt>
      <trkpt lat="43.66935" lon="5.86454">
        <ele>471</ele>
        <time>2016-01-30T10:49:35.267Z</time>
      </trkpt>
      <trkpt lat="43.66944" lon="5.86455">
        <ele>472</ele>
        <time>2016-01-30T10:49:37.291Z</time>
      </trkpt>
      <trkpt lat="43.66948" lon="5.86455">
        <ele>472</ele>
        <time>2016-01-30T10:49:38.267Z</time>
      </trkpt>
      <trkpt lat="43.66956" lon="5.86454">
        <ele>472</ele>
        <time>2016-01-30T10:49:40.295Z</time>
      </trkpt>
      <trkpt lat="43.66961" lon="5.86453">
        <ele>472</ele>
        <time>2016-01-30T10:49:41.267Z</time>
      </trkpt>
      <trkpt lat="43.66969" lon="5.86452">
        <ele>472</ele>
        <time>2016-01-30T10:49:43.540Z</time>
      </trkpt>
      <trkpt lat="43.66973" lon="5.8645">
        <ele>473</ele>
        <time>2016-01-30T10:49:44.266Z</time>
      </trkpt>
      <trkpt lat="43.66981" lon="5.86447">
        <ele>472</ele>
        <time>2016-01-30T10:49:46.296Z</time>
      </trkpt>
      <trkpt lat="43.66984" lon="5.86446">
        <ele>472</ele>
        <time>2016-01-30T10:49:47.266Z</time>
      </trkpt>
      <trkpt lat="43.66992" lon="5.86442">
        <ele>472</ele>
        <time>2016-01-30T10:49:49.286Z</time>
      </trkpt>
      <trkpt lat="43.66996" lon="5.8644">
        <ele>472</ele>
        <time>2016-01-30T10:49:50.265Z</time>
      </trkpt>
      <trkpt lat="43.67004" lon="5.86434">
        <ele>471</ele>
        <time>2016-01-30T10:49:52.294Z</time>
      </trkpt>
      <trkpt lat="43.67007" lon="5.86431">
        <ele>471</ele>
        <time>2016-01-30T10:49:53.267Z</time>
      </trkpt>
      <trkpt lat="43.67011" lon="5.86428">
        <ele>471</ele>
        <time>2016-01-30T10:49:54.540Z</time>
      </trkpt>
      <trkpt lat="43.67015" lon="5.86424">
        <ele>471</ele>
        <time>2016-01-30T10:49:55.262Z</time>
      </trkpt>
      <trkpt lat="43.67018" lon="5.86419">
        <ele>470</ele>
        <time>2016-01-30T10:49:56.290Z</time>
      </trkpt>
      <trkpt lat="43.67022" lon="5.86415">
        <ele>470</ele>
        <time>2016-01-30T10:49:57.267Z</time>
      </trkpt>
      <trkpt lat="43.67025" lon="5.86408">
        <ele>470</ele>
        <time>2016-01-30T10:49:58.285Z</time>
      </trkpt>
      <trkpt lat="43.67029" lon="5.86404">
        <ele>470</ele>
        <time>2016-01-30T10:49:59.265Z</time>
      </trkpt>
      <trkpt lat="43.67033" lon="5.86398">
        <ele>470</ele>
        <time>2016-01-30T10:50:00.293Z</time>
      </trkpt>
      <trkpt lat="43.67037" lon="5.86394">
        <ele>469</ele>
        <time>2016-01-30T10:50:01.265Z</time>
      </trkpt>
      <trkpt lat="43.67041" lon="5.8639">
        <ele>469</ele>
        <time>2016-01-30T10:50:02.335Z</time>
      </trkpt>
      <trkpt lat="43.67046" lon="5.86386">
        <ele>469</ele>
        <time>2016-01-30T10:50:03.266Z</time>
      </trkpt>
      <trkpt lat="43.67051" lon="5.86383">
        <ele>468</ele>
        <time>2016-01-30T10:50:04.294Z</time>
      </trkpt>
      <trkpt lat="43.67058" lon="5.8638">
        <ele>468</ele>
        <time>2016-01-30T10:50:05.267Z</time>
      </trkpt>
      <trkpt lat="43.67063" lon="5.86378">
        <ele>467</ele>
        <time>2016-01-30T10:50:06.291Z</time>
      </trkpt>
      <trkpt lat="43.67069" lon="5.86374">
        <ele>467</ele>
        <time>2016-01-30T10:50:07.265Z</time>
      </trkpt>
      <trkpt lat="43.67075" lon="5.8637">
        <ele>467</ele>
        <time>2016-01-30T10:50:08.291Z</time>
      </trkpt>
      <trkpt lat="43.67079" lon="5.86366">
        <ele>467</ele>
        <time>2016-01-30T10:50:09.267Z</time>
      </trkpt>
      <trkpt lat="43.67084" lon="5.8636">
        <ele>466</ele>
        <time>2016-01-30T10:50:10.317Z</time>
      </trkpt>
      <trkpt lat="43.67088" lon="5.86354">
        <ele>466</ele>
        <time>2016-01-30T10:50:11.266Z</time>
      </trkpt>
      <trkpt lat="43.67092" lon="5.86349">
        <ele>465</ele>
        <time>2016-01-30T10:50:12.291Z</time>
      </trkpt>
      <trkpt lat="43.67096" lon="5.86342">
        <ele>465</ele>
        <time>2016-01-30T10:50:13.266Z</time>
      </trkpt>
      <trkpt lat="43.67099" lon="5.86336">
        <ele>465</ele>
        <time>2016-01-30T10:50:14.292Z</time>
      </trkpt>
      <trkpt lat="43.67103" lon="5.8633">
        <ele>464</ele>
        <time>2016-01-30T10:50:15.267Z</time>
      </trkpt>
      <trkpt lat="43.67106" lon="5.86324">
        <ele>464</ele>
        <time>2016-01-30T10:50:16.291Z</time>
      </trkpt>
      <trkpt lat="43.6711" lon="5.86318">
        <ele>464</ele>
        <time>2016-01-30T10:50:17.261Z</time>
      </trkpt>
      <trkpt lat="43.67114" lon="5.86313">
        <ele>465</ele>
        <time>2016-01-30T10:50:18.291Z</time>
      </trkpt>
      <trkpt lat="43.67117" lon="5.86308">
        <ele>465</ele>
        <time>2016-01-30T10:50:19.266Z</time>
      </trkpt>
      <trkpt lat="43.67124" lon="5.86301">
        <ele>465</ele>
        <time>2016-01-30T10:50:21.286Z</time>
      </trkpt>
      <trkpt lat="43.67128" lon="5.86298">
        <ele>464</ele>
        <time>2016-01-30T10:50:22.266Z</time>
      </trkpt>
      <trkpt lat="43.67133" lon="5.86295">
        <ele>464</ele>
        <time>2016-01-30T10:50:23.302Z</time>
      </trkpt>
      <trkpt lat="43.67138" lon="5.86292">
        <ele>464</ele>
        <time>2016-01-30T10:50:24.266Z</time>
      </trkpt>
      <trkpt lat="43.67142" lon="5.8629">
        <ele>464</ele>
        <time>2016-01-30T10:50:25.291Z</time>
      </trkpt>
      <trkpt lat="43.67146" lon="5.86287">
        <ele>464</ele>
        <time>2016-01-30T10:50:26.292Z</time>
      </trkpt>
      <trkpt lat="43.6715" lon="5.86285">
        <ele>464</ele>
        <time>2016-01-30T10:50:27.290Z</time>
      </trkpt>
      <trkpt lat="43.67154" lon="5.86281">
        <ele>464</ele>
        <time>2016-01-30T10:50:28.472Z</time>
      </trkpt>
      <trkpt lat="43.67159" lon="5.86278">
        <ele>463</ele>
        <time>2016-01-30T10:50:29.287Z</time>
      </trkpt>
      <trkpt lat="43.67162" lon="5.86275">
        <ele>463</ele>
        <time>2016-01-30T10:50:30.262Z</time>
      </trkpt>
      <trkpt lat="43.67166" lon="5.86272">
        <ele>464</ele>
        <time>2016-01-30T10:50:31.294Z</time>
      </trkpt>
      <trkpt lat="43.6717" lon="5.86269">
        <ele>465</ele>
        <time>2016-01-30T10:50:32.266Z</time>
      </trkpt>
      <trkpt lat="43.67177" lon="5.86262">
        <ele>465</ele>
        <time>2016-01-30T10:50:34.292Z</time>
      </trkpt>
      <trkpt lat="43.6718" lon="5.8626">
        <ele>466</ele>
        <time>2016-01-30T10:50:35.266Z</time>
      </trkpt>
      <trkpt lat="43.67186" lon="5.86254">
        <ele>466</ele>
        <time>2016-01-30T10:50:37.323Z</time>
      </trkpt>
      <trkpt lat="43.67188" lon="5.86251">
        <ele>466</ele>
        <time>2016-01-30T10:50:38.261Z</time>
      </trkpt>
      <trkpt lat="43.67192" lon="5.86244">
        <ele>466</ele>
        <time>2016-01-30T10:50:40.286Z</time>
      </trkpt>
      <trkpt lat="43.67193" lon="5.86241">
        <ele>466</ele>
        <time>2016-01-30T10:50:41.266Z</time>
      </trkpt>
      <trkpt lat="43.67199" lon="5.86235">
        <ele>466</ele>
        <time>2016-01-30T10:50:44.293Z</time>
      </trkpt>
      <trkpt lat="43.67201" lon="5.86233">
        <ele>466</ele>
        <time>2016-01-30T10:50:45.268Z</time>
      </trkpt>
      <trkpt lat="43.67199" lon="5.8622">
        <ele>467</ele>
        <time>2016-01-30T10:52:30.291Z</time>
      </trkpt>
      <trkpt lat="43.67198" lon="5.86218">
        <ele>467</ele>
        <time>2016-01-30T10:52:31.267Z</time>
      </trkpt>
      <trkpt lat="43.67194" lon="5.86208">
        <ele>466</ele>
        <time>2016-01-30T10:54:13.291Z</time>
      </trkpt>
      <trkpt lat="43.67193" lon="5.86207">
        <ele>467</ele>
        <time>2016-01-30T10:54:14.268Z</time>
      </trkpt>
      <trkpt lat="43.67189" lon="5.86196">
        <ele>467</ele>
        <time>2016-01-30T10:54:19.291Z</time>
      </trkpt>
      <trkpt lat="43.6719" lon="5.86193">
        <ele>466</ele>
        <time>2016-01-30T10:54:20.255Z</time>
      </trkpt>
      <trkpt lat="43.67192" lon="5.86184">
        <ele>467</ele>
        <time>2016-01-30T10:54:22.291Z</time>
      </trkpt>
      <trkpt lat="43.67192" lon="5.8618">
        <ele>467</ele>
        <time>2016-01-30T10:54:23.268Z</time>
      </trkpt>
      <trkpt lat="43.67185" lon="5.86173">
        <ele>467</ele>
        <time>2016-01-30T10:54:28.295Z</time>
      </trkpt>
      <trkpt lat="43.67183" lon="5.86173">
        <ele>467</ele>
        <time>2016-01-30T10:54:29.267Z</time>
      </trkpt>
      <trkpt lat="43.67184" lon="5.86162">
        <ele>468</ele>
        <time>2016-01-30T10:54:35.295Z</time>
      </trkpt>
      <trkpt lat="43.67185" lon="5.8616">
        <ele>468</ele>
        <time>2016-01-30T10:54:36.264Z</time>
      </trkpt>
      <trkpt lat="43.67189" lon="5.86152">
        <ele>469</ele>
        <time>2016-01-30T10:54:41.288Z</time>
      </trkpt>
      <trkpt lat="43.6719" lon="5.8615">
        <ele>469</ele>
        <time>2016-01-30T10:54:42.268Z</time>
      </trkpt>
      <trkpt lat="43.67195" lon="5.86141">
        <ele>471</ele>
        <time>2016-01-30T10:54:48.319Z</time>
      </trkpt>
      <trkpt lat="43.67196" lon="5.8614">
        <ele>471</ele>
        <time>2016-01-30T10:54:49.263Z</time>
      </trkpt>
      <trkpt lat="43.67201" lon="5.8613">
        <ele>471</ele>
        <time>2016-01-30T10:54:56.291Z</time>
      </trkpt>
      <trkpt lat="43.67201" lon="5.86129">
        <ele>471</ele>
        <time>2016-01-30T10:54:57.256Z</time>
      </trkpt>
      <trkpt lat="43.67194" lon="5.86135">
        <ele>473</ele>
        <time>2016-01-30T10:55:18.290Z</time>
      </trkpt>
      <trkpt lat="43.67193" lon="5.86134">
        <ele>472</ele>
        <time>2016-01-30T10:55:19.266Z</time>
      </trkpt>
      <trkpt lat="43.67187" lon="5.86126">
        <ele>473</ele>
        <time>2016-01-30T10:55:34.298Z</time>
      </trkpt>
      <trkpt lat="43.67187" lon="5.86125">
        <ele>473</ele>
        <time>2016-01-30T10:55:35.267Z</time>
      </trkpt>
      <trkpt lat="43.67179" lon="5.8612">
        <ele>472</ele>
        <time>2016-01-30T10:55:56.278Z</time>
      </trkpt>
      <trkpt lat="43.67179" lon="5.86119">
        <ele>472</ele>
        <time>2016-01-30T10:55:57.251Z</time>
      </trkpt>
      <trkpt lat="43.6718" lon="5.86119">
        <ele>474</ele>
        <time>2016-01-30T10:58:40.049Z</time>
      </trkpt>
    </trkseg>
  </trk>
</gpx>